<?xml version="1.0" encoding="UTF-8" standalone="no" ?>
<gpx xmlns="http://www.topografix.com/GPX/1/1" xmlns:xsi="http://www.w3.org/2001/XMLSchema-instance" xsi:schemaLocation="http://www.topografix.com/GPX/1/1 http://www.topografix.com/GPX/1/1/gpx.xsd" version="1.1" creator="VisuGPX - https://www.visugpx.com">
  <metadata>
    <name>VTT de Beaumont a Cousolre</name>
    <desc><![CDATA[Voilà un VTT entre la Belgique et la France le départ du VTT se fait en Belgique à Beaumont .Vos découvrire les beaux sentiers de la région pour ensuite suivre les sentiers de la France dans la région de l'avesnois .Une randonnée au coeur de vallée de la hante .bon découvert.

Vidéo https://www.youtube.com/watch?v=opsK9Px1ndo]]></desc>
  </metadata>
  <trk>
    <name><![CDATA[SityTrail - Beaumont_20200815_090235]]></name>
    <trkseg>
      <trkpt lat="50.24184" lon="4.24832">
        <ele>218</ele>
        <time>2020-08-15T07:10:33Z</time>
      </trkpt>
      <trkpt lat="50.24185" lon="4.24837">
        <ele>218</ele>
        <time>2020-08-15T07:10:35Z</time>
      </trkpt>
      <trkpt lat="50.24187" lon="4.24842">
        <ele>218</ele>
        <time>2020-08-15T07:10:37Z</time>
      </trkpt>
      <trkpt lat="50.24189" lon="4.24845">
        <ele>218</ele>
        <time>2020-08-15T07:10:39Z</time>
      </trkpt>
      <trkpt lat="50.24189" lon="4.24849">
        <ele>219</ele>
        <time>2020-08-15T07:10:41Z</time>
      </trkpt>
      <trkpt lat="50.24188" lon="4.24853">
        <ele>219</ele>
        <time>2020-08-15T07:10:43Z</time>
      </trkpt>
      <trkpt lat="50.24185" lon="4.24857">
        <ele>219</ele>
        <time>2020-08-15T07:10:45Z</time>
      </trkpt>
      <trkpt lat="50.24182" lon="4.24857">
        <ele>219</ele>
        <time>2020-08-15T07:10:47Z</time>
      </trkpt>
      <trkpt lat="50.2418" lon="4.24855">
        <ele>220</ele>
        <time>2020-08-15T07:10:49Z</time>
      </trkpt>
      <trkpt lat="50.24177" lon="4.24851">
        <ele>220</ele>
        <time>2020-08-15T07:10:51Z</time>
      </trkpt>
      <trkpt lat="50.24175" lon="4.24848">
        <ele>220</ele>
        <time>2020-08-15T07:10:53Z</time>
      </trkpt>
      <trkpt lat="50.24172" lon="4.24844">
        <ele>220</ele>
        <time>2020-08-15T07:10:55Z</time>
      </trkpt>
      <trkpt lat="50.24168" lon="4.2484">
        <ele>220</ele>
        <time>2020-08-15T07:10:57Z</time>
      </trkpt>
      <trkpt lat="50.24164" lon="4.24838">
        <ele>220</ele>
        <time>2020-08-15T07:10:59Z</time>
      </trkpt>
      <trkpt lat="50.24159" lon="4.24836">
        <ele>220</ele>
        <time>2020-08-15T07:11:01Z</time>
      </trkpt>
      <trkpt lat="50.24155" lon="4.24834">
        <ele>220</ele>
        <time>2020-08-15T07:11:03Z</time>
      </trkpt>
      <trkpt lat="50.2415" lon="4.24832">
        <ele>219</ele>
        <time>2020-08-15T07:11:05Z</time>
      </trkpt>
      <trkpt lat="50.24145" lon="4.2483">
        <ele>219</ele>
        <time>2020-08-15T07:11:07Z</time>
      </trkpt>
      <trkpt lat="50.2414" lon="4.24827">
        <ele>219</ele>
        <time>2020-08-15T07:11:09Z</time>
      </trkpt>
      <trkpt lat="50.24135" lon="4.24825">
        <ele>219</ele>
        <time>2020-08-15T07:11:11Z</time>
      </trkpt>
      <trkpt lat="50.2413" lon="4.24823">
        <ele>219</ele>
        <time>2020-08-15T07:11:13Z</time>
      </trkpt>
      <trkpt lat="50.24126" lon="4.2482">
        <ele>219</ele>
        <time>2020-08-15T07:11:15Z</time>
      </trkpt>
      <trkpt lat="50.2412" lon="4.24817">
        <ele>220</ele>
        <time>2020-08-15T07:11:17Z</time>
      </trkpt>
      <trkpt lat="50.24115" lon="4.24814">
        <ele>220</ele>
        <time>2020-08-15T07:11:19Z</time>
      </trkpt>
      <trkpt lat="50.2411" lon="4.24811">
        <ele>220</ele>
        <time>2020-08-15T07:11:21Z</time>
      </trkpt>
      <trkpt lat="50.24104" lon="4.24808">
        <ele>220</ele>
        <time>2020-08-15T07:11:23Z</time>
      </trkpt>
      <trkpt lat="50.24099" lon="4.24804">
        <ele>220</ele>
        <time>2020-08-15T07:11:25Z</time>
      </trkpt>
      <trkpt lat="50.24094" lon="4.24801">
        <ele>221</ele>
        <time>2020-08-15T07:11:27Z</time>
      </trkpt>
      <trkpt lat="50.24088" lon="4.24799">
        <ele>221</ele>
        <time>2020-08-15T07:11:29Z</time>
      </trkpt>
      <trkpt lat="50.24083" lon="4.24797">
        <ele>221</ele>
        <time>2020-08-15T07:11:31Z</time>
      </trkpt>
      <trkpt lat="50.24077" lon="4.24797">
        <ele>221</ele>
        <time>2020-08-15T07:11:33Z</time>
      </trkpt>
      <trkpt lat="50.24071" lon="4.24797">
        <ele>221</ele>
        <time>2020-08-15T07:11:35Z</time>
      </trkpt>
      <trkpt lat="50.24065" lon="4.24797">
        <ele>221</ele>
        <time>2020-08-15T07:11:37Z</time>
      </trkpt>
      <trkpt lat="50.24059" lon="4.24799">
        <ele>221</ele>
        <time>2020-08-15T07:11:39Z</time>
      </trkpt>
      <trkpt lat="50.24053" lon="4.24801">
        <ele>221</ele>
        <time>2020-08-15T07:11:41Z</time>
      </trkpt>
      <trkpt lat="50.24047" lon="4.24806">
        <ele>221</ele>
        <time>2020-08-15T07:11:43Z</time>
      </trkpt>
      <trkpt lat="50.24043" lon="4.24812">
        <ele>221</ele>
        <time>2020-08-15T07:11:45Z</time>
      </trkpt>
      <trkpt lat="50.24041" lon="4.2482">
        <ele>221</ele>
        <time>2020-08-15T07:11:47Z</time>
      </trkpt>
      <trkpt lat="50.24041" lon="4.24829">
        <ele>221</ele>
        <time>2020-08-15T07:11:49Z</time>
      </trkpt>
      <trkpt lat="50.24043" lon="4.24838">
        <ele>221</ele>
        <time>2020-08-15T07:11:51Z</time>
      </trkpt>
      <trkpt lat="50.24043" lon="4.24849">
        <ele>222</ele>
        <time>2020-08-15T07:11:53Z</time>
      </trkpt>
      <trkpt lat="50.24042" lon="4.2486">
        <ele>222</ele>
        <time>2020-08-15T07:11:55Z</time>
      </trkpt>
      <trkpt lat="50.24042" lon="4.24871">
        <ele>222</ele>
        <time>2020-08-15T07:11:57Z</time>
      </trkpt>
      <trkpt lat="50.24042" lon="4.24883">
        <ele>221</ele>
        <time>2020-08-15T07:11:59Z</time>
      </trkpt>
      <trkpt lat="50.24042" lon="4.24895">
        <ele>221</ele>
        <time>2020-08-15T07:12:01Z</time>
      </trkpt>
      <trkpt lat="50.24041" lon="4.24907">
        <ele>221</ele>
        <time>2020-08-15T07:12:03Z</time>
      </trkpt>
      <trkpt lat="50.24041" lon="4.24919">
        <ele>221</ele>
        <time>2020-08-15T07:12:05Z</time>
      </trkpt>
      <trkpt lat="50.2404" lon="4.24932">
        <ele>221</ele>
        <time>2020-08-15T07:12:07Z</time>
      </trkpt>
      <trkpt lat="50.2404" lon="4.24945">
        <ele>221</ele>
        <time>2020-08-15T07:12:09Z</time>
      </trkpt>
      <trkpt lat="50.2404" lon="4.24958">
        <ele>221</ele>
        <time>2020-08-15T07:12:11Z</time>
      </trkpt>
      <trkpt lat="50.2404" lon="4.24972">
        <ele>221</ele>
        <time>2020-08-15T07:12:13Z</time>
      </trkpt>
      <trkpt lat="50.24041" lon="4.24986">
        <ele>221</ele>
        <time>2020-08-15T07:12:15Z</time>
      </trkpt>
      <trkpt lat="50.24041" lon="4.25">
        <ele>221</ele>
        <time>2020-08-15T07:12:17Z</time>
      </trkpt>
      <trkpt lat="50.24042" lon="4.25014">
        <ele>221</ele>
        <time>2020-08-15T07:12:19Z</time>
      </trkpt>
      <trkpt lat="50.24043" lon="4.25027">
        <ele>222</ele>
        <time>2020-08-15T07:12:21Z</time>
      </trkpt>
      <trkpt lat="50.24043" lon="4.25041">
        <ele>222</ele>
        <time>2020-08-15T07:12:23Z</time>
      </trkpt>
      <trkpt lat="50.24044" lon="4.25054">
        <ele>222</ele>
        <time>2020-08-15T07:12:25Z</time>
      </trkpt>
      <trkpt lat="50.24046" lon="4.25068">
        <ele>222</ele>
        <time>2020-08-15T07:12:27Z</time>
      </trkpt>
      <trkpt lat="50.24048" lon="4.25081">
        <ele>223</ele>
        <time>2020-08-15T07:12:29Z</time>
      </trkpt>
      <trkpt lat="50.24049" lon="4.25095">
        <ele>223</ele>
        <time>2020-08-15T07:12:31Z</time>
      </trkpt>
      <trkpt lat="50.24052" lon="4.25108">
        <ele>224</ele>
        <time>2020-08-15T07:12:33Z</time>
      </trkpt>
      <trkpt lat="50.24054" lon="4.25122">
        <ele>224</ele>
        <time>2020-08-15T07:12:35Z</time>
      </trkpt>
      <trkpt lat="50.24056" lon="4.25135">
        <ele>224</ele>
        <time>2020-08-15T07:12:37Z</time>
      </trkpt>
      <trkpt lat="50.24058" lon="4.25148">
        <ele>224</ele>
        <time>2020-08-15T07:12:39Z</time>
      </trkpt>
      <trkpt lat="50.2406" lon="4.25162">
        <ele>227</ele>
        <time>2020-08-15T07:12:41Z</time>
      </trkpt>
      <trkpt lat="50.24062" lon="4.25175">
        <ele>227</ele>
        <time>2020-08-15T07:12:43Z</time>
      </trkpt>
      <trkpt lat="50.24064" lon="4.25189">
        <ele>226</ele>
        <time>2020-08-15T07:12:45Z</time>
      </trkpt>
      <trkpt lat="50.24066" lon="4.25203">
        <ele>226</ele>
        <time>2020-08-15T07:12:47Z</time>
      </trkpt>
      <trkpt lat="50.24068" lon="4.25217">
        <ele>228</ele>
        <time>2020-08-15T07:12:49Z</time>
      </trkpt>
      <trkpt lat="50.24069" lon="4.25231">
        <ele>228</ele>
        <time>2020-08-15T07:12:51Z</time>
      </trkpt>
      <trkpt lat="50.24069" lon="4.25246">
        <ele>226</ele>
        <time>2020-08-15T07:12:53Z</time>
      </trkpt>
      <trkpt lat="50.24069" lon="4.2526">
        <ele>226</ele>
        <time>2020-08-15T07:12:55Z</time>
      </trkpt>
      <trkpt lat="50.24069" lon="4.25275">
        <ele>225</ele>
        <time>2020-08-15T07:12:57Z</time>
      </trkpt>
      <trkpt lat="50.24068" lon="4.2529">
        <ele>225</ele>
        <time>2020-08-15T07:12:59Z</time>
      </trkpt>
      <trkpt lat="50.24067" lon="4.25305">
        <ele>225</ele>
        <time>2020-08-15T07:13:01Z</time>
      </trkpt>
      <trkpt lat="50.24065" lon="4.25319">
        <ele>225</ele>
        <time>2020-08-15T07:13:03Z</time>
      </trkpt>
      <trkpt lat="50.24063" lon="4.25333">
        <ele>224</ele>
        <time>2020-08-15T07:13:05Z</time>
      </trkpt>
      <trkpt lat="50.2406" lon="4.25347">
        <ele>224</ele>
        <time>2020-08-15T07:13:07Z</time>
      </trkpt>
      <trkpt lat="50.24057" lon="4.25361">
        <ele>224</ele>
        <time>2020-08-15T07:13:09Z</time>
      </trkpt>
      <trkpt lat="50.24056" lon="4.25375">
        <ele>224</ele>
        <time>2020-08-15T07:13:11Z</time>
      </trkpt>
      <trkpt lat="50.24054" lon="4.25389">
        <ele>224</ele>
        <time>2020-08-15T07:13:13Z</time>
      </trkpt>
      <trkpt lat="50.24053" lon="4.25402">
        <ele>224</ele>
        <time>2020-08-15T07:13:15Z</time>
      </trkpt>
      <trkpt lat="50.24053" lon="4.25416">
        <ele>224</ele>
        <time>2020-08-15T07:13:17Z</time>
      </trkpt>
      <trkpt lat="50.24054" lon="4.25431">
        <ele>224</ele>
        <time>2020-08-15T07:13:19Z</time>
      </trkpt>
      <trkpt lat="50.24054" lon="4.25445">
        <ele>224</ele>
        <time>2020-08-15T07:13:21Z</time>
      </trkpt>
      <trkpt lat="50.24056" lon="4.2546">
        <ele>224</ele>
        <time>2020-08-15T07:13:23Z</time>
      </trkpt>
      <trkpt lat="50.24056" lon="4.25475">
        <ele>224</ele>
        <time>2020-08-15T07:13:25Z</time>
      </trkpt>
      <trkpt lat="50.24057" lon="4.25489">
        <ele>224</ele>
        <time>2020-08-15T07:13:27Z</time>
      </trkpt>
      <trkpt lat="50.24058" lon="4.25504">
        <ele>224</ele>
        <time>2020-08-15T07:13:29Z</time>
      </trkpt>
      <trkpt lat="50.24058" lon="4.25518">
        <ele>224</ele>
        <time>2020-08-15T07:13:31Z</time>
      </trkpt>
      <trkpt lat="50.24058" lon="4.25532">
        <ele>224</ele>
        <time>2020-08-15T07:13:33Z</time>
      </trkpt>
      <trkpt lat="50.24057" lon="4.25545">
        <ele>224</ele>
        <time>2020-08-15T07:13:35Z</time>
      </trkpt>
      <trkpt lat="50.24056" lon="4.25559">
        <ele>224</ele>
        <time>2020-08-15T07:13:37Z</time>
      </trkpt>
      <trkpt lat="50.24054" lon="4.25573">
        <ele>224</ele>
        <time>2020-08-15T07:13:39Z</time>
      </trkpt>
      <trkpt lat="50.24053" lon="4.25587">
        <ele>224</ele>
        <time>2020-08-15T07:13:41Z</time>
      </trkpt>
      <trkpt lat="50.24051" lon="4.25601">
        <ele>225</ele>
        <time>2020-08-15T07:13:43Z</time>
      </trkpt>
      <trkpt lat="50.24048" lon="4.25615">
        <ele>225</ele>
        <time>2020-08-15T07:13:45Z</time>
      </trkpt>
      <trkpt lat="50.24045" lon="4.2563">
        <ele>225</ele>
        <time>2020-08-15T07:13:47Z</time>
      </trkpt>
      <trkpt lat="50.24041" lon="4.25644">
        <ele>224</ele>
        <time>2020-08-15T07:13:49Z</time>
      </trkpt>
      <trkpt lat="50.24037" lon="4.25659">
        <ele>225</ele>
        <time>2020-08-15T07:13:51Z</time>
      </trkpt>
      <trkpt lat="50.24033" lon="4.25674">
        <ele>225</ele>
        <time>2020-08-15T07:13:53Z</time>
      </trkpt>
      <trkpt lat="50.24029" lon="4.2569">
        <ele>224</ele>
        <time>2020-08-15T07:13:55Z</time>
      </trkpt>
      <trkpt lat="50.24025" lon="4.25707">
        <ele>224</ele>
        <time>2020-08-15T07:13:57Z</time>
      </trkpt>
      <trkpt lat="50.24023" lon="4.25723">
        <ele>223</ele>
        <time>2020-08-15T07:13:59Z</time>
      </trkpt>
      <trkpt lat="50.24021" lon="4.2574">
        <ele>222</ele>
        <time>2020-08-15T07:14:01Z</time>
      </trkpt>
      <trkpt lat="50.24019" lon="4.25758">
        <ele>222</ele>
        <time>2020-08-15T07:14:03Z</time>
      </trkpt>
      <trkpt lat="50.24018" lon="4.25774">
        <ele>223</ele>
        <time>2020-08-15T07:14:05Z</time>
      </trkpt>
      <trkpt lat="50.24017" lon="4.25791">
        <ele>223</ele>
        <time>2020-08-15T07:14:07Z</time>
      </trkpt>
      <trkpt lat="50.24015" lon="4.25807">
        <ele>222</ele>
        <time>2020-08-15T07:14:09Z</time>
      </trkpt>
      <trkpt lat="50.24013" lon="4.25823">
        <ele>220</ele>
        <time>2020-08-15T07:14:11Z</time>
      </trkpt>
      <trkpt lat="50.24011" lon="4.25838">
        <ele>220</ele>
        <time>2020-08-15T07:14:13Z</time>
      </trkpt>
      <trkpt lat="50.24008" lon="4.25853">
        <ele>222</ele>
        <time>2020-08-15T07:14:15Z</time>
      </trkpt>
      <trkpt lat="50.24006" lon="4.25867">
        <ele>222</ele>
        <time>2020-08-15T07:14:17Z</time>
      </trkpt>
      <trkpt lat="50.24003" lon="4.25882">
        <ele>222</ele>
        <time>2020-08-15T07:14:19Z</time>
      </trkpt>
      <trkpt lat="50.24001" lon="4.25898">
        <ele>222</ele>
        <time>2020-08-15T07:14:21Z</time>
      </trkpt>
      <trkpt lat="50.23999" lon="4.25914">
        <ele>223</ele>
        <time>2020-08-15T07:14:23Z</time>
      </trkpt>
      <trkpt lat="50.23998" lon="4.25931">
        <ele>224</ele>
        <time>2020-08-15T07:14:25Z</time>
      </trkpt>
      <trkpt lat="50.23998" lon="4.25948">
        <ele>224</ele>
        <time>2020-08-15T07:14:27Z</time>
      </trkpt>
      <trkpt lat="50.23999" lon="4.25965">
        <ele>223</ele>
        <time>2020-08-15T07:14:29Z</time>
      </trkpt>
      <trkpt lat="50.24001" lon="4.25981">
        <ele>223</ele>
        <time>2020-08-15T07:14:31Z</time>
      </trkpt>
      <trkpt lat="50.24004" lon="4.25997">
        <ele>223</ele>
        <time>2020-08-15T07:14:33Z</time>
      </trkpt>
      <trkpt lat="50.24007" lon="4.26012">
        <ele>223</ele>
        <time>2020-08-15T07:14:35Z</time>
      </trkpt>
      <trkpt lat="50.24011" lon="4.26028">
        <ele>223</ele>
        <time>2020-08-15T07:14:37Z</time>
      </trkpt>
      <trkpt lat="50.24015" lon="4.26043">
        <ele>222</ele>
        <time>2020-08-15T07:14:39Z</time>
      </trkpt>
      <trkpt lat="50.2402" lon="4.26058">
        <ele>222</ele>
        <time>2020-08-15T07:14:41Z</time>
      </trkpt>
      <trkpt lat="50.24024" lon="4.26073">
        <ele>222</ele>
        <time>2020-08-15T07:14:43Z</time>
      </trkpt>
      <trkpt lat="50.24027" lon="4.26089">
        <ele>222</ele>
        <time>2020-08-15T07:14:45Z</time>
      </trkpt>
      <trkpt lat="50.24029" lon="4.26105">
        <ele>221</ele>
        <time>2020-08-15T07:14:47Z</time>
      </trkpt>
      <trkpt lat="50.24028" lon="4.26121">
        <ele>221</ele>
        <time>2020-08-15T07:14:49Z</time>
      </trkpt>
      <trkpt lat="50.24027" lon="4.26137">
        <ele>223</ele>
        <time>2020-08-15T07:14:51Z</time>
      </trkpt>
      <trkpt lat="50.24025" lon="4.26152">
        <ele>223</ele>
        <time>2020-08-15T07:14:53Z</time>
      </trkpt>
      <trkpt lat="50.24023" lon="4.26167">
        <ele>222</ele>
        <time>2020-08-15T07:14:55Z</time>
      </trkpt>
      <trkpt lat="50.2402" lon="4.26182">
        <ele>225</ele>
        <time>2020-08-15T07:14:57Z</time>
      </trkpt>
      <trkpt lat="50.24019" lon="4.26197">
        <ele>225</ele>
        <time>2020-08-15T07:14:59Z</time>
      </trkpt>
      <trkpt lat="50.24017" lon="4.26212">
        <ele>225</ele>
        <time>2020-08-15T07:15:01Z</time>
      </trkpt>
      <trkpt lat="50.24016" lon="4.26226">
        <ele>225</ele>
        <time>2020-08-15T07:15:03Z</time>
      </trkpt>
      <trkpt lat="50.24015" lon="4.26241">
        <ele>227</ele>
        <time>2020-08-15T07:15:05Z</time>
      </trkpt>
      <trkpt lat="50.24015" lon="4.26256">
        <ele>227</ele>
        <time>2020-08-15T07:15:07Z</time>
      </trkpt>
      <trkpt lat="50.24014" lon="4.26272">
        <ele>228</ele>
        <time>2020-08-15T07:15:09Z</time>
      </trkpt>
      <trkpt lat="50.24013" lon="4.26287">
        <ele>228</ele>
        <time>2020-08-15T07:15:11Z</time>
      </trkpt>
      <trkpt lat="50.24013" lon="4.26302">
        <ele>229</ele>
        <time>2020-08-15T07:15:13Z</time>
      </trkpt>
      <trkpt lat="50.24014" lon="4.26316">
        <ele>229</ele>
        <time>2020-08-15T07:15:15Z</time>
      </trkpt>
      <trkpt lat="50.24014" lon="4.26331">
        <ele>231</ele>
        <time>2020-08-15T07:15:17Z</time>
      </trkpt>
      <trkpt lat="50.24014" lon="4.26346">
        <ele>228</ele>
        <time>2020-08-15T07:15:19Z</time>
      </trkpt>
      <trkpt lat="50.24015" lon="4.26362">
        <ele>228</ele>
        <time>2020-08-15T07:15:21Z</time>
      </trkpt>
      <trkpt lat="50.24016" lon="4.26377">
        <ele>228</ele>
        <time>2020-08-15T07:15:23Z</time>
      </trkpt>
      <trkpt lat="50.24017" lon="4.26392">
        <ele>228</ele>
        <time>2020-08-15T07:15:25Z</time>
      </trkpt>
      <trkpt lat="50.24019" lon="4.26406">
        <ele>228</ele>
        <time>2020-08-15T07:15:27Z</time>
      </trkpt>
      <trkpt lat="50.24021" lon="4.26421">
        <ele>228</ele>
        <time>2020-08-15T07:15:29Z</time>
      </trkpt>
      <trkpt lat="50.24023" lon="4.26435">
        <ele>228</ele>
        <time>2020-08-15T07:15:31Z</time>
      </trkpt>
      <trkpt lat="50.24025" lon="4.2645">
        <ele>228</ele>
        <time>2020-08-15T07:15:33Z</time>
      </trkpt>
      <trkpt lat="50.24028" lon="4.26466">
        <ele>228</ele>
        <time>2020-08-15T07:15:35Z</time>
      </trkpt>
      <trkpt lat="50.2403" lon="4.26483">
        <ele>228</ele>
        <time>2020-08-15T07:15:37Z</time>
      </trkpt>
      <trkpt lat="50.24033" lon="4.265">
        <ele>227</ele>
        <time>2020-08-15T07:15:39Z</time>
      </trkpt>
      <trkpt lat="50.24035" lon="4.26517">
        <ele>227</ele>
        <time>2020-08-15T07:15:41Z</time>
      </trkpt>
      <trkpt lat="50.24039" lon="4.26534">
        <ele>227</ele>
        <time>2020-08-15T07:15:43Z</time>
      </trkpt>
      <trkpt lat="50.24043" lon="4.26551">
        <ele>226</ele>
        <time>2020-08-15T07:15:45Z</time>
      </trkpt>
      <trkpt lat="50.24046" lon="4.26569">
        <ele>226</ele>
        <time>2020-08-15T07:15:47Z</time>
      </trkpt>
      <trkpt lat="50.24051" lon="4.26586">
        <ele>225</ele>
        <time>2020-08-15T07:15:49Z</time>
      </trkpt>
      <trkpt lat="50.24054" lon="4.26603">
        <ele>225</ele>
        <time>2020-08-15T07:15:51Z</time>
      </trkpt>
      <trkpt lat="50.24058" lon="4.26619">
        <ele>225</ele>
        <time>2020-08-15T07:15:53Z</time>
      </trkpt>
      <trkpt lat="50.24061" lon="4.26635">
        <ele>224</ele>
        <time>2020-08-15T07:15:55Z</time>
      </trkpt>
      <trkpt lat="50.24064" lon="4.26651">
        <ele>224</ele>
        <time>2020-08-15T07:15:57Z</time>
      </trkpt>
      <trkpt lat="50.24067" lon="4.26666">
        <ele>225</ele>
        <time>2020-08-15T07:15:59Z</time>
      </trkpt>
      <trkpt lat="50.24069" lon="4.26681">
        <ele>225</ele>
        <time>2020-08-15T07:16:01Z</time>
      </trkpt>
      <trkpt lat="50.24071" lon="4.26696">
        <ele>224</ele>
        <time>2020-08-15T07:16:03Z</time>
      </trkpt>
      <trkpt lat="50.24074" lon="4.2671">
        <ele>225</ele>
        <time>2020-08-15T07:16:05Z</time>
      </trkpt>
      <trkpt lat="50.24076" lon="4.26724">
        <ele>225</ele>
        <time>2020-08-15T07:16:07Z</time>
      </trkpt>
      <trkpt lat="50.24078" lon="4.26738">
        <ele>225</ele>
        <time>2020-08-15T07:16:09Z</time>
      </trkpt>
      <trkpt lat="50.24081" lon="4.26753">
        <ele>225</ele>
        <time>2020-08-15T07:16:11Z</time>
      </trkpt>
      <trkpt lat="50.24082" lon="4.26767">
        <ele>224</ele>
        <time>2020-08-15T07:16:13Z</time>
      </trkpt>
      <trkpt lat="50.24085" lon="4.26781">
        <ele>224</ele>
        <time>2020-08-15T07:16:15Z</time>
      </trkpt>
      <trkpt lat="50.24087" lon="4.26796">
        <ele>225</ele>
        <time>2020-08-15T07:16:17Z</time>
      </trkpt>
      <trkpt lat="50.2409" lon="4.2681">
        <ele>225</ele>
        <time>2020-08-15T07:16:19Z</time>
      </trkpt>
      <trkpt lat="50.24092" lon="4.26824">
        <ele>225</ele>
        <time>2020-08-15T07:16:21Z</time>
      </trkpt>
      <trkpt lat="50.24091" lon="4.26838">
        <ele>225</ele>
        <time>2020-08-15T07:16:23Z</time>
      </trkpt>
      <trkpt lat="50.24086" lon="4.26851">
        <ele>226</ele>
        <time>2020-08-15T07:16:25Z</time>
      </trkpt>
      <trkpt lat="50.24078" lon="4.26862">
        <ele>226</ele>
        <time>2020-08-15T07:16:27Z</time>
      </trkpt>
      <trkpt lat="50.2407" lon="4.26872">
        <ele>226</ele>
        <time>2020-08-15T07:16:29Z</time>
      </trkpt>
      <trkpt lat="50.24062" lon="4.26881">
        <ele>228</ele>
        <time>2020-08-15T07:16:31Z</time>
      </trkpt>
      <trkpt lat="50.24054" lon="4.26889">
        <ele>228</ele>
        <time>2020-08-15T07:16:33Z</time>
      </trkpt>
      <trkpt lat="50.24046" lon="4.26898">
        <ele>228</ele>
        <time>2020-08-15T07:16:35Z</time>
      </trkpt>
      <trkpt lat="50.24037" lon="4.26906">
        <ele>228</ele>
        <time>2020-08-15T07:16:37Z</time>
      </trkpt>
      <trkpt lat="50.24028" lon="4.26914">
        <ele>228</ele>
        <time>2020-08-15T07:16:39Z</time>
      </trkpt>
      <trkpt lat="50.2402" lon="4.26921">
        <ele>228</ele>
        <time>2020-08-15T07:16:41Z</time>
      </trkpt>
      <trkpt lat="50.24011" lon="4.26928">
        <ele>229</ele>
        <time>2020-08-15T07:16:43Z</time>
      </trkpt>
      <trkpt lat="50.24002" lon="4.26935">
        <ele>229</ele>
        <time>2020-08-15T07:16:45Z</time>
      </trkpt>
      <trkpt lat="50.23993" lon="4.26942">
        <ele>229</ele>
        <time>2020-08-15T07:16:47Z</time>
      </trkpt>
      <trkpt lat="50.23985" lon="4.26949">
        <ele>230</ele>
        <time>2020-08-15T07:16:49Z</time>
      </trkpt>
      <trkpt lat="50.23977" lon="4.26955">
        <ele>230</ele>
        <time>2020-08-15T07:16:51Z</time>
      </trkpt>
      <trkpt lat="50.23969" lon="4.26962">
        <ele>232</ele>
        <time>2020-08-15T07:16:53Z</time>
      </trkpt>
      <trkpt lat="50.2396" lon="4.26968">
        <ele>232</ele>
        <time>2020-08-15T07:16:55Z</time>
      </trkpt>
      <trkpt lat="50.23951" lon="4.26974">
        <ele>232</ele>
        <time>2020-08-15T07:16:57Z</time>
      </trkpt>
      <trkpt lat="50.23943" lon="4.2698">
        <ele>232</ele>
        <time>2020-08-15T07:16:59Z</time>
      </trkpt>
      <trkpt lat="50.23934" lon="4.26986">
        <ele>232</ele>
        <time>2020-08-15T07:17:01Z</time>
      </trkpt>
      <trkpt lat="50.23925" lon="4.26992">
        <ele>233</ele>
        <time>2020-08-15T07:17:03Z</time>
      </trkpt>
      <trkpt lat="50.23917" lon="4.26998">
        <ele>233</ele>
        <time>2020-08-15T07:17:05Z</time>
      </trkpt>
      <trkpt lat="50.23909" lon="4.27004">
        <ele>233</ele>
        <time>2020-08-15T07:17:07Z</time>
      </trkpt>
      <trkpt lat="50.23901" lon="4.2701">
        <ele>233</ele>
        <time>2020-08-15T07:17:09Z</time>
      </trkpt>
      <trkpt lat="50.23894" lon="4.27016">
        <ele>233</ele>
        <time>2020-08-15T07:17:11Z</time>
      </trkpt>
      <trkpt lat="50.23887" lon="4.27021">
        <ele>233</ele>
        <time>2020-08-15T07:17:13Z</time>
      </trkpt>
      <trkpt lat="50.23879" lon="4.27022">
        <ele>233</ele>
        <time>2020-08-15T07:17:15Z</time>
      </trkpt>
      <trkpt lat="50.23874" lon="4.27014">
        <ele>233</ele>
        <time>2020-08-15T07:17:17Z</time>
      </trkpt>
      <trkpt lat="50.23872" lon="4.27003">
        <ele>233</ele>
        <time>2020-08-15T07:17:19Z</time>
      </trkpt>
      <trkpt lat="50.23869" lon="4.26992">
        <ele>233</ele>
        <time>2020-08-15T07:17:21Z</time>
      </trkpt>
      <trkpt lat="50.23866" lon="4.2698">
        <ele>233</ele>
        <time>2020-08-15T07:17:23Z</time>
      </trkpt>
      <trkpt lat="50.23864" lon="4.26968">
        <ele>233</ele>
        <time>2020-08-15T07:17:25Z</time>
      </trkpt>
      <trkpt lat="50.23861" lon="4.26955">
        <ele>234</ele>
        <time>2020-08-15T07:17:27Z</time>
      </trkpt>
      <trkpt lat="50.23858" lon="4.26942">
        <ele>234</ele>
        <time>2020-08-15T07:17:29Z</time>
      </trkpt>
      <trkpt lat="50.23855" lon="4.26929">
        <ele>233</ele>
        <time>2020-08-15T07:17:31Z</time>
      </trkpt>
      <trkpt lat="50.23852" lon="4.26915">
        <ele>233</ele>
        <time>2020-08-15T07:17:33Z</time>
      </trkpt>
      <trkpt lat="50.2385" lon="4.26902">
        <ele>233</ele>
        <time>2020-08-15T07:17:35Z</time>
      </trkpt>
      <trkpt lat="50.23848" lon="4.26889">
        <ele>233</ele>
        <time>2020-08-15T07:17:37Z</time>
      </trkpt>
      <trkpt lat="50.23846" lon="4.26877">
        <ele>234</ele>
        <time>2020-08-15T07:17:39Z</time>
      </trkpt>
      <trkpt lat="50.23845" lon="4.26866">
        <ele>234</ele>
        <time>2020-08-15T07:17:41Z</time>
      </trkpt>
      <trkpt lat="50.23844" lon="4.26854">
        <ele>234</ele>
        <time>2020-08-15T07:17:43Z</time>
      </trkpt>
      <trkpt lat="50.23844" lon="4.26843">
        <ele>234</ele>
        <time>2020-08-15T07:17:45Z</time>
      </trkpt>
      <trkpt lat="50.23843" lon="4.26831">
        <ele>234</ele>
        <time>2020-08-15T07:17:47Z</time>
      </trkpt>
      <trkpt lat="50.23843" lon="4.2682">
        <ele>234</ele>
        <time>2020-08-15T07:17:49Z</time>
      </trkpt>
      <trkpt lat="50.23842" lon="4.26808">
        <ele>234</ele>
        <time>2020-08-15T07:17:51Z</time>
      </trkpt>
      <trkpt lat="50.23842" lon="4.26796">
        <ele>234</ele>
        <time>2020-08-15T07:17:53Z</time>
      </trkpt>
      <trkpt lat="50.2384" lon="4.26784">
        <ele>234</ele>
        <time>2020-08-15T07:17:55Z</time>
      </trkpt>
      <trkpt lat="50.23839" lon="4.26771">
        <ele>234</ele>
        <time>2020-08-15T07:17:57Z</time>
      </trkpt>
      <trkpt lat="50.23837" lon="4.26759">
        <ele>233</ele>
        <time>2020-08-15T07:17:59Z</time>
      </trkpt>
      <trkpt lat="50.23835" lon="4.26748">
        <ele>233</ele>
        <time>2020-08-15T07:18:01Z</time>
      </trkpt>
      <trkpt lat="50.23831" lon="4.26737">
        <ele>233</ele>
        <time>2020-08-15T07:18:03Z</time>
      </trkpt>
      <trkpt lat="50.23828" lon="4.26725">
        <ele>233</ele>
        <time>2020-08-15T07:18:05Z</time>
      </trkpt>
      <trkpt lat="50.23824" lon="4.26714">
        <ele>233</ele>
        <time>2020-08-15T07:18:07Z</time>
      </trkpt>
      <trkpt lat="50.23819" lon="4.26703">
        <ele>233</ele>
        <time>2020-08-15T07:18:09Z</time>
      </trkpt>
      <trkpt lat="50.23815" lon="4.26693">
        <ele>233</ele>
        <time>2020-08-15T07:18:11Z</time>
      </trkpt>
      <trkpt lat="50.2381" lon="4.26683">
        <ele>233</ele>
        <time>2020-08-15T07:18:13Z</time>
      </trkpt>
      <trkpt lat="50.23806" lon="4.26672">
        <ele>235</ele>
        <time>2020-08-15T07:18:15Z</time>
      </trkpt>
      <trkpt lat="50.23802" lon="4.26662">
        <ele>235</ele>
        <time>2020-08-15T07:18:17Z</time>
      </trkpt>
      <trkpt lat="50.23798" lon="4.26652">
        <ele>233</ele>
        <time>2020-08-15T07:18:19Z</time>
      </trkpt>
      <trkpt lat="50.23794" lon="4.26644">
        <ele>233</ele>
        <time>2020-08-15T07:18:21Z</time>
      </trkpt>
      <trkpt lat="50.2379" lon="4.26635">
        <ele>233</ele>
        <time>2020-08-15T07:18:23Z</time>
      </trkpt>
      <trkpt lat="50.23785" lon="4.26625">
        <ele>233</ele>
        <time>2020-08-15T07:18:25Z</time>
      </trkpt>
      <trkpt lat="50.23781" lon="4.26615">
        <ele>234</ele>
        <time>2020-08-15T07:18:27Z</time>
      </trkpt>
      <trkpt lat="50.23777" lon="4.26605">
        <ele>234</ele>
        <time>2020-08-15T07:18:29Z</time>
      </trkpt>
      <trkpt lat="50.23773" lon="4.26596">
        <ele>232</ele>
        <time>2020-08-15T07:18:31Z</time>
      </trkpt>
      <trkpt lat="50.23769" lon="4.26586">
        <ele>232</ele>
        <time>2020-08-15T07:18:33Z</time>
      </trkpt>
      <trkpt lat="50.23765" lon="4.26576">
        <ele>232</ele>
        <time>2020-08-15T07:18:35Z</time>
      </trkpt>
      <trkpt lat="50.23762" lon="4.26565">
        <ele>232</ele>
        <time>2020-08-15T07:18:37Z</time>
      </trkpt>
      <trkpt lat="50.23758" lon="4.26555">
        <ele>232</ele>
        <time>2020-08-15T07:18:39Z</time>
      </trkpt>
      <trkpt lat="50.23754" lon="4.26545">
        <ele>232</ele>
        <time>2020-08-15T07:18:41Z</time>
      </trkpt>
      <trkpt lat="50.2375" lon="4.26535">
        <ele>232</ele>
        <time>2020-08-15T07:18:43Z</time>
      </trkpt>
      <trkpt lat="50.23747" lon="4.26523">
        <ele>232</ele>
        <time>2020-08-15T07:18:45Z</time>
      </trkpt>
      <trkpt lat="50.23743" lon="4.26513">
        <ele>233</ele>
        <time>2020-08-15T07:18:47Z</time>
      </trkpt>
      <trkpt lat="50.23739" lon="4.26503">
        <ele>233</ele>
        <time>2020-08-15T07:18:49Z</time>
      </trkpt>
      <trkpt lat="50.23735" lon="4.26492">
        <ele>233</ele>
        <time>2020-08-15T07:18:51Z</time>
      </trkpt>
      <trkpt lat="50.23731" lon="4.26481">
        <ele>233</ele>
        <time>2020-08-15T07:18:53Z</time>
      </trkpt>
      <trkpt lat="50.23727" lon="4.26469">
        <ele>233</ele>
        <time>2020-08-15T07:18:55Z</time>
      </trkpt>
      <trkpt lat="50.23722" lon="4.26458">
        <ele>234</ele>
        <time>2020-08-15T07:18:57Z</time>
      </trkpt>
      <trkpt lat="50.23718" lon="4.26447">
        <ele>234</ele>
        <time>2020-08-15T07:18:59Z</time>
      </trkpt>
      <trkpt lat="50.23713" lon="4.26437">
        <ele>234</ele>
        <time>2020-08-15T07:19:01Z</time>
      </trkpt>
      <trkpt lat="50.23708" lon="4.26428">
        <ele>233</ele>
        <time>2020-08-15T07:19:03Z</time>
      </trkpt>
      <trkpt lat="50.23703" lon="4.2642">
        <ele>233</ele>
        <time>2020-08-15T07:19:05Z</time>
      </trkpt>
      <trkpt lat="50.23699" lon="4.26412">
        <ele>233</ele>
        <time>2020-08-15T07:19:07Z</time>
      </trkpt>
      <trkpt lat="50.23694" lon="4.26404">
        <ele>233</ele>
        <time>2020-08-15T07:19:09Z</time>
      </trkpt>
      <trkpt lat="50.23689" lon="4.26395">
        <ele>232</ele>
        <time>2020-08-15T07:19:11Z</time>
      </trkpt>
      <trkpt lat="50.23684" lon="4.26386">
        <ele>232</ele>
        <time>2020-08-15T07:19:13Z</time>
      </trkpt>
      <trkpt lat="50.2368" lon="4.26376">
        <ele>232</ele>
        <time>2020-08-15T07:19:15Z</time>
      </trkpt>
      <trkpt lat="50.23674" lon="4.26368">
        <ele>231</ele>
        <time>2020-08-15T07:19:17Z</time>
      </trkpt>
      <trkpt lat="50.23669" lon="4.2636">
        <ele>231</ele>
        <time>2020-08-15T07:19:19Z</time>
      </trkpt>
      <trkpt lat="50.23665" lon="4.26351">
        <ele>231</ele>
        <time>2020-08-15T07:19:21Z</time>
      </trkpt>
      <trkpt lat="50.23659" lon="4.26343">
        <ele>231</ele>
        <time>2020-08-15T07:19:23Z</time>
      </trkpt>
      <trkpt lat="50.23653" lon="4.26334">
        <ele>231</ele>
        <time>2020-08-15T07:19:25Z</time>
      </trkpt>
      <trkpt lat="50.23649" lon="4.26324">
        <ele>232</ele>
        <time>2020-08-15T07:19:27Z</time>
      </trkpt>
      <trkpt lat="50.23644" lon="4.26314">
        <ele>231</ele>
        <time>2020-08-15T07:19:29Z</time>
      </trkpt>
      <trkpt lat="50.23639" lon="4.26304">
        <ele>231</ele>
        <time>2020-08-15T07:19:31Z</time>
      </trkpt>
      <trkpt lat="50.23635" lon="4.26295">
        <ele>231</ele>
        <time>2020-08-15T07:19:33Z</time>
      </trkpt>
      <trkpt lat="50.2363" lon="4.26284">
        <ele>230</ele>
        <time>2020-08-15T07:19:35Z</time>
      </trkpt>
      <trkpt lat="50.23625" lon="4.26274">
        <ele>231</ele>
        <time>2020-08-15T07:19:37Z</time>
      </trkpt>
      <trkpt lat="50.2362" lon="4.26263">
        <ele>230</ele>
        <time>2020-08-15T07:19:39Z</time>
      </trkpt>
      <trkpt lat="50.23616" lon="4.26253">
        <ele>230</ele>
        <time>2020-08-15T07:19:41Z</time>
      </trkpt>
      <trkpt lat="50.23612" lon="4.26244">
        <ele>230</ele>
        <time>2020-08-15T07:19:43Z</time>
      </trkpt>
      <trkpt lat="50.23608" lon="4.26235">
        <ele>230</ele>
        <time>2020-08-15T07:19:45Z</time>
      </trkpt>
      <trkpt lat="50.23603" lon="4.26226">
        <ele>230</ele>
        <time>2020-08-15T07:19:47Z</time>
      </trkpt>
      <trkpt lat="50.23598" lon="4.26216">
        <ele>230</ele>
        <time>2020-08-15T07:19:49Z</time>
      </trkpt>
      <trkpt lat="50.23594" lon="4.26207">
        <ele>229</ele>
        <time>2020-08-15T07:19:51Z</time>
      </trkpt>
      <trkpt lat="50.23591" lon="4.26199">
        <ele>229</ele>
        <time>2020-08-15T07:19:53Z</time>
      </trkpt>
      <trkpt lat="50.23589" lon="4.26192">
        <ele>229</ele>
        <time>2020-08-15T07:19:55Z</time>
      </trkpt>
      <trkpt lat="50.23587" lon="4.26185">
        <ele>229</ele>
        <time>2020-08-15T07:19:57Z</time>
      </trkpt>
      <trkpt lat="50.23583" lon="4.26175">
        <ele>229</ele>
        <time>2020-08-15T07:19:59Z</time>
      </trkpt>
      <trkpt lat="50.23578" lon="4.26166">
        <ele>229</ele>
        <time>2020-08-15T07:20:01Z</time>
      </trkpt>
      <trkpt lat="50.23573" lon="4.26157">
        <ele>229</ele>
        <time>2020-08-15T07:20:03Z</time>
      </trkpt>
      <trkpt lat="50.23567" lon="4.26147">
        <ele>229</ele>
        <time>2020-08-15T07:20:05Z</time>
      </trkpt>
      <trkpt lat="50.23562" lon="4.26137">
        <ele>229</ele>
        <time>2020-08-15T07:20:07Z</time>
      </trkpt>
      <trkpt lat="50.23555" lon="4.26127">
        <ele>229</ele>
        <time>2020-08-15T07:20:09Z</time>
      </trkpt>
      <trkpt lat="50.23549" lon="4.26117">
        <ele>231</ele>
        <time>2020-08-15T07:20:11Z</time>
      </trkpt>
      <trkpt lat="50.23542" lon="4.26106">
        <ele>231</ele>
        <time>2020-08-15T07:20:13Z</time>
      </trkpt>
      <trkpt lat="50.23536" lon="4.26096">
        <ele>228</ele>
        <time>2020-08-15T07:20:15Z</time>
      </trkpt>
      <trkpt lat="50.23529" lon="4.26087">
        <ele>228</ele>
        <time>2020-08-15T07:20:17Z</time>
      </trkpt>
      <trkpt lat="50.23521" lon="4.26078">
        <ele>228</ele>
        <time>2020-08-15T07:20:19Z</time>
      </trkpt>
      <trkpt lat="50.23515" lon="4.26067">
        <ele>228</ele>
        <time>2020-08-15T07:20:21Z</time>
      </trkpt>
      <trkpt lat="50.23507" lon="4.26057">
        <ele>227</ele>
        <time>2020-08-15T07:20:23Z</time>
      </trkpt>
      <trkpt lat="50.235" lon="4.26046">
        <ele>227</ele>
        <time>2020-08-15T07:20:25Z</time>
      </trkpt>
      <trkpt lat="50.23494" lon="4.26036">
        <ele>226</ele>
        <time>2020-08-15T07:20:27Z</time>
      </trkpt>
      <trkpt lat="50.23487" lon="4.26025">
        <ele>226</ele>
        <time>2020-08-15T07:20:29Z</time>
      </trkpt>
      <trkpt lat="50.23481" lon="4.26014">
        <ele>226</ele>
        <time>2020-08-15T07:20:31Z</time>
      </trkpt>
      <trkpt lat="50.23475" lon="4.26002">
        <ele>226</ele>
        <time>2020-08-15T07:20:33Z</time>
      </trkpt>
      <trkpt lat="50.23469" lon="4.2599">
        <ele>226</ele>
        <time>2020-08-15T07:20:35Z</time>
      </trkpt>
      <trkpt lat="50.23465" lon="4.25977">
        <ele>226</ele>
        <time>2020-08-15T07:20:37Z</time>
      </trkpt>
      <trkpt lat="50.23461" lon="4.25965">
        <ele>226</ele>
        <time>2020-08-15T07:20:39Z</time>
      </trkpt>
      <trkpt lat="50.23459" lon="4.25952">
        <ele>224</ele>
        <time>2020-08-15T07:20:41Z</time>
      </trkpt>
      <trkpt lat="50.23456" lon="4.25938">
        <ele>224</ele>
        <time>2020-08-15T07:20:43Z</time>
      </trkpt>
      <trkpt lat="50.23454" lon="4.25923">
        <ele>224</ele>
        <time>2020-08-15T07:20:45Z</time>
      </trkpt>
      <trkpt lat="50.23452" lon="4.25909">
        <ele>224</ele>
        <time>2020-08-15T07:20:47Z</time>
      </trkpt>
      <trkpt lat="50.23452" lon="4.25894">
        <ele>224</ele>
        <time>2020-08-15T07:20:49Z</time>
      </trkpt>
      <trkpt lat="50.23452" lon="4.2588">
        <ele>224</ele>
        <time>2020-08-15T07:20:51Z</time>
      </trkpt>
      <trkpt lat="50.23453" lon="4.25865">
        <ele>224</ele>
        <time>2020-08-15T07:20:53Z</time>
      </trkpt>
      <trkpt lat="50.23454" lon="4.2585">
        <ele>224</ele>
        <time>2020-08-15T07:20:55Z</time>
      </trkpt>
      <trkpt lat="50.23455" lon="4.25835">
        <ele>224</ele>
        <time>2020-08-15T07:20:57Z</time>
      </trkpt>
      <trkpt lat="50.23456" lon="4.25819">
        <ele>223</ele>
        <time>2020-08-15T07:20:59Z</time>
      </trkpt>
      <trkpt lat="50.23457" lon="4.25803">
        <ele>223</ele>
        <time>2020-08-15T07:21:01Z</time>
      </trkpt>
      <trkpt lat="50.23458" lon="4.25787">
        <ele>222</ele>
        <time>2020-08-15T07:21:03Z</time>
      </trkpt>
      <trkpt lat="50.23459" lon="4.25771">
        <ele>224</ele>
        <time>2020-08-15T07:21:05Z</time>
      </trkpt>
      <trkpt lat="50.2346" lon="4.25756">
        <ele>223</ele>
        <time>2020-08-15T07:21:07Z</time>
      </trkpt>
      <trkpt lat="50.23462" lon="4.2574">
        <ele>223</ele>
        <time>2020-08-15T07:21:09Z</time>
      </trkpt>
      <trkpt lat="50.23463" lon="4.25726">
        <ele>222</ele>
        <time>2020-08-15T07:21:11Z</time>
      </trkpt>
      <trkpt lat="50.23465" lon="4.2571">
        <ele>222</ele>
        <time>2020-08-15T07:21:13Z</time>
      </trkpt>
      <trkpt lat="50.23466" lon="4.25695">
        <ele>221</ele>
        <time>2020-08-15T07:21:15Z</time>
      </trkpt>
      <trkpt lat="50.23467" lon="4.2568">
        <ele>222</ele>
        <time>2020-08-15T07:21:17Z</time>
      </trkpt>
      <trkpt lat="50.23468" lon="4.25667">
        <ele>222</ele>
        <time>2020-08-15T07:21:19Z</time>
      </trkpt>
      <trkpt lat="50.2347" lon="4.25657">
        <ele>222</ele>
        <time>2020-08-15T07:21:21Z</time>
      </trkpt>
      <trkpt lat="50.2347" lon="4.25646">
        <ele>219</ele>
        <time>2020-08-15T07:21:23Z</time>
      </trkpt>
      <trkpt lat="50.23471" lon="4.25635">
        <ele>219</ele>
        <time>2020-08-15T07:21:25Z</time>
      </trkpt>
      <trkpt lat="50.23471" lon="4.25624">
        <ele>220</ele>
        <time>2020-08-15T07:21:27Z</time>
      </trkpt>
      <trkpt lat="50.23471" lon="4.25617">
        <ele>220</ele>
        <time>2020-08-15T07:21:29Z</time>
      </trkpt>
      <trkpt lat="50.23471" lon="4.25614">
        <ele>220</ele>
        <time>2020-08-15T07:21:31Z</time>
      </trkpt>
      <trkpt lat="50.2347" lon="4.25609">
        <ele>220</ele>
        <time>2020-08-15T07:21:33Z</time>
      </trkpt>
      <trkpt lat="50.2347" lon="4.25604">
        <ele>220</ele>
        <time>2020-08-15T07:21:35Z</time>
      </trkpt>
      <trkpt lat="50.2347" lon="4.25599">
        <ele>220</ele>
        <time>2020-08-15T07:21:37Z</time>
      </trkpt>
      <trkpt lat="50.2347" lon="4.25593">
        <ele>217</ele>
        <time>2020-08-15T07:21:39Z</time>
      </trkpt>
      <trkpt lat="50.23471" lon="4.25585">
        <ele>217</ele>
        <time>2020-08-15T07:21:41Z</time>
      </trkpt>
      <trkpt lat="50.23471" lon="4.25576">
        <ele>217</ele>
        <time>2020-08-15T07:21:43Z</time>
      </trkpt>
      <trkpt lat="50.23472" lon="4.25566">
        <ele>216</ele>
        <time>2020-08-15T07:21:45Z</time>
      </trkpt>
      <trkpt lat="50.23472" lon="4.25556">
        <ele>216</ele>
        <time>2020-08-15T07:21:47Z</time>
      </trkpt>
      <trkpt lat="50.23471" lon="4.25547">
        <ele>216</ele>
        <time>2020-08-15T07:21:49Z</time>
      </trkpt>
      <trkpt lat="50.23471" lon="4.25538">
        <ele>216</ele>
        <time>2020-08-15T07:21:51Z</time>
      </trkpt>
      <trkpt lat="50.23471" lon="4.25531">
        <ele>216</ele>
        <time>2020-08-15T07:21:53Z</time>
      </trkpt>
      <trkpt lat="50.23472" lon="4.25522">
        <ele>216</ele>
        <time>2020-08-15T07:21:55Z</time>
      </trkpt>
      <trkpt lat="50.23472" lon="4.25511">
        <ele>216</ele>
        <time>2020-08-15T07:21:57Z</time>
      </trkpt>
      <trkpt lat="50.23472" lon="4.25501">
        <ele>216</ele>
        <time>2020-08-15T07:21:59Z</time>
      </trkpt>
      <trkpt lat="50.23472" lon="4.2549">
        <ele>216</ele>
        <time>2020-08-15T07:22:01Z</time>
      </trkpt>
      <trkpt lat="50.23472" lon="4.2548">
        <ele>215</ele>
        <time>2020-08-15T07:22:03Z</time>
      </trkpt>
      <trkpt lat="50.23471" lon="4.25473">
        <ele>215</ele>
        <time>2020-08-15T07:22:05Z</time>
      </trkpt>
      <trkpt lat="50.23471" lon="4.25465">
        <ele>215</ele>
        <time>2020-08-15T07:22:07Z</time>
      </trkpt>
      <trkpt lat="50.23471" lon="4.25457">
        <ele>215</ele>
        <time>2020-08-15T07:22:09Z</time>
      </trkpt>
      <trkpt lat="50.23471" lon="4.25448">
        <ele>215</ele>
        <time>2020-08-15T07:22:11Z</time>
      </trkpt>
      <trkpt lat="50.23472" lon="4.2544">
        <ele>215</ele>
        <time>2020-08-15T07:22:13Z</time>
      </trkpt>
      <trkpt lat="50.23472" lon="4.25429">
        <ele>213</ele>
        <time>2020-08-15T07:22:15Z</time>
      </trkpt>
      <trkpt lat="50.23472" lon="4.25418">
        <ele>213</ele>
        <time>2020-08-15T07:22:17Z</time>
      </trkpt>
      <trkpt lat="50.23473" lon="4.25407">
        <ele>213</ele>
        <time>2020-08-15T07:22:19Z</time>
      </trkpt>
      <trkpt lat="50.23473" lon="4.25396">
        <ele>210</ele>
        <time>2020-08-15T07:22:21Z</time>
      </trkpt>
      <trkpt lat="50.23473" lon="4.25385">
        <ele>210</ele>
        <time>2020-08-15T07:22:23Z</time>
      </trkpt>
      <trkpt lat="50.23474" lon="4.25373">
        <ele>210</ele>
        <time>2020-08-15T07:22:25Z</time>
      </trkpt>
      <trkpt lat="50.23475" lon="4.25359">
        <ele>210</ele>
        <time>2020-08-15T07:22:27Z</time>
      </trkpt>
      <trkpt lat="50.23475" lon="4.25344">
        <ele>208</ele>
        <time>2020-08-15T07:22:29Z</time>
      </trkpt>
      <trkpt lat="50.23476" lon="4.25328">
        <ele>208</ele>
        <time>2020-08-15T07:22:31Z</time>
      </trkpt>
      <trkpt lat="50.23477" lon="4.25313">
        <ele>208</ele>
        <time>2020-08-15T07:22:33Z</time>
      </trkpt>
      <trkpt lat="50.23478" lon="4.25299">
        <ele>208</ele>
        <time>2020-08-15T07:22:35Z</time>
      </trkpt>
      <trkpt lat="50.23478" lon="4.25288">
        <ele>209</ele>
        <time>2020-08-15T07:22:37Z</time>
      </trkpt>
      <trkpt lat="50.23479" lon="4.25279">
        <ele>209</ele>
        <time>2020-08-15T07:22:39Z</time>
      </trkpt>
      <trkpt lat="50.2348" lon="4.25268">
        <ele>209</ele>
        <time>2020-08-15T07:22:41Z</time>
      </trkpt>
      <trkpt lat="50.23481" lon="4.25258">
        <ele>207</ele>
        <time>2020-08-15T07:22:43Z</time>
      </trkpt>
      <trkpt lat="50.23481" lon="4.25247">
        <ele>207</ele>
        <time>2020-08-15T07:22:45Z</time>
      </trkpt>
      <trkpt lat="50.23483" lon="4.25235">
        <ele>208</ele>
        <time>2020-08-15T07:22:47Z</time>
      </trkpt>
      <trkpt lat="50.23483" lon="4.25222">
        <ele>208</ele>
        <time>2020-08-15T07:22:49Z</time>
      </trkpt>
      <trkpt lat="50.23484" lon="4.2521">
        <ele>208</ele>
        <time>2020-08-15T07:22:51Z</time>
      </trkpt>
      <trkpt lat="50.23486" lon="4.25199">
        <ele>206</ele>
        <time>2020-08-15T07:22:53Z</time>
      </trkpt>
      <trkpt lat="50.23486" lon="4.25186">
        <ele>206</ele>
        <time>2020-08-15T07:22:55Z</time>
      </trkpt>
      <trkpt lat="50.23487" lon="4.25176">
        <ele>203</ele>
        <time>2020-08-15T07:22:57Z</time>
      </trkpt>
      <trkpt lat="50.23488" lon="4.25166">
        <ele>203</ele>
        <time>2020-08-15T07:22:59Z</time>
      </trkpt>
      <trkpt lat="50.23489" lon="4.25154">
        <ele>203</ele>
        <time>2020-08-15T07:23:01Z</time>
      </trkpt>
      <trkpt lat="50.2349" lon="4.25142">
        <ele>202</ele>
        <time>2020-08-15T07:23:03Z</time>
      </trkpt>
      <trkpt lat="50.23491" lon="4.25131">
        <ele>202</ele>
        <time>2020-08-15T07:23:05Z</time>
      </trkpt>
      <trkpt lat="50.23492" lon="4.25121">
        <ele>200</ele>
        <time>2020-08-15T07:23:07Z</time>
      </trkpt>
      <trkpt lat="50.23492" lon="4.25111">
        <ele>200</ele>
        <time>2020-08-15T07:23:09Z</time>
      </trkpt>
      <trkpt lat="50.23493" lon="4.25099">
        <ele>200</ele>
        <time>2020-08-15T07:23:11Z</time>
      </trkpt>
      <trkpt lat="50.23494" lon="4.25087">
        <ele>199</ele>
        <time>2020-08-15T07:23:13Z</time>
      </trkpt>
      <trkpt lat="50.23495" lon="4.25074">
        <ele>199</ele>
        <time>2020-08-15T07:23:15Z</time>
      </trkpt>
      <trkpt lat="50.23496" lon="4.25059">
        <ele>197</ele>
        <time>2020-08-15T07:23:17Z</time>
      </trkpt>
      <trkpt lat="50.23496" lon="4.25045">
        <ele>197</ele>
        <time>2020-08-15T07:23:19Z</time>
      </trkpt>
      <trkpt lat="50.23494" lon="4.25029">
        <ele>198</ele>
        <time>2020-08-15T07:23:21Z</time>
      </trkpt>
      <trkpt lat="50.23488" lon="4.25014">
        <ele>197</ele>
        <time>2020-08-15T07:23:23Z</time>
      </trkpt>
      <trkpt lat="50.23481" lon="4.24999">
        <ele>197</ele>
        <time>2020-08-15T07:23:25Z</time>
      </trkpt>
      <trkpt lat="50.23473" lon="4.24986">
        <ele>196</ele>
        <time>2020-08-15T07:23:27Z</time>
      </trkpt>
      <trkpt lat="50.23465" lon="4.24973">
        <ele>196</ele>
        <time>2020-08-15T07:23:29Z</time>
      </trkpt>
      <trkpt lat="50.23459" lon="4.24961">
        <ele>196</ele>
        <time>2020-08-15T07:23:31Z</time>
      </trkpt>
      <trkpt lat="50.23451" lon="4.24949">
        <ele>197</ele>
        <time>2020-08-15T07:23:33Z</time>
      </trkpt>
      <trkpt lat="50.23444" lon="4.24938">
        <ele>197</ele>
        <time>2020-08-15T07:23:35Z</time>
      </trkpt>
      <trkpt lat="50.23444" lon="4.24925">
        <ele>194</ele>
        <time>2020-08-15T07:23:37Z</time>
      </trkpt>
      <trkpt lat="50.23448" lon="4.2491">
        <ele>194</ele>
        <time>2020-08-15T07:23:39Z</time>
      </trkpt>
      <trkpt lat="50.23453" lon="4.24894">
        <ele>194</ele>
        <time>2020-08-15T07:23:41Z</time>
      </trkpt>
      <trkpt lat="50.23458" lon="4.24877">
        <ele>194</ele>
        <time>2020-08-15T07:23:43Z</time>
      </trkpt>
      <trkpt lat="50.23463" lon="4.24861">
        <ele>192</ele>
        <time>2020-08-15T07:23:45Z</time>
      </trkpt>
      <trkpt lat="50.23468" lon="4.24844">
        <ele>192</ele>
        <time>2020-08-15T07:23:47Z</time>
      </trkpt>
      <trkpt lat="50.23472" lon="4.24826">
        <ele>192</ele>
        <time>2020-08-15T07:23:49Z</time>
      </trkpt>
      <trkpt lat="50.23475" lon="4.24808">
        <ele>190</ele>
        <time>2020-08-15T07:23:51Z</time>
      </trkpt>
      <trkpt lat="50.23478" lon="4.24791">
        <ele>190</ele>
        <time>2020-08-15T07:23:53Z</time>
      </trkpt>
      <trkpt lat="50.2348" lon="4.24773">
        <ele>190</ele>
        <time>2020-08-15T07:23:55Z</time>
      </trkpt>
      <trkpt lat="50.23482" lon="4.24757">
        <ele>189</ele>
        <time>2020-08-15T07:23:57Z</time>
      </trkpt>
      <trkpt lat="50.23483" lon="4.24741">
        <ele>189</ele>
        <time>2020-08-15T07:23:59Z</time>
      </trkpt>
      <trkpt lat="50.23485" lon="4.24726">
        <ele>187</ele>
        <time>2020-08-15T07:24:01Z</time>
      </trkpt>
      <trkpt lat="50.23486" lon="4.24712">
        <ele>190</ele>
        <time>2020-08-15T07:24:03Z</time>
      </trkpt>
      <trkpt lat="50.23488" lon="4.24699">
        <ele>190</ele>
        <time>2020-08-15T07:24:05Z</time>
      </trkpt>
      <trkpt lat="50.2349" lon="4.24688">
        <ele>190</ele>
        <time>2020-08-15T07:24:07Z</time>
      </trkpt>
      <trkpt lat="50.23491" lon="4.24675">
        <ele>190</ele>
        <time>2020-08-15T07:24:09Z</time>
      </trkpt>
      <trkpt lat="50.23492" lon="4.24663">
        <ele>190</ele>
        <time>2020-08-15T07:24:11Z</time>
      </trkpt>
      <trkpt lat="50.23493" lon="4.2465">
        <ele>190</ele>
        <time>2020-08-15T07:24:13Z</time>
      </trkpt>
      <trkpt lat="50.23494" lon="4.24637">
        <ele>190</ele>
        <time>2020-08-15T07:24:15Z</time>
      </trkpt>
      <trkpt lat="50.23494" lon="4.24624">
        <ele>191</ele>
        <time>2020-08-15T07:24:17Z</time>
      </trkpt>
      <trkpt lat="50.23494" lon="4.24612">
        <ele>191</ele>
        <time>2020-08-15T07:24:19Z</time>
      </trkpt>
      <trkpt lat="50.23494" lon="4.246">
        <ele>191</ele>
        <time>2020-08-15T07:24:21Z</time>
      </trkpt>
      <trkpt lat="50.23494" lon="4.24589">
        <ele>192</ele>
        <time>2020-08-15T07:24:23Z</time>
      </trkpt>
      <trkpt lat="50.23493" lon="4.24579">
        <ele>192</ele>
        <time>2020-08-15T07:24:25Z</time>
      </trkpt>
      <trkpt lat="50.23493" lon="4.24569">
        <ele>192</ele>
        <time>2020-08-15T07:24:27Z</time>
      </trkpt>
      <trkpt lat="50.23492" lon="4.24559">
        <ele>192</ele>
        <time>2020-08-15T07:24:29Z</time>
      </trkpt>
      <trkpt lat="50.2349" lon="4.2455">
        <ele>192</ele>
        <time>2020-08-15T07:24:31Z</time>
      </trkpt>
      <trkpt lat="50.23488" lon="4.2454">
        <ele>193</ele>
        <time>2020-08-15T07:24:33Z</time>
      </trkpt>
      <trkpt lat="50.23487" lon="4.2453">
        <ele>193</ele>
        <time>2020-08-15T07:24:35Z</time>
      </trkpt>
      <trkpt lat="50.23485" lon="4.24519">
        <ele>192</ele>
        <time>2020-08-15T07:24:37Z</time>
      </trkpt>
      <trkpt lat="50.23483" lon="4.24508">
        <ele>191</ele>
        <time>2020-08-15T07:24:39Z</time>
      </trkpt>
      <trkpt lat="50.23481" lon="4.24497">
        <ele>191</ele>
        <time>2020-08-15T07:24:41Z</time>
      </trkpt>
      <trkpt lat="50.23479" lon="4.24486">
        <ele>191</ele>
        <time>2020-08-15T07:24:43Z</time>
      </trkpt>
      <trkpt lat="50.23478" lon="4.24475">
        <ele>192</ele>
        <time>2020-08-15T07:24:45Z</time>
      </trkpt>
      <trkpt lat="50.23476" lon="4.24463">
        <ele>192</ele>
        <time>2020-08-15T07:24:47Z</time>
      </trkpt>
      <trkpt lat="50.23475" lon="4.24452">
        <ele>192</ele>
        <time>2020-08-15T07:24:49Z</time>
      </trkpt>
      <trkpt lat="50.23473" lon="4.2444">
        <ele>192</ele>
        <time>2020-08-15T07:24:51Z</time>
      </trkpt>
      <trkpt lat="50.23472" lon="4.24429">
        <ele>194</ele>
        <time>2020-08-15T07:24:53Z</time>
      </trkpt>
      <trkpt lat="50.23471" lon="4.24417">
        <ele>194</ele>
        <time>2020-08-15T07:24:55Z</time>
      </trkpt>
      <trkpt lat="50.2347" lon="4.24405">
        <ele>194</ele>
        <time>2020-08-15T07:24:57Z</time>
      </trkpt>
      <trkpt lat="50.2347" lon="4.24393">
        <ele>196</ele>
        <time>2020-08-15T07:24:59Z</time>
      </trkpt>
      <trkpt lat="50.2347" lon="4.24381">
        <ele>196</ele>
        <time>2020-08-15T07:25:01Z</time>
      </trkpt>
      <trkpt lat="50.23471" lon="4.24369">
        <ele>197</ele>
        <time>2020-08-15T07:25:03Z</time>
      </trkpt>
      <trkpt lat="50.23472" lon="4.24357">
        <ele>197</ele>
        <time>2020-08-15T07:25:05Z</time>
      </trkpt>
      <trkpt lat="50.23475" lon="4.24346">
        <ele>199</ele>
        <time>2020-08-15T07:25:07Z</time>
      </trkpt>
      <trkpt lat="50.23478" lon="4.24336">
        <ele>199</ele>
        <time>2020-08-15T07:25:09Z</time>
      </trkpt>
      <trkpt lat="50.23483" lon="4.24326">
        <ele>199</ele>
        <time>2020-08-15T07:25:11Z</time>
      </trkpt>
      <trkpt lat="50.23488" lon="4.24318">
        <ele>203</ele>
        <time>2020-08-15T07:25:13Z</time>
      </trkpt>
      <trkpt lat="50.23494" lon="4.2431">
        <ele>203</ele>
        <time>2020-08-15T07:25:15Z</time>
      </trkpt>
      <trkpt lat="50.235" lon="4.24303">
        <ele>203</ele>
        <time>2020-08-15T07:25:17Z</time>
      </trkpt>
      <trkpt lat="50.23505" lon="4.24293">
        <ele>203</ele>
        <time>2020-08-15T07:25:19Z</time>
      </trkpt>
      <trkpt lat="50.23509" lon="4.24282">
        <ele>206</ele>
        <time>2020-08-15T07:25:21Z</time>
      </trkpt>
      <trkpt lat="50.23511" lon="4.24269">
        <ele>206</ele>
        <time>2020-08-15T07:25:23Z</time>
      </trkpt>
      <trkpt lat="50.23512" lon="4.24257">
        <ele>207</ele>
        <time>2020-08-15T07:25:25Z</time>
      </trkpt>
      <trkpt lat="50.2351" lon="4.24245">
        <ele>207</ele>
        <time>2020-08-15T07:25:27Z</time>
      </trkpt>
      <trkpt lat="50.23512" lon="4.24231">
        <ele>208</ele>
        <time>2020-08-15T07:25:29Z</time>
      </trkpt>
      <trkpt lat="50.23512" lon="4.24219">
        <ele>208</ele>
        <time>2020-08-15T07:25:31Z</time>
      </trkpt>
      <trkpt lat="50.23512" lon="4.24207">
        <ele>208</ele>
        <time>2020-08-15T07:25:33Z</time>
      </trkpt>
      <trkpt lat="50.2351" lon="4.24196">
        <ele>208</ele>
        <time>2020-08-15T07:25:35Z</time>
      </trkpt>
      <trkpt lat="50.23509" lon="4.24185">
        <ele>208</ele>
        <time>2020-08-15T07:25:37Z</time>
      </trkpt>
      <trkpt lat="50.23508" lon="4.24175">
        <ele>209</ele>
        <time>2020-08-15T07:25:39Z</time>
      </trkpt>
      <trkpt lat="50.23507" lon="4.24164">
        <ele>209</ele>
        <time>2020-08-15T07:25:41Z</time>
      </trkpt>
      <trkpt lat="50.23505" lon="4.24151">
        <ele>210</ele>
        <time>2020-08-15T07:25:43Z</time>
      </trkpt>
      <trkpt lat="50.23505" lon="4.24138">
        <ele>210</ele>
        <time>2020-08-15T07:25:45Z</time>
      </trkpt>
      <trkpt lat="50.23508" lon="4.24128">
        <ele>210</ele>
        <time>2020-08-15T07:25:47Z</time>
      </trkpt>
      <trkpt lat="50.2351" lon="4.24118">
        <ele>212</ele>
        <time>2020-08-15T07:25:49Z</time>
      </trkpt>
      <trkpt lat="50.23513" lon="4.24108">
        <ele>212</ele>
        <time>2020-08-15T07:25:51Z</time>
      </trkpt>
      <trkpt lat="50.23517" lon="4.24097">
        <ele>213</ele>
        <time>2020-08-15T07:25:53Z</time>
      </trkpt>
      <trkpt lat="50.2352" lon="4.24088">
        <ele>213</ele>
        <time>2020-08-15T07:25:55Z</time>
      </trkpt>
      <trkpt lat="50.23523" lon="4.24078">
        <ele>213</ele>
        <time>2020-08-15T07:25:57Z</time>
      </trkpt>
      <trkpt lat="50.23526" lon="4.24068">
        <ele>214</ele>
        <time>2020-08-15T07:25:59Z</time>
      </trkpt>
      <trkpt lat="50.23529" lon="4.24058">
        <ele>214</ele>
        <time>2020-08-15T07:26:01Z</time>
      </trkpt>
      <trkpt lat="50.23531" lon="4.24049">
        <ele>214</ele>
        <time>2020-08-15T07:26:03Z</time>
      </trkpt>
      <trkpt lat="50.23534" lon="4.24039">
        <ele>216</ele>
        <time>2020-08-15T07:26:05Z</time>
      </trkpt>
      <trkpt lat="50.23536" lon="4.24029">
        <ele>216</ele>
        <time>2020-08-15T07:26:07Z</time>
      </trkpt>
      <trkpt lat="50.23538" lon="4.24018">
        <ele>216</ele>
        <time>2020-08-15T07:26:09Z</time>
      </trkpt>
      <trkpt lat="50.23537" lon="4.24006">
        <ele>217</ele>
        <time>2020-08-15T07:26:11Z</time>
      </trkpt>
      <trkpt lat="50.23537" lon="4.23995">
        <ele>217</ele>
        <time>2020-08-15T07:26:13Z</time>
      </trkpt>
      <trkpt lat="50.23534" lon="4.23984">
        <ele>219</ele>
        <time>2020-08-15T07:26:15Z</time>
      </trkpt>
      <trkpt lat="50.23529" lon="4.23974">
        <ele>219</ele>
        <time>2020-08-15T07:26:17Z</time>
      </trkpt>
      <trkpt lat="50.23526" lon="4.23966">
        <ele>219</ele>
        <time>2020-08-15T07:26:19Z</time>
      </trkpt>
      <trkpt lat="50.23522" lon="4.23958">
        <ele>218</ele>
        <time>2020-08-15T07:26:21Z</time>
      </trkpt>
      <trkpt lat="50.23521" lon="4.23951">
        <ele>218</ele>
        <time>2020-08-15T07:26:23Z</time>
      </trkpt>
      <trkpt lat="50.23519" lon="4.23947">
        <ele>218</ele>
        <time>2020-08-15T07:26:25Z</time>
      </trkpt>
      <trkpt lat="50.23515" lon="4.23943">
        <ele>218</ele>
        <time>2020-08-15T07:26:27Z</time>
      </trkpt>
      <trkpt lat="50.23511" lon="4.23939">
        <ele>219</ele>
        <time>2020-08-15T07:26:29Z</time>
      </trkpt>
      <trkpt lat="50.23506" lon="4.23933">
        <ele>219</ele>
        <time>2020-08-15T07:26:31Z</time>
      </trkpt>
      <trkpt lat="50.23504" lon="4.23925">
        <ele>220</ele>
        <time>2020-08-15T07:26:33Z</time>
      </trkpt>
      <trkpt lat="50.23499" lon="4.23916">
        <ele>220</ele>
        <time>2020-08-15T07:26:35Z</time>
      </trkpt>
      <trkpt lat="50.23499" lon="4.23908">
        <ele>220</ele>
        <time>2020-08-15T07:26:37Z</time>
      </trkpt>
      <trkpt lat="50.23499" lon="4.23899">
        <ele>221</ele>
        <time>2020-08-15T07:26:39Z</time>
      </trkpt>
      <trkpt lat="50.235" lon="4.23891">
        <ele>221</ele>
        <time>2020-08-15T07:26:41Z</time>
      </trkpt>
      <trkpt lat="50.23499" lon="4.23884">
        <ele>221</ele>
        <time>2020-08-15T07:26:43Z</time>
      </trkpt>
      <trkpt lat="50.235" lon="4.23878">
        <ele>221</ele>
        <time>2020-08-15T07:26:45Z</time>
      </trkpt>
      <trkpt lat="50.23499" lon="4.23872">
        <ele>222</ele>
        <time>2020-08-15T07:26:47Z</time>
      </trkpt>
      <trkpt lat="50.23497" lon="4.23866">
        <ele>222</ele>
        <time>2020-08-15T07:26:49Z</time>
      </trkpt>
      <trkpt lat="50.23495" lon="4.23859">
        <ele>222</ele>
        <time>2020-08-15T07:26:51Z</time>
      </trkpt>
      <trkpt lat="50.2349" lon="4.23851">
        <ele>222</ele>
        <time>2020-08-15T07:26:53Z</time>
      </trkpt>
      <trkpt lat="50.23484" lon="4.23844">
        <ele>220</ele>
        <time>2020-08-15T07:26:55Z</time>
      </trkpt>
      <trkpt lat="50.23478" lon="4.23837">
        <ele>220</ele>
        <time>2020-08-15T07:26:57Z</time>
      </trkpt>
      <trkpt lat="50.23473" lon="4.2383">
        <ele>220</ele>
        <time>2020-08-15T07:26:59Z</time>
      </trkpt>
      <trkpt lat="50.23469" lon="4.23824">
        <ele>220</ele>
        <time>2020-08-15T07:27:01Z</time>
      </trkpt>
      <trkpt lat="50.23465" lon="4.23818">
        <ele>221</ele>
        <time>2020-08-15T07:27:03Z</time>
      </trkpt>
      <trkpt lat="50.23459" lon="4.23813">
        <ele>221</ele>
        <time>2020-08-15T07:27:05Z</time>
      </trkpt>
      <trkpt lat="50.23453" lon="4.23806">
        <ele>218</ele>
        <time>2020-08-15T07:27:07Z</time>
      </trkpt>
      <trkpt lat="50.23447" lon="4.23798">
        <ele>218</ele>
        <time>2020-08-15T07:27:09Z</time>
      </trkpt>
      <trkpt lat="50.2344" lon="4.23786">
        <ele>218</ele>
        <time>2020-08-15T07:27:11Z</time>
      </trkpt>
      <trkpt lat="50.23433" lon="4.23772">
        <ele>218</ele>
        <time>2020-08-15T07:27:13Z</time>
      </trkpt>
      <trkpt lat="50.23426" lon="4.23758">
        <ele>215</ele>
        <time>2020-08-15T07:27:15Z</time>
      </trkpt>
      <trkpt lat="50.23422" lon="4.23742">
        <ele>215</ele>
        <time>2020-08-15T07:27:17Z</time>
      </trkpt>
      <trkpt lat="50.23417" lon="4.23725">
        <ele>214</ele>
        <time>2020-08-15T07:27:19Z</time>
      </trkpt>
      <trkpt lat="50.23413" lon="4.2371">
        <ele>214</ele>
        <time>2020-08-15T07:27:21Z</time>
      </trkpt>
      <trkpt lat="50.23409" lon="4.23698">
        <ele>215</ele>
        <time>2020-08-15T07:27:23Z</time>
      </trkpt>
      <trkpt lat="50.23406" lon="4.23686">
        <ele>215</ele>
        <time>2020-08-15T07:27:25Z</time>
      </trkpt>
      <trkpt lat="50.23403" lon="4.23675">
        <ele>214</ele>
        <time>2020-08-15T07:27:27Z</time>
      </trkpt>
      <trkpt lat="50.23399" lon="4.23663">
        <ele>210</ele>
        <time>2020-08-15T07:27:29Z</time>
      </trkpt>
      <trkpt lat="50.23396" lon="4.23653">
        <ele>209</ele>
        <time>2020-08-15T07:27:31Z</time>
      </trkpt>
      <trkpt lat="50.23392" lon="4.23646">
        <ele>209</ele>
        <time>2020-08-15T07:27:33Z</time>
      </trkpt>
      <trkpt lat="50.23388" lon="4.23637">
        <ele>209</ele>
        <time>2020-08-15T07:27:35Z</time>
      </trkpt>
      <trkpt lat="50.23385" lon="4.23628">
        <ele>209</ele>
        <time>2020-08-15T07:27:37Z</time>
      </trkpt>
      <trkpt lat="50.23383" lon="4.23618">
        <ele>206</ele>
        <time>2020-08-15T07:27:39Z</time>
      </trkpt>
      <trkpt lat="50.23379" lon="4.2361">
        <ele>206</ele>
        <time>2020-08-15T07:27:41Z</time>
      </trkpt>
      <trkpt lat="50.23378" lon="4.23601">
        <ele>206</ele>
        <time>2020-08-15T07:27:43Z</time>
      </trkpt>
      <trkpt lat="50.2338" lon="4.2359">
        <ele>204</ele>
        <time>2020-08-15T07:27:45Z</time>
      </trkpt>
      <trkpt lat="50.23383" lon="4.2358">
        <ele>204</ele>
        <time>2020-08-15T07:27:47Z</time>
      </trkpt>
      <trkpt lat="50.23386" lon="4.23572">
        <ele>204</ele>
        <time>2020-08-15T07:27:49Z</time>
      </trkpt>
      <trkpt lat="50.23389" lon="4.23566">
        <ele>201</ele>
        <time>2020-08-15T07:27:51Z</time>
      </trkpt>
      <trkpt lat="50.23394" lon="4.23559">
        <ele>201</ele>
        <time>2020-08-15T07:27:53Z</time>
      </trkpt>
      <trkpt lat="50.23398" lon="4.23552">
        <ele>201</ele>
        <time>2020-08-15T07:27:55Z</time>
      </trkpt>
      <trkpt lat="50.23402" lon="4.23546">
        <ele>201</ele>
        <time>2020-08-15T07:27:57Z</time>
      </trkpt>
      <trkpt lat="50.23407" lon="4.23539">
        <ele>199</ele>
        <time>2020-08-15T07:27:59Z</time>
      </trkpt>
      <trkpt lat="50.2341" lon="4.23533">
        <ele>199</ele>
        <time>2020-08-15T07:28:01Z</time>
      </trkpt>
      <trkpt lat="50.23413" lon="4.23526">
        <ele>199</ele>
        <time>2020-08-15T07:28:03Z</time>
      </trkpt>
      <trkpt lat="50.23417" lon="4.2352">
        <ele>199</ele>
        <time>2020-08-15T07:28:05Z</time>
      </trkpt>
      <trkpt lat="50.23424" lon="4.23514">
        <ele>199</ele>
        <time>2020-08-15T07:28:07Z</time>
      </trkpt>
      <trkpt lat="50.2343" lon="4.23507">
        <ele>194</ele>
        <time>2020-08-15T07:28:09Z</time>
      </trkpt>
      <trkpt lat="50.23436" lon="4.23503">
        <ele>198</ele>
        <time>2020-08-15T07:28:11Z</time>
      </trkpt>
      <trkpt lat="50.23443" lon="4.23498">
        <ele>198</ele>
        <time>2020-08-15T07:28:13Z</time>
      </trkpt>
      <trkpt lat="50.23448" lon="4.23493">
        <ele>198</ele>
        <time>2020-08-15T07:28:15Z</time>
      </trkpt>
      <trkpt lat="50.23453" lon="4.23491">
        <ele>198</ele>
        <time>2020-08-15T07:28:17Z</time>
      </trkpt>
      <trkpt lat="50.23452" lon="4.23488">
        <ele>198</ele>
        <time>2020-08-15T07:28:25Z</time>
      </trkpt>
      <trkpt lat="50.23451" lon="4.23489">
        <ele>198</ele>
        <time>2020-08-15T07:28:27Z</time>
      </trkpt>
      <trkpt lat="50.23447" lon="4.2349">
        <ele>198</ele>
        <time>2020-08-15T07:28:29Z</time>
      </trkpt>
      <trkpt lat="50.23442" lon="4.23492">
        <ele>198</ele>
        <time>2020-08-15T07:28:31Z</time>
      </trkpt>
      <trkpt lat="50.23435" lon="4.23494">
        <ele>198</ele>
        <time>2020-08-15T07:28:33Z</time>
      </trkpt>
      <trkpt lat="50.2343" lon="4.23497">
        <ele>194</ele>
        <time>2020-08-15T07:28:35Z</time>
      </trkpt>
      <trkpt lat="50.23423" lon="4.23497">
        <ele>194</ele>
        <time>2020-08-15T07:28:37Z</time>
      </trkpt>
      <trkpt lat="50.2342" lon="4.23495">
        <ele>194</ele>
        <time>2020-08-15T07:28:39Z</time>
      </trkpt>
      <trkpt lat="50.2342" lon="4.23491">
        <ele>194</ele>
        <time>2020-08-15T07:28:41Z</time>
      </trkpt>
      <trkpt lat="50.23422" lon="4.23485">
        <ele>186</ele>
        <time>2020-08-15T07:28:43Z</time>
      </trkpt>
      <trkpt lat="50.23426" lon="4.2348">
        <ele>186</ele>
        <time>2020-08-15T07:28:45Z</time>
      </trkpt>
      <trkpt lat="50.23431" lon="4.23473">
        <ele>191</ele>
        <time>2020-08-15T07:28:47Z</time>
      </trkpt>
      <trkpt lat="50.23438" lon="4.23465">
        <ele>191</ele>
        <time>2020-08-15T07:28:49Z</time>
      </trkpt>
      <trkpt lat="50.23444" lon="4.23454">
        <ele>184</ele>
        <time>2020-08-15T07:28:51Z</time>
      </trkpt>
      <trkpt lat="50.23449" lon="4.23444">
        <ele>184</ele>
        <time>2020-08-15T07:28:53Z</time>
      </trkpt>
      <trkpt lat="50.23454" lon="4.23433">
        <ele>184</ele>
        <time>2020-08-15T07:28:55Z</time>
      </trkpt>
      <trkpt lat="50.23463" lon="4.23421">
        <ele>183</ele>
        <time>2020-08-15T07:28:57Z</time>
      </trkpt>
      <trkpt lat="50.23471" lon="4.23407">
        <ele>183</ele>
        <time>2020-08-15T07:28:59Z</time>
      </trkpt>
      <trkpt lat="50.23478" lon="4.23393">
        <ele>178</ele>
        <time>2020-08-15T07:29:01Z</time>
      </trkpt>
      <trkpt lat="50.23486" lon="4.23383">
        <ele>184</ele>
        <time>2020-08-15T07:29:03Z</time>
      </trkpt>
      <trkpt lat="50.23492" lon="4.23373">
        <ele>178</ele>
        <time>2020-08-15T07:29:05Z</time>
      </trkpt>
      <trkpt lat="50.23499" lon="4.23361">
        <ele>178</ele>
        <time>2020-08-15T07:29:07Z</time>
      </trkpt>
      <trkpt lat="50.23506" lon="4.23352">
        <ele>178</ele>
        <time>2020-08-15T07:29:09Z</time>
      </trkpt>
      <trkpt lat="50.2351" lon="4.23344">
        <ele>172</ele>
        <time>2020-08-15T07:29:11Z</time>
      </trkpt>
      <trkpt lat="50.23512" lon="4.23339">
        <ele>172</ele>
        <time>2020-08-15T07:29:13Z</time>
      </trkpt>
      <trkpt lat="50.23508" lon="4.23334">
        <ele>172</ele>
        <time>2020-08-15T07:30:33Z</time>
      </trkpt>
      <trkpt lat="50.23507" lon="4.23336">
        <ele>172</ele>
        <time>2020-08-15T07:30:35Z</time>
      </trkpt>
      <trkpt lat="50.23507" lon="4.23326">
        <ele>172</ele>
        <time>2020-08-15T07:38:43Z</time>
      </trkpt>
      <trkpt lat="50.23509" lon="4.23316">
        <ele>169</ele>
        <time>2020-08-15T07:38:45Z</time>
      </trkpt>
      <trkpt lat="50.23511" lon="4.23307">
        <ele>169</ele>
        <time>2020-08-15T07:38:47Z</time>
      </trkpt>
      <trkpt lat="50.23514" lon="4.23297">
        <ele>169</ele>
        <time>2020-08-15T07:38:49Z</time>
      </trkpt>
      <trkpt lat="50.23517" lon="4.23286">
        <ele>172</ele>
        <time>2020-08-15T07:38:51Z</time>
      </trkpt>
      <trkpt lat="50.23521" lon="4.23276">
        <ele>172</ele>
        <time>2020-08-15T07:38:53Z</time>
      </trkpt>
      <trkpt lat="50.23523" lon="4.23263">
        <ele>172</ele>
        <time>2020-08-15T07:38:55Z</time>
      </trkpt>
      <trkpt lat="50.23525" lon="4.23249">
        <ele>172</ele>
        <time>2020-08-15T07:38:57Z</time>
      </trkpt>
      <trkpt lat="50.23524" lon="4.23233">
        <ele>166</ele>
        <time>2020-08-15T07:38:59Z</time>
      </trkpt>
      <trkpt lat="50.23521" lon="4.23219">
        <ele>166</ele>
        <time>2020-08-15T07:39:01Z</time>
      </trkpt>
      <trkpt lat="50.23519" lon="4.23206">
        <ele>166</ele>
        <time>2020-08-15T07:39:03Z</time>
      </trkpt>
      <trkpt lat="50.23517" lon="4.23195">
        <ele>166</ele>
        <time>2020-08-15T07:39:05Z</time>
      </trkpt>
      <trkpt lat="50.23516" lon="4.23186">
        <ele>166</ele>
        <time>2020-08-15T07:39:07Z</time>
      </trkpt>
      <trkpt lat="50.23515" lon="4.23177">
        <ele>162</ele>
        <time>2020-08-15T07:39:09Z</time>
      </trkpt>
      <trkpt lat="50.23514" lon="4.23169">
        <ele>160</ele>
        <time>2020-08-15T07:39:11Z</time>
      </trkpt>
      <trkpt lat="50.23513" lon="4.23162">
        <ele>160</ele>
        <time>2020-08-15T07:39:13Z</time>
      </trkpt>
      <trkpt lat="50.23514" lon="4.23155">
        <ele>160</ele>
        <time>2020-08-15T07:39:15Z</time>
      </trkpt>
      <trkpt lat="50.23513" lon="4.23151">
        <ele>161</ele>
        <time>2020-08-15T07:39:17Z</time>
      </trkpt>
      <trkpt lat="50.23512" lon="4.23147">
        <ele>161</ele>
        <time>2020-08-15T07:39:25Z</time>
      </trkpt>
      <trkpt lat="50.23513" lon="4.23143">
        <ele>161</ele>
        <time>2020-08-15T07:39:27Z</time>
      </trkpt>
      <trkpt lat="50.23514" lon="4.23137">
        <ele>162</ele>
        <time>2020-08-15T07:39:29Z</time>
      </trkpt>
      <trkpt lat="50.23516" lon="4.2313">
        <ele>162</ele>
        <time>2020-08-15T07:39:31Z</time>
      </trkpt>
      <trkpt lat="50.23518" lon="4.23124">
        <ele>160</ele>
        <time>2020-08-15T07:39:33Z</time>
      </trkpt>
      <trkpt lat="50.23521" lon="4.23118">
        <ele>160</ele>
        <time>2020-08-15T07:39:35Z</time>
      </trkpt>
      <trkpt lat="50.23524" lon="4.23113">
        <ele>160</ele>
        <time>2020-08-15T07:39:37Z</time>
      </trkpt>
      <trkpt lat="50.23525" lon="4.23106">
        <ele>160</ele>
        <time>2020-08-15T07:39:39Z</time>
      </trkpt>
      <trkpt lat="50.23525" lon="4.23098">
        <ele>160</ele>
        <time>2020-08-15T07:39:41Z</time>
      </trkpt>
      <trkpt lat="50.23523" lon="4.23091">
        <ele>163</ele>
        <time>2020-08-15T07:39:43Z</time>
      </trkpt>
      <trkpt lat="50.23522" lon="4.23084">
        <ele>163</ele>
        <time>2020-08-15T07:39:45Z</time>
      </trkpt>
      <trkpt lat="50.2352" lon="4.23074">
        <ele>163</ele>
        <time>2020-08-15T07:39:47Z</time>
      </trkpt>
      <trkpt lat="50.23519" lon="4.23063">
        <ele>161</ele>
        <time>2020-08-15T07:39:49Z</time>
      </trkpt>
      <trkpt lat="50.23518" lon="4.23052">
        <ele>161</ele>
        <time>2020-08-15T07:39:51Z</time>
      </trkpt>
      <trkpt lat="50.23517" lon="4.23038">
        <ele>163</ele>
        <time>2020-08-15T07:39:53Z</time>
      </trkpt>
      <trkpt lat="50.23516" lon="4.23025">
        <ele>163</ele>
        <time>2020-08-15T07:39:55Z</time>
      </trkpt>
      <trkpt lat="50.23515" lon="4.23011">
        <ele>163</ele>
        <time>2020-08-15T07:39:57Z</time>
      </trkpt>
      <trkpt lat="50.23513" lon="4.22997">
        <ele>160</ele>
        <time>2020-08-15T07:39:59Z</time>
      </trkpt>
      <trkpt lat="50.23513" lon="4.22983">
        <ele>161</ele>
        <time>2020-08-15T07:40:01Z</time>
      </trkpt>
      <trkpt lat="50.23512" lon="4.22968">
        <ele>161</ele>
        <time>2020-08-15T07:40:03Z</time>
      </trkpt>
      <trkpt lat="50.23511" lon="4.22954">
        <ele>158</ele>
        <time>2020-08-15T07:40:05Z</time>
      </trkpt>
      <trkpt lat="50.2351" lon="4.22939">
        <ele>158</ele>
        <time>2020-08-15T07:40:07Z</time>
      </trkpt>
      <trkpt lat="50.2351" lon="4.22924">
        <ele>160</ele>
        <time>2020-08-15T07:40:09Z</time>
      </trkpt>
      <trkpt lat="50.2351" lon="4.2291">
        <ele>160</ele>
        <time>2020-08-15T07:40:11Z</time>
      </trkpt>
      <trkpt lat="50.23511" lon="4.22896">
        <ele>159</ele>
        <time>2020-08-15T07:40:13Z</time>
      </trkpt>
      <trkpt lat="50.23513" lon="4.22882">
        <ele>159</ele>
        <time>2020-08-15T07:40:15Z</time>
      </trkpt>
      <trkpt lat="50.23517" lon="4.22869">
        <ele>160</ele>
        <time>2020-08-15T07:40:17Z</time>
      </trkpt>
      <trkpt lat="50.23521" lon="4.22855">
        <ele>160</ele>
        <time>2020-08-15T07:40:19Z</time>
      </trkpt>
      <trkpt lat="50.23524" lon="4.22842">
        <ele>160</ele>
        <time>2020-08-15T07:40:21Z</time>
      </trkpt>
      <trkpt lat="50.23528" lon="4.22828">
        <ele>160</ele>
        <time>2020-08-15T07:40:23Z</time>
      </trkpt>
      <trkpt lat="50.23532" lon="4.22814">
        <ele>159</ele>
        <time>2020-08-15T07:40:25Z</time>
      </trkpt>
      <trkpt lat="50.23536" lon="4.22799">
        <ele>159</ele>
        <time>2020-08-15T07:40:27Z</time>
      </trkpt>
      <trkpt lat="50.2354" lon="4.22783">
        <ele>157</ele>
        <time>2020-08-15T07:40:29Z</time>
      </trkpt>
      <trkpt lat="50.23544" lon="4.22768">
        <ele>158</ele>
        <time>2020-08-15T07:40:31Z</time>
      </trkpt>
      <trkpt lat="50.23549" lon="4.22753">
        <ele>158</ele>
        <time>2020-08-15T07:40:33Z</time>
      </trkpt>
      <trkpt lat="50.23553" lon="4.22737">
        <ele>158</ele>
        <time>2020-08-15T07:40:35Z</time>
      </trkpt>
      <trkpt lat="50.23557" lon="4.22721">
        <ele>158</ele>
        <time>2020-08-15T07:40:37Z</time>
      </trkpt>
      <trkpt lat="50.2356" lon="4.22706">
        <ele>158</ele>
        <time>2020-08-15T07:40:39Z</time>
      </trkpt>
      <trkpt lat="50.23565" lon="4.22691">
        <ele>158</ele>
        <time>2020-08-15T07:40:41Z</time>
      </trkpt>
      <trkpt lat="50.23569" lon="4.22676">
        <ele>157</ele>
        <time>2020-08-15T07:40:43Z</time>
      </trkpt>
      <trkpt lat="50.23573" lon="4.22661">
        <ele>158</ele>
        <time>2020-08-15T07:40:45Z</time>
      </trkpt>
      <trkpt lat="50.23577" lon="4.22646">
        <ele>158</ele>
        <time>2020-08-15T07:40:47Z</time>
      </trkpt>
      <trkpt lat="50.23581" lon="4.22631">
        <ele>158</ele>
        <time>2020-08-15T07:40:49Z</time>
      </trkpt>
      <trkpt lat="50.23585" lon="4.22616">
        <ele>156</ele>
        <time>2020-08-15T07:40:51Z</time>
      </trkpt>
      <trkpt lat="50.2359" lon="4.22601">
        <ele>156</ele>
        <time>2020-08-15T07:40:53Z</time>
      </trkpt>
      <trkpt lat="50.23594" lon="4.22586">
        <ele>157</ele>
        <time>2020-08-15T07:40:55Z</time>
      </trkpt>
      <trkpt lat="50.23599" lon="4.2257">
        <ele>159</ele>
        <time>2020-08-15T07:40:57Z</time>
      </trkpt>
      <trkpt lat="50.23604" lon="4.22555">
        <ele>157</ele>
        <time>2020-08-15T07:40:59Z</time>
      </trkpt>
      <trkpt lat="50.23608" lon="4.2254">
        <ele>158</ele>
        <time>2020-08-15T07:41:01Z</time>
      </trkpt>
      <trkpt lat="50.23612" lon="4.22524">
        <ele>158</ele>
        <time>2020-08-15T07:41:03Z</time>
      </trkpt>
      <trkpt lat="50.23616" lon="4.22509">
        <ele>156</ele>
        <time>2020-08-15T07:41:05Z</time>
      </trkpt>
      <trkpt lat="50.2362" lon="4.22493">
        <ele>156</ele>
        <time>2020-08-15T07:41:07Z</time>
      </trkpt>
      <trkpt lat="50.23622" lon="4.22476">
        <ele>157</ele>
        <time>2020-08-15T07:41:09Z</time>
      </trkpt>
      <trkpt lat="50.23623" lon="4.22459">
        <ele>157</ele>
        <time>2020-08-15T07:41:11Z</time>
      </trkpt>
      <trkpt lat="50.23623" lon="4.22442">
        <ele>157</ele>
        <time>2020-08-15T07:41:13Z</time>
      </trkpt>
      <trkpt lat="50.23623" lon="4.22426">
        <ele>156</ele>
        <time>2020-08-15T07:41:15Z</time>
      </trkpt>
      <trkpt lat="50.23622" lon="4.22409">
        <ele>156</ele>
        <time>2020-08-15T07:41:17Z</time>
      </trkpt>
      <trkpt lat="50.23621" lon="4.22393">
        <ele>157</ele>
        <time>2020-08-15T07:41:19Z</time>
      </trkpt>
      <trkpt lat="50.2362" lon="4.22376">
        <ele>157</ele>
        <time>2020-08-15T07:41:21Z</time>
      </trkpt>
      <trkpt lat="50.23619" lon="4.2236">
        <ele>155</ele>
        <time>2020-08-15T07:41:23Z</time>
      </trkpt>
      <trkpt lat="50.23618" lon="4.22344">
        <ele>157</ele>
        <time>2020-08-15T07:41:25Z</time>
      </trkpt>
      <trkpt lat="50.23616" lon="4.22328">
        <ele>157</ele>
        <time>2020-08-15T07:41:27Z</time>
      </trkpt>
      <trkpt lat="50.23616" lon="4.22312">
        <ele>156</ele>
        <time>2020-08-15T07:41:29Z</time>
      </trkpt>
      <trkpt lat="50.23615" lon="4.22296">
        <ele>156</ele>
        <time>2020-08-15T07:41:31Z</time>
      </trkpt>
      <trkpt lat="50.23614" lon="4.2228">
        <ele>158</ele>
        <time>2020-08-15T07:41:33Z</time>
      </trkpt>
      <trkpt lat="50.23613" lon="4.22263">
        <ele>157</ele>
        <time>2020-08-15T07:41:35Z</time>
      </trkpt>
      <trkpt lat="50.23612" lon="4.22247">
        <ele>157</ele>
        <time>2020-08-15T07:41:37Z</time>
      </trkpt>
      <trkpt lat="50.23612" lon="4.22231">
        <ele>158</ele>
        <time>2020-08-15T07:41:39Z</time>
      </trkpt>
      <trkpt lat="50.23611" lon="4.22215">
        <ele>158</ele>
        <time>2020-08-15T07:41:41Z</time>
      </trkpt>
      <trkpt lat="50.23609" lon="4.22199">
        <ele>157</ele>
        <time>2020-08-15T07:41:43Z</time>
      </trkpt>
      <trkpt lat="50.23607" lon="4.22183">
        <ele>157</ele>
        <time>2020-08-15T07:41:45Z</time>
      </trkpt>
      <trkpt lat="50.23601" lon="4.22166">
        <ele>157</ele>
        <time>2020-08-15T07:41:47Z</time>
      </trkpt>
      <trkpt lat="50.23594" lon="4.22151">
        <ele>156</ele>
        <time>2020-08-15T07:41:49Z</time>
      </trkpt>
      <trkpt lat="50.23586" lon="4.22137">
        <ele>156</ele>
        <time>2020-08-15T07:41:51Z</time>
      </trkpt>
      <trkpt lat="50.23579" lon="4.22123">
        <ele>154</ele>
        <time>2020-08-15T07:41:53Z</time>
      </trkpt>
      <trkpt lat="50.23572" lon="4.22109">
        <ele>154</ele>
        <time>2020-08-15T07:41:55Z</time>
      </trkpt>
      <trkpt lat="50.23565" lon="4.22096">
        <ele>156</ele>
        <time>2020-08-15T07:41:57Z</time>
      </trkpt>
      <trkpt lat="50.23558" lon="4.22083">
        <ele>156</ele>
        <time>2020-08-15T07:41:59Z</time>
      </trkpt>
      <trkpt lat="50.23552" lon="4.2207">
        <ele>156</ele>
        <time>2020-08-15T07:42:01Z</time>
      </trkpt>
      <trkpt lat="50.23547" lon="4.22055">
        <ele>157</ele>
        <time>2020-08-15T07:42:03Z</time>
      </trkpt>
      <trkpt lat="50.23542" lon="4.2204">
        <ele>159</ele>
        <time>2020-08-15T07:42:05Z</time>
      </trkpt>
      <trkpt lat="50.23539" lon="4.22024">
        <ele>161</ele>
        <time>2020-08-15T07:42:07Z</time>
      </trkpt>
      <trkpt lat="50.23537" lon="4.22008">
        <ele>161</ele>
        <time>2020-08-15T07:42:09Z</time>
      </trkpt>
      <trkpt lat="50.23535" lon="4.21992">
        <ele>161</ele>
        <time>2020-08-15T07:42:11Z</time>
      </trkpt>
      <trkpt lat="50.23533" lon="4.21976">
        <ele>164</ele>
        <time>2020-08-15T07:42:13Z</time>
      </trkpt>
      <trkpt lat="50.23531" lon="4.2196">
        <ele>164</ele>
        <time>2020-08-15T07:42:15Z</time>
      </trkpt>
      <trkpt lat="50.23529" lon="4.21944">
        <ele>161</ele>
        <time>2020-08-15T07:42:17Z</time>
      </trkpt>
      <trkpt lat="50.23527" lon="4.21927">
        <ele>167</ele>
        <time>2020-08-15T07:42:19Z</time>
      </trkpt>
      <trkpt lat="50.23524" lon="4.21913">
        <ele>167</ele>
        <time>2020-08-15T07:42:21Z</time>
      </trkpt>
      <trkpt lat="50.23521" lon="4.21898">
        <ele>165</ele>
        <time>2020-08-15T07:42:23Z</time>
      </trkpt>
      <trkpt lat="50.23519" lon="4.21885">
        <ele>165</ele>
        <time>2020-08-15T07:42:25Z</time>
      </trkpt>
      <trkpt lat="50.23518" lon="4.21871">
        <ele>168</ele>
        <time>2020-08-15T07:42:27Z</time>
      </trkpt>
      <trkpt lat="50.23515" lon="4.21857">
        <ele>168</ele>
        <time>2020-08-15T07:42:29Z</time>
      </trkpt>
      <trkpt lat="50.23513" lon="4.21843">
        <ele>174</ele>
        <time>2020-08-15T07:42:31Z</time>
      </trkpt>
      <trkpt lat="50.23511" lon="4.21829">
        <ele>174</ele>
        <time>2020-08-15T07:42:33Z</time>
      </trkpt>
      <trkpt lat="50.2351" lon="4.21816">
        <ele>172</ele>
        <time>2020-08-15T07:42:35Z</time>
      </trkpt>
      <trkpt lat="50.23509" lon="4.21803">
        <ele>172</ele>
        <time>2020-08-15T07:42:37Z</time>
      </trkpt>
      <trkpt lat="50.23507" lon="4.21789">
        <ele>170</ele>
        <time>2020-08-15T07:42:39Z</time>
      </trkpt>
      <trkpt lat="50.23506" lon="4.21774">
        <ele>170</ele>
        <time>2020-08-15T07:42:41Z</time>
      </trkpt>
      <trkpt lat="50.23504" lon="4.2176">
        <ele>170</ele>
        <time>2020-08-15T07:42:43Z</time>
      </trkpt>
      <trkpt lat="50.23502" lon="4.21746">
        <ele>170</ele>
        <time>2020-08-15T07:42:45Z</time>
      </trkpt>
      <trkpt lat="50.235" lon="4.21733">
        <ele>170</ele>
        <time>2020-08-15T07:42:47Z</time>
      </trkpt>
      <trkpt lat="50.23496" lon="4.21721">
        <ele>170</ele>
        <time>2020-08-15T07:42:49Z</time>
      </trkpt>
      <trkpt lat="50.23492" lon="4.2171">
        <ele>170</ele>
        <time>2020-08-15T07:42:51Z</time>
      </trkpt>
      <trkpt lat="50.23488" lon="4.21701">
        <ele>168</ele>
        <time>2020-08-15T07:42:53Z</time>
      </trkpt>
      <trkpt lat="50.23484" lon="4.21692">
        <ele>172</ele>
        <time>2020-08-15T07:42:55Z</time>
      </trkpt>
      <trkpt lat="50.2348" lon="4.21683">
        <ele>172</ele>
        <time>2020-08-15T07:42:57Z</time>
      </trkpt>
      <trkpt lat="50.23476" lon="4.21672">
        <ele>174</ele>
        <time>2020-08-15T07:42:59Z</time>
      </trkpt>
      <trkpt lat="50.23473" lon="4.21661">
        <ele>174</ele>
        <time>2020-08-15T07:43:01Z</time>
      </trkpt>
      <trkpt lat="50.23471" lon="4.21651">
        <ele>171</ele>
        <time>2020-08-15T07:43:03Z</time>
      </trkpt>
      <trkpt lat="50.23468" lon="4.2164">
        <ele>171</ele>
        <time>2020-08-15T07:43:05Z</time>
      </trkpt>
      <trkpt lat="50.23467" lon="4.21628">
        <ele>171</ele>
        <time>2020-08-15T07:43:07Z</time>
      </trkpt>
      <trkpt lat="50.23465" lon="4.21616">
        <ele>174</ele>
        <time>2020-08-15T07:43:09Z</time>
      </trkpt>
      <trkpt lat="50.23463" lon="4.21604">
        <ele>174</ele>
        <time>2020-08-15T07:43:11Z</time>
      </trkpt>
      <trkpt lat="50.23462" lon="4.21591">
        <ele>170</ele>
        <time>2020-08-15T07:43:13Z</time>
      </trkpt>
      <trkpt lat="50.2346" lon="4.21578">
        <ele>170</ele>
        <time>2020-08-15T07:43:15Z</time>
      </trkpt>
      <trkpt lat="50.23458" lon="4.21565">
        <ele>176</ele>
        <time>2020-08-15T07:43:17Z</time>
      </trkpt>
      <trkpt lat="50.23455" lon="4.21551">
        <ele>176</ele>
        <time>2020-08-15T07:43:19Z</time>
      </trkpt>
      <trkpt lat="50.23453" lon="4.21538">
        <ele>172</ele>
        <time>2020-08-15T07:43:21Z</time>
      </trkpt>
      <trkpt lat="50.23451" lon="4.21524">
        <ele>172</ele>
        <time>2020-08-15T07:43:23Z</time>
      </trkpt>
      <trkpt lat="50.23447" lon="4.2151">
        <ele>172</ele>
        <time>2020-08-15T07:43:25Z</time>
      </trkpt>
      <trkpt lat="50.23443" lon="4.21497">
        <ele>172</ele>
        <time>2020-08-15T07:43:27Z</time>
      </trkpt>
      <trkpt lat="50.23439" lon="4.21483">
        <ele>169</ele>
        <time>2020-08-15T07:43:29Z</time>
      </trkpt>
      <trkpt lat="50.23435" lon="4.2147">
        <ele>169</ele>
        <time>2020-08-15T07:43:31Z</time>
      </trkpt>
      <trkpt lat="50.2343" lon="4.21457">
        <ele>173</ele>
        <time>2020-08-15T07:43:33Z</time>
      </trkpt>
      <trkpt lat="50.23426" lon="4.21445">
        <ele>173</ele>
        <time>2020-08-15T07:43:35Z</time>
      </trkpt>
      <trkpt lat="50.23422" lon="4.21432">
        <ele>173</ele>
        <time>2020-08-15T07:43:37Z</time>
      </trkpt>
      <trkpt lat="50.23419" lon="4.2142">
        <ele>173</ele>
        <time>2020-08-15T07:43:39Z</time>
      </trkpt>
      <trkpt lat="50.23415" lon="4.21407">
        <ele>173</ele>
        <time>2020-08-15T07:43:41Z</time>
      </trkpt>
      <trkpt lat="50.23412" lon="4.21395">
        <ele>173</ele>
        <time>2020-08-15T07:43:43Z</time>
      </trkpt>
      <trkpt lat="50.23408" lon="4.21383">
        <ele>173</ele>
        <time>2020-08-15T07:43:45Z</time>
      </trkpt>
      <trkpt lat="50.23403" lon="4.21371">
        <ele>174</ele>
        <time>2020-08-15T07:43:47Z</time>
      </trkpt>
      <trkpt lat="50.23399" lon="4.21359">
        <ele>177</ele>
        <time>2020-08-15T07:43:49Z</time>
      </trkpt>
      <trkpt lat="50.23394" lon="4.21349">
        <ele>177</ele>
        <time>2020-08-15T07:43:51Z</time>
      </trkpt>
      <trkpt lat="50.23388" lon="4.21338">
        <ele>177</ele>
        <time>2020-08-15T07:43:53Z</time>
      </trkpt>
      <trkpt lat="50.23382" lon="4.21329">
        <ele>177</ele>
        <time>2020-08-15T07:43:55Z</time>
      </trkpt>
      <trkpt lat="50.23377" lon="4.21319">
        <ele>176</ele>
        <time>2020-08-15T07:43:57Z</time>
      </trkpt>
      <trkpt lat="50.23371" lon="4.2131">
        <ele>178</ele>
        <time>2020-08-15T07:43:59Z</time>
      </trkpt>
      <trkpt lat="50.23365" lon="4.213">
        <ele>178</ele>
        <time>2020-08-15T07:44:01Z</time>
      </trkpt>
      <trkpt lat="50.2336" lon="4.2129">
        <ele>176</ele>
        <time>2020-08-15T07:44:03Z</time>
      </trkpt>
      <trkpt lat="50.23357" lon="4.21281">
        <ele>176</ele>
        <time>2020-08-15T07:44:05Z</time>
      </trkpt>
      <trkpt lat="50.23356" lon="4.21271">
        <ele>176</ele>
        <time>2020-08-15T07:44:07Z</time>
      </trkpt>
      <trkpt lat="50.23359" lon="4.21262">
        <ele>177</ele>
        <time>2020-08-15T07:44:09Z</time>
      </trkpt>
      <trkpt lat="50.23365" lon="4.21253">
        <ele>177</ele>
        <time>2020-08-15T07:44:11Z</time>
      </trkpt>
      <trkpt lat="50.23372" lon="4.21243">
        <ele>177</ele>
        <time>2020-08-15T07:44:13Z</time>
      </trkpt>
      <trkpt lat="50.2338" lon="4.21231">
        <ele>174</ele>
        <time>2020-08-15T07:44:15Z</time>
      </trkpt>
      <trkpt lat="50.23386" lon="4.21215">
        <ele>174</ele>
        <time>2020-08-15T07:44:17Z</time>
      </trkpt>
      <trkpt lat="50.2339" lon="4.21196">
        <ele>174</ele>
        <time>2020-08-15T07:44:19Z</time>
      </trkpt>
      <trkpt lat="50.23394" lon="4.21176">
        <ele>174</ele>
        <time>2020-08-15T07:44:21Z</time>
      </trkpt>
      <trkpt lat="50.23399" lon="4.21155">
        <ele>174</ele>
        <time>2020-08-15T07:44:23Z</time>
      </trkpt>
      <trkpt lat="50.23409" lon="4.21139">
        <ele>169</ele>
        <time>2020-08-15T07:44:25Z</time>
      </trkpt>
      <trkpt lat="50.23423" lon="4.21127">
        <ele>169</ele>
        <time>2020-08-15T07:44:27Z</time>
      </trkpt>
      <trkpt lat="50.23439" lon="4.21118">
        <ele>166</ele>
        <time>2020-08-15T07:44:29Z</time>
      </trkpt>
      <trkpt lat="50.23456" lon="4.21111">
        <ele>166</ele>
        <time>2020-08-15T07:44:31Z</time>
      </trkpt>
      <trkpt lat="50.2347" lon="4.21105">
        <ele>165</ele>
        <time>2020-08-15T07:44:33Z</time>
      </trkpt>
      <trkpt lat="50.2348" lon="4.21096">
        <ele>163</ele>
        <time>2020-08-15T07:44:35Z</time>
      </trkpt>
      <trkpt lat="50.23481" lon="4.21077">
        <ele>163</ele>
        <time>2020-08-15T07:44:37Z</time>
      </trkpt>
      <trkpt lat="50.23476" lon="4.2106">
        <ele>162</ele>
        <time>2020-08-15T07:44:39Z</time>
      </trkpt>
      <trkpt lat="50.2347" lon="4.21042">
        <ele>162</ele>
        <time>2020-08-15T07:44:41Z</time>
      </trkpt>
      <trkpt lat="50.23467" lon="4.21022">
        <ele>162</ele>
        <time>2020-08-15T07:44:43Z</time>
      </trkpt>
      <trkpt lat="50.23468" lon="4.21003">
        <ele>162</ele>
        <time>2020-08-15T07:44:45Z</time>
      </trkpt>
      <trkpt lat="50.23476" lon="4.20987">
        <ele>162</ele>
        <time>2020-08-15T07:44:47Z</time>
      </trkpt>
      <trkpt lat="50.23486" lon="4.20977">
        <ele>161</ele>
        <time>2020-08-15T07:44:49Z</time>
      </trkpt>
      <trkpt lat="50.23498" lon="4.20969">
        <ele>161</ele>
        <time>2020-08-15T07:44:51Z</time>
      </trkpt>
      <trkpt lat="50.2351" lon="4.20963">
        <ele>161</ele>
        <time>2020-08-15T07:44:53Z</time>
      </trkpt>
      <trkpt lat="50.23521" lon="4.20961">
        <ele>161</ele>
        <time>2020-08-15T07:44:55Z</time>
      </trkpt>
      <trkpt lat="50.23533" lon="4.20959">
        <ele>161</ele>
        <time>2020-08-15T07:44:57Z</time>
      </trkpt>
      <trkpt lat="50.23543" lon="4.20959">
        <ele>161</ele>
        <time>2020-08-15T07:44:59Z</time>
      </trkpt>
      <trkpt lat="50.23551" lon="4.20961">
        <ele>161</ele>
        <time>2020-08-15T07:45:01Z</time>
      </trkpt>
      <trkpt lat="50.23559" lon="4.20964">
        <ele>161</ele>
        <time>2020-08-15T07:45:03Z</time>
      </trkpt>
      <trkpt lat="50.23566" lon="4.20969">
        <ele>161</ele>
        <time>2020-08-15T07:45:05Z</time>
      </trkpt>
      <trkpt lat="50.23573" lon="4.2098">
        <ele>160</ele>
        <time>2020-08-15T07:45:07Z</time>
      </trkpt>
      <trkpt lat="50.23579" lon="4.20994">
        <ele>159</ele>
        <time>2020-08-15T07:45:09Z</time>
      </trkpt>
      <trkpt lat="50.23585" lon="4.21008">
        <ele>159</ele>
        <time>2020-08-15T07:45:11Z</time>
      </trkpt>
      <trkpt lat="50.23592" lon="4.21017">
        <ele>158</ele>
        <time>2020-08-15T07:45:13Z</time>
      </trkpt>
      <trkpt lat="50.23602" lon="4.21019">
        <ele>156</ele>
        <time>2020-08-15T07:45:15Z</time>
      </trkpt>
      <trkpt lat="50.23613" lon="4.21015">
        <ele>156</ele>
        <time>2020-08-15T07:45:17Z</time>
      </trkpt>
      <trkpt lat="50.23624" lon="4.21008">
        <ele>158</ele>
        <time>2020-08-15T07:45:19Z</time>
      </trkpt>
      <trkpt lat="50.23633" lon="4.20994">
        <ele>155</ele>
        <time>2020-08-15T07:45:21Z</time>
      </trkpt>
      <trkpt lat="50.23638" lon="4.20977">
        <ele>155</ele>
        <time>2020-08-15T07:45:23Z</time>
      </trkpt>
      <trkpt lat="50.2364" lon="4.20959">
        <ele>155</ele>
        <time>2020-08-15T07:45:25Z</time>
      </trkpt>
      <trkpt lat="50.2364" lon="4.2094">
        <ele>155</ele>
        <time>2020-08-15T07:45:27Z</time>
      </trkpt>
      <trkpt lat="50.23641" lon="4.20922">
        <ele>155</ele>
        <time>2020-08-15T07:45:29Z</time>
      </trkpt>
      <trkpt lat="50.23643" lon="4.20903">
        <ele>155</ele>
        <time>2020-08-15T07:45:31Z</time>
      </trkpt>
      <trkpt lat="50.23646" lon="4.20887">
        <ele>155</ele>
        <time>2020-08-15T07:45:33Z</time>
      </trkpt>
      <trkpt lat="50.23651" lon="4.20871">
        <ele>155</ele>
        <time>2020-08-15T07:45:35Z</time>
      </trkpt>
      <trkpt lat="50.23658" lon="4.20856">
        <ele>154</ele>
        <time>2020-08-15T07:45:37Z</time>
      </trkpt>
      <trkpt lat="50.23667" lon="4.20843">
        <ele>153</ele>
        <time>2020-08-15T07:45:39Z</time>
      </trkpt>
      <trkpt lat="50.23675" lon="4.20831">
        <ele>153</ele>
        <time>2020-08-15T07:45:41Z</time>
      </trkpt>
      <trkpt lat="50.23682" lon="4.2082">
        <ele>153</ele>
        <time>2020-08-15T07:45:43Z</time>
      </trkpt>
      <trkpt lat="50.23689" lon="4.20808">
        <ele>154</ele>
        <time>2020-08-15T07:45:45Z</time>
      </trkpt>
      <trkpt lat="50.23695" lon="4.20795">
        <ele>154</ele>
        <time>2020-08-15T07:45:47Z</time>
      </trkpt>
      <trkpt lat="50.237" lon="4.20782">
        <ele>155</ele>
        <time>2020-08-15T07:45:49Z</time>
      </trkpt>
      <trkpt lat="50.23705" lon="4.2077">
        <ele>155</ele>
        <time>2020-08-15T07:45:51Z</time>
      </trkpt>
      <trkpt lat="50.23709" lon="4.20758">
        <ele>158</ele>
        <time>2020-08-15T07:45:53Z</time>
      </trkpt>
      <trkpt lat="50.23712" lon="4.20745">
        <ele>158</ele>
        <time>2020-08-15T07:45:55Z</time>
      </trkpt>
      <trkpt lat="50.23714" lon="4.20732">
        <ele>161</ele>
        <time>2020-08-15T07:45:57Z</time>
      </trkpt>
      <trkpt lat="50.23714" lon="4.20718">
        <ele>161</ele>
        <time>2020-08-15T07:45:59Z</time>
      </trkpt>
      <trkpt lat="50.23714" lon="4.20705">
        <ele>164</ele>
        <time>2020-08-15T07:46:01Z</time>
      </trkpt>
      <trkpt lat="50.23714" lon="4.20692">
        <ele>164</ele>
        <time>2020-08-15T07:46:03Z</time>
      </trkpt>
      <trkpt lat="50.23714" lon="4.20678">
        <ele>167</ele>
        <time>2020-08-15T07:46:05Z</time>
      </trkpt>
      <trkpt lat="50.23715" lon="4.20665">
        <ele>167</ele>
        <time>2020-08-15T07:46:07Z</time>
      </trkpt>
      <trkpt lat="50.23714" lon="4.20652">
        <ele>169</ele>
        <time>2020-08-15T07:46:09Z</time>
      </trkpt>
      <trkpt lat="50.23713" lon="4.20637">
        <ele>169</ele>
        <time>2020-08-15T07:46:11Z</time>
      </trkpt>
      <trkpt lat="50.23712" lon="4.20622">
        <ele>170</ele>
        <time>2020-08-15T07:46:13Z</time>
      </trkpt>
      <trkpt lat="50.23711" lon="4.20609">
        <ele>170</ele>
        <time>2020-08-15T07:46:15Z</time>
      </trkpt>
      <trkpt lat="50.2371" lon="4.20595">
        <ele>174</ele>
        <time>2020-08-15T07:46:17Z</time>
      </trkpt>
      <trkpt lat="50.23708" lon="4.20581">
        <ele>170</ele>
        <time>2020-08-15T07:46:19Z</time>
      </trkpt>
      <trkpt lat="50.23707" lon="4.20566">
        <ele>170</ele>
        <time>2020-08-15T07:46:21Z</time>
      </trkpt>
      <trkpt lat="50.23705" lon="4.20552">
        <ele>170</ele>
        <time>2020-08-15T07:46:23Z</time>
      </trkpt>
      <trkpt lat="50.23702" lon="4.20538">
        <ele>173</ele>
        <time>2020-08-15T07:46:25Z</time>
      </trkpt>
      <trkpt lat="50.237" lon="4.20522">
        <ele>173</ele>
        <time>2020-08-15T07:46:27Z</time>
      </trkpt>
      <trkpt lat="50.23698" lon="4.20508">
        <ele>173</ele>
        <time>2020-08-15T07:46:29Z</time>
      </trkpt>
      <trkpt lat="50.23696" lon="4.20494">
        <ele>173</ele>
        <time>2020-08-15T07:46:31Z</time>
      </trkpt>
      <trkpt lat="50.23695" lon="4.20479">
        <ele>173</ele>
        <time>2020-08-15T07:46:33Z</time>
      </trkpt>
      <trkpt lat="50.23693" lon="4.20465">
        <ele>173</ele>
        <time>2020-08-15T07:46:35Z</time>
      </trkpt>
      <trkpt lat="50.23691" lon="4.2045">
        <ele>172</ele>
        <time>2020-08-15T07:46:37Z</time>
      </trkpt>
      <trkpt lat="50.2369" lon="4.20436">
        <ele>172</ele>
        <time>2020-08-15T07:46:39Z</time>
      </trkpt>
      <trkpt lat="50.23689" lon="4.20422">
        <ele>173</ele>
        <time>2020-08-15T07:46:41Z</time>
      </trkpt>
      <trkpt lat="50.23687" lon="4.20408">
        <ele>173</ele>
        <time>2020-08-15T07:46:43Z</time>
      </trkpt>
      <trkpt lat="50.23686" lon="4.20393">
        <ele>173</ele>
        <time>2020-08-15T07:46:45Z</time>
      </trkpt>
      <trkpt lat="50.23684" lon="4.20378">
        <ele>173</ele>
        <time>2020-08-15T07:46:47Z</time>
      </trkpt>
      <trkpt lat="50.23683" lon="4.20363">
        <ele>176</ele>
        <time>2020-08-15T07:46:49Z</time>
      </trkpt>
      <trkpt lat="50.23682" lon="4.20348">
        <ele>176</ele>
        <time>2020-08-15T07:46:51Z</time>
      </trkpt>
      <trkpt lat="50.23681" lon="4.20332">
        <ele>173</ele>
        <time>2020-08-15T07:46:53Z</time>
      </trkpt>
      <trkpt lat="50.23681" lon="4.20317">
        <ele>172</ele>
        <time>2020-08-15T07:46:55Z</time>
      </trkpt>
      <trkpt lat="50.2368" lon="4.20301">
        <ele>172</ele>
        <time>2020-08-15T07:46:57Z</time>
      </trkpt>
      <trkpt lat="50.23682" lon="4.20285">
        <ele>178</ele>
        <time>2020-08-15T07:46:59Z</time>
      </trkpt>
      <trkpt lat="50.23682" lon="4.20269">
        <ele>178</ele>
        <time>2020-08-15T07:47:01Z</time>
      </trkpt>
      <trkpt lat="50.23683" lon="4.20254">
        <ele>177</ele>
        <time>2020-08-15T07:47:03Z</time>
      </trkpt>
      <trkpt lat="50.23684" lon="4.2024">
        <ele>177</ele>
        <time>2020-08-15T07:47:05Z</time>
      </trkpt>
      <trkpt lat="50.23686" lon="4.20229">
        <ele>178</ele>
        <time>2020-08-15T07:47:07Z</time>
      </trkpt>
      <trkpt lat="50.23686" lon="4.20216">
        <ele>178</ele>
        <time>2020-08-15T07:47:09Z</time>
      </trkpt>
      <trkpt lat="50.23687" lon="4.20203">
        <ele>178</ele>
        <time>2020-08-15T07:47:11Z</time>
      </trkpt>
      <trkpt lat="50.23689" lon="4.20188">
        <ele>178</ele>
        <time>2020-08-15T07:47:13Z</time>
      </trkpt>
      <trkpt lat="50.2369" lon="4.20174">
        <ele>179</ele>
        <time>2020-08-15T07:47:15Z</time>
      </trkpt>
      <trkpt lat="50.2369" lon="4.20161">
        <ele>179</ele>
        <time>2020-08-15T07:47:17Z</time>
      </trkpt>
      <trkpt lat="50.23692" lon="4.20147">
        <ele>179</ele>
        <time>2020-08-15T07:47:19Z</time>
      </trkpt>
      <trkpt lat="50.23694" lon="4.20133">
        <ele>179</ele>
        <time>2020-08-15T07:47:21Z</time>
      </trkpt>
      <trkpt lat="50.23695" lon="4.20118">
        <ele>182</ele>
        <time>2020-08-15T07:47:23Z</time>
      </trkpt>
      <trkpt lat="50.23697" lon="4.20103">
        <ele>182</ele>
        <time>2020-08-15T07:47:25Z</time>
      </trkpt>
      <trkpt lat="50.23698" lon="4.20088">
        <ele>181</ele>
        <time>2020-08-15T07:47:27Z</time>
      </trkpt>
      <trkpt lat="50.23699" lon="4.20075">
        <ele>181</ele>
        <time>2020-08-15T07:47:29Z</time>
      </trkpt>
      <trkpt lat="50.237" lon="4.2006">
        <ele>182</ele>
        <time>2020-08-15T07:47:31Z</time>
      </trkpt>
      <trkpt lat="50.23702" lon="4.20047">
        <ele>182</ele>
        <time>2020-08-15T07:47:33Z</time>
      </trkpt>
      <trkpt lat="50.23703" lon="4.20032">
        <ele>182</ele>
        <time>2020-08-15T07:47:35Z</time>
      </trkpt>
      <trkpt lat="50.23704" lon="4.20018">
        <ele>182</ele>
        <time>2020-08-15T07:47:37Z</time>
      </trkpt>
      <trkpt lat="50.23703" lon="4.20003">
        <ele>183</ele>
        <time>2020-08-15T07:47:39Z</time>
      </trkpt>
      <trkpt lat="50.23702" lon="4.19989">
        <ele>183</ele>
        <time>2020-08-15T07:47:41Z</time>
      </trkpt>
      <trkpt lat="50.23699" lon="4.19978">
        <ele>183</ele>
        <time>2020-08-15T07:47:43Z</time>
      </trkpt>
      <trkpt lat="50.23696" lon="4.19965">
        <ele>183</ele>
        <time>2020-08-15T07:47:45Z</time>
      </trkpt>
      <trkpt lat="50.23694" lon="4.19953">
        <ele>185</ele>
        <time>2020-08-15T07:47:47Z</time>
      </trkpt>
      <trkpt lat="50.23691" lon="4.1994">
        <ele>185</ele>
        <time>2020-08-15T07:47:49Z</time>
      </trkpt>
      <trkpt lat="50.23689" lon="4.19926">
        <ele>183</ele>
        <time>2020-08-15T07:47:51Z</time>
      </trkpt>
      <trkpt lat="50.23687" lon="4.1991">
        <ele>183</ele>
        <time>2020-08-15T07:47:53Z</time>
      </trkpt>
      <trkpt lat="50.23686" lon="4.19896">
        <ele>184</ele>
        <time>2020-08-15T07:47:55Z</time>
      </trkpt>
      <trkpt lat="50.23684" lon="4.19885">
        <ele>184</ele>
        <time>2020-08-15T07:47:57Z</time>
      </trkpt>
      <trkpt lat="50.23682" lon="4.19873">
        <ele>184</ele>
        <time>2020-08-15T07:47:59Z</time>
      </trkpt>
      <trkpt lat="50.23679" lon="4.19859">
        <ele>180</ele>
        <time>2020-08-15T07:48:01Z</time>
      </trkpt>
      <trkpt lat="50.23679" lon="4.19847">
        <ele>179</ele>
        <time>2020-08-15T07:48:03Z</time>
      </trkpt>
      <trkpt lat="50.23678" lon="4.19835">
        <ele>179</ele>
        <time>2020-08-15T07:48:05Z</time>
      </trkpt>
      <trkpt lat="50.23677" lon="4.19823">
        <ele>179</ele>
        <time>2020-08-15T07:48:07Z</time>
      </trkpt>
      <trkpt lat="50.23678" lon="4.19808">
        <ele>181</ele>
        <time>2020-08-15T07:48:09Z</time>
      </trkpt>
      <trkpt lat="50.23678" lon="4.19794">
        <ele>181</ele>
        <time>2020-08-15T07:48:11Z</time>
      </trkpt>
      <trkpt lat="50.23677" lon="4.19781">
        <ele>181</ele>
        <time>2020-08-15T07:48:13Z</time>
      </trkpt>
      <trkpt lat="50.23679" lon="4.19767">
        <ele>181</ele>
        <time>2020-08-15T07:48:15Z</time>
      </trkpt>
      <trkpt lat="50.2368" lon="4.19754">
        <ele>182</ele>
        <time>2020-08-15T07:48:17Z</time>
      </trkpt>
      <trkpt lat="50.23679" lon="4.1974">
        <ele>182</ele>
        <time>2020-08-15T07:48:19Z</time>
      </trkpt>
      <trkpt lat="50.2368" lon="4.19729">
        <ele>182</ele>
        <time>2020-08-15T07:48:21Z</time>
      </trkpt>
      <trkpt lat="50.23682" lon="4.1972">
        <ele>182</ele>
        <time>2020-08-15T07:48:23Z</time>
      </trkpt>
      <trkpt lat="50.23682" lon="4.19715">
        <ele>182</ele>
        <time>2020-08-15T07:48:25Z</time>
      </trkpt>
      <trkpt lat="50.23682" lon="4.1971">
        <ele>182</ele>
        <time>2020-08-15T07:48:27Z</time>
      </trkpt>
      <trkpt lat="50.2368" lon="4.19703">
        <ele>182</ele>
        <time>2020-08-15T07:48:35Z</time>
      </trkpt>
      <trkpt lat="50.23681" lon="4.19695">
        <ele>183</ele>
        <time>2020-08-15T07:48:37Z</time>
      </trkpt>
      <trkpt lat="50.23681" lon="4.19686">
        <ele>183</ele>
        <time>2020-08-15T07:48:39Z</time>
      </trkpt>
      <trkpt lat="50.23682" lon="4.19677">
        <ele>182</ele>
        <time>2020-08-15T07:48:41Z</time>
      </trkpt>
      <trkpt lat="50.23682" lon="4.19666">
        <ele>182</ele>
        <time>2020-08-15T07:48:43Z</time>
      </trkpt>
      <trkpt lat="50.23683" lon="4.19655">
        <ele>182</ele>
        <time>2020-08-15T07:48:45Z</time>
      </trkpt>
      <trkpt lat="50.23684" lon="4.19644">
        <ele>183</ele>
        <time>2020-08-15T07:48:47Z</time>
      </trkpt>
      <trkpt lat="50.23685" lon="4.19632">
        <ele>183</ele>
        <time>2020-08-15T07:48:49Z</time>
      </trkpt>
      <trkpt lat="50.23685" lon="4.1962">
        <ele>183</ele>
        <time>2020-08-15T07:48:50Z</time>
      </trkpt>
      <trkpt lat="50.23685" lon="4.19607">
        <ele>183</ele>
        <time>2020-08-15T07:48:53Z</time>
      </trkpt>
      <trkpt lat="50.23684" lon="4.19594">
        <ele>184</ele>
        <time>2020-08-15T07:48:55Z</time>
      </trkpt>
      <trkpt lat="50.23684" lon="4.19581">
        <ele>184</ele>
        <time>2020-08-15T07:48:57Z</time>
      </trkpt>
      <trkpt lat="50.23684" lon="4.19568">
        <ele>184</ele>
        <time>2020-08-15T07:48:59Z</time>
      </trkpt>
      <trkpt lat="50.23685" lon="4.19555">
        <ele>184</ele>
        <time>2020-08-15T07:49:01Z</time>
      </trkpt>
      <trkpt lat="50.23685" lon="4.19541">
        <ele>183</ele>
        <time>2020-08-15T07:49:03Z</time>
      </trkpt>
      <trkpt lat="50.23684" lon="4.19527">
        <ele>183</ele>
        <time>2020-08-15T07:49:05Z</time>
      </trkpt>
      <trkpt lat="50.23683" lon="4.19512">
        <ele>182</ele>
        <time>2020-08-15T07:49:07Z</time>
      </trkpt>
      <trkpt lat="50.23681" lon="4.19498">
        <ele>182</ele>
        <time>2020-08-15T07:49:09Z</time>
      </trkpt>
      <trkpt lat="50.23677" lon="4.19485">
        <ele>183</ele>
        <time>2020-08-15T07:49:11Z</time>
      </trkpt>
      <trkpt lat="50.23674" lon="4.19472">
        <ele>183</ele>
        <time>2020-08-15T07:49:13Z</time>
      </trkpt>
      <trkpt lat="50.2367" lon="4.19459">
        <ele>183</ele>
        <time>2020-08-15T07:49:15Z</time>
      </trkpt>
      <trkpt lat="50.23667" lon="4.19447">
        <ele>184</ele>
        <time>2020-08-15T07:49:17Z</time>
      </trkpt>
      <trkpt lat="50.23663" lon="4.19434">
        <ele>184</ele>
        <time>2020-08-15T07:49:19Z</time>
      </trkpt>
      <trkpt lat="50.23662" lon="4.19421">
        <ele>184</ele>
        <time>2020-08-15T07:49:21Z</time>
      </trkpt>
      <trkpt lat="50.23664" lon="4.19407">
        <ele>184</ele>
        <time>2020-08-15T07:49:23Z</time>
      </trkpt>
      <trkpt lat="50.23666" lon="4.19393">
        <ele>184</ele>
        <time>2020-08-15T07:49:25Z</time>
      </trkpt>
      <trkpt lat="50.23668" lon="4.19378">
        <ele>184</ele>
        <time>2020-08-15T07:49:27Z</time>
      </trkpt>
      <trkpt lat="50.23671" lon="4.19364">
        <ele>184</ele>
        <time>2020-08-15T07:49:29Z</time>
      </trkpt>
      <trkpt lat="50.23673" lon="4.1935">
        <ele>184</ele>
        <time>2020-08-15T07:49:31Z</time>
      </trkpt>
      <trkpt lat="50.23675" lon="4.19338">
        <ele>184</ele>
        <time>2020-08-15T07:49:33Z</time>
      </trkpt>
      <trkpt lat="50.23678" lon="4.19325">
        <ele>184</ele>
        <time>2020-08-15T07:49:35Z</time>
      </trkpt>
      <trkpt lat="50.23681" lon="4.19313">
        <ele>184</ele>
        <time>2020-08-15T07:49:37Z</time>
      </trkpt>
      <trkpt lat="50.23684" lon="4.19301">
        <ele>184</ele>
        <time>2020-08-15T07:49:39Z</time>
      </trkpt>
      <trkpt lat="50.23687" lon="4.19289">
        <ele>183</ele>
        <time>2020-08-15T07:49:41Z</time>
      </trkpt>
      <trkpt lat="50.23689" lon="4.19277">
        <ele>183</ele>
        <time>2020-08-15T07:49:43Z</time>
      </trkpt>
      <trkpt lat="50.23691" lon="4.19265">
        <ele>183</ele>
        <time>2020-08-15T07:49:45Z</time>
      </trkpt>
      <trkpt lat="50.23694" lon="4.19252">
        <ele>184</ele>
        <time>2020-08-15T07:49:47Z</time>
      </trkpt>
      <trkpt lat="50.23696" lon="4.1924">
        <ele>184</ele>
        <time>2020-08-15T07:49:49Z</time>
      </trkpt>
      <trkpt lat="50.23698" lon="4.19229">
        <ele>184</ele>
        <time>2020-08-15T07:49:51Z</time>
      </trkpt>
      <trkpt lat="50.23701" lon="4.19218">
        <ele>184</ele>
        <time>2020-08-15T07:49:53Z</time>
      </trkpt>
      <trkpt lat="50.23703" lon="4.19206">
        <ele>183</ele>
        <time>2020-08-15T07:49:55Z</time>
      </trkpt>
      <trkpt lat="50.23706" lon="4.19193">
        <ele>183</ele>
        <time>2020-08-15T07:49:57Z</time>
      </trkpt>
      <trkpt lat="50.2371" lon="4.19182">
        <ele>183</ele>
        <time>2020-08-15T07:49:59Z</time>
      </trkpt>
      <trkpt lat="50.23712" lon="4.19171">
        <ele>182</ele>
        <time>2020-08-15T07:50:01Z</time>
      </trkpt>
      <trkpt lat="50.23716" lon="4.1916">
        <ele>182</ele>
        <time>2020-08-15T07:50:03Z</time>
      </trkpt>
      <trkpt lat="50.23719" lon="4.19148">
        <ele>182</ele>
        <time>2020-08-15T07:50:05Z</time>
      </trkpt>
      <trkpt lat="50.2372" lon="4.19135">
        <ele>182</ele>
        <time>2020-08-15T07:50:07Z</time>
      </trkpt>
      <trkpt lat="50.23717" lon="4.19123">
        <ele>181</ele>
        <time>2020-08-15T07:50:09Z</time>
      </trkpt>
      <trkpt lat="50.23714" lon="4.19111">
        <ele>181</ele>
        <time>2020-08-15T07:50:11Z</time>
      </trkpt>
      <trkpt lat="50.23711" lon="4.19099">
        <ele>181</ele>
        <time>2020-08-15T07:50:13Z</time>
      </trkpt>
      <trkpt lat="50.23708" lon="4.19088">
        <ele>181</ele>
        <time>2020-08-15T07:50:15Z</time>
      </trkpt>
      <trkpt lat="50.23703" lon="4.19076">
        <ele>181</ele>
        <time>2020-08-15T07:50:17Z</time>
      </trkpt>
      <trkpt lat="50.23698" lon="4.19065">
        <ele>180</ele>
        <time>2020-08-15T07:50:19Z</time>
      </trkpt>
      <trkpt lat="50.23693" lon="4.19053">
        <ele>180</ele>
        <time>2020-08-15T07:50:21Z</time>
      </trkpt>
      <trkpt lat="50.23689" lon="4.19042">
        <ele>180</ele>
        <time>2020-08-15T07:50:23Z</time>
      </trkpt>
      <trkpt lat="50.23683" lon="4.1903">
        <ele>181</ele>
        <time>2020-08-15T07:50:25Z</time>
      </trkpt>
      <trkpt lat="50.23678" lon="4.19018">
        <ele>182</ele>
        <time>2020-08-15T07:50:27Z</time>
      </trkpt>
      <trkpt lat="50.23673" lon="4.19006">
        <ele>182</ele>
        <time>2020-08-15T07:50:29Z</time>
      </trkpt>
      <trkpt lat="50.23671" lon="4.18994">
        <ele>182</ele>
        <time>2020-08-15T07:50:31Z</time>
      </trkpt>
      <trkpt lat="50.23669" lon="4.18981">
        <ele>182</ele>
        <time>2020-08-15T07:50:33Z</time>
      </trkpt>
      <trkpt lat="50.23669" lon="4.18968">
        <ele>182</ele>
        <time>2020-08-15T07:50:35Z</time>
      </trkpt>
      <trkpt lat="50.2367" lon="4.18954">
        <ele>182</ele>
        <time>2020-08-15T07:50:37Z</time>
      </trkpt>
      <trkpt lat="50.23671" lon="4.18941">
        <ele>182</ele>
        <time>2020-08-15T07:50:39Z</time>
      </trkpt>
      <trkpt lat="50.2367" lon="4.18928">
        <ele>181</ele>
        <time>2020-08-15T07:50:41Z</time>
      </trkpt>
      <trkpt lat="50.23668" lon="4.18916">
        <ele>181</ele>
        <time>2020-08-15T07:50:43Z</time>
      </trkpt>
      <trkpt lat="50.23664" lon="4.18906">
        <ele>181</ele>
        <time>2020-08-15T07:50:45Z</time>
      </trkpt>
      <trkpt lat="50.23658" lon="4.18895">
        <ele>181</ele>
        <time>2020-08-15T07:50:47Z</time>
      </trkpt>
      <trkpt lat="50.23652" lon="4.18884">
        <ele>184</ele>
        <time>2020-08-15T07:50:49Z</time>
      </trkpt>
      <trkpt lat="50.23645" lon="4.18874">
        <ele>182</ele>
        <time>2020-08-15T07:50:51Z</time>
      </trkpt>
      <trkpt lat="50.23639" lon="4.18862">
        <ele>182</ele>
        <time>2020-08-15T07:50:53Z</time>
      </trkpt>
      <trkpt lat="50.23633" lon="4.18851">
        <ele>182</ele>
        <time>2020-08-15T07:50:55Z</time>
      </trkpt>
      <trkpt lat="50.23626" lon="4.18841">
        <ele>182</ele>
        <time>2020-08-15T07:50:57Z</time>
      </trkpt>
      <trkpt lat="50.23622" lon="4.1883">
        <ele>183</ele>
        <time>2020-08-15T07:50:59Z</time>
      </trkpt>
      <trkpt lat="50.23616" lon="4.1882">
        <ele>183</ele>
        <time>2020-08-15T07:51:01Z</time>
      </trkpt>
      <trkpt lat="50.2361" lon="4.18809">
        <ele>183</ele>
        <time>2020-08-15T07:51:03Z</time>
      </trkpt>
      <trkpt lat="50.23604" lon="4.18799">
        <ele>183</ele>
        <time>2020-08-15T07:51:05Z</time>
      </trkpt>
      <trkpt lat="50.23598" lon="4.18787">
        <ele>182</ele>
        <time>2020-08-15T07:51:07Z</time>
      </trkpt>
      <trkpt lat="50.23592" lon="4.18776">
        <ele>184</ele>
        <time>2020-08-15T07:51:09Z</time>
      </trkpt>
      <trkpt lat="50.23585" lon="4.18765">
        <ele>184</ele>
        <time>2020-08-15T07:51:11Z</time>
      </trkpt>
      <trkpt lat="50.23579" lon="4.18756">
        <ele>183</ele>
        <time>2020-08-15T07:51:13Z</time>
      </trkpt>
      <trkpt lat="50.23572" lon="4.18747">
        <ele>183</ele>
        <time>2020-08-15T07:51:15Z</time>
      </trkpt>
      <trkpt lat="50.23566" lon="4.18737">
        <ele>183</ele>
        <time>2020-08-15T07:51:17Z</time>
      </trkpt>
      <trkpt lat="50.2356" lon="4.18727">
        <ele>183</ele>
        <time>2020-08-15T07:51:19Z</time>
      </trkpt>
      <trkpt lat="50.23554" lon="4.18717">
        <ele>183</ele>
        <time>2020-08-15T07:51:21Z</time>
      </trkpt>
      <trkpt lat="50.23549" lon="4.18707">
        <ele>182</ele>
        <time>2020-08-15T07:51:23Z</time>
      </trkpt>
      <trkpt lat="50.23543" lon="4.18697">
        <ele>182</ele>
        <time>2020-08-15T07:51:25Z</time>
      </trkpt>
      <trkpt lat="50.23538" lon="4.18687">
        <ele>182</ele>
        <time>2020-08-15T07:51:27Z</time>
      </trkpt>
      <trkpt lat="50.23532" lon="4.18677">
        <ele>182</ele>
        <time>2020-08-15T07:51:29Z</time>
      </trkpt>
      <trkpt lat="50.23527" lon="4.18667">
        <ele>182</ele>
        <time>2020-08-15T07:51:31Z</time>
      </trkpt>
      <trkpt lat="50.23521" lon="4.18657">
        <ele>182</ele>
        <time>2020-08-15T07:51:33Z</time>
      </trkpt>
      <trkpt lat="50.23515" lon="4.18647">
        <ele>182</ele>
        <time>2020-08-15T07:51:35Z</time>
      </trkpt>
      <trkpt lat="50.23509" lon="4.18637">
        <ele>183</ele>
        <time>2020-08-15T07:51:37Z</time>
      </trkpt>
      <trkpt lat="50.23503" lon="4.18627">
        <ele>183</ele>
        <time>2020-08-15T07:51:39Z</time>
      </trkpt>
      <trkpt lat="50.23496" lon="4.18616">
        <ele>183</ele>
        <time>2020-08-15T07:51:41Z</time>
      </trkpt>
      <trkpt lat="50.2349" lon="4.18605">
        <ele>183</ele>
        <time>2020-08-15T07:51:43Z</time>
      </trkpt>
      <trkpt lat="50.23484" lon="4.18595">
        <ele>185</ele>
        <time>2020-08-15T07:51:45Z</time>
      </trkpt>
      <trkpt lat="50.23477" lon="4.18584">
        <ele>185</ele>
        <time>2020-08-15T07:51:47Z</time>
      </trkpt>
      <trkpt lat="50.2347" lon="4.18572">
        <ele>185</ele>
        <time>2020-08-15T07:51:49Z</time>
      </trkpt>
      <trkpt lat="50.23464" lon="4.18561">
        <ele>183</ele>
        <time>2020-08-15T07:51:51Z</time>
      </trkpt>
      <trkpt lat="50.23457" lon="4.1855">
        <ele>184</ele>
        <time>2020-08-15T07:51:53Z</time>
      </trkpt>
      <trkpt lat="50.23451" lon="4.18539">
        <ele>183</ele>
        <time>2020-08-15T07:51:55Z</time>
      </trkpt>
      <trkpt lat="50.23444" lon="4.18527">
        <ele>183</ele>
        <time>2020-08-15T07:51:57Z</time>
      </trkpt>
      <trkpt lat="50.23436" lon="4.18515">
        <ele>183</ele>
        <time>2020-08-15T07:51:59Z</time>
      </trkpt>
      <trkpt lat="50.2343" lon="4.18504">
        <ele>182</ele>
        <time>2020-08-15T07:52:01Z</time>
      </trkpt>
      <trkpt lat="50.23423" lon="4.18491">
        <ele>182</ele>
        <time>2020-08-15T07:52:03Z</time>
      </trkpt>
      <trkpt lat="50.23416" lon="4.1848">
        <ele>182</ele>
        <time>2020-08-15T07:52:05Z</time>
      </trkpt>
      <trkpt lat="50.23409" lon="4.18468">
        <ele>182</ele>
        <time>2020-08-15T07:52:07Z</time>
      </trkpt>
      <trkpt lat="50.23402" lon="4.18455">
        <ele>183</ele>
        <time>2020-08-15T07:52:09Z</time>
      </trkpt>
      <trkpt lat="50.23395" lon="4.18444">
        <ele>183</ele>
        <time>2020-08-15T07:52:11Z</time>
      </trkpt>
      <trkpt lat="50.23388" lon="4.18432">
        <ele>183</ele>
        <time>2020-08-15T07:52:13Z</time>
      </trkpt>
      <trkpt lat="50.23381" lon="4.18421">
        <ele>183</ele>
        <time>2020-08-15T07:52:15Z</time>
      </trkpt>
      <trkpt lat="50.23375" lon="4.18408">
        <ele>185</ele>
        <time>2020-08-15T07:52:17Z</time>
      </trkpt>
      <trkpt lat="50.23369" lon="4.18396">
        <ele>184</ele>
        <time>2020-08-15T07:52:19Z</time>
      </trkpt>
      <trkpt lat="50.23362" lon="4.18385">
        <ele>184</ele>
        <time>2020-08-15T07:52:21Z</time>
      </trkpt>
      <trkpt lat="50.23356" lon="4.18373">
        <ele>184</ele>
        <time>2020-08-15T07:52:23Z</time>
      </trkpt>
      <trkpt lat="50.23349" lon="4.18362">
        <ele>184</ele>
        <time>2020-08-15T07:52:25Z</time>
      </trkpt>
      <trkpt lat="50.23343" lon="4.1835">
        <ele>186</ele>
        <time>2020-08-15T07:52:27Z</time>
      </trkpt>
      <trkpt lat="50.23336" lon="4.18339">
        <ele>186</ele>
        <time>2020-08-15T07:52:29Z</time>
      </trkpt>
      <trkpt lat="50.23329" lon="4.18327">
        <ele>186</ele>
        <time>2020-08-15T07:52:31Z</time>
      </trkpt>
      <trkpt lat="50.23323" lon="4.18316">
        <ele>186</ele>
        <time>2020-08-15T07:52:33Z</time>
      </trkpt>
      <trkpt lat="50.23316" lon="4.18304">
        <ele>188</ele>
        <time>2020-08-15T07:52:35Z</time>
      </trkpt>
      <trkpt lat="50.23309" lon="4.18293">
        <ele>188</ele>
        <time>2020-08-15T07:52:37Z</time>
      </trkpt>
      <trkpt lat="50.23301" lon="4.18282">
        <ele>187</ele>
        <time>2020-08-15T07:52:39Z</time>
      </trkpt>
      <trkpt lat="50.23294" lon="4.18271">
        <ele>187</ele>
        <time>2020-08-15T07:52:41Z</time>
      </trkpt>
      <trkpt lat="50.23287" lon="4.18262">
        <ele>189</ele>
        <time>2020-08-15T07:52:43Z</time>
      </trkpt>
      <trkpt lat="50.23279" lon="4.18251">
        <ele>189</ele>
        <time>2020-08-15T07:52:45Z</time>
      </trkpt>
      <trkpt lat="50.23272" lon="4.1824">
        <ele>189</ele>
        <time>2020-08-15T07:52:47Z</time>
      </trkpt>
      <trkpt lat="50.23266" lon="4.18228">
        <ele>191</ele>
        <time>2020-08-15T07:52:49Z</time>
      </trkpt>
      <trkpt lat="50.23261" lon="4.18217">
        <ele>191</ele>
        <time>2020-08-15T07:52:51Z</time>
      </trkpt>
      <trkpt lat="50.23255" lon="4.18204">
        <ele>189</ele>
        <time>2020-08-15T07:52:53Z</time>
      </trkpt>
      <trkpt lat="50.23249" lon="4.18193">
        <ele>189</ele>
        <time>2020-08-15T07:52:55Z</time>
      </trkpt>
      <trkpt lat="50.23243" lon="4.18182">
        <ele>189</ele>
        <time>2020-08-15T07:52:57Z</time>
      </trkpt>
      <trkpt lat="50.23237" lon="4.18171">
        <ele>190</ele>
        <time>2020-08-15T07:52:59Z</time>
      </trkpt>
      <trkpt lat="50.2323" lon="4.18161">
        <ele>190</ele>
        <time>2020-08-15T07:53:01Z</time>
      </trkpt>
      <trkpt lat="50.23222" lon="4.18153">
        <ele>190</ele>
        <time>2020-08-15T07:53:03Z</time>
      </trkpt>
      <trkpt lat="50.23216" lon="4.18145">
        <ele>190</ele>
        <time>2020-08-15T07:53:05Z</time>
      </trkpt>
      <trkpt lat="50.23208" lon="4.18138">
        <ele>191</ele>
        <time>2020-08-15T07:53:07Z</time>
      </trkpt>
      <trkpt lat="50.232" lon="4.18132">
        <ele>191</ele>
        <time>2020-08-15T07:53:09Z</time>
      </trkpt>
      <trkpt lat="50.23192" lon="4.18128">
        <ele>191</ele>
        <time>2020-08-15T07:53:11Z</time>
      </trkpt>
      <trkpt lat="50.23183" lon="4.18124">
        <ele>191</ele>
        <time>2020-08-15T07:53:13Z</time>
      </trkpt>
      <trkpt lat="50.23175" lon="4.18123">
        <ele>192</ele>
        <time>2020-08-15T07:53:15Z</time>
      </trkpt>
      <trkpt lat="50.23167" lon="4.18123">
        <ele>192</ele>
        <time>2020-08-15T07:53:17Z</time>
      </trkpt>
      <trkpt lat="50.23159" lon="4.18123">
        <ele>192</ele>
        <time>2020-08-15T07:53:19Z</time>
      </trkpt>
      <trkpt lat="50.23151" lon="4.18123">
        <ele>192</ele>
        <time>2020-08-15T07:53:21Z</time>
      </trkpt>
      <trkpt lat="50.23143" lon="4.18124">
        <ele>192</ele>
        <time>2020-08-15T07:53:23Z</time>
      </trkpt>
      <trkpt lat="50.23135" lon="4.18126">
        <ele>193</ele>
        <time>2020-08-15T07:53:25Z</time>
      </trkpt>
      <trkpt lat="50.23127" lon="4.18127">
        <ele>193</ele>
        <time>2020-08-15T07:53:27Z</time>
      </trkpt>
      <trkpt lat="50.23118" lon="4.18129">
        <ele>194</ele>
        <time>2020-08-15T07:53:29Z</time>
      </trkpt>
      <trkpt lat="50.2311" lon="4.18131">
        <ele>194</ele>
        <time>2020-08-15T07:53:31Z</time>
      </trkpt>
      <trkpt lat="50.23101" lon="4.18132">
        <ele>194</ele>
        <time>2020-08-15T07:53:33Z</time>
      </trkpt>
      <trkpt lat="50.23092" lon="4.18133">
        <ele>195</ele>
        <time>2020-08-15T07:53:35Z</time>
      </trkpt>
      <trkpt lat="50.23084" lon="4.18133">
        <ele>195</ele>
        <time>2020-08-15T07:53:37Z</time>
      </trkpt>
      <trkpt lat="50.23076" lon="4.18133">
        <ele>195</ele>
        <time>2020-08-15T07:53:39Z</time>
      </trkpt>
      <trkpt lat="50.23068" lon="4.18131">
        <ele>198</ele>
        <time>2020-08-15T07:53:41Z</time>
      </trkpt>
      <trkpt lat="50.23061" lon="4.18129">
        <ele>198</ele>
        <time>2020-08-15T07:53:43Z</time>
      </trkpt>
      <trkpt lat="50.23054" lon="4.18126">
        <ele>198</ele>
        <time>2020-08-15T07:53:45Z</time>
      </trkpt>
      <trkpt lat="50.23047" lon="4.18123">
        <ele>198</ele>
        <time>2020-08-15T07:53:47Z</time>
      </trkpt>
      <trkpt lat="50.2304" lon="4.18121">
        <ele>202</ele>
        <time>2020-08-15T07:53:49Z</time>
      </trkpt>
      <trkpt lat="50.23033" lon="4.18117">
        <ele>202</ele>
        <time>2020-08-15T07:53:51Z</time>
      </trkpt>
      <trkpt lat="50.23027" lon="4.18112">
        <ele>202</ele>
        <time>2020-08-15T07:53:53Z</time>
      </trkpt>
      <trkpt lat="50.23021" lon="4.18108">
        <ele>202</ele>
        <time>2020-08-15T07:53:55Z</time>
      </trkpt>
      <trkpt lat="50.23016" lon="4.18103">
        <ele>202</ele>
        <time>2020-08-15T07:53:57Z</time>
      </trkpt>
      <trkpt lat="50.23011" lon="4.18099">
        <ele>204</ele>
        <time>2020-08-15T07:53:59Z</time>
      </trkpt>
      <trkpt lat="50.23006" lon="4.18094">
        <ele>205</ele>
        <time>2020-08-15T07:54:01Z</time>
      </trkpt>
      <trkpt lat="50.23002" lon="4.18089">
        <ele>205</ele>
        <time>2020-08-15T07:54:03Z</time>
      </trkpt>
      <trkpt lat="50.22995" lon="4.18082">
        <ele>205</ele>
        <time>2020-08-15T07:54:06Z</time>
      </trkpt>
      <trkpt lat="50.22991" lon="4.18077">
        <ele>205</ele>
        <time>2020-08-15T07:54:08Z</time>
      </trkpt>
      <trkpt lat="50.22987" lon="4.18072">
        <ele>205</ele>
        <time>2020-08-15T07:54:10Z</time>
      </trkpt>
      <trkpt lat="50.22983" lon="4.18067">
        <ele>208</ele>
        <time>2020-08-15T07:54:12Z</time>
      </trkpt>
      <trkpt lat="50.22978" lon="4.18064">
        <ele>208</ele>
        <time>2020-08-15T07:54:14Z</time>
      </trkpt>
      <trkpt lat="50.22974" lon="4.1806">
        <ele>208</ele>
        <time>2020-08-15T07:54:16Z</time>
      </trkpt>
      <trkpt lat="50.22969" lon="4.18057">
        <ele>208</ele>
        <time>2020-08-15T07:54:18Z</time>
      </trkpt>
      <trkpt lat="50.22966" lon="4.18054">
        <ele>208</ele>
        <time>2020-08-15T07:54:20Z</time>
      </trkpt>
      <trkpt lat="50.22962" lon="4.18053">
        <ele>208</ele>
        <time>2020-08-15T07:54:22Z</time>
      </trkpt>
      <trkpt lat="50.22958" lon="4.18051">
        <ele>209</ele>
        <time>2020-08-15T07:54:24Z</time>
      </trkpt>
      <trkpt lat="50.22953" lon="4.18048">
        <ele>209</ele>
        <time>2020-08-15T07:54:26Z</time>
      </trkpt>
      <trkpt lat="50.22949" lon="4.18045">
        <ele>209</ele>
        <time>2020-08-15T07:54:28Z</time>
      </trkpt>
      <trkpt lat="50.22944" lon="4.18042">
        <ele>209</ele>
        <time>2020-08-15T07:54:30Z</time>
      </trkpt>
      <trkpt lat="50.22938" lon="4.1804">
        <ele>208</ele>
        <time>2020-08-15T07:54:32Z</time>
      </trkpt>
      <trkpt lat="50.22932" lon="4.18037">
        <ele>208</ele>
        <time>2020-08-15T07:54:34Z</time>
      </trkpt>
      <trkpt lat="50.22927" lon="4.18034">
        <ele>210</ele>
        <time>2020-08-15T07:54:36Z</time>
      </trkpt>
      <trkpt lat="50.22921" lon="4.1803">
        <ele>210</ele>
        <time>2020-08-15T07:54:38Z</time>
      </trkpt>
      <trkpt lat="50.22917" lon="4.18028">
        <ele>210</ele>
        <time>2020-08-15T07:54:40Z</time>
      </trkpt>
      <trkpt lat="50.22912" lon="4.18025">
        <ele>210</ele>
        <time>2020-08-15T07:54:42Z</time>
      </trkpt>
      <trkpt lat="50.22906" lon="4.18023">
        <ele>210</ele>
        <time>2020-08-15T07:54:44Z</time>
      </trkpt>
      <trkpt lat="50.229" lon="4.1802">
        <ele>212</ele>
        <time>2020-08-15T07:54:46Z</time>
      </trkpt>
      <trkpt lat="50.22893" lon="4.18018">
        <ele>212</ele>
        <time>2020-08-15T07:54:48Z</time>
      </trkpt>
      <trkpt lat="50.22887" lon="4.18016">
        <ele>212</ele>
        <time>2020-08-15T07:54:50Z</time>
      </trkpt>
      <trkpt lat="50.22881" lon="4.18013">
        <ele>212</ele>
        <time>2020-08-15T07:54:52Z</time>
      </trkpt>
      <trkpt lat="50.22875" lon="4.18011">
        <ele>215</ele>
        <time>2020-08-15T07:54:54Z</time>
      </trkpt>
      <trkpt lat="50.2287" lon="4.18008">
        <ele>215</ele>
        <time>2020-08-15T07:54:56Z</time>
      </trkpt>
      <trkpt lat="50.22864" lon="4.18007">
        <ele>215</ele>
        <time>2020-08-15T07:54:58Z</time>
      </trkpt>
      <trkpt lat="50.22858" lon="4.18005">
        <ele>215</ele>
        <time>2020-08-15T07:55:00Z</time>
      </trkpt>
      <trkpt lat="50.22852" lon="4.18003">
        <ele>215</ele>
        <time>2020-08-15T07:55:02Z</time>
      </trkpt>
      <trkpt lat="50.22845" lon="4.18">
        <ele>216</ele>
        <time>2020-08-15T07:55:04Z</time>
      </trkpt>
      <trkpt lat="50.22839" lon="4.17998">
        <ele>216</ele>
        <time>2020-08-15T07:55:06Z</time>
      </trkpt>
      <trkpt lat="50.22833" lon="4.17995">
        <ele>216</ele>
        <time>2020-08-15T07:55:08Z</time>
      </trkpt>
      <trkpt lat="50.22826" lon="4.17993">
        <ele>216</ele>
        <time>2020-08-15T07:55:10Z</time>
      </trkpt>
      <trkpt lat="50.2282" lon="4.17991">
        <ele>216</ele>
        <time>2020-08-15T07:55:12Z</time>
      </trkpt>
      <trkpt lat="50.22813" lon="4.17988">
        <ele>216</ele>
        <time>2020-08-15T07:55:14Z</time>
      </trkpt>
      <trkpt lat="50.22806" lon="4.17985">
        <ele>217</ele>
        <time>2020-08-15T07:55:16Z</time>
      </trkpt>
      <trkpt lat="50.228" lon="4.17982">
        <ele>217</ele>
        <time>2020-08-15T07:55:18Z</time>
      </trkpt>
      <trkpt lat="50.22794" lon="4.17979">
        <ele>217</ele>
        <time>2020-08-15T07:55:20Z</time>
      </trkpt>
      <trkpt lat="50.22787" lon="4.17976">
        <ele>218</ele>
        <time>2020-08-15T07:55:22Z</time>
      </trkpt>
      <trkpt lat="50.22781" lon="4.17974">
        <ele>218</ele>
        <time>2020-08-15T07:55:24Z</time>
      </trkpt>
      <trkpt lat="50.22776" lon="4.17972">
        <ele>218</ele>
        <time>2020-08-15T07:55:26Z</time>
      </trkpt>
      <trkpt lat="50.22772" lon="4.17969">
        <ele>218</ele>
        <time>2020-08-15T07:55:28Z</time>
      </trkpt>
      <trkpt lat="50.22768" lon="4.17967">
        <ele>218</ele>
        <time>2020-08-15T07:55:30Z</time>
      </trkpt>
      <trkpt lat="50.22767" lon="4.17966">
        <ele>218</ele>
        <time>2020-08-15T07:55:32Z</time>
      </trkpt>
      <trkpt lat="50.22764" lon="4.17965">
        <ele>218</ele>
        <time>2020-08-15T07:55:34Z</time>
      </trkpt>
      <trkpt lat="50.22761" lon="4.17962">
        <ele>218</ele>
        <time>2020-08-15T07:55:36Z</time>
      </trkpt>
      <trkpt lat="50.22757" lon="4.1796">
        <ele>218</ele>
        <time>2020-08-15T07:55:38Z</time>
      </trkpt>
      <trkpt lat="50.22752" lon="4.1796">
        <ele>218</ele>
        <time>2020-08-15T07:55:40Z</time>
      </trkpt>
      <trkpt lat="50.22747" lon="4.17959">
        <ele>218</ele>
        <time>2020-08-15T07:55:42Z</time>
      </trkpt>
      <trkpt lat="50.22744" lon="4.17958">
        <ele>218</ele>
        <time>2020-08-15T07:55:44Z</time>
      </trkpt>
      <trkpt lat="50.22741" lon="4.17956">
        <ele>218</ele>
        <time>2020-08-15T07:55:46Z</time>
      </trkpt>
      <trkpt lat="50.22737" lon="4.17955">
        <ele>218</ele>
        <time>2020-08-15T07:55:48Z</time>
      </trkpt>
      <trkpt lat="50.22734" lon="4.17954">
        <ele>217</ele>
        <time>2020-08-15T07:55:50Z</time>
      </trkpt>
      <trkpt lat="50.2273" lon="4.17953">
        <ele>217</ele>
        <time>2020-08-15T07:55:52Z</time>
      </trkpt>
      <trkpt lat="50.22726" lon="4.17951">
        <ele>217</ele>
        <time>2020-08-15T07:55:54Z</time>
      </trkpt>
      <trkpt lat="50.22723" lon="4.1795">
        <ele>217</ele>
        <time>2020-08-15T07:55:56Z</time>
      </trkpt>
      <trkpt lat="50.22719" lon="4.17949">
        <ele>217</ele>
        <time>2020-08-15T07:55:58Z</time>
      </trkpt>
      <trkpt lat="50.22715" lon="4.17948">
        <ele>217</ele>
        <time>2020-08-15T07:56:00Z</time>
      </trkpt>
      <trkpt lat="50.22712" lon="4.17946">
        <ele>217</ele>
        <time>2020-08-15T07:56:02Z</time>
      </trkpt>
      <trkpt lat="50.22708" lon="4.17945">
        <ele>216</ele>
        <time>2020-08-15T07:56:04Z</time>
      </trkpt>
      <trkpt lat="50.22704" lon="4.17944">
        <ele>216</ele>
        <time>2020-08-15T07:56:06Z</time>
      </trkpt>
      <trkpt lat="50.227" lon="4.17941">
        <ele>216</ele>
        <time>2020-08-15T07:56:08Z</time>
      </trkpt>
      <trkpt lat="50.22696" lon="4.17939">
        <ele>216</ele>
        <time>2020-08-15T07:56:10Z</time>
      </trkpt>
      <trkpt lat="50.22692" lon="4.17939">
        <ele>216</ele>
        <time>2020-08-15T07:56:12Z</time>
      </trkpt>
      <trkpt lat="50.22689" lon="4.17938">
        <ele>216</ele>
        <time>2020-08-15T07:56:14Z</time>
      </trkpt>
      <trkpt lat="50.22687" lon="4.17938">
        <ele>216</ele>
        <time>2020-08-15T07:58:10Z</time>
      </trkpt>
      <trkpt lat="50.22681" lon="4.17934">
        <ele>216</ele>
        <time>2020-08-15T07:58:12Z</time>
      </trkpt>
      <trkpt lat="50.22676" lon="4.17933">
        <ele>217</ele>
        <time>2020-08-15T07:58:14Z</time>
      </trkpt>
      <trkpt lat="50.2267" lon="4.17931">
        <ele>217</ele>
        <time>2020-08-15T07:58:16Z</time>
      </trkpt>
      <trkpt lat="50.22664" lon="4.17929">
        <ele>219</ele>
        <time>2020-08-15T07:58:18Z</time>
      </trkpt>
      <trkpt lat="50.22658" lon="4.17926">
        <ele>219</ele>
        <time>2020-08-15T07:58:20Z</time>
      </trkpt>
      <trkpt lat="50.22651" lon="4.17923">
        <ele>220</ele>
        <time>2020-08-15T07:58:22Z</time>
      </trkpt>
      <trkpt lat="50.22644" lon="4.1792">
        <ele>220</ele>
        <time>2020-08-15T07:58:24Z</time>
      </trkpt>
      <trkpt lat="50.22638" lon="4.17917">
        <ele>220</ele>
        <time>2020-08-15T07:58:26Z</time>
      </trkpt>
      <trkpt lat="50.2263" lon="4.17914">
        <ele>220</ele>
        <time>2020-08-15T07:58:28Z</time>
      </trkpt>
      <trkpt lat="50.22621" lon="4.1791">
        <ele>220</ele>
        <time>2020-08-15T07:58:30Z</time>
      </trkpt>
      <trkpt lat="50.22612" lon="4.17908">
        <ele>220</ele>
        <time>2020-08-15T07:58:32Z</time>
      </trkpt>
      <trkpt lat="50.22604" lon="4.17905">
        <ele>220</ele>
        <time>2020-08-15T07:58:34Z</time>
      </trkpt>
      <trkpt lat="50.22596" lon="4.17902">
        <ele>223</ele>
        <time>2020-08-15T07:58:36Z</time>
      </trkpt>
      <trkpt lat="50.22588" lon="4.17898">
        <ele>223</ele>
        <time>2020-08-15T07:58:38Z</time>
      </trkpt>
      <trkpt lat="50.22578" lon="4.17895">
        <ele>223</ele>
        <time>2020-08-15T07:58:40Z</time>
      </trkpt>
      <trkpt lat="50.22569" lon="4.17892">
        <ele>220</ele>
        <time>2020-08-15T07:58:42Z</time>
      </trkpt>
      <trkpt lat="50.22559" lon="4.17888">
        <ele>220</ele>
        <time>2020-08-15T07:58:44Z</time>
      </trkpt>
      <trkpt lat="50.2255" lon="4.17884">
        <ele>220</ele>
        <time>2020-08-15T07:58:46Z</time>
      </trkpt>
      <trkpt lat="50.2254" lon="4.1788">
        <ele>218</ele>
        <time>2020-08-15T07:58:48Z</time>
      </trkpt>
      <trkpt lat="50.2253" lon="4.17877">
        <ele>218</ele>
        <time>2020-08-15T07:58:50Z</time>
      </trkpt>
      <trkpt lat="50.2252" lon="4.17873">
        <ele>219</ele>
        <time>2020-08-15T07:58:52Z</time>
      </trkpt>
      <trkpt lat="50.22511" lon="4.1787">
        <ele>218</ele>
        <time>2020-08-15T07:58:54Z</time>
      </trkpt>
      <trkpt lat="50.225" lon="4.17866">
        <ele>218</ele>
        <time>2020-08-15T07:58:56Z</time>
      </trkpt>
      <trkpt lat="50.2249" lon="4.17864">
        <ele>218</ele>
        <time>2020-08-15T07:58:58Z</time>
      </trkpt>
      <trkpt lat="50.22481" lon="4.17861">
        <ele>218</ele>
        <time>2020-08-15T07:59:00Z</time>
      </trkpt>
      <trkpt lat="50.22471" lon="4.17861">
        <ele>218</ele>
        <time>2020-08-15T07:59:02Z</time>
      </trkpt>
      <trkpt lat="50.22461" lon="4.17863">
        <ele>218</ele>
        <time>2020-08-15T07:59:04Z</time>
      </trkpt>
      <trkpt lat="50.22448" lon="4.17866">
        <ele>219</ele>
        <time>2020-08-15T07:59:06Z</time>
      </trkpt>
      <trkpt lat="50.22436" lon="4.17868">
        <ele>219</ele>
        <time>2020-08-15T07:59:08Z</time>
      </trkpt>
      <trkpt lat="50.22422" lon="4.17871">
        <ele>219</ele>
        <time>2020-08-15T07:59:10Z</time>
      </trkpt>
      <trkpt lat="50.22407" lon="4.17872">
        <ele>219</ele>
        <time>2020-08-15T07:59:12Z</time>
      </trkpt>
      <trkpt lat="50.22392" lon="4.17868">
        <ele>217</ele>
        <time>2020-08-15T07:59:14Z</time>
      </trkpt>
      <trkpt lat="50.22378" lon="4.17862">
        <ele>217</ele>
        <time>2020-08-15T07:59:16Z</time>
      </trkpt>
      <trkpt lat="50.22364" lon="4.17854">
        <ele>215</ele>
        <time>2020-08-15T07:59:18Z</time>
      </trkpt>
      <trkpt lat="50.22352" lon="4.17845">
        <ele>218</ele>
        <time>2020-08-15T07:59:20Z</time>
      </trkpt>
      <trkpt lat="50.22338" lon="4.17837">
        <ele>214</ele>
        <time>2020-08-15T07:59:22Z</time>
      </trkpt>
      <trkpt lat="50.22325" lon="4.17827">
        <ele>214</ele>
        <time>2020-08-15T07:59:24Z</time>
      </trkpt>
      <trkpt lat="50.22312" lon="4.17818">
        <ele>214</ele>
        <time>2020-08-15T07:59:26Z</time>
      </trkpt>
      <trkpt lat="50.22299" lon="4.17809">
        <ele>214</ele>
        <time>2020-08-15T07:59:28Z</time>
      </trkpt>
      <trkpt lat="50.22286" lon="4.178">
        <ele>212</ele>
        <time>2020-08-15T07:59:30Z</time>
      </trkpt>
      <trkpt lat="50.22274" lon="4.17791">
        <ele>214</ele>
        <time>2020-08-15T07:59:32Z</time>
      </trkpt>
      <trkpt lat="50.22263" lon="4.17783">
        <ele>211</ele>
        <time>2020-08-15T07:59:34Z</time>
      </trkpt>
      <trkpt lat="50.22252" lon="4.17777">
        <ele>211</ele>
        <time>2020-08-15T07:59:36Z</time>
      </trkpt>
      <trkpt lat="50.2224" lon="4.17771">
        <ele>211</ele>
        <time>2020-08-15T07:59:38Z</time>
      </trkpt>
      <trkpt lat="50.2223" lon="4.17765">
        <ele>209</ele>
        <time>2020-08-15T07:59:40Z</time>
      </trkpt>
      <trkpt lat="50.22219" lon="4.1776">
        <ele>210</ele>
        <time>2020-08-15T07:59:42Z</time>
      </trkpt>
      <trkpt lat="50.22208" lon="4.17755">
        <ele>209</ele>
        <time>2020-08-15T07:59:44Z</time>
      </trkpt>
      <trkpt lat="50.22197" lon="4.17751">
        <ele>209</ele>
        <time>2020-08-15T07:59:46Z</time>
      </trkpt>
      <trkpt lat="50.22186" lon="4.17747">
        <ele>209</ele>
        <time>2020-08-15T07:59:48Z</time>
      </trkpt>
      <trkpt lat="50.22175" lon="4.17742">
        <ele>209</ele>
        <time>2020-08-15T07:59:50Z</time>
      </trkpt>
      <trkpt lat="50.22163" lon="4.17738">
        <ele>209</ele>
        <time>2020-08-15T07:59:52Z</time>
      </trkpt>
      <trkpt lat="50.22153" lon="4.17734">
        <ele>211</ele>
        <time>2020-08-15T07:59:54Z</time>
      </trkpt>
      <trkpt lat="50.22142" lon="4.1773">
        <ele>211</ele>
        <time>2020-08-15T07:59:56Z</time>
      </trkpt>
      <trkpt lat="50.22131" lon="4.17727">
        <ele>211</ele>
        <time>2020-08-15T07:59:58Z</time>
      </trkpt>
      <trkpt lat="50.2212" lon="4.17725">
        <ele>212</ele>
        <time>2020-08-15T08:00:00Z</time>
      </trkpt>
      <trkpt lat="50.22108" lon="4.17724">
        <ele>212</ele>
        <time>2020-08-15T08:00:02Z</time>
      </trkpt>
      <trkpt lat="50.22097" lon="4.17724">
        <ele>214</ele>
        <time>2020-08-15T08:00:04Z</time>
      </trkpt>
      <trkpt lat="50.22086" lon="4.17726">
        <ele>214</ele>
        <time>2020-08-15T08:00:06Z</time>
      </trkpt>
      <trkpt lat="50.22075" lon="4.17726">
        <ele>214</ele>
        <time>2020-08-15T08:00:08Z</time>
      </trkpt>
      <trkpt lat="50.22064" lon="4.17726">
        <ele>219</ele>
        <time>2020-08-15T08:00:10Z</time>
      </trkpt>
      <trkpt lat="50.22053" lon="4.17727">
        <ele>219</ele>
        <time>2020-08-15T08:00:12Z</time>
      </trkpt>
      <trkpt lat="50.22043" lon="4.17727">
        <ele>219</ele>
        <time>2020-08-15T08:00:14Z</time>
      </trkpt>
      <trkpt lat="50.22034" lon="4.17727">
        <ele>221</ele>
        <time>2020-08-15T08:00:16Z</time>
      </trkpt>
      <trkpt lat="50.22025" lon="4.17727">
        <ele>221</ele>
        <time>2020-08-15T08:00:18Z</time>
      </trkpt>
      <trkpt lat="50.22017" lon="4.17726">
        <ele>221</ele>
        <time>2020-08-15T08:00:20Z</time>
      </trkpt>
      <trkpt lat="50.22006" lon="4.17723">
        <ele>224</ele>
        <time>2020-08-15T08:00:22Z</time>
      </trkpt>
      <trkpt lat="50.21996" lon="4.17724">
        <ele>224</ele>
        <time>2020-08-15T08:00:24Z</time>
      </trkpt>
      <trkpt lat="50.21986" lon="4.17723">
        <ele>224</ele>
        <time>2020-08-15T08:00:26Z</time>
      </trkpt>
      <trkpt lat="50.21977" lon="4.17721">
        <ele>223</ele>
        <time>2020-08-15T08:00:28Z</time>
      </trkpt>
      <trkpt lat="50.21965" lon="4.17719">
        <ele>223</ele>
        <time>2020-08-15T08:00:30Z</time>
      </trkpt>
      <trkpt lat="50.21956" lon="4.1772">
        <ele>222</ele>
        <time>2020-08-15T08:00:32Z</time>
      </trkpt>
      <trkpt lat="50.21947" lon="4.17722">
        <ele>222</ele>
        <time>2020-08-15T08:00:34Z</time>
      </trkpt>
      <trkpt lat="50.21938" lon="4.17721">
        <ele>222</ele>
        <time>2020-08-15T08:00:36Z</time>
      </trkpt>
      <trkpt lat="50.21927" lon="4.1772">
        <ele>223</ele>
        <time>2020-08-15T08:00:38Z</time>
      </trkpt>
      <trkpt lat="50.21917" lon="4.1772">
        <ele>223</ele>
        <time>2020-08-15T08:00:40Z</time>
      </trkpt>
      <trkpt lat="50.21906" lon="4.17719">
        <ele>223</ele>
        <time>2020-08-15T08:00:42Z</time>
      </trkpt>
      <trkpt lat="50.21895" lon="4.17718">
        <ele>225</ele>
        <time>2020-08-15T08:00:44Z</time>
      </trkpt>
      <trkpt lat="50.21885" lon="4.17718">
        <ele>225</ele>
        <time>2020-08-15T08:00:46Z</time>
      </trkpt>
      <trkpt lat="50.21876" lon="4.17719">
        <ele>225</ele>
        <time>2020-08-15T08:00:48Z</time>
      </trkpt>
      <trkpt lat="50.21866" lon="4.17716">
        <ele>227</ele>
        <time>2020-08-15T08:00:50Z</time>
      </trkpt>
      <trkpt lat="50.21858" lon="4.17714">
        <ele>227</ele>
        <time>2020-08-15T08:00:52Z</time>
      </trkpt>
      <trkpt lat="50.21849" lon="4.17712">
        <ele>227</ele>
        <time>2020-08-15T08:00:54Z</time>
      </trkpt>
      <trkpt lat="50.2184" lon="4.17712">
        <ele>229</ele>
        <time>2020-08-15T08:00:56Z</time>
      </trkpt>
      <trkpt lat="50.21832" lon="4.17711">
        <ele>229</ele>
        <time>2020-08-15T08:00:58Z</time>
      </trkpt>
      <trkpt lat="50.21823" lon="4.17709">
        <ele>229</ele>
        <time>2020-08-15T08:01:00Z</time>
      </trkpt>
      <trkpt lat="50.21815" lon="4.1771">
        <ele>230</ele>
        <time>2020-08-15T08:01:02Z</time>
      </trkpt>
      <trkpt lat="50.21807" lon="4.17709">
        <ele>230</ele>
        <time>2020-08-15T08:01:04Z</time>
      </trkpt>
      <trkpt lat="50.218" lon="4.17705">
        <ele>233</ele>
        <time>2020-08-15T08:01:06Z</time>
      </trkpt>
      <trkpt lat="50.21793" lon="4.17703">
        <ele>233</ele>
        <time>2020-08-15T08:01:08Z</time>
      </trkpt>
      <trkpt lat="50.21784" lon="4.17702">
        <ele>234</ele>
        <time>2020-08-15T08:01:10Z</time>
      </trkpt>
      <trkpt lat="50.21775" lon="4.17703">
        <ele>234</ele>
        <time>2020-08-15T08:01:12Z</time>
      </trkpt>
      <trkpt lat="50.21764" lon="4.17702">
        <ele>234</ele>
        <time>2020-08-15T08:01:14Z</time>
      </trkpt>
      <trkpt lat="50.21753" lon="4.17704">
        <ele>234</ele>
        <time>2020-08-15T08:01:16Z</time>
      </trkpt>
      <trkpt lat="50.21743" lon="4.17705">
        <ele>234</ele>
        <time>2020-08-15T08:01:18Z</time>
      </trkpt>
      <trkpt lat="50.21733" lon="4.17706">
        <ele>234</ele>
        <time>2020-08-15T08:01:20Z</time>
      </trkpt>
      <trkpt lat="50.21723" lon="4.17707">
        <ele>234</ele>
        <time>2020-08-15T08:01:22Z</time>
      </trkpt>
      <trkpt lat="50.21713" lon="4.17709">
        <ele>233</ele>
        <time>2020-08-15T08:01:24Z</time>
      </trkpt>
      <trkpt lat="50.21704" lon="4.17711">
        <ele>231</ele>
        <time>2020-08-15T08:01:26Z</time>
      </trkpt>
      <trkpt lat="50.21694" lon="4.17715">
        <ele>231</ele>
        <time>2020-08-15T08:01:28Z</time>
      </trkpt>
      <trkpt lat="50.21684" lon="4.17719">
        <ele>231</ele>
        <time>2020-08-15T08:01:30Z</time>
      </trkpt>
      <trkpt lat="50.21674" lon="4.17723">
        <ele>231</ele>
        <time>2020-08-15T08:01:32Z</time>
      </trkpt>
      <trkpt lat="50.21665" lon="4.17727">
        <ele>231</ele>
        <time>2020-08-15T08:01:34Z</time>
      </trkpt>
      <trkpt lat="50.21656" lon="4.17731">
        <ele>231</ele>
        <time>2020-08-15T08:01:36Z</time>
      </trkpt>
      <trkpt lat="50.21646" lon="4.17735">
        <ele>232</ele>
        <time>2020-08-15T08:01:38Z</time>
      </trkpt>
      <trkpt lat="50.21637" lon="4.17739">
        <ele>228</ele>
        <time>2020-08-15T08:01:40Z</time>
      </trkpt>
      <trkpt lat="50.21627" lon="4.17746">
        <ele>228</ele>
        <time>2020-08-15T08:01:42Z</time>
      </trkpt>
      <trkpt lat="50.21619" lon="4.17751">
        <ele>230</ele>
        <time>2020-08-15T08:01:44Z</time>
      </trkpt>
      <trkpt lat="50.2161" lon="4.17755">
        <ele>230</ele>
        <time>2020-08-15T08:01:46Z</time>
      </trkpt>
      <trkpt lat="50.21602" lon="4.17758">
        <ele>230</ele>
        <time>2020-08-15T08:01:48Z</time>
      </trkpt>
      <trkpt lat="50.21594" lon="4.17762">
        <ele>232</ele>
        <time>2020-08-15T08:01:50Z</time>
      </trkpt>
      <trkpt lat="50.21585" lon="4.17768">
        <ele>229</ele>
        <time>2020-08-15T08:01:52Z</time>
      </trkpt>
      <trkpt lat="50.21577" lon="4.17773">
        <ele>229</ele>
        <time>2020-08-15T08:01:54Z</time>
      </trkpt>
      <trkpt lat="50.21568" lon="4.17778">
        <ele>231</ele>
        <time>2020-08-15T08:01:56Z</time>
      </trkpt>
      <trkpt lat="50.21561" lon="4.17782">
        <ele>231</ele>
        <time>2020-08-15T08:01:58Z</time>
      </trkpt>
      <trkpt lat="50.21553" lon="4.17785">
        <ele>231</ele>
        <time>2020-08-15T08:02:00Z</time>
      </trkpt>
      <trkpt lat="50.21544" lon="4.1779">
        <ele>231</ele>
        <time>2020-08-15T08:02:02Z</time>
      </trkpt>
      <trkpt lat="50.21535" lon="4.17796">
        <ele>232</ele>
        <time>2020-08-15T08:02:04Z</time>
      </trkpt>
      <trkpt lat="50.21527" lon="4.178">
        <ele>232</ele>
        <time>2020-08-15T08:02:06Z</time>
      </trkpt>
      <trkpt lat="50.21518" lon="4.17805">
        <ele>232</ele>
        <time>2020-08-15T08:02:08Z</time>
      </trkpt>
      <trkpt lat="50.2151" lon="4.17809">
        <ele>234</ele>
        <time>2020-08-15T08:02:10Z</time>
      </trkpt>
      <trkpt lat="50.21504" lon="4.17812">
        <ele>234</ele>
        <time>2020-08-15T08:02:12Z</time>
      </trkpt>
      <trkpt lat="50.21501" lon="4.17812">
        <ele>234</ele>
        <time>2020-08-15T08:02:14Z</time>
      </trkpt>
      <trkpt lat="50.21499" lon="4.1781">
        <ele>234</ele>
        <time>2020-08-15T08:02:16Z</time>
      </trkpt>
      <trkpt lat="50.21499" lon="4.17806">
        <ele>234</ele>
        <time>2020-08-15T08:02:18Z</time>
      </trkpt>
      <trkpt lat="50.215" lon="4.17797">
        <ele>234</ele>
        <time>2020-08-15T08:02:20Z</time>
      </trkpt>
      <trkpt lat="50.21499" lon="4.17788">
        <ele>239</ele>
        <time>2020-08-15T08:02:22Z</time>
      </trkpt>
      <trkpt lat="50.21499" lon="4.17782">
        <ele>239</ele>
        <time>2020-08-15T08:02:24Z</time>
      </trkpt>
      <trkpt lat="50.21497" lon="4.17774">
        <ele>239</ele>
        <time>2020-08-15T08:02:26Z</time>
      </trkpt>
      <trkpt lat="50.21498" lon="4.17764">
        <ele>239</ele>
        <time>2020-08-15T08:02:28Z</time>
      </trkpt>
      <trkpt lat="50.21499" lon="4.17753">
        <ele>239</ele>
        <time>2020-08-15T08:02:30Z</time>
      </trkpt>
      <trkpt lat="50.21501" lon="4.17742">
        <ele>239</ele>
        <time>2020-08-15T08:02:32Z</time>
      </trkpt>
      <trkpt lat="50.21504" lon="4.1773">
        <ele>240</ele>
        <time>2020-08-15T08:02:34Z</time>
      </trkpt>
      <trkpt lat="50.21506" lon="4.17719">
        <ele>240</ele>
        <time>2020-08-15T08:02:36Z</time>
      </trkpt>
      <trkpt lat="50.21508" lon="4.17708">
        <ele>241</ele>
        <time>2020-08-15T08:02:38Z</time>
      </trkpt>
      <trkpt lat="50.2151" lon="4.177">
        <ele>241</ele>
        <time>2020-08-15T08:02:40Z</time>
      </trkpt>
      <trkpt lat="50.21513" lon="4.17689">
        <ele>241</ele>
        <time>2020-08-15T08:02:42Z</time>
      </trkpt>
      <trkpt lat="50.21514" lon="4.17678">
        <ele>241</ele>
        <time>2020-08-15T08:02:44Z</time>
      </trkpt>
      <trkpt lat="50.21515" lon="4.17668">
        <ele>242</ele>
        <time>2020-08-15T08:02:46Z</time>
      </trkpt>
      <trkpt lat="50.21516" lon="4.17655">
        <ele>242</ele>
        <time>2020-08-15T08:02:48Z</time>
      </trkpt>
      <trkpt lat="50.21519" lon="4.17646">
        <ele>241</ele>
        <time>2020-08-15T08:02:50Z</time>
      </trkpt>
      <trkpt lat="50.21521" lon="4.17634">
        <ele>241</ele>
        <time>2020-08-15T08:02:52Z</time>
      </trkpt>
      <trkpt lat="50.21524" lon="4.17622">
        <ele>242</ele>
        <time>2020-08-15T08:02:54Z</time>
      </trkpt>
      <trkpt lat="50.21523" lon="4.17608">
        <ele>242</ele>
        <time>2020-08-15T08:02:56Z</time>
      </trkpt>
      <trkpt lat="50.21526" lon="4.17596">
        <ele>242</ele>
        <time>2020-08-15T08:02:58Z</time>
      </trkpt>
      <trkpt lat="50.21529" lon="4.17585">
        <ele>242</ele>
        <time>2020-08-15T08:03:00Z</time>
      </trkpt>
      <trkpt lat="50.21529" lon="4.17578">
        <ele>242</ele>
        <time>2020-08-15T08:03:02Z</time>
      </trkpt>
      <trkpt lat="50.21531" lon="4.17575">
        <ele>242</ele>
        <time>2020-08-15T08:03:04Z</time>
      </trkpt>
      <trkpt lat="50.21533" lon="4.17572">
        <ele>242</ele>
        <time>2020-08-15T08:03:06Z</time>
      </trkpt>
      <trkpt lat="50.21538" lon="4.17569">
        <ele>241</ele>
        <time>2020-08-15T08:03:08Z</time>
      </trkpt>
      <trkpt lat="50.21543" lon="4.17569">
        <ele>240</ele>
        <time>2020-08-15T08:03:10Z</time>
      </trkpt>
      <trkpt lat="50.21545" lon="4.17565">
        <ele>240</ele>
        <time>2020-08-15T08:03:12Z</time>
      </trkpt>
      <trkpt lat="50.2155" lon="4.17564">
        <ele>240</ele>
        <time>2020-08-15T08:03:14Z</time>
      </trkpt>
      <trkpt lat="50.21554" lon="4.17568">
        <ele>240</ele>
        <time>2020-08-15T08:03:16Z</time>
      </trkpt>
      <trkpt lat="50.21559" lon="4.17569">
        <ele>240</ele>
        <time>2020-08-15T08:03:18Z</time>
      </trkpt>
      <trkpt lat="50.21564" lon="4.17567">
        <ele>240</ele>
        <time>2020-08-15T08:03:20Z</time>
      </trkpt>
      <trkpt lat="50.21568" lon="4.17568">
        <ele>240</ele>
        <time>2020-08-15T08:03:22Z</time>
      </trkpt>
      <trkpt lat="50.21571" lon="4.17568">
        <ele>240</ele>
        <time>2020-08-15T08:03:24Z</time>
      </trkpt>
      <trkpt lat="50.21574" lon="4.17562">
        <ele>240</ele>
        <time>2020-08-15T08:03:32Z</time>
      </trkpt>
      <trkpt lat="50.21578" lon="4.17559">
        <ele>240</ele>
        <time>2020-08-15T08:03:34Z</time>
      </trkpt>
      <trkpt lat="50.21584" lon="4.17556">
        <ele>240</ele>
        <time>2020-08-15T08:03:36Z</time>
      </trkpt>
      <trkpt lat="50.21588" lon="4.17557">
        <ele>240</ele>
        <time>2020-08-15T08:03:38Z</time>
      </trkpt>
      <trkpt lat="50.21594" lon="4.17558">
        <ele>240</ele>
        <time>2020-08-15T08:03:40Z</time>
      </trkpt>
      <trkpt lat="50.216" lon="4.17558">
        <ele>240</ele>
        <time>2020-08-15T08:03:42Z</time>
      </trkpt>
      <trkpt lat="50.21606" lon="4.17561">
        <ele>240</ele>
        <time>2020-08-15T08:03:44Z</time>
      </trkpt>
      <trkpt lat="50.21611" lon="4.1756">
        <ele>240</ele>
        <time>2020-08-15T08:03:46Z</time>
      </trkpt>
      <trkpt lat="50.21619" lon="4.17558">
        <ele>240</ele>
        <time>2020-08-15T08:03:48Z</time>
      </trkpt>
      <trkpt lat="50.21624" lon="4.17557">
        <ele>240</ele>
        <time>2020-08-15T08:03:50Z</time>
      </trkpt>
      <trkpt lat="50.21629" lon="4.17556">
        <ele>240</ele>
        <time>2020-08-15T08:03:52Z</time>
      </trkpt>
      <trkpt lat="50.21634" lon="4.17557">
        <ele>240</ele>
        <time>2020-08-15T08:03:54Z</time>
      </trkpt>
      <trkpt lat="50.21638" lon="4.17557">
        <ele>240</ele>
        <time>2020-08-15T08:03:56Z</time>
      </trkpt>
      <trkpt lat="50.21643" lon="4.17555">
        <ele>240</ele>
        <time>2020-08-15T08:03:58Z</time>
      </trkpt>
      <trkpt lat="50.21653" lon="4.17557">
        <ele>238</ele>
        <time>2020-08-15T08:04:00Z</time>
      </trkpt>
      <trkpt lat="50.21662" lon="4.17558">
        <ele>238</ele>
        <time>2020-08-15T08:04:02Z</time>
      </trkpt>
      <trkpt lat="50.2167" lon="4.17561">
        <ele>238</ele>
        <time>2020-08-15T08:04:04Z</time>
      </trkpt>
      <trkpt lat="50.2168" lon="4.17563">
        <ele>238</ele>
        <time>2020-08-15T08:04:06Z</time>
      </trkpt>
      <trkpt lat="50.21687" lon="4.17563">
        <ele>237</ele>
        <time>2020-08-15T08:04:08Z</time>
      </trkpt>
      <trkpt lat="50.21697" lon="4.17567">
        <ele>237</ele>
        <time>2020-08-15T08:04:10Z</time>
      </trkpt>
      <trkpt lat="50.21706" lon="4.17569">
        <ele>237</ele>
        <time>2020-08-15T08:04:12Z</time>
      </trkpt>
      <trkpt lat="50.21719" lon="4.17571">
        <ele>236</ele>
        <time>2020-08-15T08:04:14Z</time>
      </trkpt>
      <trkpt lat="50.2173" lon="4.17575">
        <ele>236</ele>
        <time>2020-08-15T08:04:16Z</time>
      </trkpt>
      <trkpt lat="50.21739" lon="4.17576">
        <ele>235</ele>
        <time>2020-08-15T08:04:18Z</time>
      </trkpt>
      <trkpt lat="50.21748" lon="4.17578">
        <ele>235</ele>
        <time>2020-08-15T08:04:20Z</time>
      </trkpt>
      <trkpt lat="50.21759" lon="4.17579">
        <ele>235</ele>
        <time>2020-08-15T08:04:22Z</time>
      </trkpt>
      <trkpt lat="50.21768" lon="4.17583">
        <ele>235</ele>
        <time>2020-08-15T08:04:24Z</time>
      </trkpt>
      <trkpt lat="50.21779" lon="4.17586">
        <ele>235</ele>
        <time>2020-08-15T08:04:26Z</time>
      </trkpt>
      <trkpt lat="50.21788" lon="4.1759">
        <ele>235</ele>
        <time>2020-08-15T08:04:28Z</time>
      </trkpt>
      <trkpt lat="50.21795" lon="4.17589">
        <ele>235</ele>
        <time>2020-08-15T08:04:30Z</time>
      </trkpt>
      <trkpt lat="50.21804" lon="4.17592">
        <ele>235</ele>
        <time>2020-08-15T08:04:32Z</time>
      </trkpt>
      <trkpt lat="50.21814" lon="4.17598">
        <ele>236</ele>
        <time>2020-08-15T08:04:34Z</time>
      </trkpt>
      <trkpt lat="50.21824" lon="4.17601">
        <ele>235</ele>
        <time>2020-08-15T08:04:36Z</time>
      </trkpt>
      <trkpt lat="50.21832" lon="4.17603">
        <ele>235</ele>
        <time>2020-08-15T08:04:38Z</time>
      </trkpt>
      <trkpt lat="50.21844" lon="4.17608">
        <ele>235</ele>
        <time>2020-08-15T08:04:40Z</time>
      </trkpt>
      <trkpt lat="50.21852" lon="4.1761">
        <ele>233</ele>
        <time>2020-08-15T08:04:42Z</time>
      </trkpt>
      <trkpt lat="50.21861" lon="4.17614">
        <ele>233</ele>
        <time>2020-08-15T08:04:44Z</time>
      </trkpt>
      <trkpt lat="50.21873" lon="4.17622">
        <ele>233</ele>
        <time>2020-08-15T08:04:46Z</time>
      </trkpt>
      <trkpt lat="50.21885" lon="4.17627">
        <ele>231</ele>
        <time>2020-08-15T08:04:48Z</time>
      </trkpt>
      <trkpt lat="50.21898" lon="4.17631">
        <ele>231</ele>
        <time>2020-08-15T08:04:50Z</time>
      </trkpt>
      <trkpt lat="50.21909" lon="4.17635">
        <ele>230</ele>
        <time>2020-08-15T08:04:52Z</time>
      </trkpt>
      <trkpt lat="50.2192" lon="4.17638">
        <ele>230</ele>
        <time>2020-08-15T08:04:54Z</time>
      </trkpt>
      <trkpt lat="50.21931" lon="4.1764">
        <ele>229</ele>
        <time>2020-08-15T08:04:56Z</time>
      </trkpt>
      <trkpt lat="50.21941" lon="4.17643">
        <ele>229</ele>
        <time>2020-08-15T08:04:58Z</time>
      </trkpt>
      <trkpt lat="50.21951" lon="4.17645">
        <ele>229</ele>
        <time>2020-08-15T08:05:00Z</time>
      </trkpt>
      <trkpt lat="50.2196" lon="4.1765">
        <ele>229</ele>
        <time>2020-08-15T08:05:02Z</time>
      </trkpt>
      <trkpt lat="50.21966" lon="4.17652">
        <ele>229</ele>
        <time>2020-08-15T08:05:04Z</time>
      </trkpt>
      <trkpt lat="50.21972" lon="4.17656">
        <ele>228</ele>
        <time>2020-08-15T08:05:06Z</time>
      </trkpt>
      <trkpt lat="50.21979" lon="4.17658">
        <ele>228</ele>
        <time>2020-08-15T08:05:08Z</time>
      </trkpt>
      <trkpt lat="50.21985" lon="4.17659">
        <ele>228</ele>
        <time>2020-08-15T08:05:10Z</time>
      </trkpt>
      <trkpt lat="50.2199" lon="4.17659">
        <ele>227</ele>
        <time>2020-08-15T08:05:12Z</time>
      </trkpt>
      <trkpt lat="50.21994" lon="4.17652">
        <ele>228</ele>
        <time>2020-08-15T08:05:14Z</time>
      </trkpt>
      <trkpt lat="50.21993" lon="4.17644">
        <ele>228</ele>
        <time>2020-08-15T08:05:16Z</time>
      </trkpt>
      <trkpt lat="50.21993" lon="4.17636">
        <ele>228</ele>
        <time>2020-08-15T08:05:18Z</time>
      </trkpt>
      <trkpt lat="50.21992" lon="4.17628">
        <ele>228</ele>
        <time>2020-08-15T08:05:20Z</time>
      </trkpt>
      <trkpt lat="50.21992" lon="4.17619">
        <ele>228</ele>
        <time>2020-08-15T08:05:22Z</time>
      </trkpt>
      <trkpt lat="50.21989" lon="4.1761">
        <ele>228</ele>
        <time>2020-08-15T08:05:24Z</time>
      </trkpt>
      <trkpt lat="50.21986" lon="4.17602">
        <ele>229</ele>
        <time>2020-08-15T08:05:26Z</time>
      </trkpt>
      <trkpt lat="50.21985" lon="4.17593">
        <ele>229</ele>
        <time>2020-08-15T08:05:28Z</time>
      </trkpt>
      <trkpt lat="50.21983" lon="4.17582">
        <ele>229</ele>
        <time>2020-08-15T08:05:30Z</time>
      </trkpt>
      <trkpt lat="50.21982" lon="4.1757">
        <ele>229</ele>
        <time>2020-08-15T08:05:32Z</time>
      </trkpt>
      <trkpt lat="50.21983" lon="4.17558">
        <ele>228</ele>
        <time>2020-08-15T08:05:34Z</time>
      </trkpt>
      <trkpt lat="50.21986" lon="4.17548">
        <ele>228</ele>
        <time>2020-08-15T08:05:36Z</time>
      </trkpt>
      <trkpt lat="50.21988" lon="4.17536">
        <ele>227</ele>
        <time>2020-08-15T08:05:38Z</time>
      </trkpt>
      <trkpt lat="50.21991" lon="4.17524">
        <ele>227</ele>
        <time>2020-08-15T08:05:40Z</time>
      </trkpt>
      <trkpt lat="50.21995" lon="4.1752">
        <ele>227</ele>
        <time>2020-08-15T08:05:42Z</time>
      </trkpt>
      <trkpt lat="50.21998" lon="4.17516">
        <ele>227</ele>
        <time>2020-08-15T08:05:44Z</time>
      </trkpt>
      <trkpt lat="50.21999" lon="4.17508">
        <ele>225</ele>
        <time>2020-08-15T08:05:46Z</time>
      </trkpt>
      <trkpt lat="50.22004" lon="4.17499">
        <ele>225</ele>
        <time>2020-08-15T08:05:48Z</time>
      </trkpt>
      <trkpt lat="50.22007" lon="4.17489">
        <ele>225</ele>
        <time>2020-08-15T08:05:50Z</time>
      </trkpt>
      <trkpt lat="50.22012" lon="4.17478">
        <ele>225</ele>
        <time>2020-08-15T08:05:52Z</time>
      </trkpt>
      <trkpt lat="50.22016" lon="4.17465">
        <ele>225</ele>
        <time>2020-08-15T08:05:54Z</time>
      </trkpt>
      <trkpt lat="50.22018" lon="4.17451">
        <ele>224</ele>
        <time>2020-08-15T08:05:56Z</time>
      </trkpt>
      <trkpt lat="50.22025" lon="4.17442">
        <ele>224</ele>
        <time>2020-08-15T08:05:58Z</time>
      </trkpt>
      <trkpt lat="50.22027" lon="4.17428">
        <ele>223</ele>
        <time>2020-08-15T08:06:00Z</time>
      </trkpt>
      <trkpt lat="50.22027" lon="4.17413">
        <ele>223</ele>
        <time>2020-08-15T08:06:02Z</time>
      </trkpt>
      <trkpt lat="50.22028" lon="4.17401">
        <ele>224</ele>
        <time>2020-08-15T08:06:04Z</time>
      </trkpt>
      <trkpt lat="50.22031" lon="4.17386">
        <ele>224</ele>
        <time>2020-08-15T08:06:06Z</time>
      </trkpt>
      <trkpt lat="50.22033" lon="4.1737">
        <ele>222</ele>
        <time>2020-08-15T08:06:08Z</time>
      </trkpt>
      <trkpt lat="50.22033" lon="4.17355">
        <ele>222</ele>
        <time>2020-08-15T08:06:10Z</time>
      </trkpt>
      <trkpt lat="50.22034" lon="4.17338">
        <ele>224</ele>
        <time>2020-08-15T08:06:12Z</time>
      </trkpt>
      <trkpt lat="50.22034" lon="4.17322">
        <ele>224</ele>
        <time>2020-08-15T08:06:14Z</time>
      </trkpt>
      <trkpt lat="50.22036" lon="4.17307">
        <ele>222</ele>
        <time>2020-08-15T08:06:16Z</time>
      </trkpt>
      <trkpt lat="50.22038" lon="4.1729">
        <ele>224</ele>
        <time>2020-08-15T08:06:18Z</time>
      </trkpt>
      <trkpt lat="50.2204" lon="4.17274">
        <ele>224</ele>
        <time>2020-08-15T08:06:20Z</time>
      </trkpt>
      <trkpt lat="50.22042" lon="4.17261">
        <ele>223</ele>
        <time>2020-08-15T08:06:22Z</time>
      </trkpt>
      <trkpt lat="50.22042" lon="4.17245">
        <ele>223</ele>
        <time>2020-08-15T08:06:24Z</time>
      </trkpt>
      <trkpt lat="50.22046" lon="4.17231">
        <ele>224</ele>
        <time>2020-08-15T08:06:26Z</time>
      </trkpt>
      <trkpt lat="50.2205" lon="4.17216">
        <ele>224</ele>
        <time>2020-08-15T08:06:28Z</time>
      </trkpt>
      <trkpt lat="50.22054" lon="4.17204">
        <ele>222</ele>
        <time>2020-08-15T08:06:30Z</time>
      </trkpt>
      <trkpt lat="50.22058" lon="4.17189">
        <ele>222</ele>
        <time>2020-08-15T08:06:32Z</time>
      </trkpt>
      <trkpt lat="50.22062" lon="4.17173">
        <ele>224</ele>
        <time>2020-08-15T08:06:34Z</time>
      </trkpt>
      <trkpt lat="50.22067" lon="4.17157">
        <ele>224</ele>
        <time>2020-08-15T08:06:36Z</time>
      </trkpt>
      <trkpt lat="50.22071" lon="4.17139">
        <ele>224</ele>
        <time>2020-08-15T08:06:38Z</time>
      </trkpt>
      <trkpt lat="50.22071" lon="4.1712">
        <ele>224</ele>
        <time>2020-08-15T08:06:40Z</time>
      </trkpt>
      <trkpt lat="50.22067" lon="4.17098">
        <ele>223</ele>
        <time>2020-08-15T08:06:42Z</time>
      </trkpt>
      <trkpt lat="50.22065" lon="4.17079">
        <ele>222</ele>
        <time>2020-08-15T08:06:44Z</time>
      </trkpt>
      <trkpt lat="50.22062" lon="4.17062">
        <ele>221</ele>
        <time>2020-08-15T08:06:46Z</time>
      </trkpt>
      <trkpt lat="50.2206" lon="4.17048">
        <ele>221</ele>
        <time>2020-08-15T08:06:48Z</time>
      </trkpt>
      <trkpt lat="50.22058" lon="4.17035">
        <ele>220</ele>
        <time>2020-08-15T08:06:50Z</time>
      </trkpt>
      <trkpt lat="50.22054" lon="4.17023">
        <ele>220</ele>
        <time>2020-08-15T08:06:52Z</time>
      </trkpt>
      <trkpt lat="50.22052" lon="4.17011">
        <ele>220</ele>
        <time>2020-08-15T08:06:54Z</time>
      </trkpt>
      <trkpt lat="50.22049" lon="4.17003">
        <ele>220</ele>
        <time>2020-08-15T08:06:56Z</time>
      </trkpt>
      <trkpt lat="50.2205" lon="4.16995">
        <ele>220</ele>
        <time>2020-08-15T08:06:58Z</time>
      </trkpt>
      <trkpt lat="50.22049" lon="4.16985">
        <ele>219</ele>
        <time>2020-08-15T08:07:00Z</time>
      </trkpt>
      <trkpt lat="50.22046" lon="4.16975">
        <ele>219</ele>
        <time>2020-08-15T08:07:02Z</time>
      </trkpt>
      <trkpt lat="50.22044" lon="4.16964">
        <ele>219</ele>
        <time>2020-08-15T08:07:04Z</time>
      </trkpt>
      <trkpt lat="50.22043" lon="4.16951">
        <ele>220</ele>
        <time>2020-08-15T08:07:06Z</time>
      </trkpt>
      <trkpt lat="50.22043" lon="4.16939">
        <ele>220</ele>
        <time>2020-08-15T08:07:08Z</time>
      </trkpt>
      <trkpt lat="50.22043" lon="4.16927">
        <ele>219</ele>
        <time>2020-08-15T08:07:10Z</time>
      </trkpt>
      <trkpt lat="50.22044" lon="4.16917">
        <ele>219</ele>
        <time>2020-08-15T08:07:12Z</time>
      </trkpt>
      <trkpt lat="50.22047" lon="4.16906">
        <ele>219</ele>
        <time>2020-08-15T08:07:14Z</time>
      </trkpt>
      <trkpt lat="50.22051" lon="4.16896">
        <ele>221</ele>
        <time>2020-08-15T08:07:16Z</time>
      </trkpt>
      <trkpt lat="50.22055" lon="4.16886">
        <ele>221</ele>
        <time>2020-08-15T08:07:18Z</time>
      </trkpt>
      <trkpt lat="50.2206" lon="4.16875">
        <ele>221</ele>
        <time>2020-08-15T08:07:20Z</time>
      </trkpt>
      <trkpt lat="50.22065" lon="4.16866">
        <ele>220</ele>
        <time>2020-08-15T08:07:22Z</time>
      </trkpt>
      <trkpt lat="50.22072" lon="4.1686">
        <ele>220</ele>
        <time>2020-08-15T08:07:24Z</time>
      </trkpt>
      <trkpt lat="50.22077" lon="4.16852">
        <ele>220</ele>
        <time>2020-08-15T08:07:26Z</time>
      </trkpt>
      <trkpt lat="50.22087" lon="4.16845">
        <ele>221</ele>
        <time>2020-08-15T08:07:28Z</time>
      </trkpt>
      <trkpt lat="50.22097" lon="4.16838">
        <ele>221</ele>
        <time>2020-08-15T08:07:30Z</time>
      </trkpt>
      <trkpt lat="50.22107" lon="4.16832">
        <ele>220</ele>
        <time>2020-08-15T08:07:32Z</time>
      </trkpt>
      <trkpt lat="50.22115" lon="4.16824">
        <ele>220</ele>
        <time>2020-08-15T08:07:34Z</time>
      </trkpt>
      <trkpt lat="50.22125" lon="4.16813">
        <ele>220</ele>
        <time>2020-08-15T08:07:36Z</time>
      </trkpt>
      <trkpt lat="50.22136" lon="4.16801">
        <ele>219</ele>
        <time>2020-08-15T08:07:38Z</time>
      </trkpt>
      <trkpt lat="50.22146" lon="4.16792">
        <ele>219</ele>
        <time>2020-08-15T08:07:40Z</time>
      </trkpt>
      <trkpt lat="50.22158" lon="4.16782">
        <ele>217</ele>
        <time>2020-08-15T08:07:42Z</time>
      </trkpt>
      <trkpt lat="50.22167" lon="4.16766">
        <ele>217</ele>
        <time>2020-08-15T08:07:44Z</time>
      </trkpt>
      <trkpt lat="50.22178" lon="4.1675">
        <ele>217</ele>
        <time>2020-08-15T08:07:46Z</time>
      </trkpt>
      <trkpt lat="50.22186" lon="4.16734">
        <ele>216</ele>
        <time>2020-08-15T08:07:48Z</time>
      </trkpt>
      <trkpt lat="50.22194" lon="4.16716">
        <ele>216</ele>
        <time>2020-08-15T08:07:50Z</time>
      </trkpt>
      <trkpt lat="50.22203" lon="4.16698">
        <ele>214</ele>
        <time>2020-08-15T08:07:52Z</time>
      </trkpt>
      <trkpt lat="50.22211" lon="4.16682">
        <ele>213</ele>
        <time>2020-08-15T08:07:54Z</time>
      </trkpt>
      <trkpt lat="50.22217" lon="4.16667">
        <ele>212</ele>
        <time>2020-08-15T08:07:56Z</time>
      </trkpt>
      <trkpt lat="50.22221" lon="4.16653">
        <ele>210</ele>
        <time>2020-08-15T08:07:58Z</time>
      </trkpt>
      <trkpt lat="50.22223" lon="4.16644">
        <ele>210</ele>
        <time>2020-08-15T08:08:00Z</time>
      </trkpt>
      <trkpt lat="50.22225" lon="4.1664">
        <ele>210</ele>
        <time>2020-08-15T08:08:02Z</time>
      </trkpt>
      <trkpt lat="50.22224" lon="4.16637">
        <ele>210</ele>
        <time>2020-08-15T08:08:04Z</time>
      </trkpt>
      <trkpt lat="50.22224" lon="4.16631">
        <ele>210</ele>
        <time>2020-08-15T08:08:06Z</time>
      </trkpt>
      <trkpt lat="50.22227" lon="4.16628">
        <ele>210</ele>
        <time>2020-08-15T08:08:08Z</time>
      </trkpt>
      <trkpt lat="50.22228" lon="4.16623">
        <ele>211</ele>
        <time>2020-08-15T08:08:10Z</time>
      </trkpt>
      <trkpt lat="50.2223" lon="4.16615">
        <ele>211</ele>
        <time>2020-08-15T08:08:12Z</time>
      </trkpt>
      <trkpt lat="50.22231" lon="4.16605">
        <ele>211</ele>
        <time>2020-08-15T08:08:14Z</time>
      </trkpt>
      <trkpt lat="50.22233" lon="4.16591">
        <ele>208</ele>
        <time>2020-08-15T08:08:16Z</time>
      </trkpt>
      <trkpt lat="50.22234" lon="4.16581">
        <ele>208</ele>
        <time>2020-08-15T08:08:18Z</time>
      </trkpt>
      <trkpt lat="50.22237" lon="4.16572">
        <ele>207</ele>
        <time>2020-08-15T08:08:20Z</time>
      </trkpt>
      <trkpt lat="50.22239" lon="4.16563">
        <ele>206</ele>
        <time>2020-08-15T08:08:22Z</time>
      </trkpt>
      <trkpt lat="50.2224" lon="4.16554">
        <ele>206</ele>
        <time>2020-08-15T08:08:24Z</time>
      </trkpt>
      <trkpt lat="50.22242" lon="4.16546">
        <ele>206</ele>
        <time>2020-08-15T08:08:26Z</time>
      </trkpt>
      <trkpt lat="50.2224" lon="4.16537">
        <ele>206</ele>
        <time>2020-08-15T08:08:28Z</time>
      </trkpt>
      <trkpt lat="50.22234" lon="4.16533">
        <ele>207</ele>
        <time>2020-08-15T08:08:30Z</time>
      </trkpt>
      <trkpt lat="50.22228" lon="4.1653">
        <ele>207</ele>
        <time>2020-08-15T08:08:32Z</time>
      </trkpt>
      <trkpt lat="50.22223" lon="4.16528">
        <ele>207</ele>
        <time>2020-08-15T08:08:34Z</time>
      </trkpt>
      <trkpt lat="50.22216" lon="4.16526">
        <ele>207</ele>
        <time>2020-08-15T08:08:36Z</time>
      </trkpt>
      <trkpt lat="50.22211" lon="4.16525">
        <ele>207</ele>
        <time>2020-08-15T08:08:38Z</time>
      </trkpt>
      <trkpt lat="50.22205" lon="4.16524">
        <ele>208</ele>
        <time>2020-08-15T08:08:40Z</time>
      </trkpt>
      <trkpt lat="50.22199" lon="4.16524">
        <ele>208</ele>
        <time>2020-08-15T08:08:42Z</time>
      </trkpt>
      <trkpt lat="50.22191" lon="4.16522">
        <ele>208</ele>
        <time>2020-08-15T08:08:44Z</time>
      </trkpt>
      <trkpt lat="50.22183" lon="4.1652">
        <ele>208</ele>
        <time>2020-08-15T08:08:46Z</time>
      </trkpt>
      <trkpt lat="50.22175" lon="4.16518">
        <ele>208</ele>
        <time>2020-08-15T08:08:48Z</time>
      </trkpt>
      <trkpt lat="50.22167" lon="4.16516">
        <ele>208</ele>
        <time>2020-08-15T08:08:50Z</time>
      </trkpt>
      <trkpt lat="50.22159" lon="4.16514">
        <ele>208</ele>
        <time>2020-08-15T08:08:52Z</time>
      </trkpt>
      <trkpt lat="50.22151" lon="4.16511">
        <ele>207</ele>
        <time>2020-08-15T08:08:54Z</time>
      </trkpt>
      <trkpt lat="50.22143" lon="4.16509">
        <ele>207</ele>
        <time>2020-08-15T08:08:56Z</time>
      </trkpt>
      <trkpt lat="50.22135" lon="4.16507">
        <ele>207</ele>
        <time>2020-08-15T08:08:58Z</time>
      </trkpt>
      <trkpt lat="50.22127" lon="4.16505">
        <ele>207</ele>
        <time>2020-08-15T08:09:00Z</time>
      </trkpt>
      <trkpt lat="50.22118" lon="4.16503">
        <ele>207</ele>
        <time>2020-08-15T08:09:02Z</time>
      </trkpt>
      <trkpt lat="50.2211" lon="4.16502">
        <ele>207</ele>
        <time>2020-08-15T08:09:04Z</time>
      </trkpt>
      <trkpt lat="50.22102" lon="4.165">
        <ele>207</ele>
        <time>2020-08-15T08:09:06Z</time>
      </trkpt>
      <trkpt lat="50.22093" lon="4.16498">
        <ele>205</ele>
        <time>2020-08-15T08:09:08Z</time>
      </trkpt>
      <trkpt lat="50.22085" lon="4.16496">
        <ele>205</ele>
        <time>2020-08-15T08:09:10Z</time>
      </trkpt>
      <trkpt lat="50.22076" lon="4.16495">
        <ele>205</ele>
        <time>2020-08-15T08:09:12Z</time>
      </trkpt>
      <trkpt lat="50.22068" lon="4.16493">
        <ele>205</ele>
        <time>2020-08-15T08:09:14Z</time>
      </trkpt>
      <trkpt lat="50.22059" lon="4.16493">
        <ele>205</ele>
        <time>2020-08-15T08:09:16Z</time>
      </trkpt>
      <trkpt lat="50.2205" lon="4.16493">
        <ele>205</ele>
        <time>2020-08-15T08:09:18Z</time>
      </trkpt>
      <trkpt lat="50.22041" lon="4.16493">
        <ele>206</ele>
        <time>2020-08-15T08:09:20Z</time>
      </trkpt>
      <trkpt lat="50.22033" lon="4.16494">
        <ele>206</ele>
        <time>2020-08-15T08:09:22Z</time>
      </trkpt>
      <trkpt lat="50.22025" lon="4.16495">
        <ele>206</ele>
        <time>2020-08-15T08:09:24Z</time>
      </trkpt>
      <trkpt lat="50.22016" lon="4.16495">
        <ele>206</ele>
        <time>2020-08-15T08:09:26Z</time>
      </trkpt>
      <trkpt lat="50.22007" lon="4.16495">
        <ele>207</ele>
        <time>2020-08-15T08:09:28Z</time>
      </trkpt>
      <trkpt lat="50.21999" lon="4.16494">
        <ele>207</ele>
        <time>2020-08-15T08:09:30Z</time>
      </trkpt>
      <trkpt lat="50.2199" lon="4.16493">
        <ele>207</ele>
        <time>2020-08-15T08:09:32Z</time>
      </trkpt>
      <trkpt lat="50.21981" lon="4.16492">
        <ele>210</ele>
        <time>2020-08-15T08:09:34Z</time>
      </trkpt>
      <trkpt lat="50.21972" lon="4.16491">
        <ele>210</ele>
        <time>2020-08-15T08:09:36Z</time>
      </trkpt>
      <trkpt lat="50.21964" lon="4.16489">
        <ele>210</ele>
        <time>2020-08-15T08:09:38Z</time>
      </trkpt>
      <trkpt lat="50.21956" lon="4.16488">
        <ele>211</ele>
        <time>2020-08-15T08:09:40Z</time>
      </trkpt>
      <trkpt lat="50.21947" lon="4.16488">
        <ele>211</ele>
        <time>2020-08-15T08:09:42Z</time>
      </trkpt>
      <trkpt lat="50.21939" lon="4.16487">
        <ele>211</ele>
        <time>2020-08-15T08:09:44Z</time>
      </trkpt>
      <trkpt lat="50.2193" lon="4.16487">
        <ele>213</ele>
        <time>2020-08-15T08:09:46Z</time>
      </trkpt>
      <trkpt lat="50.21923" lon="4.16487">
        <ele>213</ele>
        <time>2020-08-15T08:09:48Z</time>
      </trkpt>
      <trkpt lat="50.21915" lon="4.16487">
        <ele>213</ele>
        <time>2020-08-15T08:09:50Z</time>
      </trkpt>
      <trkpt lat="50.21907" lon="4.16487">
        <ele>213</ele>
        <time>2020-08-15T08:09:52Z</time>
      </trkpt>
      <trkpt lat="50.21899" lon="4.16488">
        <ele>214</ele>
        <time>2020-08-15T08:09:54Z</time>
      </trkpt>
      <trkpt lat="50.21891" lon="4.16489">
        <ele>214</ele>
        <time>2020-08-15T08:09:56Z</time>
      </trkpt>
      <trkpt lat="50.21883" lon="4.16491">
        <ele>214</ele>
        <time>2020-08-15T08:09:58Z</time>
      </trkpt>
      <trkpt lat="50.21875" lon="4.16495">
        <ele>214</ele>
        <time>2020-08-15T08:10:00Z</time>
      </trkpt>
      <trkpt lat="50.21868" lon="4.16498">
        <ele>216</ele>
        <time>2020-08-15T08:10:02Z</time>
      </trkpt>
      <trkpt lat="50.21861" lon="4.16502">
        <ele>216</ele>
        <time>2020-08-15T08:10:04Z</time>
      </trkpt>
      <trkpt lat="50.21853" lon="4.16506">
        <ele>216</ele>
        <time>2020-08-15T08:10:06Z</time>
      </trkpt>
      <trkpt lat="50.21844" lon="4.16509">
        <ele>218</ele>
        <time>2020-08-15T08:10:08Z</time>
      </trkpt>
      <trkpt lat="50.21836" lon="4.16512">
        <ele>218</ele>
        <time>2020-08-15T08:10:10Z</time>
      </trkpt>
      <trkpt lat="50.21828" lon="4.16516">
        <ele>218</ele>
        <time>2020-08-15T08:10:12Z</time>
      </trkpt>
      <trkpt lat="50.2182" lon="4.16519">
        <ele>218</ele>
        <time>2020-08-15T08:10:14Z</time>
      </trkpt>
      <trkpt lat="50.21812" lon="4.16523">
        <ele>221</ele>
        <time>2020-08-15T08:10:16Z</time>
      </trkpt>
      <trkpt lat="50.21805" lon="4.16525">
        <ele>221</ele>
        <time>2020-08-15T08:10:18Z</time>
      </trkpt>
      <trkpt lat="50.21798" lon="4.16522">
        <ele>221</ele>
        <time>2020-08-15T08:10:20Z</time>
      </trkpt>
      <trkpt lat="50.21792" lon="4.16515">
        <ele>221</ele>
        <time>2020-08-15T08:10:22Z</time>
      </trkpt>
      <trkpt lat="50.21789" lon="4.16505">
        <ele>228</ele>
        <time>2020-08-15T08:10:24Z</time>
      </trkpt>
      <trkpt lat="50.21787" lon="4.16493">
        <ele>228</ele>
        <time>2020-08-15T08:10:26Z</time>
      </trkpt>
      <trkpt lat="50.21785" lon="4.1648">
        <ele>227</ele>
        <time>2020-08-15T08:10:28Z</time>
      </trkpt>
      <trkpt lat="50.21784" lon="4.16467">
        <ele>227</ele>
        <time>2020-08-15T08:10:30Z</time>
      </trkpt>
      <trkpt lat="50.21782" lon="4.16454">
        <ele>230</ele>
        <time>2020-08-15T08:10:32Z</time>
      </trkpt>
      <trkpt lat="50.21781" lon="4.16441">
        <ele>230</ele>
        <time>2020-08-15T08:10:34Z</time>
      </trkpt>
      <trkpt lat="50.2178" lon="4.16427">
        <ele>229</ele>
        <time>2020-08-15T08:10:36Z</time>
      </trkpt>
      <trkpt lat="50.2178" lon="4.16413">
        <ele>229</ele>
        <time>2020-08-15T08:10:38Z</time>
      </trkpt>
      <trkpt lat="50.2178" lon="4.16399">
        <ele>230</ele>
        <time>2020-08-15T08:10:40Z</time>
      </trkpt>
      <trkpt lat="50.21779" lon="4.16385">
        <ele>230</ele>
        <time>2020-08-15T08:10:42Z</time>
      </trkpt>
      <trkpt lat="50.21775" lon="4.16372">
        <ele>230</ele>
        <time>2020-08-15T08:10:44Z</time>
      </trkpt>
      <trkpt lat="50.21772" lon="4.16359">
        <ele>230</ele>
        <time>2020-08-15T08:10:46Z</time>
      </trkpt>
      <trkpt lat="50.21771" lon="4.16345">
        <ele>230</ele>
        <time>2020-08-15T08:10:48Z</time>
      </trkpt>
      <trkpt lat="50.21769" lon="4.16331">
        <ele>230</ele>
        <time>2020-08-15T08:10:50Z</time>
      </trkpt>
      <trkpt lat="50.21767" lon="4.16319">
        <ele>230</ele>
        <time>2020-08-15T08:10:52Z</time>
      </trkpt>
      <trkpt lat="50.21765" lon="4.16306">
        <ele>230</ele>
        <time>2020-08-15T08:10:54Z</time>
      </trkpt>
      <trkpt lat="50.21764" lon="4.16294">
        <ele>230</ele>
        <time>2020-08-15T08:10:56Z</time>
      </trkpt>
      <trkpt lat="50.21759" lon="4.16281">
        <ele>232</ele>
        <time>2020-08-15T08:10:58Z</time>
      </trkpt>
      <trkpt lat="50.21755" lon="4.16268">
        <ele>232</ele>
        <time>2020-08-15T08:11:00Z</time>
      </trkpt>
      <trkpt lat="50.21752" lon="4.16254">
        <ele>232</ele>
        <time>2020-08-15T08:11:02Z</time>
      </trkpt>
      <trkpt lat="50.21749" lon="4.16239">
        <ele>232</ele>
        <time>2020-08-15T08:11:04Z</time>
      </trkpt>
      <trkpt lat="50.21747" lon="4.16226">
        <ele>232</ele>
        <time>2020-08-15T08:11:06Z</time>
      </trkpt>
      <trkpt lat="50.21745" lon="4.16212">
        <ele>232</ele>
        <time>2020-08-15T08:11:08Z</time>
      </trkpt>
      <trkpt lat="50.21744" lon="4.16197">
        <ele>232</ele>
        <time>2020-08-15T08:11:10Z</time>
      </trkpt>
      <trkpt lat="50.21742" lon="4.16183">
        <ele>232</ele>
        <time>2020-08-15T08:11:12Z</time>
      </trkpt>
      <trkpt lat="50.21738" lon="4.1617">
        <ele>231</ele>
        <time>2020-08-15T08:11:14Z</time>
      </trkpt>
      <trkpt lat="50.21735" lon="4.16156">
        <ele>232</ele>
        <time>2020-08-15T08:11:16Z</time>
      </trkpt>
      <trkpt lat="50.21732" lon="4.16142">
        <ele>231</ele>
        <time>2020-08-15T08:11:18Z</time>
      </trkpt>
      <trkpt lat="50.21732" lon="4.16128">
        <ele>231</ele>
        <time>2020-08-15T08:11:20Z</time>
      </trkpt>
      <trkpt lat="50.21729" lon="4.16113">
        <ele>230</ele>
        <time>2020-08-15T08:11:22Z</time>
      </trkpt>
      <trkpt lat="50.21727" lon="4.16097">
        <ele>230</ele>
        <time>2020-08-15T08:11:24Z</time>
      </trkpt>
      <trkpt lat="50.21724" lon="4.16081">
        <ele>230</ele>
        <time>2020-08-15T08:11:26Z</time>
      </trkpt>
      <trkpt lat="50.21722" lon="4.16065">
        <ele>229</ele>
        <time>2020-08-15T08:11:28Z</time>
      </trkpt>
      <trkpt lat="50.21718" lon="4.1605">
        <ele>229</ele>
        <time>2020-08-15T08:11:30Z</time>
      </trkpt>
      <trkpt lat="50.21714" lon="4.16033">
        <ele>229</ele>
        <time>2020-08-15T08:11:32Z</time>
      </trkpt>
      <trkpt lat="50.21711" lon="4.16016">
        <ele>229</ele>
        <time>2020-08-15T08:11:34Z</time>
      </trkpt>
      <trkpt lat="50.21707" lon="4.15999">
        <ele>228</ele>
        <time>2020-08-15T08:11:36Z</time>
      </trkpt>
      <trkpt lat="50.21704" lon="4.1598">
        <ele>227</ele>
        <time>2020-08-15T08:11:38Z</time>
      </trkpt>
      <trkpt lat="50.21701" lon="4.15961">
        <ele>227</ele>
        <time>2020-08-15T08:11:40Z</time>
      </trkpt>
      <trkpt lat="50.21698" lon="4.15944">
        <ele>226</ele>
        <time>2020-08-15T08:11:42Z</time>
      </trkpt>
      <trkpt lat="50.21697" lon="4.15928">
        <ele>225</ele>
        <time>2020-08-15T08:11:44Z</time>
      </trkpt>
      <trkpt lat="50.21694" lon="4.15912">
        <ele>225</ele>
        <time>2020-08-15T08:11:46Z</time>
      </trkpt>
      <trkpt lat="50.21692" lon="4.15896">
        <ele>225</ele>
        <time>2020-08-15T08:11:48Z</time>
      </trkpt>
      <trkpt lat="50.21689" lon="4.15881">
        <ele>225</ele>
        <time>2020-08-15T08:11:50Z</time>
      </trkpt>
      <trkpt lat="50.21686" lon="4.15867">
        <ele>224</ele>
        <time>2020-08-15T08:11:52Z</time>
      </trkpt>
      <trkpt lat="50.21685" lon="4.15854">
        <ele>224</ele>
        <time>2020-08-15T08:11:54Z</time>
      </trkpt>
      <trkpt lat="50.21688" lon="4.15843">
        <ele>225</ele>
        <time>2020-08-15T08:11:56Z</time>
      </trkpt>
      <trkpt lat="50.21693" lon="4.15836">
        <ele>225</ele>
        <time>2020-08-15T08:11:58Z</time>
      </trkpt>
      <trkpt lat="50.217" lon="4.15835">
        <ele>225</ele>
        <time>2020-08-15T08:12:00Z</time>
      </trkpt>
      <trkpt lat="50.21706" lon="4.15832">
        <ele>225</ele>
        <time>2020-08-15T08:12:02Z</time>
      </trkpt>
      <trkpt lat="50.21712" lon="4.15828">
        <ele>223</ele>
        <time>2020-08-15T08:12:04Z</time>
      </trkpt>
      <trkpt lat="50.21719" lon="4.15826">
        <ele>223</ele>
        <time>2020-08-15T08:12:06Z</time>
      </trkpt>
      <trkpt lat="50.21726" lon="4.15823">
        <ele>223</ele>
        <time>2020-08-15T08:12:08Z</time>
      </trkpt>
      <trkpt lat="50.2173" lon="4.1582">
        <ele>223</ele>
        <time>2020-08-15T08:12:10Z</time>
      </trkpt>
      <trkpt lat="50.21738" lon="4.15817">
        <ele>220</ele>
        <time>2020-08-15T08:12:12Z</time>
      </trkpt>
      <trkpt lat="50.21745" lon="4.15813">
        <ele>220</ele>
        <time>2020-08-15T08:12:14Z</time>
      </trkpt>
      <trkpt lat="50.21751" lon="4.15811">
        <ele>220</ele>
        <time>2020-08-15T08:12:16Z</time>
      </trkpt>
      <trkpt lat="50.2176" lon="4.1581">
        <ele>220</ele>
        <time>2020-08-15T08:12:18Z</time>
      </trkpt>
      <trkpt lat="50.21768" lon="4.15806">
        <ele>219</ele>
        <time>2020-08-15T08:12:20Z</time>
      </trkpt>
      <trkpt lat="50.21776" lon="4.15802">
        <ele>219</ele>
        <time>2020-08-15T08:12:22Z</time>
      </trkpt>
      <trkpt lat="50.21783" lon="4.15799">
        <ele>219</ele>
        <time>2020-08-15T08:12:24Z</time>
      </trkpt>
      <trkpt lat="50.21793" lon="4.15794">
        <ele>217</ele>
        <time>2020-08-15T08:12:26Z</time>
      </trkpt>
      <trkpt lat="50.21799" lon="4.15791">
        <ele>216</ele>
        <time>2020-08-15T08:12:28Z</time>
      </trkpt>
      <trkpt lat="50.21807" lon="4.15786">
        <ele>216</ele>
        <time>2020-08-15T08:12:30Z</time>
      </trkpt>
      <trkpt lat="50.21816" lon="4.15784">
        <ele>216</ele>
        <time>2020-08-15T08:12:32Z</time>
      </trkpt>
      <trkpt lat="50.21824" lon="4.15781">
        <ele>216</ele>
        <time>2020-08-15T08:12:34Z</time>
      </trkpt>
      <trkpt lat="50.21834" lon="4.15777">
        <ele>216</ele>
        <time>2020-08-15T08:12:36Z</time>
      </trkpt>
      <trkpt lat="50.21844" lon="4.15774">
        <ele>216</ele>
        <time>2020-08-15T08:12:38Z</time>
      </trkpt>
      <trkpt lat="50.21853" lon="4.1577">
        <ele>213</ele>
        <time>2020-08-15T08:12:40Z</time>
      </trkpt>
      <trkpt lat="50.21863" lon="4.15766">
        <ele>213</ele>
        <time>2020-08-15T08:12:42Z</time>
      </trkpt>
      <trkpt lat="50.21871" lon="4.15761">
        <ele>211</ele>
        <time>2020-08-15T08:12:44Z</time>
      </trkpt>
      <trkpt lat="50.21878" lon="4.15752">
        <ele>209</ele>
        <time>2020-08-15T08:12:46Z</time>
      </trkpt>
      <trkpt lat="50.21881" lon="4.15743">
        <ele>209</ele>
        <time>2020-08-15T08:12:48Z</time>
      </trkpt>
      <trkpt lat="50.21882" lon="4.1573">
        <ele>205</ele>
        <time>2020-08-15T08:12:50Z</time>
      </trkpt>
      <trkpt lat="50.21884" lon="4.15718">
        <ele>205</ele>
        <time>2020-08-15T08:12:52Z</time>
      </trkpt>
      <trkpt lat="50.21886" lon="4.15706">
        <ele>205</ele>
        <time>2020-08-15T08:12:54Z</time>
      </trkpt>
      <trkpt lat="50.21891" lon="4.15692">
        <ele>205</ele>
        <time>2020-08-15T08:12:56Z</time>
      </trkpt>
      <trkpt lat="50.21892" lon="4.15676">
        <ele>201</ele>
        <time>2020-08-15T08:12:58Z</time>
      </trkpt>
      <trkpt lat="50.21894" lon="4.15654">
        <ele>201</ele>
        <time>2020-08-15T08:13:00Z</time>
      </trkpt>
      <trkpt lat="50.21895" lon="4.15632">
        <ele>200</ele>
        <time>2020-08-15T08:13:02Z</time>
      </trkpt>
      <trkpt lat="50.21896" lon="4.15611">
        <ele>197</ele>
        <time>2020-08-15T08:13:04Z</time>
      </trkpt>
      <trkpt lat="50.21895" lon="4.15588">
        <ele>196</ele>
        <time>2020-08-15T08:13:06Z</time>
      </trkpt>
      <trkpt lat="50.21895" lon="4.15566">
        <ele>192</ele>
        <time>2020-08-15T08:13:08Z</time>
      </trkpt>
      <trkpt lat="50.21895" lon="4.15546">
        <ele>192</ele>
        <time>2020-08-15T08:13:10Z</time>
      </trkpt>
      <trkpt lat="50.21893" lon="4.15529">
        <ele>192</ele>
        <time>2020-08-15T08:13:12Z</time>
      </trkpt>
      <trkpt lat="50.2189" lon="4.15511">
        <ele>190</ele>
        <time>2020-08-15T08:13:14Z</time>
      </trkpt>
      <trkpt lat="50.21885" lon="4.15493">
        <ele>190</ele>
        <time>2020-08-15T08:13:16Z</time>
      </trkpt>
      <trkpt lat="50.21877" lon="4.15475">
        <ele>189</ele>
        <time>2020-08-15T08:13:18Z</time>
      </trkpt>
      <trkpt lat="50.21871" lon="4.15453">
        <ele>192</ele>
        <time>2020-08-15T08:13:20Z</time>
      </trkpt>
      <trkpt lat="50.21869" lon="4.15433">
        <ele>192</ele>
        <time>2020-08-15T08:13:22Z</time>
      </trkpt>
      <trkpt lat="50.21864" lon="4.15416">
        <ele>193</ele>
        <time>2020-08-15T08:13:24Z</time>
      </trkpt>
      <trkpt lat="50.21862" lon="4.154">
        <ele>188</ele>
        <time>2020-08-15T08:13:26Z</time>
      </trkpt>
      <trkpt lat="50.21864" lon="4.15382">
        <ele>188</ele>
        <time>2020-08-15T08:13:28Z</time>
      </trkpt>
      <trkpt lat="50.21867" lon="4.15362">
        <ele>191</ele>
        <time>2020-08-15T08:13:30Z</time>
      </trkpt>
      <trkpt lat="50.21872" lon="4.15345">
        <ele>186</ele>
        <time>2020-08-15T08:13:32Z</time>
      </trkpt>
      <trkpt lat="50.21871" lon="4.15328">
        <ele>186</ele>
        <time>2020-08-15T08:13:34Z</time>
      </trkpt>
      <trkpt lat="50.21871" lon="4.15307">
        <ele>190</ele>
        <time>2020-08-15T08:13:36Z</time>
      </trkpt>
      <trkpt lat="50.21872" lon="4.15287">
        <ele>186</ele>
        <time>2020-08-15T08:13:38Z</time>
      </trkpt>
      <trkpt lat="50.21873" lon="4.15269">
        <ele>186</ele>
        <time>2020-08-15T08:13:40Z</time>
      </trkpt>
      <trkpt lat="50.21872" lon="4.15248">
        <ele>189</ele>
        <time>2020-08-15T08:13:42Z</time>
      </trkpt>
      <trkpt lat="50.21871" lon="4.1523">
        <ele>187</ele>
        <time>2020-08-15T08:13:44Z</time>
      </trkpt>
      <trkpt lat="50.21872" lon="4.15216">
        <ele>187</ele>
        <time>2020-08-15T08:13:46Z</time>
      </trkpt>
      <trkpt lat="50.2187" lon="4.15198">
        <ele>187</ele>
        <time>2020-08-15T08:13:48Z</time>
      </trkpt>
      <trkpt lat="50.21867" lon="4.15183">
        <ele>187</ele>
        <time>2020-08-15T08:13:50Z</time>
      </trkpt>
      <trkpt lat="50.21863" lon="4.15167">
        <ele>184</ele>
        <time>2020-08-15T08:13:52Z</time>
      </trkpt>
      <trkpt lat="50.21858" lon="4.15154">
        <ele>184</ele>
        <time>2020-08-15T08:13:54Z</time>
      </trkpt>
      <trkpt lat="50.21851" lon="4.1514">
        <ele>184</ele>
        <time>2020-08-15T08:13:56Z</time>
      </trkpt>
      <trkpt lat="50.21845" lon="4.15127">
        <ele>186</ele>
        <time>2020-08-15T08:13:58Z</time>
      </trkpt>
      <trkpt lat="50.21843" lon="4.15113">
        <ele>183</ele>
        <time>2020-08-15T08:14:00Z</time>
      </trkpt>
      <trkpt lat="50.21842" lon="4.15102">
        <ele>183</ele>
        <time>2020-08-15T08:14:02Z</time>
      </trkpt>
      <trkpt lat="50.21841" lon="4.15097">
        <ele>178</ele>
        <time>2020-08-15T08:14:04Z</time>
      </trkpt>
      <trkpt lat="50.21841" lon="4.15091">
        <ele>178</ele>
        <time>2020-08-15T08:14:06Z</time>
      </trkpt>
      <trkpt lat="50.21843" lon="4.15083">
        <ele>178</ele>
        <time>2020-08-15T08:14:34Z</time>
      </trkpt>
      <trkpt lat="50.21847" lon="4.15073">
        <ele>178</ele>
        <time>2020-08-15T08:14:36Z</time>
      </trkpt>
      <trkpt lat="50.21852" lon="4.15074">
        <ele>179</ele>
        <time>2020-08-15T08:14:49Z</time>
      </trkpt>
      <trkpt lat="50.21858" lon="4.15071">
        <ele>179</ele>
        <time>2020-08-15T08:14:51Z</time>
      </trkpt>
      <trkpt lat="50.21861" lon="4.15069">
        <ele>173</ele>
        <time>2020-08-15T08:14:53Z</time>
      </trkpt>
      <trkpt lat="50.21866" lon="4.15063">
        <ele>173</ele>
        <time>2020-08-15T08:15:08Z</time>
      </trkpt>
      <trkpt lat="50.21874" lon="4.15057">
        <ele>173</ele>
        <time>2020-08-15T08:15:10Z</time>
      </trkpt>
      <trkpt lat="50.21881" lon="4.15051">
        <ele>177</ele>
        <time>2020-08-15T08:15:12Z</time>
      </trkpt>
      <trkpt lat="50.21886" lon="4.15044">
        <ele>177</ele>
        <time>2020-08-15T08:15:14Z</time>
      </trkpt>
      <trkpt lat="50.21892" lon="4.15038">
        <ele>177</ele>
        <time>2020-08-15T08:15:16Z</time>
      </trkpt>
      <trkpt lat="50.21898" lon="4.15031">
        <ele>177</ele>
        <time>2020-08-15T08:15:18Z</time>
      </trkpt>
      <trkpt lat="50.21904" lon="4.15024">
        <ele>182</ele>
        <time>2020-08-15T08:15:20Z</time>
      </trkpt>
      <trkpt lat="50.21908" lon="4.15016">
        <ele>182</ele>
        <time>2020-08-15T08:15:22Z</time>
      </trkpt>
      <trkpt lat="50.21913" lon="4.15008">
        <ele>180</ele>
        <time>2020-08-15T08:15:24Z</time>
      </trkpt>
      <trkpt lat="50.21918" lon="4.15">
        <ele>180</ele>
        <time>2020-08-15T08:15:26Z</time>
      </trkpt>
      <trkpt lat="50.21922" lon="4.14988">
        <ele>180</ele>
        <time>2020-08-15T08:15:28Z</time>
      </trkpt>
      <trkpt lat="50.21926" lon="4.14976">
        <ele>179</ele>
        <time>2020-08-15T08:15:30Z</time>
      </trkpt>
      <trkpt lat="50.2193" lon="4.14964">
        <ele>179</ele>
        <time>2020-08-15T08:15:32Z</time>
      </trkpt>
      <trkpt lat="50.21932" lon="4.14951">
        <ele>184</ele>
        <time>2020-08-15T08:15:34Z</time>
      </trkpt>
      <trkpt lat="50.21935" lon="4.14937">
        <ele>184</ele>
        <time>2020-08-15T08:15:36Z</time>
      </trkpt>
      <trkpt lat="50.21938" lon="4.14922">
        <ele>181</ele>
        <time>2020-08-15T08:15:38Z</time>
      </trkpt>
      <trkpt lat="50.2194" lon="4.14906">
        <ele>181</ele>
        <time>2020-08-15T08:15:40Z</time>
      </trkpt>
      <trkpt lat="50.21943" lon="4.14891">
        <ele>180</ele>
        <time>2020-08-15T08:15:42Z</time>
      </trkpt>
      <trkpt lat="50.21945" lon="4.14876">
        <ele>180</ele>
        <time>2020-08-15T08:15:44Z</time>
      </trkpt>
      <trkpt lat="50.21947" lon="4.1486">
        <ele>178</ele>
        <time>2020-08-15T08:15:46Z</time>
      </trkpt>
      <trkpt lat="50.21949" lon="4.14843">
        <ele>174</ele>
        <time>2020-08-15T08:15:48Z</time>
      </trkpt>
      <trkpt lat="50.21952" lon="4.14827">
        <ele>174</ele>
        <time>2020-08-15T08:15:50Z</time>
      </trkpt>
      <trkpt lat="50.21956" lon="4.14812">
        <ele>175</ele>
        <time>2020-08-15T08:15:52Z</time>
      </trkpt>
      <trkpt lat="50.2196" lon="4.14797">
        <ele>181</ele>
        <time>2020-08-15T08:15:54Z</time>
      </trkpt>
      <trkpt lat="50.21965" lon="4.14783">
        <ele>178</ele>
        <time>2020-08-15T08:15:56Z</time>
      </trkpt>
      <trkpt lat="50.21969" lon="4.14768">
        <ele>178</ele>
        <time>2020-08-15T08:15:58Z</time>
      </trkpt>
      <trkpt lat="50.21975" lon="4.14755">
        <ele>177</ele>
        <time>2020-08-15T08:16:00Z</time>
      </trkpt>
      <trkpt lat="50.21983" lon="4.14743">
        <ele>177</ele>
        <time>2020-08-15T08:16:02Z</time>
      </trkpt>
      <trkpt lat="50.21989" lon="4.1473">
        <ele>179</ele>
        <time>2020-08-15T08:16:04Z</time>
      </trkpt>
      <trkpt lat="50.21998" lon="4.14718">
        <ele>179</ele>
        <time>2020-08-15T08:16:06Z</time>
      </trkpt>
      <trkpt lat="50.22007" lon="4.14706">
        <ele>175</ele>
        <time>2020-08-15T08:16:08Z</time>
      </trkpt>
      <trkpt lat="50.22016" lon="4.14693">
        <ele>175</ele>
        <time>2020-08-15T08:16:10Z</time>
      </trkpt>
      <trkpt lat="50.22026" lon="4.14684">
        <ele>175</ele>
        <time>2020-08-15T08:16:12Z</time>
      </trkpt>
      <trkpt lat="50.22035" lon="4.14675">
        <ele>172</ele>
        <time>2020-08-15T08:16:14Z</time>
      </trkpt>
      <trkpt lat="50.22044" lon="4.1467">
        <ele>171</ele>
        <time>2020-08-15T08:16:16Z</time>
      </trkpt>
      <trkpt lat="50.22054" lon="4.14668">
        <ele>171</ele>
        <time>2020-08-15T08:16:18Z</time>
      </trkpt>
      <trkpt lat="50.22064" lon="4.14668">
        <ele>171</ele>
        <time>2020-08-15T08:16:20Z</time>
      </trkpt>
      <trkpt lat="50.22073" lon="4.14668">
        <ele>171</ele>
        <time>2020-08-15T08:16:22Z</time>
      </trkpt>
      <trkpt lat="50.22083" lon="4.14671">
        <ele>171</ele>
        <time>2020-08-15T08:16:24Z</time>
      </trkpt>
      <trkpt lat="50.22092" lon="4.14677">
        <ele>171</ele>
        <time>2020-08-15T08:16:26Z</time>
      </trkpt>
      <trkpt lat="50.221" lon="4.14683">
        <ele>173</ele>
        <time>2020-08-15T08:16:28Z</time>
      </trkpt>
      <trkpt lat="50.22109" lon="4.14693">
        <ele>173</ele>
        <time>2020-08-15T08:16:30Z</time>
      </trkpt>
      <trkpt lat="50.22117" lon="4.14702">
        <ele>173</ele>
        <time>2020-08-15T08:16:32Z</time>
      </trkpt>
      <trkpt lat="50.22125" lon="4.14712">
        <ele>174</ele>
        <time>2020-08-15T08:16:34Z</time>
      </trkpt>
      <trkpt lat="50.22132" lon="4.14722">
        <ele>174</ele>
        <time>2020-08-15T08:16:36Z</time>
      </trkpt>
      <trkpt lat="50.2214" lon="4.14734">
        <ele>174</ele>
        <time>2020-08-15T08:16:38Z</time>
      </trkpt>
      <trkpt lat="50.22146" lon="4.14745">
        <ele>176</ele>
        <time>2020-08-15T08:16:40Z</time>
      </trkpt>
      <trkpt lat="50.22154" lon="4.14759">
        <ele>172</ele>
        <time>2020-08-15T08:16:42Z</time>
      </trkpt>
      <trkpt lat="50.22162" lon="4.14771">
        <ele>172</ele>
        <time>2020-08-15T08:16:44Z</time>
      </trkpt>
      <trkpt lat="50.2217" lon="4.14782">
        <ele>172</ele>
        <time>2020-08-15T08:16:46Z</time>
      </trkpt>
      <trkpt lat="50.22178" lon="4.14791">
        <ele>172</ele>
        <time>2020-08-15T08:16:48Z</time>
      </trkpt>
      <trkpt lat="50.22186" lon="4.14798">
        <ele>172</ele>
        <time>2020-08-15T08:16:50Z</time>
      </trkpt>
      <trkpt lat="50.22196" lon="4.14806">
        <ele>172</ele>
        <time>2020-08-15T08:16:52Z</time>
      </trkpt>
      <trkpt lat="50.22204" lon="4.14812">
        <ele>172</ele>
        <time>2020-08-15T08:16:54Z</time>
      </trkpt>
      <trkpt lat="50.22212" lon="4.14818">
        <ele>170</ele>
        <time>2020-08-15T08:16:56Z</time>
      </trkpt>
      <trkpt lat="50.22218" lon="4.14825">
        <ele>172</ele>
        <time>2020-08-15T08:16:58Z</time>
      </trkpt>
      <trkpt lat="50.2222" lon="4.14834">
        <ele>172</ele>
        <time>2020-08-15T08:17:00Z</time>
      </trkpt>
      <trkpt lat="50.22221" lon="4.14843">
        <ele>172</ele>
        <time>2020-08-15T08:17:02Z</time>
      </trkpt>
      <trkpt lat="50.22221" lon="4.14851">
        <ele>174</ele>
        <time>2020-08-15T08:17:04Z</time>
      </trkpt>
      <trkpt lat="50.2222" lon="4.14858">
        <ele>174</ele>
        <time>2020-08-15T08:17:06Z</time>
      </trkpt>
      <trkpt lat="50.22222" lon="4.14858">
        <ele>174</ele>
        <time>2020-08-15T08:17:12Z</time>
      </trkpt>
      <trkpt lat="50.22223" lon="4.14855">
        <ele>174</ele>
        <time>2020-08-15T08:17:16Z</time>
      </trkpt>
      <trkpt lat="50.22224" lon="4.14849">
        <ele>174</ele>
        <time>2020-08-15T08:17:18Z</time>
      </trkpt>
      <trkpt lat="50.22225" lon="4.14844">
        <ele>172</ele>
        <time>2020-08-15T08:17:20Z</time>
      </trkpt>
      <trkpt lat="50.22229" lon="4.14839">
        <ele>172</ele>
        <time>2020-08-15T08:17:22Z</time>
      </trkpt>
      <trkpt lat="50.22234" lon="4.14837">
        <ele>172</ele>
        <time>2020-08-15T08:17:24Z</time>
      </trkpt>
      <trkpt lat="50.2224" lon="4.14838">
        <ele>172</ele>
        <time>2020-08-15T08:17:26Z</time>
      </trkpt>
      <trkpt lat="50.22246" lon="4.14839">
        <ele>172</ele>
        <time>2020-08-15T08:17:28Z</time>
      </trkpt>
      <trkpt lat="50.22252" lon="4.14839">
        <ele>172</ele>
        <time>2020-08-15T08:17:30Z</time>
      </trkpt>
      <trkpt lat="50.22255" lon="4.14839">
        <ele>172</ele>
        <time>2020-08-15T08:17:32Z</time>
      </trkpt>
      <trkpt lat="50.22258" lon="4.14839">
        <ele>172</ele>
        <time>2020-08-15T08:17:34Z</time>
      </trkpt>
      <trkpt lat="50.22263" lon="4.14841">
        <ele>172</ele>
        <time>2020-08-15T08:17:36Z</time>
      </trkpt>
      <trkpt lat="50.22268" lon="4.14846">
        <ele>171</ele>
        <time>2020-08-15T08:17:38Z</time>
      </trkpt>
      <trkpt lat="50.22273" lon="4.14852">
        <ele>172</ele>
        <time>2020-08-15T08:17:40Z</time>
      </trkpt>
      <trkpt lat="50.22278" lon="4.1486">
        <ele>172</ele>
        <time>2020-08-15T08:17:42Z</time>
      </trkpt>
      <trkpt lat="50.22282" lon="4.14869">
        <ele>172</ele>
        <time>2020-08-15T08:17:44Z</time>
      </trkpt>
      <trkpt lat="50.22286" lon="4.14877">
        <ele>174</ele>
        <time>2020-08-15T08:17:46Z</time>
      </trkpt>
      <trkpt lat="50.22289" lon="4.14886">
        <ele>174</ele>
        <time>2020-08-15T08:17:48Z</time>
      </trkpt>
      <trkpt lat="50.22292" lon="4.14895">
        <ele>173</ele>
        <time>2020-08-15T08:17:50Z</time>
      </trkpt>
      <trkpt lat="50.22295" lon="4.14904">
        <ele>177</ele>
        <time>2020-08-15T08:17:52Z</time>
      </trkpt>
      <trkpt lat="50.22298" lon="4.14913">
        <ele>177</ele>
        <time>2020-08-15T08:17:54Z</time>
      </trkpt>
      <trkpt lat="50.223" lon="4.14922">
        <ele>177</ele>
        <time>2020-08-15T08:17:56Z</time>
      </trkpt>
      <trkpt lat="50.22301" lon="4.1493">
        <ele>177</ele>
        <time>2020-08-15T08:17:58Z</time>
      </trkpt>
      <trkpt lat="50.22302" lon="4.14939">
        <ele>178</ele>
        <time>2020-08-15T08:18:00Z</time>
      </trkpt>
      <trkpt lat="50.22302" lon="4.14948">
        <ele>178</ele>
        <time>2020-08-15T08:18:02Z</time>
      </trkpt>
      <trkpt lat="50.22303" lon="4.14955">
        <ele>178</ele>
        <time>2020-08-15T08:18:04Z</time>
      </trkpt>
      <trkpt lat="50.22304" lon="4.14962">
        <ele>183</ele>
        <time>2020-08-15T08:18:06Z</time>
      </trkpt>
      <trkpt lat="50.22303" lon="4.14969">
        <ele>183</ele>
        <time>2020-08-15T08:18:08Z</time>
      </trkpt>
      <trkpt lat="50.22304" lon="4.14977">
        <ele>183</ele>
        <time>2020-08-15T08:18:10Z</time>
      </trkpt>
      <trkpt lat="50.22304" lon="4.14986">
        <ele>184</ele>
        <time>2020-08-15T08:18:12Z</time>
      </trkpt>
      <trkpt lat="50.22306" lon="4.14992">
        <ele>184</ele>
        <time>2020-08-15T08:18:14Z</time>
      </trkpt>
      <trkpt lat="50.22306" lon="4.15002">
        <ele>184</ele>
        <time>2020-08-15T08:18:16Z</time>
      </trkpt>
      <trkpt lat="50.22307" lon="4.1501">
        <ele>184</ele>
        <time>2020-08-15T08:18:18Z</time>
      </trkpt>
      <trkpt lat="50.22307" lon="4.15019">
        <ele>187</ele>
        <time>2020-08-15T08:18:20Z</time>
      </trkpt>
      <trkpt lat="50.22306" lon="4.15028">
        <ele>187</ele>
        <time>2020-08-15T08:18:22Z</time>
      </trkpt>
      <trkpt lat="50.22305" lon="4.15036">
        <ele>187</ele>
        <time>2020-08-15T08:18:24Z</time>
      </trkpt>
      <trkpt lat="50.22304" lon="4.15046">
        <ele>188</ele>
        <time>2020-08-15T08:18:26Z</time>
      </trkpt>
      <trkpt lat="50.22302" lon="4.15056">
        <ele>188</ele>
        <time>2020-08-15T08:18:28Z</time>
      </trkpt>
      <trkpt lat="50.223" lon="4.15065">
        <ele>188</ele>
        <time>2020-08-15T08:18:30Z</time>
      </trkpt>
      <trkpt lat="50.22298" lon="4.15073">
        <ele>190</ele>
        <time>2020-08-15T08:18:32Z</time>
      </trkpt>
      <trkpt lat="50.22296" lon="4.15082">
        <ele>190</ele>
        <time>2020-08-15T08:18:34Z</time>
      </trkpt>
      <trkpt lat="50.22293" lon="4.15091">
        <ele>190</ele>
        <time>2020-08-15T08:18:36Z</time>
      </trkpt>
      <trkpt lat="50.22291" lon="4.15099">
        <ele>191</ele>
        <time>2020-08-15T08:18:38Z</time>
      </trkpt>
      <trkpt lat="50.2229" lon="4.15107">
        <ele>191</ele>
        <time>2020-08-15T08:18:40Z</time>
      </trkpt>
      <trkpt lat="50.22289" lon="4.15114">
        <ele>191</ele>
        <time>2020-08-15T08:18:42Z</time>
      </trkpt>
      <trkpt lat="50.22287" lon="4.15124">
        <ele>191</ele>
        <time>2020-08-15T08:18:44Z</time>
      </trkpt>
      <trkpt lat="50.22286" lon="4.15132">
        <ele>192</ele>
        <time>2020-08-15T08:18:46Z</time>
      </trkpt>
      <trkpt lat="50.22285" lon="4.1514">
        <ele>192</ele>
        <time>2020-08-15T08:18:48Z</time>
      </trkpt>
      <trkpt lat="50.22284" lon="4.15147">
        <ele>192</ele>
        <time>2020-08-15T08:18:50Z</time>
      </trkpt>
      <trkpt lat="50.22284" lon="4.15154">
        <ele>194</ele>
        <time>2020-08-15T08:18:52Z</time>
      </trkpt>
      <trkpt lat="50.22284" lon="4.15163">
        <ele>194</ele>
        <time>2020-08-15T08:18:54Z</time>
      </trkpt>
      <trkpt lat="50.22285" lon="4.15172">
        <ele>194</ele>
        <time>2020-08-15T08:18:56Z</time>
      </trkpt>
      <trkpt lat="50.22285" lon="4.1518">
        <ele>194</ele>
        <time>2020-08-15T08:18:58Z</time>
      </trkpt>
      <trkpt lat="50.22285" lon="4.1519">
        <ele>195</ele>
        <time>2020-08-15T08:19:00Z</time>
      </trkpt>
      <trkpt lat="50.22284" lon="4.15197">
        <ele>195</ele>
        <time>2020-08-15T08:19:02Z</time>
      </trkpt>
      <trkpt lat="50.22285" lon="4.15205">
        <ele>195</ele>
        <time>2020-08-15T08:19:04Z</time>
      </trkpt>
      <trkpt lat="50.22286" lon="4.15211">
        <ele>196</ele>
        <time>2020-08-15T08:19:06Z</time>
      </trkpt>
      <trkpt lat="50.22289" lon="4.15219">
        <ele>196</ele>
        <time>2020-08-15T08:19:08Z</time>
      </trkpt>
      <trkpt lat="50.22292" lon="4.15229">
        <ele>195</ele>
        <time>2020-08-15T08:19:10Z</time>
      </trkpt>
      <trkpt lat="50.22294" lon="4.15238">
        <ele>197</ele>
        <time>2020-08-15T08:19:12Z</time>
      </trkpt>
      <trkpt lat="50.22295" lon="4.15249">
        <ele>197</ele>
        <time>2020-08-15T08:19:14Z</time>
      </trkpt>
      <trkpt lat="50.22295" lon="4.15259">
        <ele>197</ele>
        <time>2020-08-15T08:19:16Z</time>
      </trkpt>
      <trkpt lat="50.22295" lon="4.15269">
        <ele>196</ele>
        <time>2020-08-15T08:19:18Z</time>
      </trkpt>
      <trkpt lat="50.22295" lon="4.15278">
        <ele>196</ele>
        <time>2020-08-15T08:19:20Z</time>
      </trkpt>
      <trkpt lat="50.22297" lon="4.15289">
        <ele>196</ele>
        <time>2020-08-15T08:19:22Z</time>
      </trkpt>
      <trkpt lat="50.22296" lon="4.15299">
        <ele>197</ele>
        <time>2020-08-15T08:19:24Z</time>
      </trkpt>
      <trkpt lat="50.22295" lon="4.1531">
        <ele>197</ele>
        <time>2020-08-15T08:19:26Z</time>
      </trkpt>
      <trkpt lat="50.22296" lon="4.1532">
        <ele>197</ele>
        <time>2020-08-15T08:19:28Z</time>
      </trkpt>
      <trkpt lat="50.22297" lon="4.15331">
        <ele>197</ele>
        <time>2020-08-15T08:19:30Z</time>
      </trkpt>
      <trkpt lat="50.22297" lon="4.15341">
        <ele>197</ele>
        <time>2020-08-15T08:19:32Z</time>
      </trkpt>
      <trkpt lat="50.22297" lon="4.15351">
        <ele>200</ele>
        <time>2020-08-15T08:19:34Z</time>
      </trkpt>
      <trkpt lat="50.22298" lon="4.15362">
        <ele>200</ele>
        <time>2020-08-15T08:19:36Z</time>
      </trkpt>
      <trkpt lat="50.22298" lon="4.15374">
        <ele>200</ele>
        <time>2020-08-15T08:19:38Z</time>
      </trkpt>
      <trkpt lat="50.223" lon="4.15383">
        <ele>200</ele>
        <time>2020-08-15T08:19:40Z</time>
      </trkpt>
      <trkpt lat="50.22302" lon="4.1539">
        <ele>200</ele>
        <time>2020-08-15T08:19:42Z</time>
      </trkpt>
      <trkpt lat="50.22307" lon="4.15394">
        <ele>200</ele>
        <time>2020-08-15T08:19:44Z</time>
      </trkpt>
      <trkpt lat="50.22312" lon="4.15398">
        <ele>200</ele>
        <time>2020-08-15T08:19:46Z</time>
      </trkpt>
      <trkpt lat="50.22318" lon="4.15401">
        <ele>200</ele>
        <time>2020-08-15T08:19:48Z</time>
      </trkpt>
      <trkpt lat="50.22324" lon="4.15404">
        <ele>202</ele>
        <time>2020-08-15T08:19:50Z</time>
      </trkpt>
      <trkpt lat="50.22331" lon="4.15407">
        <ele>202</ele>
        <time>2020-08-15T08:19:52Z</time>
      </trkpt>
      <trkpt lat="50.22337" lon="4.15411">
        <ele>202</ele>
        <time>2020-08-15T08:19:54Z</time>
      </trkpt>
      <trkpt lat="50.22344" lon="4.15416">
        <ele>202</ele>
        <time>2020-08-15T08:19:56Z</time>
      </trkpt>
      <trkpt lat="50.2235" lon="4.15419">
        <ele>201</ele>
        <time>2020-08-15T08:19:58Z</time>
      </trkpt>
      <trkpt lat="50.22356" lon="4.15424">
        <ele>201</ele>
        <time>2020-08-15T08:20:00Z</time>
      </trkpt>
      <trkpt lat="50.22361" lon="4.15428">
        <ele>201</ele>
        <time>2020-08-15T08:20:02Z</time>
      </trkpt>
      <trkpt lat="50.22365" lon="4.15432">
        <ele>203</ele>
        <time>2020-08-15T08:20:04Z</time>
      </trkpt>
      <trkpt lat="50.22368" lon="4.15433">
        <ele>203</ele>
        <time>2020-08-15T08:20:06Z</time>
      </trkpt>
      <trkpt lat="50.22371" lon="4.15437">
        <ele>203</ele>
        <time>2020-08-15T08:20:18Z</time>
      </trkpt>
      <trkpt lat="50.22375" lon="4.15432">
        <ele>203</ele>
        <time>2020-08-15T08:21:18Z</time>
      </trkpt>
      <trkpt lat="50.22381" lon="4.1542">
        <ele>201</ele>
        <time>2020-08-15T08:21:20Z</time>
      </trkpt>
      <trkpt lat="50.22385" lon="4.15414">
        <ele>201</ele>
        <time>2020-08-15T08:21:22Z</time>
      </trkpt>
      <trkpt lat="50.22389" lon="4.15413">
        <ele>201</ele>
        <time>2020-08-15T08:21:24Z</time>
      </trkpt>
      <trkpt lat="50.22393" lon="4.1541">
        <ele>201</ele>
        <time>2020-08-15T08:21:26Z</time>
      </trkpt>
      <trkpt lat="50.22397" lon="4.15404">
        <ele>201</ele>
        <time>2020-08-15T08:21:28Z</time>
      </trkpt>
      <trkpt lat="50.22401" lon="4.15398">
        <ele>202</ele>
        <time>2020-08-15T08:21:30Z</time>
      </trkpt>
      <trkpt lat="50.22407" lon="4.15392">
        <ele>200</ele>
        <time>2020-08-15T08:21:32Z</time>
      </trkpt>
      <trkpt lat="50.22414" lon="4.15389">
        <ele>200</ele>
        <time>2020-08-15T08:21:34Z</time>
      </trkpt>
      <trkpt lat="50.22421" lon="4.15385">
        <ele>200</ele>
        <time>2020-08-15T08:21:36Z</time>
      </trkpt>
      <trkpt lat="50.22429" lon="4.15383">
        <ele>200</ele>
        <time>2020-08-15T08:21:38Z</time>
      </trkpt>
      <trkpt lat="50.22436" lon="4.1538">
        <ele>199</ele>
        <time>2020-08-15T08:21:40Z</time>
      </trkpt>
      <trkpt lat="50.22444" lon="4.15377">
        <ele>199</ele>
        <time>2020-08-15T08:21:42Z</time>
      </trkpt>
      <trkpt lat="50.22451" lon="4.15374">
        <ele>200</ele>
        <time>2020-08-15T08:21:44Z</time>
      </trkpt>
      <trkpt lat="50.22458" lon="4.15371">
        <ele>200</ele>
        <time>2020-08-15T08:21:46Z</time>
      </trkpt>
      <trkpt lat="50.22466" lon="4.15367">
        <ele>202</ele>
        <time>2020-08-15T08:21:48Z</time>
      </trkpt>
      <trkpt lat="50.22474" lon="4.15365">
        <ele>202</ele>
        <time>2020-08-15T08:21:50Z</time>
      </trkpt>
      <trkpt lat="50.22481" lon="4.15362">
        <ele>202</ele>
        <time>2020-08-15T08:21:52Z</time>
      </trkpt>
      <trkpt lat="50.22488" lon="4.1536">
        <ele>203</ele>
        <time>2020-08-15T08:21:54Z</time>
      </trkpt>
      <trkpt lat="50.22495" lon="4.15357">
        <ele>203</ele>
        <time>2020-08-15T08:21:56Z</time>
      </trkpt>
      <trkpt lat="50.22501" lon="4.15354">
        <ele>203</ele>
        <time>2020-08-15T08:21:58Z</time>
      </trkpt>
      <trkpt lat="50.22506" lon="4.15354">
        <ele>203</ele>
        <time>2020-08-15T08:22:00Z</time>
      </trkpt>
      <trkpt lat="50.22511" lon="4.15353">
        <ele>203</ele>
        <time>2020-08-15T08:22:02Z</time>
      </trkpt>
      <trkpt lat="50.22515" lon="4.15352">
        <ele>205</ele>
        <time>2020-08-15T08:22:04Z</time>
      </trkpt>
      <trkpt lat="50.22523" lon="4.15351">
        <ele>205</ele>
        <time>2020-08-15T08:22:06Z</time>
      </trkpt>
      <trkpt lat="50.22533" lon="4.15353">
        <ele>205</ele>
        <time>2020-08-15T08:22:08Z</time>
      </trkpt>
      <trkpt lat="50.22545" lon="4.15355">
        <ele>206</ele>
        <time>2020-08-15T08:22:10Z</time>
      </trkpt>
      <trkpt lat="50.22553" lon="4.15358">
        <ele>206</ele>
        <time>2020-08-15T08:22:12Z</time>
      </trkpt>
      <trkpt lat="50.22562" lon="4.15368">
        <ele>206</ele>
        <time>2020-08-15T08:22:14Z</time>
      </trkpt>
      <trkpt lat="50.22574" lon="4.15378">
        <ele>206</ele>
        <time>2020-08-15T08:22:16Z</time>
      </trkpt>
      <trkpt lat="50.22587" lon="4.15384">
        <ele>206</ele>
        <time>2020-08-15T08:22:18Z</time>
      </trkpt>
      <trkpt lat="50.226" lon="4.15387">
        <ele>204</ele>
        <time>2020-08-15T08:22:20Z</time>
      </trkpt>
      <trkpt lat="50.22611" lon="4.15389">
        <ele>204</ele>
        <time>2020-08-15T08:22:22Z</time>
      </trkpt>
      <trkpt lat="50.22621" lon="4.15391">
        <ele>204</ele>
        <time>2020-08-15T08:22:24Z</time>
      </trkpt>
      <trkpt lat="50.2263" lon="4.15395">
        <ele>203</ele>
        <time>2020-08-15T08:22:26Z</time>
      </trkpt>
      <trkpt lat="50.22641" lon="4.15399">
        <ele>203</ele>
        <time>2020-08-15T08:22:28Z</time>
      </trkpt>
      <trkpt lat="50.2265" lon="4.15403">
        <ele>205</ele>
        <time>2020-08-15T08:22:30Z</time>
      </trkpt>
      <trkpt lat="50.2266" lon="4.15407">
        <ele>204</ele>
        <time>2020-08-15T08:22:32Z</time>
      </trkpt>
      <trkpt lat="50.22669" lon="4.15411">
        <ele>204</ele>
        <time>2020-08-15T08:22:34Z</time>
      </trkpt>
      <trkpt lat="50.22678" lon="4.15414">
        <ele>204</ele>
        <time>2020-08-15T08:22:36Z</time>
      </trkpt>
      <trkpt lat="50.22688" lon="4.15418">
        <ele>204</ele>
        <time>2020-08-15T08:22:38Z</time>
      </trkpt>
      <trkpt lat="50.22698" lon="4.15421">
        <ele>204</ele>
        <time>2020-08-15T08:22:40Z</time>
      </trkpt>
      <trkpt lat="50.22708" lon="4.15425">
        <ele>204</ele>
        <time>2020-08-15T08:22:42Z</time>
      </trkpt>
      <trkpt lat="50.22717" lon="4.15429">
        <ele>204</ele>
        <time>2020-08-15T08:22:44Z</time>
      </trkpt>
      <trkpt lat="50.22727" lon="4.15433">
        <ele>205</ele>
        <time>2020-08-15T08:22:46Z</time>
      </trkpt>
      <trkpt lat="50.22737" lon="4.15438">
        <ele>205</ele>
        <time>2020-08-15T08:22:48Z</time>
      </trkpt>
      <trkpt lat="50.22746" lon="4.15441">
        <ele>205</ele>
        <time>2020-08-15T08:22:50Z</time>
      </trkpt>
      <trkpt lat="50.22755" lon="4.15445">
        <ele>205</ele>
        <time>2020-08-15T08:22:52Z</time>
      </trkpt>
      <trkpt lat="50.22765" lon="4.1545">
        <ele>207</ele>
        <time>2020-08-15T08:22:54Z</time>
      </trkpt>
      <trkpt lat="50.22776" lon="4.15455">
        <ele>207</ele>
        <time>2020-08-15T08:22:56Z</time>
      </trkpt>
      <trkpt lat="50.22785" lon="4.1546">
        <ele>207</ele>
        <time>2020-08-15T08:22:58Z</time>
      </trkpt>
      <trkpt lat="50.22795" lon="4.15465">
        <ele>209</ele>
        <time>2020-08-15T08:23:00Z</time>
      </trkpt>
      <trkpt lat="50.22805" lon="4.1547">
        <ele>209</ele>
        <time>2020-08-15T08:23:02Z</time>
      </trkpt>
      <trkpt lat="50.22814" lon="4.15474">
        <ele>209</ele>
        <time>2020-08-15T08:23:04Z</time>
      </trkpt>
      <trkpt lat="50.22825" lon="4.1548">
        <ele>211</ele>
        <time>2020-08-15T08:23:06Z</time>
      </trkpt>
      <trkpt lat="50.22834" lon="4.15484">
        <ele>211</ele>
        <time>2020-08-15T08:23:08Z</time>
      </trkpt>
      <trkpt lat="50.22843" lon="4.15488">
        <ele>210</ele>
        <time>2020-08-15T08:23:10Z</time>
      </trkpt>
      <trkpt lat="50.22853" lon="4.15493">
        <ele>211</ele>
        <time>2020-08-15T08:23:12Z</time>
      </trkpt>
      <trkpt lat="50.22862" lon="4.15498">
        <ele>211</ele>
        <time>2020-08-15T08:23:14Z</time>
      </trkpt>
      <trkpt lat="50.22871" lon="4.15503">
        <ele>211</ele>
        <time>2020-08-15T08:23:16Z</time>
      </trkpt>
      <trkpt lat="50.22881" lon="4.15508">
        <ele>210</ele>
        <time>2020-08-15T08:23:18Z</time>
      </trkpt>
      <trkpt lat="50.22891" lon="4.15513">
        <ele>210</ele>
        <time>2020-08-15T08:23:20Z</time>
      </trkpt>
      <trkpt lat="50.22901" lon="4.15518">
        <ele>208</ele>
        <time>2020-08-15T08:23:22Z</time>
      </trkpt>
      <trkpt lat="50.22911" lon="4.15525">
        <ele>206</ele>
        <time>2020-08-15T08:23:24Z</time>
      </trkpt>
      <trkpt lat="50.22921" lon="4.15533">
        <ele>206</ele>
        <time>2020-08-15T08:23:26Z</time>
      </trkpt>
      <trkpt lat="50.22931" lon="4.1554">
        <ele>204</ele>
        <time>2020-08-15T08:23:28Z</time>
      </trkpt>
      <trkpt lat="50.2294" lon="4.15546">
        <ele>202</ele>
        <time>2020-08-15T08:23:30Z</time>
      </trkpt>
      <trkpt lat="50.2295" lon="4.15554">
        <ele>202</ele>
        <time>2020-08-15T08:23:32Z</time>
      </trkpt>
      <trkpt lat="50.2296" lon="4.15562">
        <ele>199</ele>
        <time>2020-08-15T08:23:34Z</time>
      </trkpt>
      <trkpt lat="50.22971" lon="4.15569">
        <ele>199</ele>
        <time>2020-08-15T08:23:36Z</time>
      </trkpt>
      <trkpt lat="50.22982" lon="4.15577">
        <ele>199</ele>
        <time>2020-08-15T08:23:38Z</time>
      </trkpt>
      <trkpt lat="50.22994" lon="4.15586">
        <ele>198</ele>
        <time>2020-08-15T08:23:40Z</time>
      </trkpt>
      <trkpt lat="50.23005" lon="4.15596">
        <ele>198</ele>
        <time>2020-08-15T08:23:42Z</time>
      </trkpt>
      <trkpt lat="50.23017" lon="4.15607">
        <ele>197</ele>
        <time>2020-08-15T08:23:44Z</time>
      </trkpt>
      <trkpt lat="50.23029" lon="4.15619">
        <ele>197</ele>
        <time>2020-08-15T08:23:46Z</time>
      </trkpt>
      <trkpt lat="50.23039" lon="4.1563">
        <ele>196</ele>
        <time>2020-08-15T08:23:48Z</time>
      </trkpt>
      <trkpt lat="50.23049" lon="4.15637">
        <ele>194</ele>
        <time>2020-08-15T08:23:50Z</time>
      </trkpt>
      <trkpt lat="50.2306" lon="4.15644">
        <ele>194</ele>
        <time>2020-08-15T08:23:52Z</time>
      </trkpt>
      <trkpt lat="50.23072" lon="4.15652">
        <ele>192</ele>
        <time>2020-08-15T08:23:54Z</time>
      </trkpt>
      <trkpt lat="50.23084" lon="4.15659">
        <ele>191</ele>
        <time>2020-08-15T08:23:56Z</time>
      </trkpt>
      <trkpt lat="50.23095" lon="4.15666">
        <ele>191</ele>
        <time>2020-08-15T08:23:58Z</time>
      </trkpt>
      <trkpt lat="50.23108" lon="4.15672">
        <ele>189</ele>
        <time>2020-08-15T08:24:00Z</time>
      </trkpt>
      <trkpt lat="50.23123" lon="4.15678">
        <ele>189</ele>
        <time>2020-08-15T08:24:02Z</time>
      </trkpt>
      <trkpt lat="50.2314" lon="4.15689">
        <ele>184</ele>
        <time>2020-08-15T08:24:04Z</time>
      </trkpt>
      <trkpt lat="50.23158" lon="4.15698">
        <ele>182</ele>
        <time>2020-08-15T08:24:06Z</time>
      </trkpt>
      <trkpt lat="50.23177" lon="4.15711">
        <ele>183</ele>
        <time>2020-08-15T08:24:08Z</time>
      </trkpt>
      <trkpt lat="50.23191" lon="4.1573">
        <ele>183</ele>
        <time>2020-08-15T08:24:10Z</time>
      </trkpt>
      <trkpt lat="50.23196" lon="4.1575">
        <ele>184</ele>
        <time>2020-08-15T08:24:12Z</time>
      </trkpt>
      <trkpt lat="50.23199" lon="4.15769">
        <ele>183</ele>
        <time>2020-08-15T08:24:14Z</time>
      </trkpt>
      <trkpt lat="50.23206" lon="4.15786">
        <ele>183</ele>
        <time>2020-08-15T08:24:16Z</time>
      </trkpt>
      <trkpt lat="50.23211" lon="4.15796">
        <ele>185</ele>
        <time>2020-08-15T08:24:18Z</time>
      </trkpt>
      <trkpt lat="50.23215" lon="4.15803">
        <ele>185</ele>
        <time>2020-08-15T08:24:20Z</time>
      </trkpt>
      <trkpt lat="50.23217" lon="4.15805">
        <ele>185</ele>
        <time>2020-08-15T08:24:22Z</time>
      </trkpt>
      <trkpt lat="50.23218" lon="4.15806">
        <ele>185</ele>
        <time>2020-08-15T08:24:24Z</time>
      </trkpt>
      <trkpt lat="50.23221" lon="4.15811">
        <ele>185</ele>
        <time>2020-08-15T08:24:26Z</time>
      </trkpt>
      <trkpt lat="50.23223" lon="4.15813">
        <ele>185</ele>
        <time>2020-08-15T08:24:28Z</time>
      </trkpt>
      <trkpt lat="50.23227" lon="4.15817">
        <ele>185</ele>
        <time>2020-08-15T08:24:30Z</time>
      </trkpt>
      <trkpt lat="50.23232" lon="4.15821">
        <ele>185</ele>
        <time>2020-08-15T08:24:32Z</time>
      </trkpt>
      <trkpt lat="50.23237" lon="4.15825">
        <ele>186</ele>
        <time>2020-08-15T08:24:34Z</time>
      </trkpt>
      <trkpt lat="50.23241" lon="4.15829">
        <ele>186</ele>
        <time>2020-08-15T08:24:36Z</time>
      </trkpt>
      <trkpt lat="50.23246" lon="4.15831">
        <ele>186</ele>
        <time>2020-08-15T08:24:38Z</time>
      </trkpt>
      <trkpt lat="50.23251" lon="4.15834">
        <ele>186</ele>
        <time>2020-08-15T08:24:40Z</time>
      </trkpt>
      <trkpt lat="50.23257" lon="4.15836">
        <ele>186</ele>
        <time>2020-08-15T08:24:42Z</time>
      </trkpt>
      <trkpt lat="50.23262" lon="4.15837">
        <ele>186</ele>
        <time>2020-08-15T08:24:44Z</time>
      </trkpt>
      <trkpt lat="50.23268" lon="4.15838">
        <ele>188</ele>
        <time>2020-08-15T08:24:46Z</time>
      </trkpt>
      <trkpt lat="50.23274" lon="4.15839">
        <ele>188</ele>
        <time>2020-08-15T08:24:48Z</time>
      </trkpt>
      <trkpt lat="50.23279" lon="4.1584">
        <ele>188</ele>
        <time>2020-08-15T08:24:50Z</time>
      </trkpt>
      <trkpt lat="50.23284" lon="4.15841">
        <ele>188</ele>
        <time>2020-08-15T08:24:52Z</time>
      </trkpt>
      <trkpt lat="50.2329" lon="4.15841">
        <ele>188</ele>
        <time>2020-08-15T08:24:54Z</time>
      </trkpt>
      <trkpt lat="50.23296" lon="4.15841">
        <ele>191</ele>
        <time>2020-08-15T08:24:56Z</time>
      </trkpt>
      <trkpt lat="50.23301" lon="4.15841">
        <ele>191</ele>
        <time>2020-08-15T08:24:58Z</time>
      </trkpt>
      <trkpt lat="50.23307" lon="4.15842">
        <ele>191</ele>
        <time>2020-08-15T08:25:00Z</time>
      </trkpt>
      <trkpt lat="50.23312" lon="4.15841">
        <ele>191</ele>
        <time>2020-08-15T08:25:02Z</time>
      </trkpt>
      <trkpt lat="50.23318" lon="4.15841">
        <ele>191</ele>
        <time>2020-08-15T08:25:04Z</time>
      </trkpt>
      <trkpt lat="50.23323" lon="4.1584">
        <ele>194</ele>
        <time>2020-08-15T08:25:06Z</time>
      </trkpt>
      <trkpt lat="50.23328" lon="4.1584">
        <ele>194</ele>
        <time>2020-08-15T08:25:08Z</time>
      </trkpt>
      <trkpt lat="50.23334" lon="4.15839">
        <ele>194</ele>
        <time>2020-08-15T08:25:10Z</time>
      </trkpt>
      <trkpt lat="50.23339" lon="4.15839">
        <ele>194</ele>
        <time>2020-08-15T08:25:12Z</time>
      </trkpt>
      <trkpt lat="50.23344" lon="4.15838">
        <ele>194</ele>
        <time>2020-08-15T08:25:14Z</time>
      </trkpt>
      <trkpt lat="50.23349" lon="4.15837">
        <ele>198</ele>
        <time>2020-08-15T08:25:16Z</time>
      </trkpt>
      <trkpt lat="50.23354" lon="4.15836">
        <ele>198</ele>
        <time>2020-08-15T08:25:18Z</time>
      </trkpt>
      <trkpt lat="50.23359" lon="4.15835">
        <ele>198</ele>
        <time>2020-08-15T08:25:20Z</time>
      </trkpt>
      <trkpt lat="50.23364" lon="4.15834">
        <ele>198</ele>
        <time>2020-08-15T08:25:22Z</time>
      </trkpt>
      <trkpt lat="50.23369" lon="4.15834">
        <ele>198</ele>
        <time>2020-08-15T08:25:24Z</time>
      </trkpt>
      <trkpt lat="50.23374" lon="4.15833">
        <ele>198</ele>
        <time>2020-08-15T08:25:26Z</time>
      </trkpt>
      <trkpt lat="50.23379" lon="4.15833">
        <ele>202</ele>
        <time>2020-08-15T08:25:28Z</time>
      </trkpt>
      <trkpt lat="50.23384" lon="4.15832">
        <ele>202</ele>
        <time>2020-08-15T08:25:30Z</time>
      </trkpt>
      <trkpt lat="50.23389" lon="4.15832">
        <ele>202</ele>
        <time>2020-08-15T08:25:32Z</time>
      </trkpt>
      <trkpt lat="50.23394" lon="4.15831">
        <ele>202</ele>
        <time>2020-08-15T08:25:34Z</time>
      </trkpt>
      <trkpt lat="50.23399" lon="4.15831">
        <ele>202</ele>
        <time>2020-08-15T08:25:36Z</time>
      </trkpt>
      <trkpt lat="50.23403" lon="4.1583">
        <ele>203</ele>
        <time>2020-08-15T08:25:38Z</time>
      </trkpt>
      <trkpt lat="50.23409" lon="4.15831">
        <ele>203</ele>
        <time>2020-08-15T08:25:40Z</time>
      </trkpt>
      <trkpt lat="50.23414" lon="4.1583">
        <ele>203</ele>
        <time>2020-08-15T08:25:42Z</time>
      </trkpt>
      <trkpt lat="50.23418" lon="4.15829">
        <ele>203</ele>
        <time>2020-08-15T08:25:44Z</time>
      </trkpt>
      <trkpt lat="50.23423" lon="4.15829">
        <ele>203</ele>
        <time>2020-08-15T08:25:46Z</time>
      </trkpt>
      <trkpt lat="50.23428" lon="4.15829">
        <ele>203</ele>
        <time>2020-08-15T08:25:48Z</time>
      </trkpt>
      <trkpt lat="50.23432" lon="4.15829">
        <ele>204</ele>
        <time>2020-08-15T08:25:50Z</time>
      </trkpt>
      <trkpt lat="50.23437" lon="4.15829">
        <ele>204</ele>
        <time>2020-08-15T08:25:52Z</time>
      </trkpt>
      <trkpt lat="50.23442" lon="4.15829">
        <ele>204</ele>
        <time>2020-08-15T08:25:54Z</time>
      </trkpt>
      <trkpt lat="50.23447" lon="4.15829">
        <ele>204</ele>
        <time>2020-08-15T08:25:56Z</time>
      </trkpt>
      <trkpt lat="50.23451" lon="4.15828">
        <ele>204</ele>
        <time>2020-08-15T08:25:58Z</time>
      </trkpt>
      <trkpt lat="50.23457" lon="4.15828">
        <ele>204</ele>
        <time>2020-08-15T08:26:00Z</time>
      </trkpt>
      <trkpt lat="50.23462" lon="4.15828">
        <ele>205</ele>
        <time>2020-08-15T08:26:02Z</time>
      </trkpt>
      <trkpt lat="50.23467" lon="4.15827">
        <ele>205</ele>
        <time>2020-08-15T08:26:04Z</time>
      </trkpt>
      <trkpt lat="50.23472" lon="4.15827">
        <ele>205</ele>
        <time>2020-08-15T08:26:06Z</time>
      </trkpt>
      <trkpt lat="50.23478" lon="4.15827">
        <ele>205</ele>
        <time>2020-08-15T08:26:08Z</time>
      </trkpt>
      <trkpt lat="50.23483" lon="4.15826">
        <ele>205</ele>
        <time>2020-08-15T08:26:10Z</time>
      </trkpt>
      <trkpt lat="50.23488" lon="4.15825">
        <ele>207</ele>
        <time>2020-08-15T08:26:12Z</time>
      </trkpt>
      <trkpt lat="50.23493" lon="4.15824">
        <ele>207</ele>
        <time>2020-08-15T08:26:14Z</time>
      </trkpt>
      <trkpt lat="50.23499" lon="4.15823">
        <ele>207</ele>
        <time>2020-08-15T08:26:16Z</time>
      </trkpt>
      <trkpt lat="50.23505" lon="4.15823">
        <ele>207</ele>
        <time>2020-08-15T08:26:18Z</time>
      </trkpt>
      <trkpt lat="50.2351" lon="4.15822">
        <ele>207</ele>
        <time>2020-08-15T08:26:20Z</time>
      </trkpt>
      <trkpt lat="50.23517" lon="4.1582">
        <ele>209</ele>
        <time>2020-08-15T08:26:22Z</time>
      </trkpt>
      <trkpt lat="50.23523" lon="4.1582">
        <ele>209</ele>
        <time>2020-08-15T08:26:24Z</time>
      </trkpt>
      <trkpt lat="50.2353" lon="4.15819">
        <ele>209</ele>
        <time>2020-08-15T08:26:26Z</time>
      </trkpt>
      <trkpt lat="50.23537" lon="4.15818">
        <ele>209</ele>
        <time>2020-08-15T08:26:28Z</time>
      </trkpt>
      <trkpt lat="50.23545" lon="4.15818">
        <ele>210</ele>
        <time>2020-08-15T08:26:30Z</time>
      </trkpt>
      <trkpt lat="50.23552" lon="4.15817">
        <ele>210</ele>
        <time>2020-08-15T08:26:32Z</time>
      </trkpt>
      <trkpt lat="50.2356" lon="4.15817">
        <ele>210</ele>
        <time>2020-08-15T08:26:34Z</time>
      </trkpt>
      <trkpt lat="50.23568" lon="4.15816">
        <ele>210</ele>
        <time>2020-08-15T08:26:36Z</time>
      </trkpt>
      <trkpt lat="50.23577" lon="4.15815">
        <ele>211</ele>
        <time>2020-08-15T08:26:38Z</time>
      </trkpt>
      <trkpt lat="50.23585" lon="4.15814">
        <ele>211</ele>
        <time>2020-08-15T08:26:40Z</time>
      </trkpt>
      <trkpt lat="50.23594" lon="4.15814">
        <ele>211</ele>
        <time>2020-08-15T08:26:42Z</time>
      </trkpt>
      <trkpt lat="50.23603" lon="4.15814">
        <ele>211</ele>
        <time>2020-08-15T08:26:44Z</time>
      </trkpt>
      <trkpt lat="50.23611" lon="4.15813">
        <ele>211</ele>
        <time>2020-08-15T08:26:46Z</time>
      </trkpt>
      <trkpt lat="50.2362" lon="4.15813">
        <ele>211</ele>
        <time>2020-08-15T08:26:48Z</time>
      </trkpt>
      <trkpt lat="50.23629" lon="4.15812">
        <ele>212</ele>
        <time>2020-08-15T08:26:50Z</time>
      </trkpt>
      <trkpt lat="50.23638" lon="4.15811">
        <ele>212</ele>
        <time>2020-08-15T08:26:52Z</time>
      </trkpt>
      <trkpt lat="50.23647" lon="4.1581">
        <ele>212</ele>
        <time>2020-08-15T08:26:54Z</time>
      </trkpt>
      <trkpt lat="50.23657" lon="4.15809">
        <ele>212</ele>
        <time>2020-08-15T08:26:56Z</time>
      </trkpt>
      <trkpt lat="50.23668" lon="4.15808">
        <ele>212</ele>
        <time>2020-08-15T08:26:58Z</time>
      </trkpt>
      <trkpt lat="50.23679" lon="4.15808">
        <ele>212</ele>
        <time>2020-08-15T08:27:00Z</time>
      </trkpt>
      <trkpt lat="50.2369" lon="4.15808">
        <ele>212</ele>
        <time>2020-08-15T08:27:02Z</time>
      </trkpt>
      <trkpt lat="50.23701" lon="4.15808">
        <ele>212</ele>
        <time>2020-08-15T08:27:04Z</time>
      </trkpt>
      <trkpt lat="50.23713" lon="4.15808">
        <ele>211</ele>
        <time>2020-08-15T08:27:06Z</time>
      </trkpt>
      <trkpt lat="50.23724" lon="4.15809">
        <ele>211</ele>
        <time>2020-08-15T08:27:08Z</time>
      </trkpt>
      <trkpt lat="50.23735" lon="4.1581">
        <ele>211</ele>
        <time>2020-08-15T08:27:10Z</time>
      </trkpt>
      <trkpt lat="50.23747" lon="4.1581">
        <ele>211</ele>
        <time>2020-08-15T08:27:12Z</time>
      </trkpt>
      <trkpt lat="50.23758" lon="4.15811">
        <ele>211</ele>
        <time>2020-08-15T08:27:14Z</time>
      </trkpt>
      <trkpt lat="50.2377" lon="4.15812">
        <ele>210</ele>
        <time>2020-08-15T08:27:16Z</time>
      </trkpt>
      <trkpt lat="50.23783" lon="4.15813">
        <ele>210</ele>
        <time>2020-08-15T08:27:18Z</time>
      </trkpt>
      <trkpt lat="50.23796" lon="4.15814">
        <ele>208</ele>
        <time>2020-08-15T08:27:20Z</time>
      </trkpt>
      <trkpt lat="50.23808" lon="4.15815">
        <ele>208</ele>
        <time>2020-08-15T08:27:22Z</time>
      </trkpt>
      <trkpt lat="50.23819" lon="4.15819">
        <ele>208</ele>
        <time>2020-08-15T08:27:24Z</time>
      </trkpt>
      <trkpt lat="50.23827" lon="4.15827">
        <ele>206</ele>
        <time>2020-08-15T08:27:26Z</time>
      </trkpt>
      <trkpt lat="50.2383" lon="4.1584">
        <ele>206</ele>
        <time>2020-08-15T08:27:28Z</time>
      </trkpt>
      <trkpt lat="50.23827" lon="4.15852">
        <ele>206</ele>
        <time>2020-08-15T08:27:30Z</time>
      </trkpt>
      <trkpt lat="50.2382" lon="4.15862">
        <ele>206</ele>
        <time>2020-08-15T08:27:32Z</time>
      </trkpt>
      <trkpt lat="50.23813" lon="4.15874">
        <ele>208</ele>
        <time>2020-08-15T08:27:34Z</time>
      </trkpt>
      <trkpt lat="50.23806" lon="4.15885">
        <ele>210</ele>
        <time>2020-08-15T08:27:36Z</time>
      </trkpt>
      <trkpt lat="50.23802" lon="4.15894">
        <ele>210</ele>
        <time>2020-08-15T08:27:38Z</time>
      </trkpt>
      <trkpt lat="50.238" lon="4.15904">
        <ele>209</ele>
        <time>2020-08-15T08:27:40Z</time>
      </trkpt>
      <trkpt lat="50.23798" lon="4.15915">
        <ele>209</ele>
        <time>2020-08-15T08:27:42Z</time>
      </trkpt>
      <trkpt lat="50.23795" lon="4.15921">
        <ele>209</ele>
        <time>2020-08-15T08:27:44Z</time>
      </trkpt>
      <trkpt lat="50.2379" lon="4.15925">
        <ele>211</ele>
        <time>2020-08-15T08:27:46Z</time>
      </trkpt>
      <trkpt lat="50.23785" lon="4.15927">
        <ele>211</ele>
        <time>2020-08-15T08:27:48Z</time>
      </trkpt>
      <trkpt lat="50.23779" lon="4.15929">
        <ele>211</ele>
        <time>2020-08-15T08:27:50Z</time>
      </trkpt>
      <trkpt lat="50.23772" lon="4.15932">
        <ele>211</ele>
        <time>2020-08-15T08:27:52Z</time>
      </trkpt>
      <trkpt lat="50.23765" lon="4.15935">
        <ele>211</ele>
        <time>2020-08-15T08:27:54Z</time>
      </trkpt>
      <trkpt lat="50.23758" lon="4.15937">
        <ele>212</ele>
        <time>2020-08-15T08:27:56Z</time>
      </trkpt>
      <trkpt lat="50.23751" lon="4.1594">
        <ele>212</ele>
        <time>2020-08-15T08:27:58Z</time>
      </trkpt>
      <trkpt lat="50.23744" lon="4.15944">
        <ele>212</ele>
        <time>2020-08-15T08:28:00Z</time>
      </trkpt>
      <trkpt lat="50.23736" lon="4.15947">
        <ele>212</ele>
        <time>2020-08-15T08:28:02Z</time>
      </trkpt>
      <trkpt lat="50.23729" lon="4.15949">
        <ele>212</ele>
        <time>2020-08-15T08:28:04Z</time>
      </trkpt>
      <trkpt lat="50.23721" lon="4.15953">
        <ele>212</ele>
        <time>2020-08-15T08:28:06Z</time>
      </trkpt>
      <trkpt lat="50.23714" lon="4.15956">
        <ele>212</ele>
        <time>2020-08-15T08:28:08Z</time>
      </trkpt>
      <trkpt lat="50.23706" lon="4.15959">
        <ele>212</ele>
        <time>2020-08-15T08:28:10Z</time>
      </trkpt>
      <trkpt lat="50.23698" lon="4.15962">
        <ele>212</ele>
        <time>2020-08-15T08:28:12Z</time>
      </trkpt>
      <trkpt lat="50.2369" lon="4.15965">
        <ele>212</ele>
        <time>2020-08-15T08:28:14Z</time>
      </trkpt>
      <trkpt lat="50.23682" lon="4.15968">
        <ele>212</ele>
        <time>2020-08-15T08:28:16Z</time>
      </trkpt>
      <trkpt lat="50.23674" lon="4.15971">
        <ele>211</ele>
        <time>2020-08-15T08:28:18Z</time>
      </trkpt>
      <trkpt lat="50.23666" lon="4.15972">
        <ele>211</ele>
        <time>2020-08-15T08:28:20Z</time>
      </trkpt>
      <trkpt lat="50.23658" lon="4.15974">
        <ele>211</ele>
        <time>2020-08-15T08:28:22Z</time>
      </trkpt>
      <trkpt lat="50.2365" lon="4.15976">
        <ele>211</ele>
        <time>2020-08-15T08:28:24Z</time>
      </trkpt>
      <trkpt lat="50.23642" lon="4.15978">
        <ele>211</ele>
        <time>2020-08-15T08:28:26Z</time>
      </trkpt>
      <trkpt lat="50.23634" lon="4.1598">
        <ele>211</ele>
        <time>2020-08-15T08:28:28Z</time>
      </trkpt>
      <trkpt lat="50.23626" lon="4.15982">
        <ele>211</ele>
        <time>2020-08-15T08:28:30Z</time>
      </trkpt>
      <trkpt lat="50.23618" lon="4.15984">
        <ele>211</ele>
        <time>2020-08-15T08:28:32Z</time>
      </trkpt>
      <trkpt lat="50.2361" lon="4.15986">
        <ele>211</ele>
        <time>2020-08-15T08:28:34Z</time>
      </trkpt>
      <trkpt lat="50.23601" lon="4.15989">
        <ele>211</ele>
        <time>2020-08-15T08:28:36Z</time>
      </trkpt>
      <trkpt lat="50.23592" lon="4.15991">
        <ele>211</ele>
        <time>2020-08-15T08:28:38Z</time>
      </trkpt>
      <trkpt lat="50.23583" lon="4.15994">
        <ele>211</ele>
        <time>2020-08-15T08:28:40Z</time>
      </trkpt>
      <trkpt lat="50.23573" lon="4.15997">
        <ele>211</ele>
        <time>2020-08-15T08:28:42Z</time>
      </trkpt>
      <trkpt lat="50.23562" lon="4.16">
        <ele>211</ele>
        <time>2020-08-15T08:28:44Z</time>
      </trkpt>
      <trkpt lat="50.23552" lon="4.16003">
        <ele>211</ele>
        <time>2020-08-15T08:28:46Z</time>
      </trkpt>
      <trkpt lat="50.23541" lon="4.16005">
        <ele>210</ele>
        <time>2020-08-15T08:28:48Z</time>
      </trkpt>
      <trkpt lat="50.23529" lon="4.16008">
        <ele>210</ele>
        <time>2020-08-15T08:28:50Z</time>
      </trkpt>
      <trkpt lat="50.23516" lon="4.1601">
        <ele>210</ele>
        <time>2020-08-15T08:28:52Z</time>
      </trkpt>
      <trkpt lat="50.23502" lon="4.16013">
        <ele>207</ele>
        <time>2020-08-15T08:28:54Z</time>
      </trkpt>
      <trkpt lat="50.23488" lon="4.16016">
        <ele>207</ele>
        <time>2020-08-15T08:28:56Z</time>
      </trkpt>
      <trkpt lat="50.23473" lon="4.16018">
        <ele>204</ele>
        <time>2020-08-15T08:28:58Z</time>
      </trkpt>
      <trkpt lat="50.23458" lon="4.16021">
        <ele>202</ele>
        <time>2020-08-15T08:29:00Z</time>
      </trkpt>
      <trkpt lat="50.23444" lon="4.16023">
        <ele>202</ele>
        <time>2020-08-15T08:29:02Z</time>
      </trkpt>
      <trkpt lat="50.23428" lon="4.16028">
        <ele>199</ele>
        <time>2020-08-15T08:29:04Z</time>
      </trkpt>
      <trkpt lat="50.23412" lon="4.16033">
        <ele>199</ele>
        <time>2020-08-15T08:29:06Z</time>
      </trkpt>
      <trkpt lat="50.23396" lon="4.16041">
        <ele>197</ele>
        <time>2020-08-15T08:29:08Z</time>
      </trkpt>
      <trkpt lat="50.23379" lon="4.16054">
        <ele>198</ele>
        <time>2020-08-15T08:29:10Z</time>
      </trkpt>
      <trkpt lat="50.23363" lon="4.1607">
        <ele>195</ele>
        <time>2020-08-15T08:29:12Z</time>
      </trkpt>
      <trkpt lat="50.23346" lon="4.16087">
        <ele>192</ele>
        <time>2020-08-15T08:29:14Z</time>
      </trkpt>
      <trkpt lat="50.23329" lon="4.16101">
        <ele>193</ele>
        <time>2020-08-15T08:29:16Z</time>
      </trkpt>
      <trkpt lat="50.23309" lon="4.16109">
        <ele>190</ele>
        <time>2020-08-15T08:29:18Z</time>
      </trkpt>
      <trkpt lat="50.23289" lon="4.16113">
        <ele>189</ele>
        <time>2020-08-15T08:29:20Z</time>
      </trkpt>
      <trkpt lat="50.23269" lon="4.16118">
        <ele>189</ele>
        <time>2020-08-15T08:29:22Z</time>
      </trkpt>
      <trkpt lat="50.2325" lon="4.16124">
        <ele>188</ele>
        <time>2020-08-15T08:29:24Z</time>
      </trkpt>
      <trkpt lat="50.23233" lon="4.16131">
        <ele>190</ele>
        <time>2020-08-15T08:29:26Z</time>
      </trkpt>
      <trkpt lat="50.23219" lon="4.16139">
        <ele>190</ele>
        <time>2020-08-15T08:29:28Z</time>
      </trkpt>
      <trkpt lat="50.23205" lon="4.16148">
        <ele>192</ele>
        <time>2020-08-15T08:29:30Z</time>
      </trkpt>
      <trkpt lat="50.23191" lon="4.16161">
        <ele>192</ele>
        <time>2020-08-15T08:29:32Z</time>
      </trkpt>
      <trkpt lat="50.23178" lon="4.16173">
        <ele>195</ele>
        <time>2020-08-15T08:29:34Z</time>
      </trkpt>
      <trkpt lat="50.23168" lon="4.16183">
        <ele>196</ele>
        <time>2020-08-15T08:29:36Z</time>
      </trkpt>
      <trkpt lat="50.2316" lon="4.16192">
        <ele>196</ele>
        <time>2020-08-15T08:29:38Z</time>
      </trkpt>
      <trkpt lat="50.23155" lon="4.16201">
        <ele>196</ele>
        <time>2020-08-15T08:29:40Z</time>
      </trkpt>
      <trkpt lat="50.2315" lon="4.16211">
        <ele>199</ele>
        <time>2020-08-15T08:29:42Z</time>
      </trkpt>
      <trkpt lat="50.23143" lon="4.1622">
        <ele>199</ele>
        <time>2020-08-15T08:29:44Z</time>
      </trkpt>
      <trkpt lat="50.23136" lon="4.16229">
        <ele>199</ele>
        <time>2020-08-15T08:29:46Z</time>
      </trkpt>
      <trkpt lat="50.23128" lon="4.16238">
        <ele>198</ele>
        <time>2020-08-15T08:29:48Z</time>
      </trkpt>
      <trkpt lat="50.23121" lon="4.16249">
        <ele>198</ele>
        <time>2020-08-15T08:29:50Z</time>
      </trkpt>
      <trkpt lat="50.23114" lon="4.16259">
        <ele>198</ele>
        <time>2020-08-15T08:29:52Z</time>
      </trkpt>
      <trkpt lat="50.23107" lon="4.16269">
        <ele>200</ele>
        <time>2020-08-15T08:29:54Z</time>
      </trkpt>
      <trkpt lat="50.231" lon="4.16279">
        <ele>200</ele>
        <time>2020-08-15T08:29:56Z</time>
      </trkpt>
      <trkpt lat="50.23092" lon="4.16288">
        <ele>199</ele>
        <time>2020-08-15T08:29:58Z</time>
      </trkpt>
      <trkpt lat="50.23084" lon="4.16295">
        <ele>200</ele>
        <time>2020-08-15T08:30:00Z</time>
      </trkpt>
      <trkpt lat="50.23074" lon="4.16298">
        <ele>200</ele>
        <time>2020-08-15T08:30:02Z</time>
      </trkpt>
      <trkpt lat="50.23065" lon="4.16295">
        <ele>200</ele>
        <time>2020-08-15T08:30:04Z</time>
      </trkpt>
      <trkpt lat="50.23056" lon="4.16289">
        <ele>198</ele>
        <time>2020-08-15T08:30:06Z</time>
      </trkpt>
      <trkpt lat="50.23047" lon="4.16282">
        <ele>198</ele>
        <time>2020-08-15T08:30:08Z</time>
      </trkpt>
      <trkpt lat="50.23038" lon="4.16275">
        <ele>199</ele>
        <time>2020-08-15T08:30:10Z</time>
      </trkpt>
      <trkpt lat="50.23029" lon="4.16269">
        <ele>199</ele>
        <time>2020-08-15T08:30:12Z</time>
      </trkpt>
      <trkpt lat="50.23019" lon="4.16265">
        <ele>199</ele>
        <time>2020-08-15T08:30:14Z</time>
      </trkpt>
      <trkpt lat="50.2301" lon="4.16259">
        <ele>198</ele>
        <time>2020-08-15T08:30:16Z</time>
      </trkpt>
      <trkpt lat="50.22999" lon="4.16255">
        <ele>198</ele>
        <time>2020-08-15T08:30:18Z</time>
      </trkpt>
      <trkpt lat="50.22989" lon="4.1625">
        <ele>198</ele>
        <time>2020-08-15T08:30:20Z</time>
      </trkpt>
      <trkpt lat="50.22979" lon="4.16245">
        <ele>198</ele>
        <time>2020-08-15T08:30:22Z</time>
      </trkpt>
      <trkpt lat="50.22969" lon="4.1624">
        <ele>198</ele>
        <time>2020-08-15T08:30:24Z</time>
      </trkpt>
      <trkpt lat="50.22959" lon="4.16236">
        <ele>196</ele>
        <time>2020-08-15T08:30:26Z</time>
      </trkpt>
      <trkpt lat="50.2295" lon="4.16234">
        <ele>196</ele>
        <time>2020-08-15T08:30:28Z</time>
      </trkpt>
      <trkpt lat="50.22944" lon="4.16235">
        <ele>196</ele>
        <time>2020-08-15T08:30:30Z</time>
      </trkpt>
      <trkpt lat="50.22941" lon="4.16246">
        <ele>198</ele>
        <time>2020-08-15T08:37:39Z</time>
      </trkpt>
      <trkpt lat="50.2294" lon="4.16259">
        <ele>198</ele>
        <time>2020-08-15T08:37:41Z</time>
      </trkpt>
      <trkpt lat="50.22939" lon="4.16267">
        <ele>196</ele>
        <time>2020-08-15T08:37:43Z</time>
      </trkpt>
      <trkpt lat="50.22937" lon="4.16275">
        <ele>196</ele>
        <time>2020-08-15T08:37:45Z</time>
      </trkpt>
      <trkpt lat="50.22936" lon="4.16284">
        <ele>196</ele>
        <time>2020-08-15T08:37:47Z</time>
      </trkpt>
      <trkpt lat="50.22933" lon="4.16293">
        <ele>197</ele>
        <time>2020-08-15T08:37:49Z</time>
      </trkpt>
      <trkpt lat="50.22931" lon="4.16303">
        <ele>197</ele>
        <time>2020-08-15T08:37:51Z</time>
      </trkpt>
      <trkpt lat="50.22929" lon="4.16312">
        <ele>198</ele>
        <time>2020-08-15T08:37:53Z</time>
      </trkpt>
      <trkpt lat="50.22929" lon="4.16322">
        <ele>196</ele>
        <time>2020-08-15T08:37:55Z</time>
      </trkpt>
      <trkpt lat="50.22928" lon="4.16333">
        <ele>196</ele>
        <time>2020-08-15T08:37:57Z</time>
      </trkpt>
      <trkpt lat="50.22928" lon="4.16343">
        <ele>196</ele>
        <time>2020-08-15T08:37:59Z</time>
      </trkpt>
      <trkpt lat="50.22929" lon="4.16353">
        <ele>197</ele>
        <time>2020-08-15T08:38:01Z</time>
      </trkpt>
      <trkpt lat="50.22931" lon="4.16364">
        <ele>196</ele>
        <time>2020-08-15T08:38:03Z</time>
      </trkpt>
      <trkpt lat="50.22934" lon="4.16374">
        <ele>196</ele>
        <time>2020-08-15T08:38:05Z</time>
      </trkpt>
      <trkpt lat="50.22939" lon="4.16383">
        <ele>197</ele>
        <time>2020-08-15T08:38:07Z</time>
      </trkpt>
      <trkpt lat="50.22943" lon="4.16394">
        <ele>197</ele>
        <time>2020-08-15T08:38:09Z</time>
      </trkpt>
      <trkpt lat="50.22947" lon="4.16403">
        <ele>197</ele>
        <time>2020-08-15T08:38:11Z</time>
      </trkpt>
      <trkpt lat="50.22953" lon="4.16413">
        <ele>197</ele>
        <time>2020-08-15T08:38:13Z</time>
      </trkpt>
      <trkpt lat="50.22957" lon="4.16422">
        <ele>197</ele>
        <time>2020-08-15T08:38:15Z</time>
      </trkpt>
      <trkpt lat="50.22961" lon="4.16432">
        <ele>199</ele>
        <time>2020-08-15T08:38:17Z</time>
      </trkpt>
      <trkpt lat="50.22964" lon="4.16442">
        <ele>199</ele>
        <time>2020-08-15T08:38:19Z</time>
      </trkpt>
      <trkpt lat="50.22969" lon="4.16454">
        <ele>199</ele>
        <time>2020-08-15T08:38:21Z</time>
      </trkpt>
      <trkpt lat="50.22972" lon="4.16466">
        <ele>200</ele>
        <time>2020-08-15T08:38:23Z</time>
      </trkpt>
      <trkpt lat="50.22974" lon="4.16477">
        <ele>200</ele>
        <time>2020-08-15T08:38:25Z</time>
      </trkpt>
      <trkpt lat="50.22977" lon="4.16489">
        <ele>203</ele>
        <time>2020-08-15T08:38:27Z</time>
      </trkpt>
      <trkpt lat="50.22981" lon="4.165">
        <ele>203</ele>
        <time>2020-08-15T08:38:29Z</time>
      </trkpt>
      <trkpt lat="50.22983" lon="4.16512">
        <ele>203</ele>
        <time>2020-08-15T08:38:31Z</time>
      </trkpt>
      <trkpt lat="50.22986" lon="4.16526">
        <ele>203</ele>
        <time>2020-08-15T08:38:33Z</time>
      </trkpt>
      <trkpt lat="50.22989" lon="4.16538">
        <ele>203</ele>
        <time>2020-08-15T08:38:35Z</time>
      </trkpt>
      <trkpt lat="50.22993" lon="4.16552">
        <ele>203</ele>
        <time>2020-08-15T08:38:37Z</time>
      </trkpt>
      <trkpt lat="50.22997" lon="4.16564">
        <ele>203</ele>
        <time>2020-08-15T08:38:39Z</time>
      </trkpt>
      <trkpt lat="50.23" lon="4.16577">
        <ele>204</ele>
        <time>2020-08-15T08:38:41Z</time>
      </trkpt>
      <trkpt lat="50.23003" lon="4.1659">
        <ele>204</ele>
        <time>2020-08-15T08:38:43Z</time>
      </trkpt>
      <trkpt lat="50.23006" lon="4.16603">
        <ele>205</ele>
        <time>2020-08-15T08:38:45Z</time>
      </trkpt>
      <trkpt lat="50.23008" lon="4.16615">
        <ele>205</ele>
        <time>2020-08-15T08:38:47Z</time>
      </trkpt>
      <trkpt lat="50.23012" lon="4.16627">
        <ele>205</ele>
        <time>2020-08-15T08:38:49Z</time>
      </trkpt>
      <trkpt lat="50.23015" lon="4.16638">
        <ele>205</ele>
        <time>2020-08-15T08:38:51Z</time>
      </trkpt>
      <trkpt lat="50.23019" lon="4.16649">
        <ele>205</ele>
        <time>2020-08-15T08:38:53Z</time>
      </trkpt>
      <trkpt lat="50.23023" lon="4.1666">
        <ele>206</ele>
        <time>2020-08-15T08:38:55Z</time>
      </trkpt>
      <trkpt lat="50.23026" lon="4.16672">
        <ele>206</ele>
        <time>2020-08-15T08:38:57Z</time>
      </trkpt>
      <trkpt lat="50.2303" lon="4.16684">
        <ele>207</ele>
        <time>2020-08-15T08:38:59Z</time>
      </trkpt>
      <trkpt lat="50.23034" lon="4.16696">
        <ele>207</ele>
        <time>2020-08-15T08:39:01Z</time>
      </trkpt>
      <trkpt lat="50.23037" lon="4.16708">
        <ele>207</ele>
        <time>2020-08-15T08:39:03Z</time>
      </trkpt>
      <trkpt lat="50.23041" lon="4.1672">
        <ele>209</ele>
        <time>2020-08-15T08:39:05Z</time>
      </trkpt>
      <trkpt lat="50.23044" lon="4.16732">
        <ele>208</ele>
        <time>2020-08-15T08:39:07Z</time>
      </trkpt>
      <trkpt lat="50.23047" lon="4.16744">
        <ele>209</ele>
        <time>2020-08-15T08:39:09Z</time>
      </trkpt>
      <trkpt lat="50.2305" lon="4.16757">
        <ele>209</ele>
        <time>2020-08-15T08:39:11Z</time>
      </trkpt>
      <trkpt lat="50.23052" lon="4.1677">
        <ele>210</ele>
        <time>2020-08-15T08:39:13Z</time>
      </trkpt>
      <trkpt lat="50.23055" lon="4.16783">
        <ele>210</ele>
        <time>2020-08-15T08:39:15Z</time>
      </trkpt>
      <trkpt lat="50.23057" lon="4.16796">
        <ele>210</ele>
        <time>2020-08-15T08:39:17Z</time>
      </trkpt>
      <trkpt lat="50.2306" lon="4.16809">
        <ele>210</ele>
        <time>2020-08-15T08:39:19Z</time>
      </trkpt>
      <trkpt lat="50.23064" lon="4.16822">
        <ele>211</ele>
        <time>2020-08-15T08:39:21Z</time>
      </trkpt>
      <trkpt lat="50.23068" lon="4.16836">
        <ele>211</ele>
        <time>2020-08-15T08:39:23Z</time>
      </trkpt>
      <trkpt lat="50.23071" lon="4.16849">
        <ele>211</ele>
        <time>2020-08-15T08:39:25Z</time>
      </trkpt>
      <trkpt lat="50.23076" lon="4.16862">
        <ele>211</ele>
        <time>2020-08-15T08:39:27Z</time>
      </trkpt>
      <trkpt lat="50.23079" lon="4.16875">
        <ele>211</ele>
        <time>2020-08-15T08:39:29Z</time>
      </trkpt>
      <trkpt lat="50.23083" lon="4.16887">
        <ele>211</ele>
        <time>2020-08-15T08:39:31Z</time>
      </trkpt>
      <trkpt lat="50.23087" lon="4.16901">
        <ele>211</ele>
        <time>2020-08-15T08:39:33Z</time>
      </trkpt>
      <trkpt lat="50.2309" lon="4.16915">
        <ele>211</ele>
        <time>2020-08-15T08:39:35Z</time>
      </trkpt>
      <trkpt lat="50.23094" lon="4.16928">
        <ele>211</ele>
        <time>2020-08-15T08:39:37Z</time>
      </trkpt>
      <trkpt lat="50.23098" lon="4.16942">
        <ele>211</ele>
        <time>2020-08-15T08:39:39Z</time>
      </trkpt>
      <trkpt lat="50.23101" lon="4.16955">
        <ele>211</ele>
        <time>2020-08-15T08:39:41Z</time>
      </trkpt>
      <trkpt lat="50.23105" lon="4.16968">
        <ele>210</ele>
        <time>2020-08-15T08:39:43Z</time>
      </trkpt>
      <trkpt lat="50.23109" lon="4.1698">
        <ele>210</ele>
        <time>2020-08-15T08:39:45Z</time>
      </trkpt>
      <trkpt lat="50.23113" lon="4.16993">
        <ele>209</ele>
        <time>2020-08-15T08:39:47Z</time>
      </trkpt>
      <trkpt lat="50.23117" lon="4.17007">
        <ele>209</ele>
        <time>2020-08-15T08:39:49Z</time>
      </trkpt>
      <trkpt lat="50.23121" lon="4.17019">
        <ele>211</ele>
        <time>2020-08-15T08:39:51Z</time>
      </trkpt>
      <trkpt lat="50.23125" lon="4.17032">
        <ele>211</ele>
        <time>2020-08-15T08:39:53Z</time>
      </trkpt>
      <trkpt lat="50.23129" lon="4.17045">
        <ele>212</ele>
        <time>2020-08-15T08:39:55Z</time>
      </trkpt>
      <trkpt lat="50.23132" lon="4.17058">
        <ele>212</ele>
        <time>2020-08-15T08:39:57Z</time>
      </trkpt>
      <trkpt lat="50.23136" lon="4.17072">
        <ele>213</ele>
        <time>2020-08-15T08:39:59Z</time>
      </trkpt>
      <trkpt lat="50.2314" lon="4.17086">
        <ele>213</ele>
        <time>2020-08-15T08:40:01Z</time>
      </trkpt>
      <trkpt lat="50.23144" lon="4.171">
        <ele>212</ele>
        <time>2020-08-15T08:40:03Z</time>
      </trkpt>
      <trkpt lat="50.23148" lon="4.17114">
        <ele>212</ele>
        <time>2020-08-15T08:40:05Z</time>
      </trkpt>
      <trkpt lat="50.23152" lon="4.17127">
        <ele>213</ele>
        <time>2020-08-15T08:40:07Z</time>
      </trkpt>
      <trkpt lat="50.23156" lon="4.1714">
        <ele>212</ele>
        <time>2020-08-15T08:40:09Z</time>
      </trkpt>
      <trkpt lat="50.23159" lon="4.17152">
        <ele>212</ele>
        <time>2020-08-15T08:40:11Z</time>
      </trkpt>
      <trkpt lat="50.23163" lon="4.17165">
        <ele>211</ele>
        <time>2020-08-15T08:40:13Z</time>
      </trkpt>
      <trkpt lat="50.23167" lon="4.17178">
        <ele>211</ele>
        <time>2020-08-15T08:40:15Z</time>
      </trkpt>
      <trkpt lat="50.23172" lon="4.17191">
        <ele>212</ele>
        <time>2020-08-15T08:40:17Z</time>
      </trkpt>
      <trkpt lat="50.23175" lon="4.17203">
        <ele>212</ele>
        <time>2020-08-15T08:40:19Z</time>
      </trkpt>
      <trkpt lat="50.23176" lon="4.17211">
        <ele>210</ele>
        <time>2020-08-15T08:40:21Z</time>
      </trkpt>
      <trkpt lat="50.23178" lon="4.1722">
        <ele>210</ele>
        <time>2020-08-15T08:40:23Z</time>
      </trkpt>
      <trkpt lat="50.2318" lon="4.17228">
        <ele>210</ele>
        <time>2020-08-15T08:40:25Z</time>
      </trkpt>
      <trkpt lat="50.23183" lon="4.17237">
        <ele>211</ele>
        <time>2020-08-15T08:40:27Z</time>
      </trkpt>
      <trkpt lat="50.23185" lon="4.17247">
        <ele>211</ele>
        <time>2020-08-15T08:40:29Z</time>
      </trkpt>
      <trkpt lat="50.23189" lon="4.17257">
        <ele>211</ele>
        <time>2020-08-15T08:40:31Z</time>
      </trkpt>
      <trkpt lat="50.23193" lon="4.17269">
        <ele>209</ele>
        <time>2020-08-15T08:40:33Z</time>
      </trkpt>
      <trkpt lat="50.23197" lon="4.17281">
        <ele>209</ele>
        <time>2020-08-15T08:40:35Z</time>
      </trkpt>
      <trkpt lat="50.23202" lon="4.17295">
        <ele>210</ele>
        <time>2020-08-15T08:40:37Z</time>
      </trkpt>
      <trkpt lat="50.23208" lon="4.17309">
        <ele>210</ele>
        <time>2020-08-15T08:40:39Z</time>
      </trkpt>
      <trkpt lat="50.23214" lon="4.17323">
        <ele>209</ele>
        <time>2020-08-15T08:40:41Z</time>
      </trkpt>
      <trkpt lat="50.23221" lon="4.17337">
        <ele>209</ele>
        <time>2020-08-15T08:40:43Z</time>
      </trkpt>
      <trkpt lat="50.23228" lon="4.17352">
        <ele>209</ele>
        <time>2020-08-15T08:40:45Z</time>
      </trkpt>
      <trkpt lat="50.23235" lon="4.17368">
        <ele>209</ele>
        <time>2020-08-15T08:40:47Z</time>
      </trkpt>
      <trkpt lat="50.23241" lon="4.17384">
        <ele>209</ele>
        <time>2020-08-15T08:40:49Z</time>
      </trkpt>
      <trkpt lat="50.23249" lon="4.17399">
        <ele>209</ele>
        <time>2020-08-15T08:40:51Z</time>
      </trkpt>
      <trkpt lat="50.23256" lon="4.17413">
        <ele>208</ele>
        <time>2020-08-15T08:40:53Z</time>
      </trkpt>
      <trkpt lat="50.23265" lon="4.17427">
        <ele>210</ele>
        <time>2020-08-15T08:40:55Z</time>
      </trkpt>
      <trkpt lat="50.23272" lon="4.17439">
        <ele>210</ele>
        <time>2020-08-15T08:40:57Z</time>
      </trkpt>
      <trkpt lat="50.2328" lon="4.17453">
        <ele>210</ele>
        <time>2020-08-15T08:40:59Z</time>
      </trkpt>
      <trkpt lat="50.23288" lon="4.17466">
        <ele>208</ele>
        <time>2020-08-15T08:41:01Z</time>
      </trkpt>
      <trkpt lat="50.23295" lon="4.17478">
        <ele>209</ele>
        <time>2020-08-15T08:41:03Z</time>
      </trkpt>
      <trkpt lat="50.23302" lon="4.17491">
        <ele>208</ele>
        <time>2020-08-15T08:41:05Z</time>
      </trkpt>
      <trkpt lat="50.23309" lon="4.17505">
        <ele>208</ele>
        <time>2020-08-15T08:41:07Z</time>
      </trkpt>
      <trkpt lat="50.23316" lon="4.17519">
        <ele>206</ele>
        <time>2020-08-15T08:41:09Z</time>
      </trkpt>
      <trkpt lat="50.23323" lon="4.17534">
        <ele>207</ele>
        <time>2020-08-15T08:41:11Z</time>
      </trkpt>
      <trkpt lat="50.23329" lon="4.17549">
        <ele>205</ele>
        <time>2020-08-15T08:41:13Z</time>
      </trkpt>
      <trkpt lat="50.23336" lon="4.17564">
        <ele>205</ele>
        <time>2020-08-15T08:41:15Z</time>
      </trkpt>
      <trkpt lat="50.23341" lon="4.1758">
        <ele>205</ele>
        <time>2020-08-15T08:41:17Z</time>
      </trkpt>
      <trkpt lat="50.23348" lon="4.17597">
        <ele>206</ele>
        <time>2020-08-15T08:41:19Z</time>
      </trkpt>
      <trkpt lat="50.23354" lon="4.17614">
        <ele>207</ele>
        <time>2020-08-15T08:41:21Z</time>
      </trkpt>
      <trkpt lat="50.2336" lon="4.17632">
        <ele>206</ele>
        <time>2020-08-15T08:41:23Z</time>
      </trkpt>
      <trkpt lat="50.23367" lon="4.17651">
        <ele>206</ele>
        <time>2020-08-15T08:41:25Z</time>
      </trkpt>
      <trkpt lat="50.23372" lon="4.17671">
        <ele>207</ele>
        <time>2020-08-15T08:41:27Z</time>
      </trkpt>
      <trkpt lat="50.23377" lon="4.17693">
        <ele>205</ele>
        <time>2020-08-15T08:41:29Z</time>
      </trkpt>
      <trkpt lat="50.23383" lon="4.17715">
        <ele>204</ele>
        <time>2020-08-15T08:41:31Z</time>
      </trkpt>
      <trkpt lat="50.2339" lon="4.17736">
        <ele>204</ele>
        <time>2020-08-15T08:41:33Z</time>
      </trkpt>
      <trkpt lat="50.23399" lon="4.17756">
        <ele>202</ele>
        <time>2020-08-15T08:41:35Z</time>
      </trkpt>
      <trkpt lat="50.23409" lon="4.17774">
        <ele>204</ele>
        <time>2020-08-15T08:41:37Z</time>
      </trkpt>
      <trkpt lat="50.23419" lon="4.17791">
        <ele>204</ele>
        <time>2020-08-15T08:41:39Z</time>
      </trkpt>
      <trkpt lat="50.23431" lon="4.17807">
        <ele>203</ele>
        <time>2020-08-15T08:41:41Z</time>
      </trkpt>
      <trkpt lat="50.23443" lon="4.17822">
        <ele>201</ele>
        <time>2020-08-15T08:41:43Z</time>
      </trkpt>
      <trkpt lat="50.23456" lon="4.17838">
        <ele>201</ele>
        <time>2020-08-15T08:41:45Z</time>
      </trkpt>
      <trkpt lat="50.23469" lon="4.17854">
        <ele>200</ele>
        <time>2020-08-15T08:41:47Z</time>
      </trkpt>
      <trkpt lat="50.23483" lon="4.17871">
        <ele>200</ele>
        <time>2020-08-15T08:41:49Z</time>
      </trkpt>
      <trkpt lat="50.23497" lon="4.17888">
        <ele>199</ele>
        <time>2020-08-15T08:41:51Z</time>
      </trkpt>
      <trkpt lat="50.2351" lon="4.17906">
        <ele>198</ele>
        <time>2020-08-15T08:41:53Z</time>
      </trkpt>
      <trkpt lat="50.23525" lon="4.17925">
        <ele>198</ele>
        <time>2020-08-15T08:41:55Z</time>
      </trkpt>
      <trkpt lat="50.23538" lon="4.17947">
        <ele>196</ele>
        <time>2020-08-15T08:41:57Z</time>
      </trkpt>
      <trkpt lat="50.2355" lon="4.1797">
        <ele>195</ele>
        <time>2020-08-15T08:41:59Z</time>
      </trkpt>
      <trkpt lat="50.23564" lon="4.17994">
        <ele>193</ele>
        <time>2020-08-15T08:42:01Z</time>
      </trkpt>
      <trkpt lat="50.23578" lon="4.18018">
        <ele>192</ele>
        <time>2020-08-15T08:42:03Z</time>
      </trkpt>
      <trkpt lat="50.23593" lon="4.18042">
        <ele>190</ele>
        <time>2020-08-15T08:42:05Z</time>
      </trkpt>
      <trkpt lat="50.23608" lon="4.18067">
        <ele>189</ele>
        <time>2020-08-15T08:42:07Z</time>
      </trkpt>
      <trkpt lat="50.23623" lon="4.18093">
        <ele>188</ele>
        <time>2020-08-15T08:42:09Z</time>
      </trkpt>
      <trkpt lat="50.2364" lon="4.18118">
        <ele>184</ele>
        <time>2020-08-15T08:42:11Z</time>
      </trkpt>
      <trkpt lat="50.23657" lon="4.18142">
        <ele>183</ele>
        <time>2020-08-15T08:42:13Z</time>
      </trkpt>
      <trkpt lat="50.23674" lon="4.18165">
        <ele>181</ele>
        <time>2020-08-15T08:42:15Z</time>
      </trkpt>
      <trkpt lat="50.23692" lon="4.18185">
        <ele>181</ele>
        <time>2020-08-15T08:42:17Z</time>
      </trkpt>
      <trkpt lat="50.23711" lon="4.18206">
        <ele>182</ele>
        <time>2020-08-15T08:42:19Z</time>
      </trkpt>
      <trkpt lat="50.23727" lon="4.18227">
        <ele>181</ele>
        <time>2020-08-15T08:42:21Z</time>
      </trkpt>
      <trkpt lat="50.23742" lon="4.18251">
        <ele>180</ele>
        <time>2020-08-15T08:42:23Z</time>
      </trkpt>
      <trkpt lat="50.23754" lon="4.18272">
        <ele>179</ele>
        <time>2020-08-15T08:42:25Z</time>
      </trkpt>
      <trkpt lat="50.23764" lon="4.18291">
        <ele>181</ele>
        <time>2020-08-15T08:42:27Z</time>
      </trkpt>
      <trkpt lat="50.23771" lon="4.18308">
        <ele>181</ele>
        <time>2020-08-15T08:42:29Z</time>
      </trkpt>
      <trkpt lat="50.23777" lon="4.18324">
        <ele>182</ele>
        <time>2020-08-15T08:42:31Z</time>
      </trkpt>
      <trkpt lat="50.23781" lon="4.18337">
        <ele>182</ele>
        <time>2020-08-15T08:42:33Z</time>
      </trkpt>
      <trkpt lat="50.23788" lon="4.18345">
        <ele>182</ele>
        <time>2020-08-15T08:42:35Z</time>
      </trkpt>
      <trkpt lat="50.23795" lon="4.18348">
        <ele>182</ele>
        <time>2020-08-15T08:42:37Z</time>
      </trkpt>
      <trkpt lat="50.23801" lon="4.18349">
        <ele>182</ele>
        <time>2020-08-15T08:42:39Z</time>
      </trkpt>
      <trkpt lat="50.23805" lon="4.1835">
        <ele>182</ele>
        <time>2020-08-15T08:42:41Z</time>
      </trkpt>
      <trkpt lat="50.23809" lon="4.18351">
        <ele>182</ele>
        <time>2020-08-15T08:42:43Z</time>
      </trkpt>
      <trkpt lat="50.23814" lon="4.18348">
        <ele>182</ele>
        <time>2020-08-15T08:42:45Z</time>
      </trkpt>
      <trkpt lat="50.23819" lon="4.18342">
        <ele>184</ele>
        <time>2020-08-15T08:42:47Z</time>
      </trkpt>
      <trkpt lat="50.23821" lon="4.18335">
        <ele>184</ele>
        <time>2020-08-15T08:42:49Z</time>
      </trkpt>
      <trkpt lat="50.23824" lon="4.18324">
        <ele>184</ele>
        <time>2020-08-15T08:42:51Z</time>
      </trkpt>
      <trkpt lat="50.23829" lon="4.18314">
        <ele>183</ele>
        <time>2020-08-15T08:42:53Z</time>
      </trkpt>
      <trkpt lat="50.23834" lon="4.18303">
        <ele>183</ele>
        <time>2020-08-15T08:42:55Z</time>
      </trkpt>
      <trkpt lat="50.23838" lon="4.18293">
        <ele>183</ele>
        <time>2020-08-15T08:42:57Z</time>
      </trkpt>
      <trkpt lat="50.23843" lon="4.18284">
        <ele>183</ele>
        <time>2020-08-15T08:42:59Z</time>
      </trkpt>
      <trkpt lat="50.23846" lon="4.18277">
        <ele>183</ele>
        <time>2020-08-15T08:43:01Z</time>
      </trkpt>
      <trkpt lat="50.2385" lon="4.18268">
        <ele>181</ele>
        <time>2020-08-15T08:43:03Z</time>
      </trkpt>
      <trkpt lat="50.23853" lon="4.1826">
        <ele>182</ele>
        <time>2020-08-15T08:43:05Z</time>
      </trkpt>
      <trkpt lat="50.23856" lon="4.18252">
        <ele>182</ele>
        <time>2020-08-15T08:43:07Z</time>
      </trkpt>
      <trkpt lat="50.2386" lon="4.18243">
        <ele>182</ele>
        <time>2020-08-15T08:43:09Z</time>
      </trkpt>
      <trkpt lat="50.23864" lon="4.18235">
        <ele>181</ele>
        <time>2020-08-15T08:43:11Z</time>
      </trkpt>
      <trkpt lat="50.23868" lon="4.18226">
        <ele>181</ele>
        <time>2020-08-15T08:43:13Z</time>
      </trkpt>
      <trkpt lat="50.23872" lon="4.18218">
        <ele>181</ele>
        <time>2020-08-15T08:43:15Z</time>
      </trkpt>
      <trkpt lat="50.23875" lon="4.1821">
        <ele>180</ele>
        <time>2020-08-15T08:43:17Z</time>
      </trkpt>
      <trkpt lat="50.2388" lon="4.18201">
        <ele>179</ele>
        <time>2020-08-15T08:43:19Z</time>
      </trkpt>
      <trkpt lat="50.23884" lon="4.18192">
        <ele>179</ele>
        <time>2020-08-15T08:43:21Z</time>
      </trkpt>
      <trkpt lat="50.23888" lon="4.18183">
        <ele>179</ele>
        <time>2020-08-15T08:43:23Z</time>
      </trkpt>
      <trkpt lat="50.23892" lon="4.18174">
        <ele>178</ele>
        <time>2020-08-15T08:43:25Z</time>
      </trkpt>
      <trkpt lat="50.23896" lon="4.18164">
        <ele>178</ele>
        <time>2020-08-15T08:43:27Z</time>
      </trkpt>
      <trkpt lat="50.23901" lon="4.18154">
        <ele>178</ele>
        <time>2020-08-15T08:43:29Z</time>
      </trkpt>
      <trkpt lat="50.23905" lon="4.18144">
        <ele>176</ele>
        <time>2020-08-15T08:43:31Z</time>
      </trkpt>
      <trkpt lat="50.23909" lon="4.18135">
        <ele>176</ele>
        <time>2020-08-15T08:43:33Z</time>
      </trkpt>
      <trkpt lat="50.23913" lon="4.18124">
        <ele>175</ele>
        <time>2020-08-15T08:43:35Z</time>
      </trkpt>
      <trkpt lat="50.23918" lon="4.18113">
        <ele>175</ele>
        <time>2020-08-15T08:43:37Z</time>
      </trkpt>
      <trkpt lat="50.23922" lon="4.18102">
        <ele>175</ele>
        <time>2020-08-15T08:43:39Z</time>
      </trkpt>
      <trkpt lat="50.23928" lon="4.18089">
        <ele>175</ele>
        <time>2020-08-15T08:43:41Z</time>
      </trkpt>
      <trkpt lat="50.23933" lon="4.18077">
        <ele>173</ele>
        <time>2020-08-15T08:43:43Z</time>
      </trkpt>
      <trkpt lat="50.23938" lon="4.18066">
        <ele>173</ele>
        <time>2020-08-15T08:43:45Z</time>
      </trkpt>
      <trkpt lat="50.23946" lon="4.18048">
        <ele>173</ele>
        <time>2020-08-15T08:43:48Z</time>
      </trkpt>
      <trkpt lat="50.23951" lon="4.18037">
        <ele>174</ele>
        <time>2020-08-15T08:43:50Z</time>
      </trkpt>
      <trkpt lat="50.23956" lon="4.18025">
        <ele>174</ele>
        <time>2020-08-15T08:43:52Z</time>
      </trkpt>
      <trkpt lat="50.23961" lon="4.18013">
        <ele>175</ele>
        <time>2020-08-15T08:43:54Z</time>
      </trkpt>
      <trkpt lat="50.23966" lon="4.18001">
        <ele>175</ele>
        <time>2020-08-15T08:43:56Z</time>
      </trkpt>
      <trkpt lat="50.23971" lon="4.1799">
        <ele>175</ele>
        <time>2020-08-15T08:43:58Z</time>
      </trkpt>
      <trkpt lat="50.23976" lon="4.17981">
        <ele>175</ele>
        <time>2020-08-15T08:44:00Z</time>
      </trkpt>
      <trkpt lat="50.2398" lon="4.1797">
        <ele>175</ele>
        <time>2020-08-15T08:44:02Z</time>
      </trkpt>
      <trkpt lat="50.23985" lon="4.1796">
        <ele>175</ele>
        <time>2020-08-15T08:44:04Z</time>
      </trkpt>
      <trkpt lat="50.2399" lon="4.17949">
        <ele>175</ele>
        <time>2020-08-15T08:44:06Z</time>
      </trkpt>
      <trkpt lat="50.23994" lon="4.17939">
        <ele>175</ele>
        <time>2020-08-15T08:44:08Z</time>
      </trkpt>
      <trkpt lat="50.23999" lon="4.17928">
        <ele>175</ele>
        <time>2020-08-15T08:44:10Z</time>
      </trkpt>
      <trkpt lat="50.24003" lon="4.17916">
        <ele>175</ele>
        <time>2020-08-15T08:44:12Z</time>
      </trkpt>
      <trkpt lat="50.24007" lon="4.17905">
        <ele>175</ele>
        <time>2020-08-15T08:44:14Z</time>
      </trkpt>
      <trkpt lat="50.24011" lon="4.17892">
        <ele>175</ele>
        <time>2020-08-15T08:44:16Z</time>
      </trkpt>
      <trkpt lat="50.24014" lon="4.17879">
        <ele>175</ele>
        <time>2020-08-15T08:44:18Z</time>
      </trkpt>
      <trkpt lat="50.24017" lon="4.17866">
        <ele>175</ele>
        <time>2020-08-15T08:44:20Z</time>
      </trkpt>
      <trkpt lat="50.24019" lon="4.17851">
        <ele>175</ele>
        <time>2020-08-15T08:44:22Z</time>
      </trkpt>
      <trkpt lat="50.24022" lon="4.17837">
        <ele>174</ele>
        <time>2020-08-15T08:44:24Z</time>
      </trkpt>
      <trkpt lat="50.24024" lon="4.17823">
        <ele>174</ele>
        <time>2020-08-15T08:44:26Z</time>
      </trkpt>
      <trkpt lat="50.24027" lon="4.17809">
        <ele>175</ele>
        <time>2020-08-15T08:44:28Z</time>
      </trkpt>
      <trkpt lat="50.24028" lon="4.17797">
        <ele>175</ele>
        <time>2020-08-15T08:44:30Z</time>
      </trkpt>
      <trkpt lat="50.2403" lon="4.17783">
        <ele>173</ele>
        <time>2020-08-15T08:44:32Z</time>
      </trkpt>
      <trkpt lat="50.24032" lon="4.1777">
        <ele>173</ele>
        <time>2020-08-15T08:44:34Z</time>
      </trkpt>
      <trkpt lat="50.24034" lon="4.17757">
        <ele>173</ele>
        <time>2020-08-15T08:44:36Z</time>
      </trkpt>
      <trkpt lat="50.24037" lon="4.17743">
        <ele>173</ele>
        <time>2020-08-15T08:44:38Z</time>
      </trkpt>
      <trkpt lat="50.24041" lon="4.17729">
        <ele>173</ele>
        <time>2020-08-15T08:44:40Z</time>
      </trkpt>
      <trkpt lat="50.24045" lon="4.17714">
        <ele>172</ele>
        <time>2020-08-15T08:44:42Z</time>
      </trkpt>
      <trkpt lat="50.24049" lon="4.177">
        <ele>173</ele>
        <time>2020-08-15T08:44:44Z</time>
      </trkpt>
      <trkpt lat="50.2405" lon="4.17685">
        <ele>173</ele>
        <time>2020-08-15T08:44:46Z</time>
      </trkpt>
      <trkpt lat="50.24049" lon="4.17671">
        <ele>172</ele>
        <time>2020-08-15T08:44:48Z</time>
      </trkpt>
      <trkpt lat="50.24049" lon="4.17657">
        <ele>172</ele>
        <time>2020-08-15T08:44:50Z</time>
      </trkpt>
      <trkpt lat="50.24051" lon="4.17641">
        <ele>172</ele>
        <time>2020-08-15T08:44:52Z</time>
      </trkpt>
      <trkpt lat="50.24055" lon="4.17624">
        <ele>170</ele>
        <time>2020-08-15T08:44:54Z</time>
      </trkpt>
      <trkpt lat="50.2406" lon="4.17607">
        <ele>170</ele>
        <time>2020-08-15T08:44:56Z</time>
      </trkpt>
      <trkpt lat="50.24064" lon="4.17594">
        <ele>172</ele>
        <time>2020-08-15T08:44:58Z</time>
      </trkpt>
      <trkpt lat="50.24069" lon="4.17582">
        <ele>172</ele>
        <time>2020-08-15T08:45:00Z</time>
      </trkpt>
      <trkpt lat="50.24073" lon="4.1757">
        <ele>174</ele>
        <time>2020-08-15T08:45:02Z</time>
      </trkpt>
      <trkpt lat="50.24075" lon="4.17559">
        <ele>174</ele>
        <time>2020-08-15T08:45:04Z</time>
      </trkpt>
      <trkpt lat="50.24077" lon="4.17551">
        <ele>174</ele>
        <time>2020-08-15T08:45:06Z</time>
      </trkpt>
      <trkpt lat="50.24077" lon="4.17542">
        <ele>177</ele>
        <time>2020-08-15T08:45:08Z</time>
      </trkpt>
      <trkpt lat="50.24077" lon="4.17532">
        <ele>177</ele>
        <time>2020-08-15T08:45:10Z</time>
      </trkpt>
      <trkpt lat="50.24075" lon="4.17523">
        <ele>177</ele>
        <time>2020-08-15T08:45:12Z</time>
      </trkpt>
      <trkpt lat="50.24074" lon="4.17513">
        <ele>179</ele>
        <time>2020-08-15T08:45:14Z</time>
      </trkpt>
      <trkpt lat="50.24074" lon="4.17502">
        <ele>179</ele>
        <time>2020-08-15T08:45:16Z</time>
      </trkpt>
      <trkpt lat="50.24073" lon="4.17493">
        <ele>179</ele>
        <time>2020-08-15T08:45:18Z</time>
      </trkpt>
      <trkpt lat="50.24073" lon="4.17483">
        <ele>180</ele>
        <time>2020-08-15T08:45:20Z</time>
      </trkpt>
      <trkpt lat="50.24073" lon="4.17473">
        <ele>180</ele>
        <time>2020-08-15T08:45:22Z</time>
      </trkpt>
      <trkpt lat="50.24075" lon="4.17463">
        <ele>180</ele>
        <time>2020-08-15T08:45:24Z</time>
      </trkpt>
      <trkpt lat="50.24075" lon="4.17454">
        <ele>181</ele>
        <time>2020-08-15T08:45:26Z</time>
      </trkpt>
      <trkpt lat="50.24077" lon="4.17442">
        <ele>181</ele>
        <time>2020-08-15T08:45:28Z</time>
      </trkpt>
      <trkpt lat="50.24079" lon="4.17431">
        <ele>181</ele>
        <time>2020-08-15T08:45:30Z</time>
      </trkpt>
      <trkpt lat="50.24081" lon="4.1742">
        <ele>182</ele>
        <time>2020-08-15T08:45:32Z</time>
      </trkpt>
      <trkpt lat="50.24083" lon="4.17409">
        <ele>182</ele>
        <time>2020-08-15T08:45:34Z</time>
      </trkpt>
      <trkpt lat="50.24085" lon="4.17401">
        <ele>183</ele>
        <time>2020-08-15T08:45:36Z</time>
      </trkpt>
      <trkpt lat="50.24086" lon="4.17389">
        <ele>183</ele>
        <time>2020-08-15T08:45:38Z</time>
      </trkpt>
      <trkpt lat="50.24087" lon="4.17377">
        <ele>183</ele>
        <time>2020-08-15T08:45:40Z</time>
      </trkpt>
      <trkpt lat="50.24089" lon="4.17365">
        <ele>182</ele>
        <time>2020-08-15T08:45:42Z</time>
      </trkpt>
      <trkpt lat="50.24092" lon="4.17355">
        <ele>182</ele>
        <time>2020-08-15T08:45:44Z</time>
      </trkpt>
      <trkpt lat="50.24095" lon="4.17344">
        <ele>182</ele>
        <time>2020-08-15T08:45:46Z</time>
      </trkpt>
      <trkpt lat="50.24099" lon="4.17332">
        <ele>186</ele>
        <time>2020-08-15T08:45:48Z</time>
      </trkpt>
      <trkpt lat="50.24103" lon="4.17322">
        <ele>186</ele>
        <time>2020-08-15T08:45:50Z</time>
      </trkpt>
      <trkpt lat="50.24107" lon="4.17311">
        <ele>183</ele>
        <time>2020-08-15T08:45:52Z</time>
      </trkpt>
      <trkpt lat="50.24111" lon="4.173">
        <ele>183</ele>
        <time>2020-08-15T08:45:54Z</time>
      </trkpt>
      <trkpt lat="50.24115" lon="4.17289">
        <ele>183</ele>
        <time>2020-08-15T08:45:56Z</time>
      </trkpt>
      <trkpt lat="50.24119" lon="4.17278">
        <ele>183</ele>
        <time>2020-08-15T08:45:58Z</time>
      </trkpt>
      <trkpt lat="50.24123" lon="4.17266">
        <ele>183</ele>
        <time>2020-08-15T08:46:00Z</time>
      </trkpt>
      <trkpt lat="50.24127" lon="4.17255">
        <ele>185</ele>
        <time>2020-08-15T08:46:02Z</time>
      </trkpt>
      <trkpt lat="50.24131" lon="4.17243">
        <ele>185</ele>
        <time>2020-08-15T08:46:04Z</time>
      </trkpt>
      <trkpt lat="50.24135" lon="4.17232">
        <ele>185</ele>
        <time>2020-08-15T08:46:06Z</time>
      </trkpt>
      <trkpt lat="50.2414" lon="4.17221">
        <ele>185</ele>
        <time>2020-08-15T08:46:08Z</time>
      </trkpt>
      <trkpt lat="50.24144" lon="4.17211">
        <ele>185</ele>
        <time>2020-08-15T08:46:10Z</time>
      </trkpt>
      <trkpt lat="50.2415" lon="4.172">
        <ele>185</ele>
        <time>2020-08-15T08:46:12Z</time>
      </trkpt>
      <trkpt lat="50.24156" lon="4.17191">
        <ele>187</ele>
        <time>2020-08-15T08:46:14Z</time>
      </trkpt>
      <trkpt lat="50.24162" lon="4.17182">
        <ele>187</ele>
        <time>2020-08-15T08:46:16Z</time>
      </trkpt>
      <trkpt lat="50.24168" lon="4.17173">
        <ele>187</ele>
        <time>2020-08-15T08:46:18Z</time>
      </trkpt>
      <trkpt lat="50.24175" lon="4.17166">
        <ele>187</ele>
        <time>2020-08-15T08:46:20Z</time>
      </trkpt>
      <trkpt lat="50.24183" lon="4.1716">
        <ele>188</ele>
        <time>2020-08-15T08:46:22Z</time>
      </trkpt>
      <trkpt lat="50.2419" lon="4.17155">
        <ele>188</ele>
        <time>2020-08-15T08:46:24Z</time>
      </trkpt>
      <trkpt lat="50.24197" lon="4.1715">
        <ele>188</ele>
        <time>2020-08-15T08:46:26Z</time>
      </trkpt>
      <trkpt lat="50.24205" lon="4.17146">
        <ele>188</ele>
        <time>2020-08-15T08:46:28Z</time>
      </trkpt>
      <trkpt lat="50.24213" lon="4.17142">
        <ele>188</ele>
        <time>2020-08-15T08:46:30Z</time>
      </trkpt>
      <trkpt lat="50.24222" lon="4.17139">
        <ele>188</ele>
        <time>2020-08-15T08:46:32Z</time>
      </trkpt>
      <trkpt lat="50.2423" lon="4.17135">
        <ele>188</ele>
        <time>2020-08-15T08:46:34Z</time>
      </trkpt>
      <trkpt lat="50.24239" lon="4.17132">
        <ele>187</ele>
        <time>2020-08-15T08:46:36Z</time>
      </trkpt>
      <trkpt lat="50.24247" lon="4.1713">
        <ele>187</ele>
        <time>2020-08-15T08:46:38Z</time>
      </trkpt>
      <trkpt lat="50.24255" lon="4.17127">
        <ele>187</ele>
        <time>2020-08-15T08:46:40Z</time>
      </trkpt>
      <trkpt lat="50.24262" lon="4.17126">
        <ele>187</ele>
        <time>2020-08-15T08:46:42Z</time>
      </trkpt>
      <trkpt lat="50.24268" lon="4.17123">
        <ele>188</ele>
        <time>2020-08-15T08:46:44Z</time>
      </trkpt>
      <trkpt lat="50.24275" lon="4.17119">
        <ele>188</ele>
        <time>2020-08-15T08:46:46Z</time>
      </trkpt>
      <trkpt lat="50.24282" lon="4.17115">
        <ele>188</ele>
        <time>2020-08-15T08:46:48Z</time>
      </trkpt>
      <trkpt lat="50.24289" lon="4.17111">
        <ele>188</ele>
        <time>2020-08-15T08:46:50Z</time>
      </trkpt>
      <trkpt lat="50.24295" lon="4.17106">
        <ele>187</ele>
        <time>2020-08-15T08:46:52Z</time>
      </trkpt>
      <trkpt lat="50.24302" lon="4.17101">
        <ele>187</ele>
        <time>2020-08-15T08:46:54Z</time>
      </trkpt>
      <trkpt lat="50.24308" lon="4.17097">
        <ele>187</ele>
        <time>2020-08-15T08:46:56Z</time>
      </trkpt>
      <trkpt lat="50.24314" lon="4.17092">
        <ele>187</ele>
        <time>2020-08-15T08:46:58Z</time>
      </trkpt>
      <trkpt lat="50.24321" lon="4.17087">
        <ele>187</ele>
        <time>2020-08-15T08:47:00Z</time>
      </trkpt>
      <trkpt lat="50.24327" lon="4.17081">
        <ele>187</ele>
        <time>2020-08-15T08:47:02Z</time>
      </trkpt>
      <trkpt lat="50.24333" lon="4.17075">
        <ele>187</ele>
        <time>2020-08-15T08:47:04Z</time>
      </trkpt>
      <trkpt lat="50.2434" lon="4.17069">
        <ele>186</ele>
        <time>2020-08-15T08:47:06Z</time>
      </trkpt>
      <trkpt lat="50.24348" lon="4.17061">
        <ele>188</ele>
        <time>2020-08-15T08:47:08Z</time>
      </trkpt>
      <trkpt lat="50.24355" lon="4.17052">
        <ele>188</ele>
        <time>2020-08-15T08:47:10Z</time>
      </trkpt>
      <trkpt lat="50.24363" lon="4.17041">
        <ele>187</ele>
        <time>2020-08-15T08:47:12Z</time>
      </trkpt>
      <trkpt lat="50.24367" lon="4.17026">
        <ele>187</ele>
        <time>2020-08-15T08:47:14Z</time>
      </trkpt>
      <trkpt lat="50.24368" lon="4.17009">
        <ele>187</ele>
        <time>2020-08-15T08:47:16Z</time>
      </trkpt>
      <trkpt lat="50.2437" lon="4.16991">
        <ele>187</ele>
        <time>2020-08-15T08:47:18Z</time>
      </trkpt>
      <trkpt lat="50.24371" lon="4.16974">
        <ele>187</ele>
        <time>2020-08-15T08:47:20Z</time>
      </trkpt>
      <trkpt lat="50.24373" lon="4.16957">
        <ele>187</ele>
        <time>2020-08-15T08:47:22Z</time>
      </trkpt>
      <trkpt lat="50.24374" lon="4.16939">
        <ele>187</ele>
        <time>2020-08-15T08:47:24Z</time>
      </trkpt>
      <trkpt lat="50.24376" lon="4.16921">
        <ele>186</ele>
        <time>2020-08-15T08:47:26Z</time>
      </trkpt>
      <trkpt lat="50.24377" lon="4.16903">
        <ele>186</ele>
        <time>2020-08-15T08:47:28Z</time>
      </trkpt>
      <trkpt lat="50.24378" lon="4.16884">
        <ele>186</ele>
        <time>2020-08-15T08:47:30Z</time>
      </trkpt>
      <trkpt lat="50.24379" lon="4.16866">
        <ele>185</ele>
        <time>2020-08-15T08:47:32Z</time>
      </trkpt>
      <trkpt lat="50.2438" lon="4.1685">
        <ele>185</ele>
        <time>2020-08-15T08:47:34Z</time>
      </trkpt>
      <trkpt lat="50.24381" lon="4.16834">
        <ele>185</ele>
        <time>2020-08-15T08:47:36Z</time>
      </trkpt>
      <trkpt lat="50.24381" lon="4.16817">
        <ele>184</ele>
        <time>2020-08-15T08:47:38Z</time>
      </trkpt>
      <trkpt lat="50.24382" lon="4.16798">
        <ele>184</ele>
        <time>2020-08-15T08:47:40Z</time>
      </trkpt>
      <trkpt lat="50.24383" lon="4.16779">
        <ele>184</ele>
        <time>2020-08-15T08:47:42Z</time>
      </trkpt>
      <trkpt lat="50.24386" lon="4.1676">
        <ele>184</ele>
        <time>2020-08-15T08:47:44Z</time>
      </trkpt>
      <trkpt lat="50.24389" lon="4.1674">
        <ele>184</ele>
        <time>2020-08-15T08:47:46Z</time>
      </trkpt>
      <trkpt lat="50.24391" lon="4.16721">
        <ele>183</ele>
        <time>2020-08-15T08:47:48Z</time>
      </trkpt>
      <trkpt lat="50.24394" lon="4.167">
        <ele>182</ele>
        <time>2020-08-15T08:47:50Z</time>
      </trkpt>
      <trkpt lat="50.24396" lon="4.16679">
        <ele>182</ele>
        <time>2020-08-15T08:47:52Z</time>
      </trkpt>
      <trkpt lat="50.24399" lon="4.16656">
        <ele>182</ele>
        <time>2020-08-15T08:47:54Z</time>
      </trkpt>
      <trkpt lat="50.24402" lon="4.16634">
        <ele>181</ele>
        <time>2020-08-15T08:47:56Z</time>
      </trkpt>
      <trkpt lat="50.24404" lon="4.1661">
        <ele>181</ele>
        <time>2020-08-15T08:47:58Z</time>
      </trkpt>
      <trkpt lat="50.24406" lon="4.16587">
        <ele>180</ele>
        <time>2020-08-15T08:48:00Z</time>
      </trkpt>
      <trkpt lat="50.24409" lon="4.16564">
        <ele>180</ele>
        <time>2020-08-15T08:48:02Z</time>
      </trkpt>
      <trkpt lat="50.24412" lon="4.1654">
        <ele>179</ele>
        <time>2020-08-15T08:48:04Z</time>
      </trkpt>
      <trkpt lat="50.24415" lon="4.16516">
        <ele>179</ele>
        <time>2020-08-15T08:48:06Z</time>
      </trkpt>
      <trkpt lat="50.24418" lon="4.16492">
        <ele>178</ele>
        <time>2020-08-15T08:48:08Z</time>
      </trkpt>
      <trkpt lat="50.2442" lon="4.16468">
        <ele>178</ele>
        <time>2020-08-15T08:48:10Z</time>
      </trkpt>
      <trkpt lat="50.24423" lon="4.16443">
        <ele>178</ele>
        <time>2020-08-15T08:48:12Z</time>
      </trkpt>
      <trkpt lat="50.24426" lon="4.16419">
        <ele>177</ele>
        <time>2020-08-15T08:48:14Z</time>
      </trkpt>
      <trkpt lat="50.24429" lon="4.16394">
        <ele>176</ele>
        <time>2020-08-15T08:48:16Z</time>
      </trkpt>
      <trkpt lat="50.24432" lon="4.16368">
        <ele>174</ele>
        <time>2020-08-15T08:48:18Z</time>
      </trkpt>
      <trkpt lat="50.24436" lon="4.16341">
        <ele>174</ele>
        <time>2020-08-15T08:48:20Z</time>
      </trkpt>
      <trkpt lat="50.24439" lon="4.16315">
        <ele>172</ele>
        <time>2020-08-15T08:48:22Z</time>
      </trkpt>
      <trkpt lat="50.24443" lon="4.16287">
        <ele>173</ele>
        <time>2020-08-15T08:48:24Z</time>
      </trkpt>
      <trkpt lat="50.24448" lon="4.16259">
        <ele>172</ele>
        <time>2020-08-15T08:48:26Z</time>
      </trkpt>
      <trkpt lat="50.24452" lon="4.16231">
        <ele>173</ele>
        <time>2020-08-15T08:48:28Z</time>
      </trkpt>
      <trkpt lat="50.24457" lon="4.16202">
        <ele>173</ele>
        <time>2020-08-15T08:48:30Z</time>
      </trkpt>
      <trkpt lat="50.24461" lon="4.16174">
        <ele>173</ele>
        <time>2020-08-15T08:48:32Z</time>
      </trkpt>
      <trkpt lat="50.24466" lon="4.16146">
        <ele>173</ele>
        <time>2020-08-15T08:48:34Z</time>
      </trkpt>
      <trkpt lat="50.2447" lon="4.16118">
        <ele>172</ele>
        <time>2020-08-15T08:48:36Z</time>
      </trkpt>
      <trkpt lat="50.24474" lon="4.16093">
        <ele>172</ele>
        <time>2020-08-15T08:48:38Z</time>
      </trkpt>
      <trkpt lat="50.24477" lon="4.16069">
        <ele>171</ele>
        <time>2020-08-15T08:48:40Z</time>
      </trkpt>
      <trkpt lat="50.24481" lon="4.16047">
        <ele>171</ele>
        <time>2020-08-15T08:48:42Z</time>
      </trkpt>
      <trkpt lat="50.24485" lon="4.16025">
        <ele>171</ele>
        <time>2020-08-15T08:48:44Z</time>
      </trkpt>
      <trkpt lat="50.24489" lon="4.16004">
        <ele>170</ele>
        <time>2020-08-15T08:48:46Z</time>
      </trkpt>
      <trkpt lat="50.24492" lon="4.15984">
        <ele>170</ele>
        <time>2020-08-15T08:48:48Z</time>
      </trkpt>
      <trkpt lat="50.24495" lon="4.15963">
        <ele>170</ele>
        <time>2020-08-15T08:48:50Z</time>
      </trkpt>
      <trkpt lat="50.24498" lon="4.15942">
        <ele>170</ele>
        <time>2020-08-15T08:48:52Z</time>
      </trkpt>
      <trkpt lat="50.24501" lon="4.15921">
        <ele>169</ele>
        <time>2020-08-15T08:48:54Z</time>
      </trkpt>
      <trkpt lat="50.24504" lon="4.159">
        <ele>169</ele>
        <time>2020-08-15T08:48:56Z</time>
      </trkpt>
      <trkpt lat="50.24507" lon="4.15879">
        <ele>169</ele>
        <time>2020-08-15T08:48:58Z</time>
      </trkpt>
      <trkpt lat="50.24509" lon="4.15859">
        <ele>169</ele>
        <time>2020-08-15T08:49:00Z</time>
      </trkpt>
      <trkpt lat="50.24513" lon="4.15838">
        <ele>169</ele>
        <time>2020-08-15T08:49:02Z</time>
      </trkpt>
      <trkpt lat="50.24515" lon="4.15818">
        <ele>168</ele>
        <time>2020-08-15T08:49:04Z</time>
      </trkpt>
      <trkpt lat="50.24518" lon="4.15798">
        <ele>168</ele>
        <time>2020-08-15T08:49:06Z</time>
      </trkpt>
      <trkpt lat="50.24521" lon="4.15778">
        <ele>168</ele>
        <time>2020-08-15T08:49:08Z</time>
      </trkpt>
      <trkpt lat="50.24524" lon="4.15758">
        <ele>168</ele>
        <time>2020-08-15T08:49:10Z</time>
      </trkpt>
      <trkpt lat="50.24527" lon="4.15739">
        <ele>168</ele>
        <time>2020-08-15T08:49:12Z</time>
      </trkpt>
      <trkpt lat="50.24529" lon="4.1572">
        <ele>168</ele>
        <time>2020-08-15T08:49:14Z</time>
      </trkpt>
      <trkpt lat="50.24533" lon="4.15703">
        <ele>168</ele>
        <time>2020-08-15T08:49:16Z</time>
      </trkpt>
      <trkpt lat="50.24535" lon="4.15687">
        <ele>168</ele>
        <time>2020-08-15T08:49:18Z</time>
      </trkpt>
      <trkpt lat="50.24537" lon="4.15671">
        <ele>169</ele>
        <time>2020-08-15T08:49:20Z</time>
      </trkpt>
      <trkpt lat="50.24539" lon="4.15656">
        <ele>169</ele>
        <time>2020-08-15T08:49:22Z</time>
      </trkpt>
      <trkpt lat="50.2454" lon="4.1564">
        <ele>168</ele>
        <time>2020-08-15T08:49:24Z</time>
      </trkpt>
      <trkpt lat="50.24543" lon="4.15625">
        <ele>168</ele>
        <time>2020-08-15T08:49:26Z</time>
      </trkpt>
      <trkpt lat="50.24544" lon="4.15608">
        <ele>170</ele>
        <time>2020-08-15T08:49:28Z</time>
      </trkpt>
      <trkpt lat="50.24545" lon="4.1559">
        <ele>168</ele>
        <time>2020-08-15T08:49:30Z</time>
      </trkpt>
      <trkpt lat="50.24546" lon="4.15573">
        <ele>168</ele>
        <time>2020-08-15T08:49:32Z</time>
      </trkpt>
      <trkpt lat="50.24545" lon="4.15555">
        <ele>169</ele>
        <time>2020-08-15T08:49:34Z</time>
      </trkpt>
      <trkpt lat="50.24544" lon="4.15539">
        <ele>168</ele>
        <time>2020-08-15T08:49:36Z</time>
      </trkpt>
      <trkpt lat="50.24543" lon="4.15524">
        <ele>168</ele>
        <time>2020-08-15T08:49:38Z</time>
      </trkpt>
      <trkpt lat="50.24542" lon="4.15511">
        <ele>168</ele>
        <time>2020-08-15T08:49:40Z</time>
      </trkpt>
      <trkpt lat="50.24542" lon="4.15498">
        <ele>167</ele>
        <time>2020-08-15T08:49:42Z</time>
      </trkpt>
      <trkpt lat="50.24542" lon="4.15485">
        <ele>167</ele>
        <time>2020-08-15T08:49:44Z</time>
      </trkpt>
      <trkpt lat="50.24546" lon="4.15474">
        <ele>167</ele>
        <time>2020-08-15T08:49:46Z</time>
      </trkpt>
      <trkpt lat="50.24553" lon="4.1547">
        <ele>167</ele>
        <time>2020-08-15T08:49:48Z</time>
      </trkpt>
      <trkpt lat="50.24562" lon="4.15469">
        <ele>167</ele>
        <time>2020-08-15T08:49:50Z</time>
      </trkpt>
      <trkpt lat="50.24571" lon="4.15468">
        <ele>168</ele>
        <time>2020-08-15T08:49:52Z</time>
      </trkpt>
      <trkpt lat="50.24581" lon="4.15466">
        <ele>168</ele>
        <time>2020-08-15T08:49:54Z</time>
      </trkpt>
      <trkpt lat="50.24591" lon="4.15464">
        <ele>168</ele>
        <time>2020-08-15T08:49:56Z</time>
      </trkpt>
      <trkpt lat="50.24601" lon="4.15463">
        <ele>169</ele>
        <time>2020-08-15T08:49:58Z</time>
      </trkpt>
      <trkpt lat="50.24611" lon="4.1546">
        <ele>169</ele>
        <time>2020-08-15T08:50:00Z</time>
      </trkpt>
      <trkpt lat="50.24622" lon="4.15459">
        <ele>169</ele>
        <time>2020-08-15T08:50:02Z</time>
      </trkpt>
      <trkpt lat="50.24632" lon="4.15458">
        <ele>169</ele>
        <time>2020-08-15T08:50:04Z</time>
      </trkpt>
      <trkpt lat="50.24642" lon="4.15459">
        <ele>170</ele>
        <time>2020-08-15T08:50:06Z</time>
      </trkpt>
      <trkpt lat="50.24651" lon="4.15458">
        <ele>169</ele>
        <time>2020-08-15T08:50:08Z</time>
      </trkpt>
      <trkpt lat="50.2466" lon="4.15458">
        <ele>172</ele>
        <time>2020-08-15T08:50:10Z</time>
      </trkpt>
      <trkpt lat="50.24668" lon="4.15458">
        <ele>172</ele>
        <time>2020-08-15T08:50:12Z</time>
      </trkpt>
      <trkpt lat="50.24677" lon="4.15458">
        <ele>172</ele>
        <time>2020-08-15T08:50:14Z</time>
      </trkpt>
      <trkpt lat="50.24686" lon="4.15459">
        <ele>173</ele>
        <time>2020-08-15T08:50:16Z</time>
      </trkpt>
      <trkpt lat="50.24694" lon="4.15459">
        <ele>173</ele>
        <time>2020-08-15T08:50:18Z</time>
      </trkpt>
      <trkpt lat="50.24703" lon="4.15461">
        <ele>173</ele>
        <time>2020-08-15T08:50:20Z</time>
      </trkpt>
      <trkpt lat="50.2471" lon="4.15462">
        <ele>174</ele>
        <time>2020-08-15T08:50:22Z</time>
      </trkpt>
      <trkpt lat="50.24717" lon="4.15463">
        <ele>174</ele>
        <time>2020-08-15T08:50:24Z</time>
      </trkpt>
      <trkpt lat="50.24723" lon="4.15468">
        <ele>174</ele>
        <time>2020-08-15T08:50:26Z</time>
      </trkpt>
      <trkpt lat="50.24724" lon="4.15476">
        <ele>174</ele>
        <time>2020-08-15T08:50:28Z</time>
      </trkpt>
      <trkpt lat="50.24724" lon="4.15486">
        <ele>174</ele>
        <time>2020-08-15T08:50:30Z</time>
      </trkpt>
      <trkpt lat="50.24723" lon="4.15497">
        <ele>174</ele>
        <time>2020-08-15T08:50:32Z</time>
      </trkpt>
      <trkpt lat="50.24723" lon="4.15508">
        <ele>174</ele>
        <time>2020-08-15T08:50:34Z</time>
      </trkpt>
      <trkpt lat="50.24723" lon="4.15519">
        <ele>175</ele>
        <time>2020-08-15T08:50:36Z</time>
      </trkpt>
      <trkpt lat="50.24723" lon="4.1553">
        <ele>175</ele>
        <time>2020-08-15T08:50:38Z</time>
      </trkpt>
      <trkpt lat="50.24722" lon="4.15543">
        <ele>175</ele>
        <time>2020-08-15T08:50:40Z</time>
      </trkpt>
      <trkpt lat="50.24721" lon="4.15556">
        <ele>175</ele>
        <time>2020-08-15T08:50:42Z</time>
      </trkpt>
      <trkpt lat="50.24721" lon="4.1557">
        <ele>176</ele>
        <time>2020-08-15T08:50:44Z</time>
      </trkpt>
      <trkpt lat="50.2472" lon="4.15584">
        <ele>176</ele>
        <time>2020-08-15T08:50:46Z</time>
      </trkpt>
      <trkpt lat="50.2472" lon="4.15597">
        <ele>176</ele>
        <time>2020-08-15T08:50:48Z</time>
      </trkpt>
      <trkpt lat="50.24719" lon="4.1561">
        <ele>176</ele>
        <time>2020-08-15T08:50:50Z</time>
      </trkpt>
      <trkpt lat="50.24718" lon="4.15625">
        <ele>176</ele>
        <time>2020-08-15T08:50:52Z</time>
      </trkpt>
      <trkpt lat="50.24719" lon="4.15639">
        <ele>176</ele>
        <time>2020-08-15T08:50:54Z</time>
      </trkpt>
      <trkpt lat="50.24721" lon="4.15653">
        <ele>176</ele>
        <time>2020-08-15T08:50:56Z</time>
      </trkpt>
      <trkpt lat="50.24725" lon="4.15665">
        <ele>177</ele>
        <time>2020-08-15T08:50:58Z</time>
      </trkpt>
      <trkpt lat="50.24729" lon="4.15677">
        <ele>177</ele>
        <time>2020-08-15T08:51:00Z</time>
      </trkpt>
      <trkpt lat="50.24733" lon="4.1569">
        <ele>176</ele>
        <time>2020-08-15T08:51:02Z</time>
      </trkpt>
      <trkpt lat="50.24735" lon="4.15703">
        <ele>176</ele>
        <time>2020-08-15T08:51:04Z</time>
      </trkpt>
      <trkpt lat="50.24736" lon="4.15717">
        <ele>176</ele>
        <time>2020-08-15T08:51:06Z</time>
      </trkpt>
      <trkpt lat="50.24736" lon="4.15731">
        <ele>176</ele>
        <time>2020-08-15T08:51:08Z</time>
      </trkpt>
      <trkpt lat="50.24737" lon="4.15745">
        <ele>177</ele>
        <time>2020-08-15T08:51:10Z</time>
      </trkpt>
      <trkpt lat="50.24738" lon="4.15759">
        <ele>177</ele>
        <time>2020-08-15T08:51:12Z</time>
      </trkpt>
      <trkpt lat="50.24739" lon="4.15774">
        <ele>176</ele>
        <time>2020-08-15T08:51:14Z</time>
      </trkpt>
      <trkpt lat="50.2474" lon="4.15789">
        <ele>176</ele>
        <time>2020-08-15T08:51:16Z</time>
      </trkpt>
      <trkpt lat="50.24741" lon="4.15804">
        <ele>177</ele>
        <time>2020-08-15T08:51:18Z</time>
      </trkpt>
      <trkpt lat="50.24743" lon="4.15819">
        <ele>177</ele>
        <time>2020-08-15T08:51:20Z</time>
      </trkpt>
      <trkpt lat="50.24744" lon="4.15834">
        <ele>178</ele>
        <time>2020-08-15T08:51:22Z</time>
      </trkpt>
      <trkpt lat="50.24744" lon="4.1585">
        <ele>178</ele>
        <time>2020-08-15T08:51:24Z</time>
      </trkpt>
      <trkpt lat="50.24746" lon="4.15865">
        <ele>178</ele>
        <time>2020-08-15T08:51:26Z</time>
      </trkpt>
      <trkpt lat="50.24746" lon="4.15881">
        <ele>180</ele>
        <time>2020-08-15T08:51:28Z</time>
      </trkpt>
      <trkpt lat="50.24746" lon="4.15897">
        <ele>180</ele>
        <time>2020-08-15T08:51:30Z</time>
      </trkpt>
      <trkpt lat="50.24746" lon="4.15912">
        <ele>179</ele>
        <time>2020-08-15T08:51:32Z</time>
      </trkpt>
      <trkpt lat="50.24745" lon="4.15928">
        <ele>179</ele>
        <time>2020-08-15T08:51:34Z</time>
      </trkpt>
      <trkpt lat="50.24745" lon="4.15944">
        <ele>180</ele>
        <time>2020-08-15T08:51:36Z</time>
      </trkpt>
      <trkpt lat="50.24746" lon="4.15961">
        <ele>179</ele>
        <time>2020-08-15T08:51:38Z</time>
      </trkpt>
      <trkpt lat="50.24748" lon="4.15977">
        <ele>179</ele>
        <time>2020-08-15T08:51:40Z</time>
      </trkpt>
      <trkpt lat="50.24751" lon="4.15992">
        <ele>179</ele>
        <time>2020-08-15T08:51:42Z</time>
      </trkpt>
      <trkpt lat="50.24756" lon="4.16006">
        <ele>179</ele>
        <time>2020-08-15T08:51:44Z</time>
      </trkpt>
      <trkpt lat="50.2476" lon="4.1602">
        <ele>179</ele>
        <time>2020-08-15T08:51:46Z</time>
      </trkpt>
      <trkpt lat="50.24764" lon="4.16033">
        <ele>181</ele>
        <time>2020-08-15T08:51:48Z</time>
      </trkpt>
      <trkpt lat="50.2477" lon="4.16046">
        <ele>180</ele>
        <time>2020-08-15T08:51:50Z</time>
      </trkpt>
      <trkpt lat="50.24773" lon="4.1606">
        <ele>180</ele>
        <time>2020-08-15T08:51:52Z</time>
      </trkpt>
      <trkpt lat="50.24777" lon="4.16074">
        <ele>181</ele>
        <time>2020-08-15T08:51:54Z</time>
      </trkpt>
      <trkpt lat="50.2478" lon="4.16088">
        <ele>181</ele>
        <time>2020-08-15T08:51:56Z</time>
      </trkpt>
      <trkpt lat="50.24783" lon="4.16104">
        <ele>180</ele>
        <time>2020-08-15T08:51:58Z</time>
      </trkpt>
      <trkpt lat="50.24785" lon="4.16118">
        <ele>180</ele>
        <time>2020-08-15T08:52:00Z</time>
      </trkpt>
      <trkpt lat="50.24787" lon="4.16131">
        <ele>181</ele>
        <time>2020-08-15T08:52:02Z</time>
      </trkpt>
      <trkpt lat="50.2479" lon="4.16143">
        <ele>181</ele>
        <time>2020-08-15T08:52:04Z</time>
      </trkpt>
      <trkpt lat="50.24794" lon="4.16157">
        <ele>184</ele>
        <time>2020-08-15T08:52:06Z</time>
      </trkpt>
      <trkpt lat="50.24797" lon="4.16171">
        <ele>184</ele>
        <time>2020-08-15T08:52:08Z</time>
      </trkpt>
      <trkpt lat="50.24801" lon="4.16185">
        <ele>184</ele>
        <time>2020-08-15T08:52:10Z</time>
      </trkpt>
      <trkpt lat="50.24804" lon="4.16198">
        <ele>184</ele>
        <time>2020-08-15T08:52:12Z</time>
      </trkpt>
      <trkpt lat="50.24807" lon="4.16211">
        <ele>184</ele>
        <time>2020-08-15T08:52:14Z</time>
      </trkpt>
      <trkpt lat="50.24811" lon="4.16224">
        <ele>184</ele>
        <time>2020-08-15T08:52:16Z</time>
      </trkpt>
      <trkpt lat="50.24814" lon="4.16237">
        <ele>184</ele>
        <time>2020-08-15T08:52:18Z</time>
      </trkpt>
      <trkpt lat="50.24818" lon="4.1625">
        <ele>184</ele>
        <time>2020-08-15T08:52:20Z</time>
      </trkpt>
      <trkpt lat="50.24822" lon="4.16262">
        <ele>186</ele>
        <time>2020-08-15T08:52:22Z</time>
      </trkpt>
      <trkpt lat="50.24826" lon="4.16273">
        <ele>186</ele>
        <time>2020-08-15T08:52:24Z</time>
      </trkpt>
      <trkpt lat="50.24831" lon="4.16283">
        <ele>186</ele>
        <time>2020-08-15T08:52:26Z</time>
      </trkpt>
      <trkpt lat="50.24835" lon="4.16294">
        <ele>186</ele>
        <time>2020-08-15T08:52:28Z</time>
      </trkpt>
      <trkpt lat="50.24839" lon="4.16304">
        <ele>186</ele>
        <time>2020-08-15T08:52:30Z</time>
      </trkpt>
      <trkpt lat="50.24842" lon="4.16314">
        <ele>186</ele>
        <time>2020-08-15T08:52:32Z</time>
      </trkpt>
      <trkpt lat="50.24846" lon="4.16322">
        <ele>187</ele>
        <time>2020-08-15T08:52:34Z</time>
      </trkpt>
      <trkpt lat="50.24849" lon="4.16328">
        <ele>190</ele>
        <time>2020-08-15T08:52:36Z</time>
      </trkpt>
      <trkpt lat="50.24852" lon="4.16334">
        <ele>190</ele>
        <time>2020-08-15T08:52:38Z</time>
      </trkpt>
      <trkpt lat="50.24856" lon="4.1634">
        <ele>190</ele>
        <time>2020-08-15T08:52:40Z</time>
      </trkpt>
      <trkpt lat="50.24859" lon="4.16346">
        <ele>190</ele>
        <time>2020-08-15T08:52:42Z</time>
      </trkpt>
      <trkpt lat="50.24863" lon="4.16352">
        <ele>190</ele>
        <time>2020-08-15T08:52:44Z</time>
      </trkpt>
      <trkpt lat="50.24867" lon="4.16357">
        <ele>190</ele>
        <time>2020-08-15T08:52:46Z</time>
      </trkpt>
      <trkpt lat="50.24871" lon="4.16363">
        <ele>190</ele>
        <time>2020-08-15T08:52:48Z</time>
      </trkpt>
      <trkpt lat="50.24874" lon="4.16369">
        <ele>190</ele>
        <time>2020-08-15T08:52:50Z</time>
      </trkpt>
      <trkpt lat="50.24877" lon="4.16374">
        <ele>192</ele>
        <time>2020-08-15T08:52:52Z</time>
      </trkpt>
      <trkpt lat="50.2488" lon="4.1638">
        <ele>193</ele>
        <time>2020-08-15T08:52:54Z</time>
      </trkpt>
      <trkpt lat="50.24884" lon="4.16385">
        <ele>193</ele>
        <time>2020-08-15T08:52:56Z</time>
      </trkpt>
      <trkpt lat="50.24887" lon="4.1639">
        <ele>193</ele>
        <time>2020-08-15T08:52:58Z</time>
      </trkpt>
      <trkpt lat="50.24891" lon="4.16395">
        <ele>193</ele>
        <time>2020-08-15T08:53:00Z</time>
      </trkpt>
      <trkpt lat="50.24894" lon="4.164">
        <ele>193</ele>
        <time>2020-08-15T08:53:02Z</time>
      </trkpt>
      <trkpt lat="50.24897" lon="4.16405">
        <ele>194</ele>
        <time>2020-08-15T08:53:04Z</time>
      </trkpt>
      <trkpt lat="50.24901" lon="4.1641">
        <ele>194</ele>
        <time>2020-08-15T08:53:06Z</time>
      </trkpt>
      <trkpt lat="50.24904" lon="4.16416">
        <ele>196</ele>
        <time>2020-08-15T08:53:08Z</time>
      </trkpt>
      <trkpt lat="50.24907" lon="4.16422">
        <ele>196</ele>
        <time>2020-08-15T08:53:10Z</time>
      </trkpt>
      <trkpt lat="50.2491" lon="4.16427">
        <ele>196</ele>
        <time>2020-08-15T08:53:12Z</time>
      </trkpt>
      <trkpt lat="50.24914" lon="4.16433">
        <ele>197</ele>
        <time>2020-08-15T08:53:14Z</time>
      </trkpt>
      <trkpt lat="50.24917" lon="4.16437">
        <ele>197</ele>
        <time>2020-08-15T08:53:16Z</time>
      </trkpt>
      <trkpt lat="50.2492" lon="4.16442">
        <ele>197</ele>
        <time>2020-08-15T08:53:18Z</time>
      </trkpt>
      <trkpt lat="50.24923" lon="4.16448">
        <ele>197</ele>
        <time>2020-08-15T08:53:20Z</time>
      </trkpt>
      <trkpt lat="50.24927" lon="4.16453">
        <ele>197</ele>
        <time>2020-08-15T08:53:22Z</time>
      </trkpt>
      <trkpt lat="50.2493" lon="4.16458">
        <ele>197</ele>
        <time>2020-08-15T08:53:24Z</time>
      </trkpt>
      <trkpt lat="50.24934" lon="4.16463">
        <ele>201</ele>
        <time>2020-08-15T08:53:26Z</time>
      </trkpt>
      <trkpt lat="50.24938" lon="4.16467">
        <ele>201</ele>
        <time>2020-08-15T08:53:28Z</time>
      </trkpt>
      <trkpt lat="50.24941" lon="4.16472">
        <ele>201</ele>
        <time>2020-08-15T08:53:30Z</time>
      </trkpt>
      <trkpt lat="50.24945" lon="4.16477">
        <ele>201</ele>
        <time>2020-08-15T08:53:32Z</time>
      </trkpt>
      <trkpt lat="50.2495" lon="4.16481">
        <ele>201</ele>
        <time>2020-08-15T08:53:34Z</time>
      </trkpt>
      <trkpt lat="50.24954" lon="4.16485">
        <ele>201</ele>
        <time>2020-08-15T08:53:36Z</time>
      </trkpt>
      <trkpt lat="50.24958" lon="4.16488">
        <ele>204</ele>
        <time>2020-08-15T08:53:38Z</time>
      </trkpt>
      <trkpt lat="50.24963" lon="4.16491">
        <ele>204</ele>
        <time>2020-08-15T08:53:40Z</time>
      </trkpt>
      <trkpt lat="50.24967" lon="4.16495">
        <ele>204</ele>
        <time>2020-08-15T08:53:42Z</time>
      </trkpt>
      <trkpt lat="50.24971" lon="4.16498">
        <ele>204</ele>
        <time>2020-08-15T08:53:44Z</time>
      </trkpt>
      <trkpt lat="50.24976" lon="4.16502">
        <ele>204</ele>
        <time>2020-08-15T08:53:46Z</time>
      </trkpt>
      <trkpt lat="50.24981" lon="4.16505">
        <ele>204</ele>
        <time>2020-08-15T08:53:48Z</time>
      </trkpt>
      <trkpt lat="50.24986" lon="4.16509">
        <ele>206</ele>
        <time>2020-08-15T08:53:50Z</time>
      </trkpt>
      <trkpt lat="50.24991" lon="4.16512">
        <ele>206</ele>
        <time>2020-08-15T08:53:52Z</time>
      </trkpt>
      <trkpt lat="50.24995" lon="4.16516">
        <ele>206</ele>
        <time>2020-08-15T08:53:54Z</time>
      </trkpt>
      <trkpt lat="50.25" lon="4.16519">
        <ele>206</ele>
        <time>2020-08-15T08:53:56Z</time>
      </trkpt>
      <trkpt lat="50.25005" lon="4.16521">
        <ele>206</ele>
        <time>2020-08-15T08:53:58Z</time>
      </trkpt>
      <trkpt lat="50.2501" lon="4.16524">
        <ele>206</ele>
        <time>2020-08-15T08:54:00Z</time>
      </trkpt>
      <trkpt lat="50.25015" lon="4.16526">
        <ele>207</ele>
        <time>2020-08-15T08:54:02Z</time>
      </trkpt>
      <trkpt lat="50.25021" lon="4.16529">
        <ele>207</ele>
        <time>2020-08-15T08:54:04Z</time>
      </trkpt>
      <trkpt lat="50.25026" lon="4.16531">
        <ele>207</ele>
        <time>2020-08-15T08:54:06Z</time>
      </trkpt>
      <trkpt lat="50.25032" lon="4.16533">
        <ele>207</ele>
        <time>2020-08-15T08:54:08Z</time>
      </trkpt>
      <trkpt lat="50.25037" lon="4.16535">
        <ele>207</ele>
        <time>2020-08-15T08:54:10Z</time>
      </trkpt>
      <trkpt lat="50.25043" lon="4.16537">
        <ele>208</ele>
        <time>2020-08-15T08:54:12Z</time>
      </trkpt>
      <trkpt lat="50.25048" lon="4.16538">
        <ele>208</ele>
        <time>2020-08-15T08:54:14Z</time>
      </trkpt>
      <trkpt lat="50.25054" lon="4.1654">
        <ele>208</ele>
        <time>2020-08-15T08:54:16Z</time>
      </trkpt>
      <trkpt lat="50.2506" lon="4.16541">
        <ele>208</ele>
        <time>2020-08-15T08:54:18Z</time>
      </trkpt>
      <trkpt lat="50.25066" lon="4.16543">
        <ele>208</ele>
        <time>2020-08-15T08:54:20Z</time>
      </trkpt>
      <trkpt lat="50.25071" lon="4.16543">
        <ele>209</ele>
        <time>2020-08-15T08:54:22Z</time>
      </trkpt>
      <trkpt lat="50.25078" lon="4.16544">
        <ele>209</ele>
        <time>2020-08-15T08:54:24Z</time>
      </trkpt>
      <trkpt lat="50.25084" lon="4.16545">
        <ele>209</ele>
        <time>2020-08-15T08:54:26Z</time>
      </trkpt>
      <trkpt lat="50.25091" lon="4.16546">
        <ele>209</ele>
        <time>2020-08-15T08:54:28Z</time>
      </trkpt>
      <trkpt lat="50.25098" lon="4.16547">
        <ele>210</ele>
        <time>2020-08-15T08:54:30Z</time>
      </trkpt>
      <trkpt lat="50.25105" lon="4.16548">
        <ele>210</ele>
        <time>2020-08-15T08:54:32Z</time>
      </trkpt>
      <trkpt lat="50.25112" lon="4.16548">
        <ele>210</ele>
        <time>2020-08-15T08:54:34Z</time>
      </trkpt>
      <trkpt lat="50.25119" lon="4.16549">
        <ele>210</ele>
        <time>2020-08-15T08:54:36Z</time>
      </trkpt>
      <trkpt lat="50.25126" lon="4.1655">
        <ele>210</ele>
        <time>2020-08-15T08:54:38Z</time>
      </trkpt>
      <trkpt lat="50.25133" lon="4.16551">
        <ele>210</ele>
        <time>2020-08-15T08:54:40Z</time>
      </trkpt>
      <trkpt lat="50.2514" lon="4.16552">
        <ele>210</ele>
        <time>2020-08-15T08:54:42Z</time>
      </trkpt>
      <trkpt lat="50.25148" lon="4.16552">
        <ele>210</ele>
        <time>2020-08-15T08:54:44Z</time>
      </trkpt>
      <trkpt lat="50.25156" lon="4.16554">
        <ele>210</ele>
        <time>2020-08-15T08:54:46Z</time>
      </trkpt>
      <trkpt lat="50.25163" lon="4.16555">
        <ele>210</ele>
        <time>2020-08-15T08:54:48Z</time>
      </trkpt>
      <trkpt lat="50.2517" lon="4.16556">
        <ele>210</ele>
        <time>2020-08-15T08:54:50Z</time>
      </trkpt>
      <trkpt lat="50.25178" lon="4.16556">
        <ele>210</ele>
        <time>2020-08-15T08:54:52Z</time>
      </trkpt>
      <trkpt lat="50.25185" lon="4.16557">
        <ele>211</ele>
        <time>2020-08-15T08:54:54Z</time>
      </trkpt>
      <trkpt lat="50.25193" lon="4.16558">
        <ele>211</ele>
        <time>2020-08-15T08:54:56Z</time>
      </trkpt>
      <trkpt lat="50.25201" lon="4.1656">
        <ele>211</ele>
        <time>2020-08-15T08:54:58Z</time>
      </trkpt>
      <trkpt lat="50.25209" lon="4.16561">
        <ele>211</ele>
        <time>2020-08-15T08:55:00Z</time>
      </trkpt>
      <trkpt lat="50.25218" lon="4.16562">
        <ele>211</ele>
        <time>2020-08-15T08:55:02Z</time>
      </trkpt>
      <trkpt lat="50.25228" lon="4.16564">
        <ele>211</ele>
        <time>2020-08-15T08:55:04Z</time>
      </trkpt>
      <trkpt lat="50.25238" lon="4.16566">
        <ele>211</ele>
        <time>2020-08-15T08:55:06Z</time>
      </trkpt>
      <trkpt lat="50.25248" lon="4.16567">
        <ele>211</ele>
        <time>2020-08-15T08:55:08Z</time>
      </trkpt>
      <trkpt lat="50.25256" lon="4.16568">
        <ele>211</ele>
        <time>2020-08-15T08:55:10Z</time>
      </trkpt>
      <trkpt lat="50.25264" lon="4.1657">
        <ele>211</ele>
        <time>2020-08-15T08:55:12Z</time>
      </trkpt>
      <trkpt lat="50.25273" lon="4.16572">
        <ele>211</ele>
        <time>2020-08-15T08:55:14Z</time>
      </trkpt>
      <trkpt lat="50.25281" lon="4.16573">
        <ele>211</ele>
        <time>2020-08-15T08:55:16Z</time>
      </trkpt>
      <trkpt lat="50.2529" lon="4.16575">
        <ele>211</ele>
        <time>2020-08-15T08:55:18Z</time>
      </trkpt>
      <trkpt lat="50.25298" lon="4.16576">
        <ele>212</ele>
        <time>2020-08-15T08:55:20Z</time>
      </trkpt>
      <trkpt lat="50.25307" lon="4.16578">
        <ele>212</ele>
        <time>2020-08-15T08:55:22Z</time>
      </trkpt>
      <trkpt lat="50.25316" lon="4.1658">
        <ele>212</ele>
        <time>2020-08-15T08:55:24Z</time>
      </trkpt>
      <trkpt lat="50.25324" lon="4.16582">
        <ele>212</ele>
        <time>2020-08-15T08:55:26Z</time>
      </trkpt>
      <trkpt lat="50.25333" lon="4.16584">
        <ele>212</ele>
        <time>2020-08-15T08:55:28Z</time>
      </trkpt>
      <trkpt lat="50.25341" lon="4.16585">
        <ele>212</ele>
        <time>2020-08-15T08:55:30Z</time>
      </trkpt>
      <trkpt lat="50.25349" lon="4.16586">
        <ele>212</ele>
        <time>2020-08-15T08:55:32Z</time>
      </trkpt>
      <trkpt lat="50.25357" lon="4.16587">
        <ele>212</ele>
        <time>2020-08-15T08:55:34Z</time>
      </trkpt>
      <trkpt lat="50.25365" lon="4.16588">
        <ele>212</ele>
        <time>2020-08-15T08:55:36Z</time>
      </trkpt>
      <trkpt lat="50.25374" lon="4.16589">
        <ele>212</ele>
        <time>2020-08-15T08:55:38Z</time>
      </trkpt>
      <trkpt lat="50.25382" lon="4.16589">
        <ele>211</ele>
        <time>2020-08-15T08:55:40Z</time>
      </trkpt>
      <trkpt lat="50.25392" lon="4.1659">
        <ele>211</ele>
        <time>2020-08-15T08:55:42Z</time>
      </trkpt>
      <trkpt lat="50.25401" lon="4.16592">
        <ele>211</ele>
        <time>2020-08-15T08:55:44Z</time>
      </trkpt>
      <trkpt lat="50.25411" lon="4.16594">
        <ele>210</ele>
        <time>2020-08-15T08:55:46Z</time>
      </trkpt>
      <trkpt lat="50.2542" lon="4.16596">
        <ele>210</ele>
        <time>2020-08-15T08:55:48Z</time>
      </trkpt>
      <trkpt lat="50.25429" lon="4.16597">
        <ele>210</ele>
        <time>2020-08-15T08:55:50Z</time>
      </trkpt>
      <trkpt lat="50.25439" lon="4.16599">
        <ele>211</ele>
        <time>2020-08-15T08:55:52Z</time>
      </trkpt>
      <trkpt lat="50.25449" lon="4.166">
        <ele>211</ele>
        <time>2020-08-15T08:55:54Z</time>
      </trkpt>
      <trkpt lat="50.25459" lon="4.166">
        <ele>209</ele>
        <time>2020-08-15T08:55:56Z</time>
      </trkpt>
      <trkpt lat="50.2547" lon="4.16601">
        <ele>209</ele>
        <time>2020-08-15T08:55:58Z</time>
      </trkpt>
      <trkpt lat="50.25481" lon="4.16602">
        <ele>209</ele>
        <time>2020-08-15T08:56:00Z</time>
      </trkpt>
      <trkpt lat="50.25493" lon="4.16603">
        <ele>207</ele>
        <time>2020-08-15T08:56:02Z</time>
      </trkpt>
      <trkpt lat="50.25505" lon="4.16605">
        <ele>207</ele>
        <time>2020-08-15T08:56:04Z</time>
      </trkpt>
      <trkpt lat="50.25518" lon="4.16607">
        <ele>207</ele>
        <time>2020-08-15T08:56:06Z</time>
      </trkpt>
      <trkpt lat="50.2553" lon="4.16609">
        <ele>207</ele>
        <time>2020-08-15T08:56:08Z</time>
      </trkpt>
      <trkpt lat="50.25543" lon="4.1661">
        <ele>207</ele>
        <time>2020-08-15T08:56:10Z</time>
      </trkpt>
      <trkpt lat="50.25555" lon="4.16612">
        <ele>207</ele>
        <time>2020-08-15T08:56:12Z</time>
      </trkpt>
      <trkpt lat="50.25567" lon="4.16614">
        <ele>207</ele>
        <time>2020-08-15T08:56:14Z</time>
      </trkpt>
      <trkpt lat="50.25579" lon="4.16617">
        <ele>207</ele>
        <time>2020-08-15T08:56:16Z</time>
      </trkpt>
      <trkpt lat="50.2559" lon="4.16619">
        <ele>207</ele>
        <time>2020-08-15T08:56:18Z</time>
      </trkpt>
      <trkpt lat="50.25601" lon="4.16622">
        <ele>206</ele>
        <time>2020-08-15T08:56:20Z</time>
      </trkpt>
      <trkpt lat="50.25613" lon="4.16625">
        <ele>207</ele>
        <time>2020-08-15T08:56:22Z</time>
      </trkpt>
      <trkpt lat="50.25623" lon="4.16629">
        <ele>207</ele>
        <time>2020-08-15T08:56:24Z</time>
      </trkpt>
      <trkpt lat="50.25633" lon="4.16633">
        <ele>206</ele>
        <time>2020-08-15T08:56:26Z</time>
      </trkpt>
      <trkpt lat="50.25642" lon="4.1664">
        <ele>206</ele>
        <time>2020-08-15T08:56:28Z</time>
      </trkpt>
      <trkpt lat="50.25648" lon="4.16651">
        <ele>206</ele>
        <time>2020-08-15T08:56:30Z</time>
      </trkpt>
      <trkpt lat="50.25652" lon="4.16663">
        <ele>206</ele>
        <time>2020-08-15T08:56:32Z</time>
      </trkpt>
      <trkpt lat="50.25657" lon="4.16673">
        <ele>206</ele>
        <time>2020-08-15T08:56:34Z</time>
      </trkpt>
      <trkpt lat="50.25661" lon="4.16681">
        <ele>205</ele>
        <time>2020-08-15T08:56:36Z</time>
      </trkpt>
      <trkpt lat="50.25666" lon="4.16686">
        <ele>205</ele>
        <time>2020-08-15T08:56:38Z</time>
      </trkpt>
      <trkpt lat="50.2567" lon="4.16692">
        <ele>205</ele>
        <time>2020-08-15T08:56:40Z</time>
      </trkpt>
      <trkpt lat="50.25674" lon="4.16698">
        <ele>205</ele>
        <time>2020-08-15T08:56:42Z</time>
      </trkpt>
      <trkpt lat="50.25678" lon="4.16703">
        <ele>205</ele>
        <time>2020-08-15T08:56:44Z</time>
      </trkpt>
      <trkpt lat="50.25683" lon="4.16709">
        <ele>204</ele>
        <time>2020-08-15T08:56:46Z</time>
      </trkpt>
      <trkpt lat="50.25687" lon="4.16715">
        <ele>204</ele>
        <time>2020-08-15T08:56:48Z</time>
      </trkpt>
      <trkpt lat="50.25692" lon="4.16722">
        <ele>204</ele>
        <time>2020-08-15T08:56:50Z</time>
      </trkpt>
      <trkpt lat="50.25698" lon="4.16729">
        <ele>204</ele>
        <time>2020-08-15T08:56:52Z</time>
      </trkpt>
      <trkpt lat="50.25704" lon="4.16737">
        <ele>205</ele>
        <time>2020-08-15T08:56:54Z</time>
      </trkpt>
      <trkpt lat="50.25711" lon="4.16746">
        <ele>205</ele>
        <time>2020-08-15T08:56:56Z</time>
      </trkpt>
      <trkpt lat="50.25718" lon="4.16756">
        <ele>205</ele>
        <time>2020-08-15T08:56:58Z</time>
      </trkpt>
      <trkpt lat="50.25725" lon="4.16765">
        <ele>203</ele>
        <time>2020-08-15T08:57:00Z</time>
      </trkpt>
      <trkpt lat="50.25733" lon="4.16776">
        <ele>203</ele>
        <time>2020-08-15T08:57:02Z</time>
      </trkpt>
      <trkpt lat="50.25741" lon="4.16787">
        <ele>204</ele>
        <time>2020-08-15T08:57:04Z</time>
      </trkpt>
      <trkpt lat="50.2575" lon="4.16799">
        <ele>203</ele>
        <time>2020-08-15T08:57:06Z</time>
      </trkpt>
      <trkpt lat="50.25758" lon="4.16809">
        <ele>203</ele>
        <time>2020-08-15T08:57:08Z</time>
      </trkpt>
      <trkpt lat="50.25765" lon="4.16818">
        <ele>202</ele>
        <time>2020-08-15T08:57:10Z</time>
      </trkpt>
      <trkpt lat="50.25771" lon="4.16826">
        <ele>203</ele>
        <time>2020-08-15T08:57:12Z</time>
      </trkpt>
      <trkpt lat="50.25777" lon="4.16832">
        <ele>203</ele>
        <time>2020-08-15T08:57:14Z</time>
      </trkpt>
      <trkpt lat="50.25782" lon="4.16837">
        <ele>203</ele>
        <time>2020-08-15T08:57:16Z</time>
      </trkpt>
      <trkpt lat="50.25786" lon="4.16842">
        <ele>203</ele>
        <time>2020-08-15T08:57:18Z</time>
      </trkpt>
      <trkpt lat="50.2579" lon="4.16849">
        <ele>200</ele>
        <time>2020-08-15T08:57:20Z</time>
      </trkpt>
      <trkpt lat="50.25795" lon="4.16857">
        <ele>198</ele>
        <time>2020-08-15T08:57:22Z</time>
      </trkpt>
      <trkpt lat="50.258" lon="4.16865">
        <ele>198</ele>
        <time>2020-08-15T08:57:24Z</time>
      </trkpt>
      <trkpt lat="50.25806" lon="4.16872">
        <ele>198</ele>
        <time>2020-08-15T08:57:26Z</time>
      </trkpt>
      <trkpt lat="50.25812" lon="4.16879">
        <ele>197</ele>
        <time>2020-08-15T08:57:28Z</time>
      </trkpt>
      <trkpt lat="50.25818" lon="4.16888">
        <ele>197</ele>
        <time>2020-08-15T08:57:30Z</time>
      </trkpt>
      <trkpt lat="50.25824" lon="4.16897">
        <ele>195</ele>
        <time>2020-08-15T08:57:32Z</time>
      </trkpt>
      <trkpt lat="50.25831" lon="4.16907">
        <ele>195</ele>
        <time>2020-08-15T08:57:34Z</time>
      </trkpt>
      <trkpt lat="50.25839" lon="4.16916">
        <ele>195</ele>
        <time>2020-08-15T08:57:36Z</time>
      </trkpt>
      <trkpt lat="50.25848" lon="4.16923">
        <ele>194</ele>
        <time>2020-08-15T08:57:38Z</time>
      </trkpt>
      <trkpt lat="50.25857" lon="4.16931">
        <ele>192</ele>
        <time>2020-08-15T08:57:40Z</time>
      </trkpt>
      <trkpt lat="50.25868" lon="4.16938">
        <ele>192</ele>
        <time>2020-08-15T08:57:42Z</time>
      </trkpt>
      <trkpt lat="50.2588" lon="4.16942">
        <ele>190</ele>
        <time>2020-08-15T08:57:44Z</time>
      </trkpt>
      <trkpt lat="50.25893" lon="4.16946">
        <ele>190</ele>
        <time>2020-08-15T08:57:46Z</time>
      </trkpt>
      <trkpt lat="50.25906" lon="4.16948">
        <ele>189</ele>
        <time>2020-08-15T08:57:48Z</time>
      </trkpt>
      <trkpt lat="50.25919" lon="4.1695">
        <ele>189</ele>
        <time>2020-08-15T08:57:50Z</time>
      </trkpt>
      <trkpt lat="50.25934" lon="4.16951">
        <ele>187</ele>
        <time>2020-08-15T08:57:52Z</time>
      </trkpt>
      <trkpt lat="50.25948" lon="4.16951">
        <ele>187</ele>
        <time>2020-08-15T08:57:54Z</time>
      </trkpt>
      <trkpt lat="50.25962" lon="4.16951">
        <ele>184</ele>
        <time>2020-08-15T08:57:56Z</time>
      </trkpt>
      <trkpt lat="50.25975" lon="4.1695">
        <ele>184</ele>
        <time>2020-08-15T08:57:58Z</time>
      </trkpt>
      <trkpt lat="50.2599" lon="4.16949">
        <ele>183</ele>
        <time>2020-08-15T08:58:00Z</time>
      </trkpt>
      <trkpt lat="50.26004" lon="4.16948">
        <ele>183</ele>
        <time>2020-08-15T08:58:02Z</time>
      </trkpt>
      <trkpt lat="50.2602" lon="4.16946">
        <ele>182</ele>
        <time>2020-08-15T08:58:04Z</time>
      </trkpt>
      <trkpt lat="50.26036" lon="4.16944">
        <ele>182</ele>
        <time>2020-08-15T08:58:06Z</time>
      </trkpt>
      <trkpt lat="50.26053" lon="4.16942">
        <ele>180</ele>
        <time>2020-08-15T08:58:08Z</time>
      </trkpt>
      <trkpt lat="50.2607" lon="4.16941">
        <ele>179</ele>
        <time>2020-08-15T08:58:10Z</time>
      </trkpt>
      <trkpt lat="50.26087" lon="4.16939">
        <ele>179</ele>
        <time>2020-08-15T08:58:12Z</time>
      </trkpt>
      <trkpt lat="50.26104" lon="4.16937">
        <ele>177</ele>
        <time>2020-08-15T08:58:14Z</time>
      </trkpt>
      <trkpt lat="50.26121" lon="4.16936">
        <ele>177</ele>
        <time>2020-08-15T08:58:16Z</time>
      </trkpt>
      <trkpt lat="50.26138" lon="4.16935">
        <ele>176</ele>
        <time>2020-08-15T08:58:18Z</time>
      </trkpt>
      <trkpt lat="50.26154" lon="4.16936">
        <ele>175</ele>
        <time>2020-08-15T08:58:20Z</time>
      </trkpt>
      <trkpt lat="50.2617" lon="4.16937">
        <ele>175</ele>
        <time>2020-08-15T08:58:22Z</time>
      </trkpt>
      <trkpt lat="50.26185" lon="4.16939">
        <ele>174</ele>
        <time>2020-08-15T08:58:24Z</time>
      </trkpt>
      <trkpt lat="50.262" lon="4.1694">
        <ele>174</ele>
        <time>2020-08-15T08:58:26Z</time>
      </trkpt>
      <trkpt lat="50.26214" lon="4.16942">
        <ele>175</ele>
        <time>2020-08-15T08:58:28Z</time>
      </trkpt>
      <trkpt lat="50.26228" lon="4.16944">
        <ele>175</ele>
        <time>2020-08-15T08:58:30Z</time>
      </trkpt>
      <trkpt lat="50.26242" lon="4.16946">
        <ele>175</ele>
        <time>2020-08-15T08:58:32Z</time>
      </trkpt>
      <trkpt lat="50.26255" lon="4.16948">
        <ele>175</ele>
        <time>2020-08-15T08:58:34Z</time>
      </trkpt>
      <trkpt lat="50.2627" lon="4.16949">
        <ele>175</ele>
        <time>2020-08-15T08:58:36Z</time>
      </trkpt>
      <trkpt lat="50.26284" lon="4.16951">
        <ele>175</ele>
        <time>2020-08-15T08:58:38Z</time>
      </trkpt>
      <trkpt lat="50.26298" lon="4.16952">
        <ele>174</ele>
        <time>2020-08-15T08:58:40Z</time>
      </trkpt>
      <trkpt lat="50.26312" lon="4.16953">
        <ele>174</ele>
        <time>2020-08-15T08:58:42Z</time>
      </trkpt>
      <trkpt lat="50.26326" lon="4.16955">
        <ele>172</ele>
        <time>2020-08-15T08:58:44Z</time>
      </trkpt>
      <trkpt lat="50.26339" lon="4.16956">
        <ele>172</ele>
        <time>2020-08-15T08:58:46Z</time>
      </trkpt>
      <trkpt lat="50.26352" lon="4.16957">
        <ele>172</ele>
        <time>2020-08-15T08:58:48Z</time>
      </trkpt>
      <trkpt lat="50.26363" lon="4.16958">
        <ele>173</ele>
        <time>2020-08-15T08:58:50Z</time>
      </trkpt>
      <trkpt lat="50.26375" lon="4.16958">
        <ele>173</ele>
        <time>2020-08-15T08:58:52Z</time>
      </trkpt>
      <trkpt lat="50.26386" lon="4.16959">
        <ele>173</ele>
        <time>2020-08-15T08:58:54Z</time>
      </trkpt>
      <trkpt lat="50.26397" lon="4.1696">
        <ele>173</ele>
        <time>2020-08-15T08:58:56Z</time>
      </trkpt>
      <trkpt lat="50.26409" lon="4.1696">
        <ele>174</ele>
        <time>2020-08-15T08:58:58Z</time>
      </trkpt>
      <trkpt lat="50.2642" lon="4.16961">
        <ele>174</ele>
        <time>2020-08-15T08:59:00Z</time>
      </trkpt>
      <trkpt lat="50.26432" lon="4.16961">
        <ele>175</ele>
        <time>2020-08-15T08:59:02Z</time>
      </trkpt>
      <trkpt lat="50.26444" lon="4.16962">
        <ele>175</ele>
        <time>2020-08-15T08:59:04Z</time>
      </trkpt>
      <trkpt lat="50.26456" lon="4.16963">
        <ele>175</ele>
        <time>2020-08-15T08:59:06Z</time>
      </trkpt>
      <trkpt lat="50.26468" lon="4.16963">
        <ele>176</ele>
        <time>2020-08-15T08:59:08Z</time>
      </trkpt>
      <trkpt lat="50.2648" lon="4.16964">
        <ele>176</ele>
        <time>2020-08-15T08:59:10Z</time>
      </trkpt>
      <trkpt lat="50.26492" lon="4.16964">
        <ele>177</ele>
        <time>2020-08-15T08:59:12Z</time>
      </trkpt>
      <trkpt lat="50.26505" lon="4.16963">
        <ele>177</ele>
        <time>2020-08-15T08:59:14Z</time>
      </trkpt>
      <trkpt lat="50.26518" lon="4.16962">
        <ele>177</ele>
        <time>2020-08-15T08:59:16Z</time>
      </trkpt>
      <trkpt lat="50.2653" lon="4.16959">
        <ele>177</ele>
        <time>2020-08-15T08:59:18Z</time>
      </trkpt>
      <trkpt lat="50.26543" lon="4.16957">
        <ele>177</ele>
        <time>2020-08-15T08:59:20Z</time>
      </trkpt>
      <trkpt lat="50.26556" lon="4.16953">
        <ele>177</ele>
        <time>2020-08-15T08:59:22Z</time>
      </trkpt>
      <trkpt lat="50.26568" lon="4.16949">
        <ele>177</ele>
        <time>2020-08-15T08:59:24Z</time>
      </trkpt>
      <trkpt lat="50.2658" lon="4.16943">
        <ele>178</ele>
        <time>2020-08-15T08:59:26Z</time>
      </trkpt>
      <trkpt lat="50.26592" lon="4.16937">
        <ele>178</ele>
        <time>2020-08-15T08:59:28Z</time>
      </trkpt>
      <trkpt lat="50.26605" lon="4.16929">
        <ele>179</ele>
        <time>2020-08-15T08:59:30Z</time>
      </trkpt>
      <trkpt lat="50.26616" lon="4.1692">
        <ele>179</ele>
        <time>2020-08-15T08:59:32Z</time>
      </trkpt>
      <trkpt lat="50.26627" lon="4.16911">
        <ele>180</ele>
        <time>2020-08-15T08:59:34Z</time>
      </trkpt>
      <trkpt lat="50.26639" lon="4.169">
        <ele>179</ele>
        <time>2020-08-15T08:59:36Z</time>
      </trkpt>
      <trkpt lat="50.26649" lon="4.16889">
        <ele>179</ele>
        <time>2020-08-15T08:59:38Z</time>
      </trkpt>
      <trkpt lat="50.26659" lon="4.16877">
        <ele>181</ele>
        <time>2020-08-15T08:59:40Z</time>
      </trkpt>
      <trkpt lat="50.26669" lon="4.16863">
        <ele>180</ele>
        <time>2020-08-15T08:59:42Z</time>
      </trkpt>
      <trkpt lat="50.26677" lon="4.1685">
        <ele>180</ele>
        <time>2020-08-15T08:59:44Z</time>
      </trkpt>
      <trkpt lat="50.26686" lon="4.16837">
        <ele>181</ele>
        <time>2020-08-15T08:59:46Z</time>
      </trkpt>
      <trkpt lat="50.26695" lon="4.16825">
        <ele>181</ele>
        <time>2020-08-15T08:59:48Z</time>
      </trkpt>
      <trkpt lat="50.26703" lon="4.16815">
        <ele>181</ele>
        <time>2020-08-15T08:59:50Z</time>
      </trkpt>
      <trkpt lat="50.26712" lon="4.16805">
        <ele>183</ele>
        <time>2020-08-15T08:59:52Z</time>
      </trkpt>
      <trkpt lat="50.26722" lon="4.16798">
        <ele>183</ele>
        <time>2020-08-15T08:59:54Z</time>
      </trkpt>
      <trkpt lat="50.26733" lon="4.16792">
        <ele>182</ele>
        <time>2020-08-15T08:59:56Z</time>
      </trkpt>
      <trkpt lat="50.26743" lon="4.16787">
        <ele>184</ele>
        <time>2020-08-15T08:59:58Z</time>
      </trkpt>
      <trkpt lat="50.26753" lon="4.16782">
        <ele>184</ele>
        <time>2020-08-15T09:00:00Z</time>
      </trkpt>
      <trkpt lat="50.26763" lon="4.16779">
        <ele>184</ele>
        <time>2020-08-15T09:00:02Z</time>
      </trkpt>
      <trkpt lat="50.26772" lon="4.16776">
        <ele>185</ele>
        <time>2020-08-15T09:00:04Z</time>
      </trkpt>
      <trkpt lat="50.26782" lon="4.16773">
        <ele>185</ele>
        <time>2020-08-15T09:00:06Z</time>
      </trkpt>
      <trkpt lat="50.26791" lon="4.16772">
        <ele>185</ele>
        <time>2020-08-15T09:00:08Z</time>
      </trkpt>
      <trkpt lat="50.268" lon="4.16771">
        <ele>186</ele>
        <time>2020-08-15T09:00:10Z</time>
      </trkpt>
      <trkpt lat="50.26809" lon="4.1677">
        <ele>186</ele>
        <time>2020-08-15T09:00:12Z</time>
      </trkpt>
      <trkpt lat="50.26818" lon="4.1677">
        <ele>186</ele>
        <time>2020-08-15T09:00:14Z</time>
      </trkpt>
      <trkpt lat="50.26827" lon="4.16769">
        <ele>187</ele>
        <time>2020-08-15T09:00:16Z</time>
      </trkpt>
      <trkpt lat="50.26835" lon="4.16769">
        <ele>187</ele>
        <time>2020-08-15T09:00:18Z</time>
      </trkpt>
      <trkpt lat="50.26845" lon="4.16768">
        <ele>187</ele>
        <time>2020-08-15T09:00:20Z</time>
      </trkpt>
      <trkpt lat="50.26855" lon="4.16768">
        <ele>186</ele>
        <time>2020-08-15T09:00:22Z</time>
      </trkpt>
      <trkpt lat="50.26864" lon="4.16768">
        <ele>186</ele>
        <time>2020-08-15T09:00:24Z</time>
      </trkpt>
      <trkpt lat="50.26873" lon="4.16768">
        <ele>186</ele>
        <time>2020-08-15T09:00:26Z</time>
      </trkpt>
      <trkpt lat="50.26882" lon="4.16767">
        <ele>187</ele>
        <time>2020-08-15T09:00:28Z</time>
      </trkpt>
      <trkpt lat="50.26889" lon="4.16768">
        <ele>187</ele>
        <time>2020-08-15T09:00:30Z</time>
      </trkpt>
      <trkpt lat="50.26894" lon="4.16773">
        <ele>187</ele>
        <time>2020-08-15T09:00:32Z</time>
      </trkpt>
      <trkpt lat="50.26896" lon="4.16782">
        <ele>187</ele>
        <time>2020-08-15T09:00:34Z</time>
      </trkpt>
      <trkpt lat="50.26894" lon="4.16793">
        <ele>187</ele>
        <time>2020-08-15T09:00:36Z</time>
      </trkpt>
      <trkpt lat="50.26895" lon="4.16806">
        <ele>187</ele>
        <time>2020-08-15T09:00:38Z</time>
      </trkpt>
      <trkpt lat="50.26897" lon="4.16819">
        <ele>187</ele>
        <time>2020-08-15T09:00:40Z</time>
      </trkpt>
      <trkpt lat="50.26899" lon="4.16832">
        <ele>187</ele>
        <time>2020-08-15T09:00:42Z</time>
      </trkpt>
      <trkpt lat="50.26902" lon="4.16844">
        <ele>187</ele>
        <time>2020-08-15T09:00:44Z</time>
      </trkpt>
      <trkpt lat="50.26905" lon="4.16857">
        <ele>187</ele>
        <time>2020-08-15T09:00:46Z</time>
      </trkpt>
      <trkpt lat="50.26906" lon="4.1687">
        <ele>187</ele>
        <time>2020-08-15T09:00:48Z</time>
      </trkpt>
      <trkpt lat="50.26904" lon="4.16883">
        <ele>187</ele>
        <time>2020-08-15T09:00:50Z</time>
      </trkpt>
      <trkpt lat="50.26901" lon="4.16895">
        <ele>188</ele>
        <time>2020-08-15T09:00:52Z</time>
      </trkpt>
      <trkpt lat="50.26897" lon="4.16907">
        <ele>188</ele>
        <time>2020-08-15T09:00:54Z</time>
      </trkpt>
      <trkpt lat="50.26893" lon="4.16918">
        <ele>188</ele>
        <time>2020-08-15T09:00:56Z</time>
      </trkpt>
      <trkpt lat="50.26889" lon="4.16927">
        <ele>188</ele>
        <time>2020-08-15T09:00:58Z</time>
      </trkpt>
      <trkpt lat="50.26886" lon="4.16935">
        <ele>188</ele>
        <time>2020-08-15T09:01:00Z</time>
      </trkpt>
      <trkpt lat="50.26883" lon="4.16941">
        <ele>188</ele>
        <time>2020-08-15T09:01:02Z</time>
      </trkpt>
      <trkpt lat="50.26881" lon="4.16945">
        <ele>188</ele>
        <time>2020-08-15T09:01:04Z</time>
      </trkpt>
      <trkpt lat="50.2688" lon="4.16948">
        <ele>188</ele>
        <time>2020-08-15T09:03:49Z</time>
      </trkpt>
      <trkpt lat="50.26878" lon="4.16954">
        <ele>188</ele>
        <time>2020-08-15T09:03:51Z</time>
      </trkpt>
      <trkpt lat="50.26876" lon="4.16961">
        <ele>189</ele>
        <time>2020-08-15T09:03:53Z</time>
      </trkpt>
      <trkpt lat="50.26872" lon="4.16969">
        <ele>189</ele>
        <time>2020-08-15T09:03:55Z</time>
      </trkpt>
      <trkpt lat="50.26869" lon="4.16979">
        <ele>189</ele>
        <time>2020-08-15T09:03:57Z</time>
      </trkpt>
      <trkpt lat="50.26865" lon="4.16989">
        <ele>190</ele>
        <time>2020-08-15T09:03:59Z</time>
      </trkpt>
      <trkpt lat="50.26861" lon="4.16999">
        <ele>190</ele>
        <time>2020-08-15T09:04:01Z</time>
      </trkpt>
      <trkpt lat="50.26857" lon="4.17009">
        <ele>190</ele>
        <time>2020-08-15T09:04:03Z</time>
      </trkpt>
      <trkpt lat="50.26853" lon="4.17019">
        <ele>189</ele>
        <time>2020-08-15T09:04:05Z</time>
      </trkpt>
      <trkpt lat="50.26849" lon="4.1703">
        <ele>189</ele>
        <time>2020-08-15T09:04:07Z</time>
      </trkpt>
      <trkpt lat="50.26845" lon="4.17041">
        <ele>189</ele>
        <time>2020-08-15T09:04:09Z</time>
      </trkpt>
      <trkpt lat="50.2684" lon="4.17053">
        <ele>189</ele>
        <time>2020-08-15T09:04:11Z</time>
      </trkpt>
      <trkpt lat="50.26836" lon="4.17065">
        <ele>189</ele>
        <time>2020-08-15T09:04:13Z</time>
      </trkpt>
      <trkpt lat="50.26831" lon="4.17078">
        <ele>188</ele>
        <time>2020-08-15T09:04:15Z</time>
      </trkpt>
      <trkpt lat="50.26826" lon="4.1709">
        <ele>188</ele>
        <time>2020-08-15T09:04:17Z</time>
      </trkpt>
      <trkpt lat="50.26822" lon="4.17102">
        <ele>189</ele>
        <time>2020-08-15T09:04:19Z</time>
      </trkpt>
      <trkpt lat="50.26817" lon="4.17114">
        <ele>188</ele>
        <time>2020-08-15T09:04:21Z</time>
      </trkpt>
      <trkpt lat="50.26812" lon="4.17126">
        <ele>188</ele>
        <time>2020-08-15T09:04:23Z</time>
      </trkpt>
      <trkpt lat="50.26807" lon="4.17138">
        <ele>188</ele>
        <time>2020-08-15T09:04:25Z</time>
      </trkpt>
      <trkpt lat="50.26802" lon="4.1715">
        <ele>188</ele>
        <time>2020-08-15T09:04:27Z</time>
      </trkpt>
      <trkpt lat="50.26797" lon="4.17162">
        <ele>188</ele>
        <time>2020-08-15T09:04:29Z</time>
      </trkpt>
      <trkpt lat="50.26791" lon="4.17174">
        <ele>186</ele>
        <time>2020-08-15T09:04:31Z</time>
      </trkpt>
      <trkpt lat="50.26786" lon="4.17185">
        <ele>187</ele>
        <time>2020-08-15T09:04:33Z</time>
      </trkpt>
      <trkpt lat="50.26781" lon="4.17196">
        <ele>187</ele>
        <time>2020-08-15T09:04:35Z</time>
      </trkpt>
      <trkpt lat="50.26776" lon="4.17206">
        <ele>187</ele>
        <time>2020-08-15T09:04:37Z</time>
      </trkpt>
      <trkpt lat="50.2677" lon="4.17217">
        <ele>187</ele>
        <time>2020-08-15T09:04:39Z</time>
      </trkpt>
      <trkpt lat="50.26765" lon="4.17228">
        <ele>187</ele>
        <time>2020-08-15T09:04:41Z</time>
      </trkpt>
      <trkpt lat="50.2676" lon="4.17241">
        <ele>186</ele>
        <time>2020-08-15T09:04:43Z</time>
      </trkpt>
      <trkpt lat="50.26754" lon="4.17253">
        <ele>186</ele>
        <time>2020-08-15T09:04:45Z</time>
      </trkpt>
      <trkpt lat="50.26749" lon="4.17266">
        <ele>186</ele>
        <time>2020-08-15T09:04:47Z</time>
      </trkpt>
      <trkpt lat="50.26744" lon="4.17278">
        <ele>186</ele>
        <time>2020-08-15T09:04:49Z</time>
      </trkpt>
      <trkpt lat="50.26738" lon="4.1729">
        <ele>186</ele>
        <time>2020-08-15T09:04:51Z</time>
      </trkpt>
      <trkpt lat="50.26733" lon="4.17303">
        <ele>185</ele>
        <time>2020-08-15T09:04:53Z</time>
      </trkpt>
      <trkpt lat="50.26728" lon="4.17316">
        <ele>185</ele>
        <time>2020-08-15T09:04:55Z</time>
      </trkpt>
      <trkpt lat="50.26722" lon="4.17329">
        <ele>183</ele>
        <time>2020-08-15T09:04:57Z</time>
      </trkpt>
      <trkpt lat="50.26718" lon="4.17342">
        <ele>183</ele>
        <time>2020-08-15T09:04:59Z</time>
      </trkpt>
      <trkpt lat="50.26713" lon="4.17355">
        <ele>184</ele>
        <time>2020-08-15T09:05:01Z</time>
      </trkpt>
      <trkpt lat="50.26708" lon="4.17368">
        <ele>183</ele>
        <time>2020-08-15T09:05:03Z</time>
      </trkpt>
      <trkpt lat="50.26704" lon="4.17382">
        <ele>181</ele>
        <time>2020-08-15T09:05:05Z</time>
      </trkpt>
      <trkpt lat="50.26699" lon="4.17397">
        <ele>181</ele>
        <time>2020-08-15T09:05:07Z</time>
      </trkpt>
      <trkpt lat="50.26695" lon="4.17412">
        <ele>181</ele>
        <time>2020-08-15T09:05:09Z</time>
      </trkpt>
      <trkpt lat="50.26692" lon="4.17427">
        <ele>181</ele>
        <time>2020-08-15T09:05:11Z</time>
      </trkpt>
      <trkpt lat="50.26689" lon="4.17443">
        <ele>180</ele>
        <time>2020-08-15T09:05:13Z</time>
      </trkpt>
      <trkpt lat="50.26686" lon="4.17458">
        <ele>180</ele>
        <time>2020-08-15T09:05:15Z</time>
      </trkpt>
      <trkpt lat="50.26681" lon="4.17471">
        <ele>179</ele>
        <time>2020-08-15T09:05:17Z</time>
      </trkpt>
      <trkpt lat="50.26675" lon="4.17482">
        <ele>178</ele>
        <time>2020-08-15T09:05:19Z</time>
      </trkpt>
      <trkpt lat="50.2667" lon="4.17494">
        <ele>177</ele>
        <time>2020-08-15T09:05:21Z</time>
      </trkpt>
      <trkpt lat="50.26663" lon="4.17506">
        <ele>177</ele>
        <time>2020-08-15T09:05:23Z</time>
      </trkpt>
      <trkpt lat="50.26656" lon="4.17519">
        <ele>176</ele>
        <time>2020-08-15T09:05:25Z</time>
      </trkpt>
      <trkpt lat="50.26651" lon="4.17532">
        <ele>175</ele>
        <time>2020-08-15T09:05:27Z</time>
      </trkpt>
      <trkpt lat="50.26646" lon="4.17548">
        <ele>172</ele>
        <time>2020-08-15T09:05:29Z</time>
      </trkpt>
      <trkpt lat="50.26643" lon="4.17565">
        <ele>172</ele>
        <time>2020-08-15T09:05:31Z</time>
      </trkpt>
      <trkpt lat="50.2664" lon="4.17584">
        <ele>172</ele>
        <time>2020-08-15T09:05:33Z</time>
      </trkpt>
      <trkpt lat="50.26638" lon="4.17603">
        <ele>170</ele>
        <time>2020-08-15T09:05:35Z</time>
      </trkpt>
      <trkpt lat="50.26638" lon="4.17624">
        <ele>170</ele>
        <time>2020-08-15T09:05:37Z</time>
      </trkpt>
      <trkpt lat="50.26638" lon="4.17647">
        <ele>169</ele>
        <time>2020-08-15T09:05:39Z</time>
      </trkpt>
      <trkpt lat="50.26638" lon="4.1767">
        <ele>166</ele>
        <time>2020-08-15T09:05:41Z</time>
      </trkpt>
      <trkpt lat="50.26639" lon="4.17693">
        <ele>166</ele>
        <time>2020-08-15T09:05:43Z</time>
      </trkpt>
      <trkpt lat="50.2664" lon="4.17717">
        <ele>163</ele>
        <time>2020-08-15T09:05:45Z</time>
      </trkpt>
      <trkpt lat="50.26641" lon="4.1774">
        <ele>164</ele>
        <time>2020-08-15T09:05:47Z</time>
      </trkpt>
      <trkpt lat="50.26642" lon="4.17762">
        <ele>164</ele>
        <time>2020-08-15T09:05:49Z</time>
      </trkpt>
      <trkpt lat="50.26643" lon="4.17781">
        <ele>160</ele>
        <time>2020-08-15T09:05:51Z</time>
      </trkpt>
      <trkpt lat="50.26642" lon="4.17798">
        <ele>161</ele>
        <time>2020-08-15T09:05:53Z</time>
      </trkpt>
      <trkpt lat="50.26635" lon="4.17815">
        <ele>161</ele>
        <time>2020-08-15T09:05:55Z</time>
      </trkpt>
      <trkpt lat="50.26627" lon="4.17831">
        <ele>157</ele>
        <time>2020-08-15T09:05:57Z</time>
      </trkpt>
      <trkpt lat="50.26617" lon="4.17843">
        <ele>157</ele>
        <time>2020-08-15T09:05:59Z</time>
      </trkpt>
      <trkpt lat="50.26604" lon="4.17843">
        <ele>157</ele>
        <time>2020-08-15T09:06:01Z</time>
      </trkpt>
      <trkpt lat="50.2659" lon="4.1784">
        <ele>157</ele>
        <time>2020-08-15T09:06:03Z</time>
      </trkpt>
      <trkpt lat="50.26576" lon="4.17835">
        <ele>157</ele>
        <time>2020-08-15T09:06:05Z</time>
      </trkpt>
      <trkpt lat="50.26561" lon="4.17828">
        <ele>157</ele>
        <time>2020-08-15T09:06:07Z</time>
      </trkpt>
      <trkpt lat="50.26546" lon="4.17823">
        <ele>157</ele>
        <time>2020-08-15T09:06:09Z</time>
      </trkpt>
      <trkpt lat="50.26532" lon="4.17817">
        <ele>155</ele>
        <time>2020-08-15T09:06:11Z</time>
      </trkpt>
      <trkpt lat="50.2652" lon="4.17812">
        <ele>155</ele>
        <time>2020-08-15T09:06:13Z</time>
      </trkpt>
      <trkpt lat="50.26511" lon="4.17809">
        <ele>153</ele>
        <time>2020-08-15T09:06:15Z</time>
      </trkpt>
      <trkpt lat="50.26503" lon="4.17816">
        <ele>153</ele>
        <time>2020-08-15T09:06:17Z</time>
      </trkpt>
      <trkpt lat="50.265" lon="4.1783">
        <ele>152</ele>
        <time>2020-08-15T09:06:19Z</time>
      </trkpt>
      <trkpt lat="50.26497" lon="4.17847">
        <ele>152</ele>
        <time>2020-08-15T09:06:21Z</time>
      </trkpt>
      <trkpt lat="50.26494" lon="4.17864">
        <ele>152</ele>
        <time>2020-08-15T09:06:23Z</time>
      </trkpt>
      <trkpt lat="50.26491" lon="4.17883">
        <ele>152</ele>
        <time>2020-08-15T09:06:25Z</time>
      </trkpt>
      <trkpt lat="50.26489" lon="4.17904">
        <ele>150</ele>
        <time>2020-08-15T09:06:27Z</time>
      </trkpt>
      <trkpt lat="50.26488" lon="4.17925">
        <ele>150</ele>
        <time>2020-08-15T09:06:29Z</time>
      </trkpt>
      <trkpt lat="50.26486" lon="4.17947">
        <ele>148</ele>
        <time>2020-08-15T09:06:31Z</time>
      </trkpt>
      <trkpt lat="50.26484" lon="4.1797">
        <ele>147</ele>
        <time>2020-08-15T09:06:33Z</time>
      </trkpt>
      <trkpt lat="50.26485" lon="4.17995">
        <ele>144</ele>
        <time>2020-08-15T09:06:35Z</time>
      </trkpt>
      <trkpt lat="50.26491" lon="4.18018">
        <ele>143</ele>
        <time>2020-08-15T09:06:37Z</time>
      </trkpt>
      <trkpt lat="50.26495" lon="4.18043">
        <ele>142</ele>
        <time>2020-08-15T09:06:39Z</time>
      </trkpt>
      <trkpt lat="50.26494" lon="4.18068">
        <ele>142</ele>
        <time>2020-08-15T09:06:41Z</time>
      </trkpt>
      <trkpt lat="50.26489" lon="4.18088">
        <ele>141</ele>
        <time>2020-08-15T09:06:43Z</time>
      </trkpt>
      <trkpt lat="50.26482" lon="4.18104">
        <ele>140</ele>
        <time>2020-08-15T09:06:45Z</time>
      </trkpt>
      <trkpt lat="50.26477" lon="4.18121">
        <ele>140</ele>
        <time>2020-08-15T09:06:47Z</time>
      </trkpt>
      <trkpt lat="50.26477" lon="4.18137">
        <ele>145</ele>
        <time>2020-08-15T09:06:49Z</time>
      </trkpt>
      <trkpt lat="50.26483" lon="4.18152">
        <ele>145</ele>
        <time>2020-08-15T09:06:51Z</time>
      </trkpt>
      <trkpt lat="50.26489" lon="4.18168">
        <ele>143</ele>
        <time>2020-08-15T09:06:53Z</time>
      </trkpt>
      <trkpt lat="50.26493" lon="4.18182">
        <ele>146</ele>
        <time>2020-08-15T09:06:55Z</time>
      </trkpt>
      <trkpt lat="50.26494" lon="4.18191">
        <ele>146</ele>
        <time>2020-08-15T09:06:57Z</time>
      </trkpt>
      <trkpt lat="50.26497" lon="4.18197">
        <ele>146</ele>
        <time>2020-08-15T09:06:59Z</time>
      </trkpt>
      <trkpt lat="50.26502" lon="4.18201">
        <ele>146</ele>
        <time>2020-08-15T09:07:01Z</time>
      </trkpt>
      <trkpt lat="50.26506" lon="4.18206">
        <ele>146</ele>
        <time>2020-08-15T09:07:03Z</time>
      </trkpt>
      <trkpt lat="50.2651" lon="4.18211">
        <ele>147</ele>
        <time>2020-08-15T09:07:05Z</time>
      </trkpt>
      <trkpt lat="50.26514" lon="4.18218">
        <ele>142</ele>
        <time>2020-08-15T09:07:07Z</time>
      </trkpt>
      <trkpt lat="50.26519" lon="4.18225">
        <ele>142</ele>
        <time>2020-08-15T09:07:09Z</time>
      </trkpt>
      <trkpt lat="50.26524" lon="4.18232">
        <ele>142</ele>
        <time>2020-08-15T09:07:11Z</time>
      </trkpt>
      <trkpt lat="50.26529" lon="4.18239">
        <ele>147</ele>
        <time>2020-08-15T09:07:13Z</time>
      </trkpt>
      <trkpt lat="50.26535" lon="4.18245">
        <ele>147</ele>
        <time>2020-08-15T09:07:15Z</time>
      </trkpt>
      <trkpt lat="50.26541" lon="4.18253">
        <ele>147</ele>
        <time>2020-08-15T09:07:17Z</time>
      </trkpt>
      <trkpt lat="50.26547" lon="4.1826">
        <ele>144</ele>
        <time>2020-08-15T09:07:19Z</time>
      </trkpt>
      <trkpt lat="50.26553" lon="4.18269">
        <ele>145</ele>
        <time>2020-08-15T09:07:21Z</time>
      </trkpt>
      <trkpt lat="50.26555" lon="4.18279">
        <ele>145</ele>
        <time>2020-08-15T09:07:23Z</time>
      </trkpt>
      <trkpt lat="50.26551" lon="4.18288">
        <ele>145</ele>
        <time>2020-08-15T09:07:25Z</time>
      </trkpt>
      <trkpt lat="50.26546" lon="4.18297">
        <ele>147</ele>
        <time>2020-08-15T09:07:27Z</time>
      </trkpt>
      <trkpt lat="50.26542" lon="4.18306">
        <ele>147</ele>
        <time>2020-08-15T09:07:29Z</time>
      </trkpt>
      <trkpt lat="50.26537" lon="4.18315">
        <ele>150</ele>
        <time>2020-08-15T09:07:31Z</time>
      </trkpt>
      <trkpt lat="50.26532" lon="4.18323">
        <ele>151</ele>
        <time>2020-08-15T09:07:33Z</time>
      </trkpt>
      <trkpt lat="50.26528" lon="4.18331">
        <ele>151</ele>
        <time>2020-08-15T09:07:35Z</time>
      </trkpt>
      <trkpt lat="50.26525" lon="4.18339">
        <ele>151</ele>
        <time>2020-08-15T09:07:37Z</time>
      </trkpt>
      <trkpt lat="50.26522" lon="4.18349">
        <ele>152</ele>
        <time>2020-08-15T09:07:39Z</time>
      </trkpt>
      <trkpt lat="50.26518" lon="4.18358">
        <ele>152</ele>
        <time>2020-08-15T09:07:41Z</time>
      </trkpt>
      <trkpt lat="50.26514" lon="4.18366">
        <ele>152</ele>
        <time>2020-08-15T09:07:43Z</time>
      </trkpt>
      <trkpt lat="50.2651" lon="4.18374">
        <ele>153</ele>
        <time>2020-08-15T09:07:45Z</time>
      </trkpt>
      <trkpt lat="50.26506" lon="4.1838">
        <ele>152</ele>
        <time>2020-08-15T09:07:47Z</time>
      </trkpt>
      <trkpt lat="50.26501" lon="4.18384">
        <ele>152</ele>
        <time>2020-08-15T09:07:49Z</time>
      </trkpt>
      <trkpt lat="50.26497" lon="4.18386">
        <ele>152</ele>
        <time>2020-08-15T09:07:51Z</time>
      </trkpt>
      <trkpt lat="50.26493" lon="4.18385">
        <ele>152</ele>
        <time>2020-08-15T09:07:53Z</time>
      </trkpt>
      <trkpt lat="50.26488" lon="4.18382">
        <ele>152</ele>
        <time>2020-08-15T09:07:55Z</time>
      </trkpt>
      <trkpt lat="50.26484" lon="4.1838">
        <ele>154</ele>
        <time>2020-08-15T09:07:57Z</time>
      </trkpt>
      <trkpt lat="50.2648" lon="4.18378">
        <ele>154</ele>
        <time>2020-08-15T09:07:59Z</time>
      </trkpt>
      <trkpt lat="50.26477" lon="4.18376">
        <ele>154</ele>
        <time>2020-08-15T09:08:01Z</time>
      </trkpt>
      <trkpt lat="50.26477" lon="4.18377">
        <ele>154</ele>
        <time>2020-08-15T09:08:03Z</time>
      </trkpt>
      <trkpt lat="50.26481" lon="4.18379">
        <ele>154</ele>
        <time>2020-08-15T09:08:05Z</time>
      </trkpt>
      <trkpt lat="50.26484" lon="4.18381">
        <ele>154</ele>
        <time>2020-08-15T09:08:07Z</time>
      </trkpt>
      <trkpt lat="50.26489" lon="4.18387">
        <ele>152</ele>
        <time>2020-08-15T09:08:09Z</time>
      </trkpt>
      <trkpt lat="50.26494" lon="4.18394">
        <ele>152</ele>
        <time>2020-08-15T09:08:11Z</time>
      </trkpt>
      <trkpt lat="50.26496" lon="4.18401">
        <ele>152</ele>
        <time>2020-08-15T09:08:13Z</time>
      </trkpt>
      <trkpt lat="50.26497" lon="4.18403">
        <ele>153</ele>
        <time>2020-08-15T09:08:15Z</time>
      </trkpt>
      <trkpt lat="50.26499" lon="4.18405">
        <ele>153</ele>
        <time>2020-08-15T09:08:17Z</time>
      </trkpt>
      <trkpt lat="50.26503" lon="4.1841">
        <ele>153</ele>
        <time>2020-08-15T09:08:19Z</time>
      </trkpt>
      <trkpt lat="50.26506" lon="4.18415">
        <ele>153</ele>
        <time>2020-08-15T09:08:21Z</time>
      </trkpt>
      <trkpt lat="50.26509" lon="4.1842">
        <ele>153</ele>
        <time>2020-08-15T09:08:23Z</time>
      </trkpt>
      <trkpt lat="50.26513" lon="4.18426">
        <ele>153</ele>
        <time>2020-08-15T09:08:25Z</time>
      </trkpt>
      <trkpt lat="50.26519" lon="4.18432">
        <ele>152</ele>
        <time>2020-08-15T09:08:27Z</time>
      </trkpt>
      <trkpt lat="50.26527" lon="4.18438">
        <ele>152</ele>
        <time>2020-08-15T09:08:29Z</time>
      </trkpt>
      <trkpt lat="50.26534" lon="4.18445">
        <ele>152</ele>
        <time>2020-08-15T09:08:31Z</time>
      </trkpt>
      <trkpt lat="50.2654" lon="4.18453">
        <ele>152</ele>
        <time>2020-08-15T09:08:33Z</time>
      </trkpt>
      <trkpt lat="50.26546" lon="4.18459">
        <ele>152</ele>
        <time>2020-08-15T09:08:35Z</time>
      </trkpt>
      <trkpt lat="50.26551" lon="4.18465">
        <ele>152</ele>
        <time>2020-08-15T09:08:37Z</time>
      </trkpt>
      <trkpt lat="50.26556" lon="4.18472">
        <ele>152</ele>
        <time>2020-08-15T09:08:39Z</time>
      </trkpt>
      <trkpt lat="50.26561" lon="4.18478">
        <ele>152</ele>
        <time>2020-08-15T09:08:41Z</time>
      </trkpt>
      <trkpt lat="50.26564" lon="4.18483">
        <ele>152</ele>
        <time>2020-08-15T09:08:43Z</time>
      </trkpt>
      <trkpt lat="50.26565" lon="4.18487">
        <ele>152</ele>
        <time>2020-08-15T09:08:45Z</time>
      </trkpt>
      <trkpt lat="50.26567" lon="4.18489">
        <ele>152</ele>
        <time>2020-08-15T09:08:47Z</time>
      </trkpt>
      <trkpt lat="50.26569" lon="4.18486">
        <ele>152</ele>
        <time>2020-08-15T09:08:49Z</time>
      </trkpt>
      <trkpt lat="50.26572" lon="4.1848">
        <ele>151</ele>
        <time>2020-08-15T09:08:51Z</time>
      </trkpt>
      <trkpt lat="50.26576" lon="4.18476">
        <ele>151</ele>
        <time>2020-08-15T09:08:53Z</time>
      </trkpt>
      <trkpt lat="50.2658" lon="4.18471">
        <ele>151</ele>
        <time>2020-08-15T09:08:55Z</time>
      </trkpt>
      <trkpt lat="50.26585" lon="4.18464">
        <ele>151</ele>
        <time>2020-08-15T09:08:57Z</time>
      </trkpt>
      <trkpt lat="50.2659" lon="4.18457">
        <ele>151</ele>
        <time>2020-08-15T09:08:59Z</time>
      </trkpt>
      <trkpt lat="50.26597" lon="4.18448">
        <ele>151</ele>
        <time>2020-08-15T09:09:01Z</time>
      </trkpt>
      <trkpt lat="50.26605" lon="4.18438">
        <ele>151</ele>
        <time>2020-08-15T09:09:03Z</time>
      </trkpt>
      <trkpt lat="50.26611" lon="4.18427">
        <ele>148</ele>
        <time>2020-08-15T09:09:05Z</time>
      </trkpt>
      <trkpt lat="50.26617" lon="4.18417">
        <ele>148</ele>
        <time>2020-08-15T09:09:07Z</time>
      </trkpt>
      <trkpt lat="50.26625" lon="4.1841">
        <ele>148</ele>
        <time>2020-08-15T09:09:09Z</time>
      </trkpt>
      <trkpt lat="50.26634" lon="4.18405">
        <ele>145</ele>
        <time>2020-08-15T09:09:11Z</time>
      </trkpt>
      <trkpt lat="50.26646" lon="4.18408">
        <ele>145</ele>
        <time>2020-08-15T09:09:13Z</time>
      </trkpt>
      <trkpt lat="50.26657" lon="4.18417">
        <ele>142</ele>
        <time>2020-08-15T09:09:15Z</time>
      </trkpt>
      <trkpt lat="50.26666" lon="4.18428">
        <ele>142</ele>
        <time>2020-08-15T09:09:17Z</time>
      </trkpt>
      <trkpt lat="50.26671" lon="4.18437">
        <ele>141</ele>
        <time>2020-08-15T09:09:19Z</time>
      </trkpt>
      <trkpt lat="50.26674" lon="4.18447">
        <ele>141</ele>
        <time>2020-08-15T09:09:21Z</time>
      </trkpt>
      <trkpt lat="50.26673" lon="4.18458">
        <ele>141</ele>
        <time>2020-08-15T09:09:23Z</time>
      </trkpt>
      <trkpt lat="50.26671" lon="4.18468">
        <ele>144</ele>
        <time>2020-08-15T09:09:25Z</time>
      </trkpt>
      <trkpt lat="50.2667" lon="4.18479">
        <ele>144</ele>
        <time>2020-08-15T09:09:27Z</time>
      </trkpt>
      <trkpt lat="50.26669" lon="4.1849">
        <ele>145</ele>
        <time>2020-08-15T09:09:29Z</time>
      </trkpt>
      <trkpt lat="50.26668" lon="4.18501">
        <ele>145</ele>
        <time>2020-08-15T09:09:31Z</time>
      </trkpt>
      <trkpt lat="50.26667" lon="4.18513">
        <ele>145</ele>
        <time>2020-08-15T09:09:33Z</time>
      </trkpt>
      <trkpt lat="50.26667" lon="4.18524">
        <ele>146</ele>
        <time>2020-08-15T09:09:35Z</time>
      </trkpt>
      <trkpt lat="50.26667" lon="4.18536">
        <ele>146</ele>
        <time>2020-08-15T09:09:37Z</time>
      </trkpt>
      <trkpt lat="50.26667" lon="4.18549">
        <ele>148</ele>
        <time>2020-08-15T09:09:39Z</time>
      </trkpt>
      <trkpt lat="50.26668" lon="4.18562">
        <ele>148</ele>
        <time>2020-08-15T09:09:41Z</time>
      </trkpt>
      <trkpt lat="50.26667" lon="4.18575">
        <ele>147</ele>
        <time>2020-08-15T09:09:43Z</time>
      </trkpt>
      <trkpt lat="50.26667" lon="4.18588">
        <ele>147</ele>
        <time>2020-08-15T09:09:45Z</time>
      </trkpt>
      <trkpt lat="50.26667" lon="4.18601">
        <ele>148</ele>
        <time>2020-08-15T09:09:47Z</time>
      </trkpt>
      <trkpt lat="50.26668" lon="4.18614">
        <ele>148</ele>
        <time>2020-08-15T09:09:49Z</time>
      </trkpt>
      <trkpt lat="50.26668" lon="4.18628">
        <ele>148</ele>
        <time>2020-08-15T09:09:51Z</time>
      </trkpt>
      <trkpt lat="50.26669" lon="4.18642">
        <ele>148</ele>
        <time>2020-08-15T09:09:53Z</time>
      </trkpt>
      <trkpt lat="50.26669" lon="4.18656">
        <ele>148</ele>
        <time>2020-08-15T09:09:55Z</time>
      </trkpt>
      <trkpt lat="50.26669" lon="4.18671">
        <ele>148</ele>
        <time>2020-08-15T09:09:57Z</time>
      </trkpt>
      <trkpt lat="50.26669" lon="4.18685">
        <ele>148</ele>
        <time>2020-08-15T09:09:59Z</time>
      </trkpt>
      <trkpt lat="50.26671" lon="4.18699">
        <ele>148</ele>
        <time>2020-08-15T09:10:01Z</time>
      </trkpt>
      <trkpt lat="50.26672" lon="4.18714">
        <ele>149</ele>
        <time>2020-08-15T09:10:03Z</time>
      </trkpt>
      <trkpt lat="50.26674" lon="4.18728">
        <ele>149</ele>
        <time>2020-08-15T09:10:05Z</time>
      </trkpt>
      <trkpt lat="50.26675" lon="4.18743">
        <ele>149</ele>
        <time>2020-08-15T09:10:07Z</time>
      </trkpt>
      <trkpt lat="50.26678" lon="4.18757">
        <ele>149</ele>
        <time>2020-08-15T09:10:09Z</time>
      </trkpt>
      <trkpt lat="50.26679" lon="4.18769">
        <ele>150</ele>
        <time>2020-08-15T09:10:11Z</time>
      </trkpt>
      <trkpt lat="50.26681" lon="4.18783">
        <ele>148</ele>
        <time>2020-08-15T09:10:13Z</time>
      </trkpt>
      <trkpt lat="50.26682" lon="4.18795">
        <ele>149</ele>
        <time>2020-08-15T09:10:15Z</time>
      </trkpt>
      <trkpt lat="50.26685" lon="4.18808">
        <ele>149</ele>
        <time>2020-08-15T09:10:17Z</time>
      </trkpt>
      <trkpt lat="50.26687" lon="4.1882">
        <ele>149</ele>
        <time>2020-08-15T09:10:19Z</time>
      </trkpt>
      <trkpt lat="50.26688" lon="4.18833">
        <ele>149</ele>
        <time>2020-08-15T09:10:21Z</time>
      </trkpt>
      <trkpt lat="50.26689" lon="4.18847">
        <ele>149</ele>
        <time>2020-08-15T09:10:23Z</time>
      </trkpt>
      <trkpt lat="50.2669" lon="4.1886">
        <ele>150</ele>
        <time>2020-08-15T09:10:25Z</time>
      </trkpt>
      <trkpt lat="50.26691" lon="4.18873">
        <ele>150</ele>
        <time>2020-08-15T09:10:27Z</time>
      </trkpt>
      <trkpt lat="50.26691" lon="4.18887">
        <ele>150</ele>
        <time>2020-08-15T09:10:29Z</time>
      </trkpt>
      <trkpt lat="50.26691" lon="4.18899">
        <ele>150</ele>
        <time>2020-08-15T09:10:31Z</time>
      </trkpt>
      <trkpt lat="50.26691" lon="4.1891">
        <ele>152</ele>
        <time>2020-08-15T09:10:33Z</time>
      </trkpt>
      <trkpt lat="50.2669" lon="4.18919">
        <ele>152</ele>
        <time>2020-08-15T09:10:35Z</time>
      </trkpt>
      <trkpt lat="50.26688" lon="4.18926">
        <ele>152</ele>
        <time>2020-08-15T09:10:37Z</time>
      </trkpt>
      <trkpt lat="50.26683" lon="4.18928">
        <ele>152</ele>
        <time>2020-08-15T09:10:39Z</time>
      </trkpt>
      <trkpt lat="50.26677" lon="4.18921">
        <ele>152</ele>
        <time>2020-08-15T09:10:41Z</time>
      </trkpt>
      <trkpt lat="50.26671" lon="4.18913">
        <ele>152</ele>
        <time>2020-08-15T09:10:43Z</time>
      </trkpt>
      <trkpt lat="50.26664" lon="4.18905">
        <ele>152</ele>
        <time>2020-08-15T09:10:45Z</time>
      </trkpt>
      <trkpt lat="50.26658" lon="4.18896">
        <ele>151</ele>
        <time>2020-08-15T09:10:47Z</time>
      </trkpt>
      <trkpt lat="50.26651" lon="4.18888">
        <ele>152</ele>
        <time>2020-08-15T09:10:49Z</time>
      </trkpt>
      <trkpt lat="50.26643" lon="4.18878">
        <ele>152</ele>
        <time>2020-08-15T09:10:51Z</time>
      </trkpt>
      <trkpt lat="50.26636" lon="4.18868">
        <ele>151</ele>
        <time>2020-08-15T09:10:53Z</time>
      </trkpt>
      <trkpt lat="50.26629" lon="4.18858">
        <ele>151</ele>
        <time>2020-08-15T09:10:55Z</time>
      </trkpt>
      <trkpt lat="50.26621" lon="4.18848">
        <ele>152</ele>
        <time>2020-08-15T09:10:57Z</time>
      </trkpt>
      <trkpt lat="50.26614" lon="4.18839">
        <ele>153</ele>
        <time>2020-08-15T09:10:59Z</time>
      </trkpt>
      <trkpt lat="50.26606" lon="4.18828">
        <ele>153</ele>
        <time>2020-08-15T09:11:01Z</time>
      </trkpt>
      <trkpt lat="50.26598" lon="4.18818">
        <ele>152</ele>
        <time>2020-08-15T09:11:03Z</time>
      </trkpt>
      <trkpt lat="50.26589" lon="4.18808">
        <ele>153</ele>
        <time>2020-08-15T09:11:05Z</time>
      </trkpt>
      <trkpt lat="50.2658" lon="4.18799">
        <ele>153</ele>
        <time>2020-08-15T09:11:07Z</time>
      </trkpt>
      <trkpt lat="50.26572" lon="4.1879">
        <ele>154</ele>
        <time>2020-08-15T09:11:09Z</time>
      </trkpt>
      <trkpt lat="50.26563" lon="4.18781">
        <ele>153</ele>
        <time>2020-08-15T09:11:11Z</time>
      </trkpt>
      <trkpt lat="50.26554" lon="4.18773">
        <ele>153</ele>
        <time>2020-08-15T09:11:13Z</time>
      </trkpt>
      <trkpt lat="50.26544" lon="4.18765">
        <ele>153</ele>
        <time>2020-08-15T09:11:15Z</time>
      </trkpt>
      <trkpt lat="50.26535" lon="4.18758">
        <ele>153</ele>
        <time>2020-08-15T09:11:17Z</time>
      </trkpt>
      <trkpt lat="50.26525" lon="4.18751">
        <ele>153</ele>
        <time>2020-08-15T09:11:19Z</time>
      </trkpt>
      <trkpt lat="50.26515" lon="4.18744">
        <ele>153</ele>
        <time>2020-08-15T09:11:21Z</time>
      </trkpt>
      <trkpt lat="50.26505" lon="4.18737">
        <ele>154</ele>
        <time>2020-08-15T09:11:23Z</time>
      </trkpt>
      <trkpt lat="50.26496" lon="4.18731">
        <ele>154</ele>
        <time>2020-08-15T09:11:25Z</time>
      </trkpt>
      <trkpt lat="50.26487" lon="4.18725">
        <ele>154</ele>
        <time>2020-08-15T09:11:27Z</time>
      </trkpt>
      <trkpt lat="50.26477" lon="4.18719">
        <ele>155</ele>
        <time>2020-08-15T09:11:29Z</time>
      </trkpt>
      <trkpt lat="50.26468" lon="4.18714">
        <ele>155</ele>
        <time>2020-08-15T09:11:31Z</time>
      </trkpt>
      <trkpt lat="50.26459" lon="4.18707">
        <ele>154</ele>
        <time>2020-08-15T09:11:33Z</time>
      </trkpt>
      <trkpt lat="50.26451" lon="4.18701">
        <ele>156</ele>
        <time>2020-08-15T09:11:35Z</time>
      </trkpt>
      <trkpt lat="50.26444" lon="4.18693">
        <ele>156</ele>
        <time>2020-08-15T09:11:37Z</time>
      </trkpt>
      <trkpt lat="50.26437" lon="4.18687">
        <ele>156</ele>
        <time>2020-08-15T09:11:39Z</time>
      </trkpt>
      <trkpt lat="50.26433" lon="4.18682">
        <ele>156</ele>
        <time>2020-08-15T09:11:41Z</time>
      </trkpt>
      <trkpt lat="50.26428" lon="4.18676">
        <ele>156</ele>
        <time>2020-08-15T09:11:43Z</time>
      </trkpt>
      <trkpt lat="50.26423" lon="4.18668">
        <ele>156</ele>
        <time>2020-08-15T09:11:45Z</time>
      </trkpt>
      <trkpt lat="50.26419" lon="4.18658">
        <ele>156</ele>
        <time>2020-08-15T09:11:47Z</time>
      </trkpt>
      <trkpt lat="50.26415" lon="4.18652">
        <ele>156</ele>
        <time>2020-08-15T09:11:49Z</time>
      </trkpt>
      <trkpt lat="50.2641" lon="4.18654">
        <ele>156</ele>
        <time>2020-08-15T09:11:51Z</time>
      </trkpt>
      <trkpt lat="50.26405" lon="4.18663">
        <ele>156</ele>
        <time>2020-08-15T09:11:53Z</time>
      </trkpt>
      <trkpt lat="50.264" lon="4.18673">
        <ele>157</ele>
        <time>2020-08-15T09:11:55Z</time>
      </trkpt>
      <trkpt lat="50.26394" lon="4.18683">
        <ele>156</ele>
        <time>2020-08-15T09:11:57Z</time>
      </trkpt>
      <trkpt lat="50.26387" lon="4.18691">
        <ele>156</ele>
        <time>2020-08-15T09:11:59Z</time>
      </trkpt>
      <trkpt lat="50.26378" lon="4.18696">
        <ele>156</ele>
        <time>2020-08-15T09:12:01Z</time>
      </trkpt>
      <trkpt lat="50.26369" lon="4.18701">
        <ele>155</ele>
        <time>2020-08-15T09:12:03Z</time>
      </trkpt>
      <trkpt lat="50.26359" lon="4.18708">
        <ele>155</ele>
        <time>2020-08-15T09:12:05Z</time>
      </trkpt>
      <trkpt lat="50.26349" lon="4.18716">
        <ele>155</ele>
        <time>2020-08-15T09:12:07Z</time>
      </trkpt>
      <trkpt lat="50.26337" lon="4.18727">
        <ele>153</ele>
        <time>2020-08-15T09:12:09Z</time>
      </trkpt>
      <trkpt lat="50.26328" lon="4.1874">
        <ele>154</ele>
        <time>2020-08-15T09:12:11Z</time>
      </trkpt>
      <trkpt lat="50.26318" lon="4.18753">
        <ele>153</ele>
        <time>2020-08-15T09:12:13Z</time>
      </trkpt>
      <trkpt lat="50.26309" lon="4.18765">
        <ele>155</ele>
        <time>2020-08-15T09:12:15Z</time>
      </trkpt>
      <trkpt lat="50.26301" lon="4.18778">
        <ele>155</ele>
        <time>2020-08-15T09:12:17Z</time>
      </trkpt>
      <trkpt lat="50.26292" lon="4.1879">
        <ele>155</ele>
        <time>2020-08-15T09:12:19Z</time>
      </trkpt>
      <trkpt lat="50.26284" lon="4.18801">
        <ele>154</ele>
        <time>2020-08-15T09:12:21Z</time>
      </trkpt>
      <trkpt lat="50.26275" lon="4.18812">
        <ele>154</ele>
        <time>2020-08-15T09:12:23Z</time>
      </trkpt>
      <trkpt lat="50.26267" lon="4.18821">
        <ele>155</ele>
        <time>2020-08-15T09:12:25Z</time>
      </trkpt>
      <trkpt lat="50.26257" lon="4.18831">
        <ele>155</ele>
        <time>2020-08-15T09:12:27Z</time>
      </trkpt>
      <trkpt lat="50.26248" lon="4.18837">
        <ele>155</ele>
        <time>2020-08-15T09:12:29Z</time>
      </trkpt>
      <trkpt lat="50.26238" lon="4.18842">
        <ele>155</ele>
        <time>2020-08-15T09:12:31Z</time>
      </trkpt>
      <trkpt lat="50.26227" lon="4.18845">
        <ele>156</ele>
        <time>2020-08-15T09:12:33Z</time>
      </trkpt>
      <trkpt lat="50.26218" lon="4.18852">
        <ele>156</ele>
        <time>2020-08-15T09:12:35Z</time>
      </trkpt>
      <trkpt lat="50.26212" lon="4.18863">
        <ele>156</ele>
        <time>2020-08-15T09:12:37Z</time>
      </trkpt>
      <trkpt lat="50.26207" lon="4.18876">
        <ele>156</ele>
        <time>2020-08-15T09:12:39Z</time>
      </trkpt>
      <trkpt lat="50.262" lon="4.18889">
        <ele>156</ele>
        <time>2020-08-15T09:12:41Z</time>
      </trkpt>
      <trkpt lat="50.26193" lon="4.18901">
        <ele>156</ele>
        <time>2020-08-15T09:12:43Z</time>
      </trkpt>
      <trkpt lat="50.26186" lon="4.18913">
        <ele>156</ele>
        <time>2020-08-15T09:12:45Z</time>
      </trkpt>
      <trkpt lat="50.26178" lon="4.18925">
        <ele>157</ele>
        <time>2020-08-15T09:12:47Z</time>
      </trkpt>
      <trkpt lat="50.26172" lon="4.18938">
        <ele>156</ele>
        <time>2020-08-15T09:12:49Z</time>
      </trkpt>
      <trkpt lat="50.26165" lon="4.1895">
        <ele>156</ele>
        <time>2020-08-15T09:12:51Z</time>
      </trkpt>
      <trkpt lat="50.26157" lon="4.18963">
        <ele>156</ele>
        <time>2020-08-15T09:12:53Z</time>
      </trkpt>
      <trkpt lat="50.26151" lon="4.18975">
        <ele>157</ele>
        <time>2020-08-15T09:12:55Z</time>
      </trkpt>
      <trkpt lat="50.26144" lon="4.18988">
        <ele>156</ele>
        <time>2020-08-15T09:12:57Z</time>
      </trkpt>
      <trkpt lat="50.26137" lon="4.18999">
        <ele>156</ele>
        <time>2020-08-15T09:12:59Z</time>
      </trkpt>
      <trkpt lat="50.2613" lon="4.19011">
        <ele>156</ele>
        <time>2020-08-15T09:13:01Z</time>
      </trkpt>
      <trkpt lat="50.26123" lon="4.19024">
        <ele>157</ele>
        <time>2020-08-15T09:13:03Z</time>
      </trkpt>
      <trkpt lat="50.26117" lon="4.19036">
        <ele>157</ele>
        <time>2020-08-15T09:13:05Z</time>
      </trkpt>
      <trkpt lat="50.26109" lon="4.19047">
        <ele>157</ele>
        <time>2020-08-15T09:13:07Z</time>
      </trkpt>
      <trkpt lat="50.26103" lon="4.1906">
        <ele>157</ele>
        <time>2020-08-15T09:13:09Z</time>
      </trkpt>
      <trkpt lat="50.26096" lon="4.19072">
        <ele>158</ele>
        <time>2020-08-15T09:13:11Z</time>
      </trkpt>
      <trkpt lat="50.2609" lon="4.19084">
        <ele>158</ele>
        <time>2020-08-15T09:13:13Z</time>
      </trkpt>
      <trkpt lat="50.26083" lon="4.19096">
        <ele>158</ele>
        <time>2020-08-15T09:13:15Z</time>
      </trkpt>
      <trkpt lat="50.26077" lon="4.19108">
        <ele>159</ele>
        <time>2020-08-15T09:13:17Z</time>
      </trkpt>
      <trkpt lat="50.2607" lon="4.1912">
        <ele>159</ele>
        <time>2020-08-15T09:13:19Z</time>
      </trkpt>
      <trkpt lat="50.26064" lon="4.19132">
        <ele>159</ele>
        <time>2020-08-15T09:13:21Z</time>
      </trkpt>
      <trkpt lat="50.26059" lon="4.19145">
        <ele>159</ele>
        <time>2020-08-15T09:13:23Z</time>
      </trkpt>
      <trkpt lat="50.26053" lon="4.19158">
        <ele>159</ele>
        <time>2020-08-15T09:13:25Z</time>
      </trkpt>
      <trkpt lat="50.26047" lon="4.1917">
        <ele>159</ele>
        <time>2020-08-15T09:13:27Z</time>
      </trkpt>
      <trkpt lat="50.26041" lon="4.19182">
        <ele>160</ele>
        <time>2020-08-15T09:13:29Z</time>
      </trkpt>
      <trkpt lat="50.26035" lon="4.19195">
        <ele>160</ele>
        <time>2020-08-15T09:13:31Z</time>
      </trkpt>
      <trkpt lat="50.2603" lon="4.19208">
        <ele>160</ele>
        <time>2020-08-15T09:13:33Z</time>
      </trkpt>
      <trkpt lat="50.26024" lon="4.19221">
        <ele>160</ele>
        <time>2020-08-15T09:13:35Z</time>
      </trkpt>
      <trkpt lat="50.26019" lon="4.19235">
        <ele>160</ele>
        <time>2020-08-15T09:13:37Z</time>
      </trkpt>
      <trkpt lat="50.26013" lon="4.1925">
        <ele>161</ele>
        <time>2020-08-15T09:13:39Z</time>
      </trkpt>
      <trkpt lat="50.26008" lon="4.19264">
        <ele>161</ele>
        <time>2020-08-15T09:13:41Z</time>
      </trkpt>
      <trkpt lat="50.26003" lon="4.19278">
        <ele>160</ele>
        <time>2020-08-15T09:13:43Z</time>
      </trkpt>
      <trkpt lat="50.25998" lon="4.19293">
        <ele>161</ele>
        <time>2020-08-15T09:13:45Z</time>
      </trkpt>
      <trkpt lat="50.25993" lon="4.19308">
        <ele>161</ele>
        <time>2020-08-15T09:13:47Z</time>
      </trkpt>
      <trkpt lat="50.25988" lon="4.19323">
        <ele>162</ele>
        <time>2020-08-15T09:13:49Z</time>
      </trkpt>
      <trkpt lat="50.25983" lon="4.19337">
        <ele>160</ele>
        <time>2020-08-15T09:13:51Z</time>
      </trkpt>
      <trkpt lat="50.25978" lon="4.19352">
        <ele>163</ele>
        <time>2020-08-15T09:13:53Z</time>
      </trkpt>
      <trkpt lat="50.25973" lon="4.19367">
        <ele>163</ele>
        <time>2020-08-15T09:13:55Z</time>
      </trkpt>
      <trkpt lat="50.25968" lon="4.19383">
        <ele>163</ele>
        <time>2020-08-15T09:13:57Z</time>
      </trkpt>
      <trkpt lat="50.25963" lon="4.19398">
        <ele>163</ele>
        <time>2020-08-15T09:13:59Z</time>
      </trkpt>
      <trkpt lat="50.25958" lon="4.19413">
        <ele>166</ele>
        <time>2020-08-15T09:14:01Z</time>
      </trkpt>
      <trkpt lat="50.25953" lon="4.19429">
        <ele>166</ele>
        <time>2020-08-15T09:14:03Z</time>
      </trkpt>
      <trkpt lat="50.25949" lon="4.19445">
        <ele>170</ele>
        <time>2020-08-15T09:14:05Z</time>
      </trkpt>
      <trkpt lat="50.25945" lon="4.1946">
        <ele>170</ele>
        <time>2020-08-15T09:14:07Z</time>
      </trkpt>
      <trkpt lat="50.2594" lon="4.19476">
        <ele>170</ele>
        <time>2020-08-15T09:14:09Z</time>
      </trkpt>
      <trkpt lat="50.25937" lon="4.19491">
        <ele>172</ele>
        <time>2020-08-15T09:14:11Z</time>
      </trkpt>
      <trkpt lat="50.25932" lon="4.19506">
        <ele>172</ele>
        <time>2020-08-15T09:14:13Z</time>
      </trkpt>
      <trkpt lat="50.25927" lon="4.19521">
        <ele>170</ele>
        <time>2020-08-15T09:14:15Z</time>
      </trkpt>
      <trkpt lat="50.25921" lon="4.19535">
        <ele>170</ele>
        <time>2020-08-15T09:14:17Z</time>
      </trkpt>
      <trkpt lat="50.25914" lon="4.19547">
        <ele>170</ele>
        <time>2020-08-15T09:14:19Z</time>
      </trkpt>
      <trkpt lat="50.25906" lon="4.19557">
        <ele>170</ele>
        <time>2020-08-15T09:14:21Z</time>
      </trkpt>
      <trkpt lat="50.25898" lon="4.19565">
        <ele>168</ele>
        <time>2020-08-15T09:14:23Z</time>
      </trkpt>
      <trkpt lat="50.25889" lon="4.19573">
        <ele>168</ele>
        <time>2020-08-15T09:14:25Z</time>
      </trkpt>
      <trkpt lat="50.25881" lon="4.19582">
        <ele>168</ele>
        <time>2020-08-15T09:14:27Z</time>
      </trkpt>
      <trkpt lat="50.25872" lon="4.1959">
        <ele>168</ele>
        <time>2020-08-15T09:14:29Z</time>
      </trkpt>
      <trkpt lat="50.25864" lon="4.19598">
        <ele>167</ele>
        <time>2020-08-15T09:14:31Z</time>
      </trkpt>
      <trkpt lat="50.25856" lon="4.19607">
        <ele>167</ele>
        <time>2020-08-15T09:14:33Z</time>
      </trkpt>
      <trkpt lat="50.25848" lon="4.19615">
        <ele>167</ele>
        <time>2020-08-15T09:14:35Z</time>
      </trkpt>
      <trkpt lat="50.25841" lon="4.19622">
        <ele>169</ele>
        <time>2020-08-15T09:14:37Z</time>
      </trkpt>
      <trkpt lat="50.25832" lon="4.19625">
        <ele>168</ele>
        <time>2020-08-15T09:14:39Z</time>
      </trkpt>
      <trkpt lat="50.25824" lon="4.19626">
        <ele>168</ele>
        <time>2020-08-15T09:14:41Z</time>
      </trkpt>
      <trkpt lat="50.25817" lon="4.19626">
        <ele>169</ele>
        <time>2020-08-15T09:14:43Z</time>
      </trkpt>
      <trkpt lat="50.2581" lon="4.19624">
        <ele>170</ele>
        <time>2020-08-15T09:14:45Z</time>
      </trkpt>
      <trkpt lat="50.25803" lon="4.19622">
        <ele>170</ele>
        <time>2020-08-15T09:14:47Z</time>
      </trkpt>
      <trkpt lat="50.25796" lon="4.19619">
        <ele>170</ele>
        <time>2020-08-15T09:14:49Z</time>
      </trkpt>
      <trkpt lat="50.25789" lon="4.19616">
        <ele>170</ele>
        <time>2020-08-15T09:14:51Z</time>
      </trkpt>
      <trkpt lat="50.25782" lon="4.19612">
        <ele>170</ele>
        <time>2020-08-15T09:14:53Z</time>
      </trkpt>
      <trkpt lat="50.25774" lon="4.19611">
        <ele>170</ele>
        <time>2020-08-15T09:14:55Z</time>
      </trkpt>
      <trkpt lat="50.25765" lon="4.19611">
        <ele>170</ele>
        <time>2020-08-15T09:14:57Z</time>
      </trkpt>
      <trkpt lat="50.25757" lon="4.19618">
        <ele>169</ele>
        <time>2020-08-15T09:14:59Z</time>
      </trkpt>
      <trkpt lat="50.2575" lon="4.19628">
        <ele>169</ele>
        <time>2020-08-15T09:15:01Z</time>
      </trkpt>
      <trkpt lat="50.25744" lon="4.19638">
        <ele>169</ele>
        <time>2020-08-15T09:15:03Z</time>
      </trkpt>
      <trkpt lat="50.25736" lon="4.19648">
        <ele>169</ele>
        <time>2020-08-15T09:15:05Z</time>
      </trkpt>
      <trkpt lat="50.25729" lon="4.19658">
        <ele>169</ele>
        <time>2020-08-15T09:15:07Z</time>
      </trkpt>
      <trkpt lat="50.25721" lon="4.19668">
        <ele>169</ele>
        <time>2020-08-15T09:15:09Z</time>
      </trkpt>
      <trkpt lat="50.25715" lon="4.19678">
        <ele>169</ele>
        <time>2020-08-15T09:15:11Z</time>
      </trkpt>
      <trkpt lat="50.25708" lon="4.19689">
        <ele>169</ele>
        <time>2020-08-15T09:15:13Z</time>
      </trkpt>
      <trkpt lat="50.25702" lon="4.197">
        <ele>168</ele>
        <time>2020-08-15T09:15:15Z</time>
      </trkpt>
      <trkpt lat="50.25697" lon="4.19712">
        <ele>167</ele>
        <time>2020-08-15T09:15:17Z</time>
      </trkpt>
      <trkpt lat="50.25692" lon="4.19724">
        <ele>167</ele>
        <time>2020-08-15T09:15:19Z</time>
      </trkpt>
      <trkpt lat="50.25688" lon="4.19736">
        <ele>167</ele>
        <time>2020-08-15T09:15:21Z</time>
      </trkpt>
      <trkpt lat="50.25684" lon="4.19748">
        <ele>169</ele>
        <time>2020-08-15T09:15:23Z</time>
      </trkpt>
      <trkpt lat="50.25678" lon="4.19758">
        <ele>170</ele>
        <time>2020-08-15T09:15:25Z</time>
      </trkpt>
      <trkpt lat="50.25671" lon="4.19767">
        <ele>171</ele>
        <time>2020-08-15T09:15:27Z</time>
      </trkpt>
      <trkpt lat="50.25664" lon="4.19775">
        <ele>171</ele>
        <time>2020-08-15T09:15:29Z</time>
      </trkpt>
      <trkpt lat="50.25657" lon="4.19783">
        <ele>171</ele>
        <time>2020-08-15T09:15:31Z</time>
      </trkpt>
      <trkpt lat="50.25651" lon="4.1979">
        <ele>173</ele>
        <time>2020-08-15T09:15:33Z</time>
      </trkpt>
      <trkpt lat="50.25645" lon="4.19798">
        <ele>173</ele>
        <time>2020-08-15T09:15:35Z</time>
      </trkpt>
      <trkpt lat="50.25642" lon="4.19806">
        <ele>173</ele>
        <time>2020-08-15T09:15:37Z</time>
      </trkpt>
      <trkpt lat="50.25643" lon="4.19817">
        <ele>173</ele>
        <time>2020-08-15T09:15:39Z</time>
      </trkpt>
      <trkpt lat="50.25646" lon="4.19828">
        <ele>174</ele>
        <time>2020-08-15T09:15:41Z</time>
      </trkpt>
      <trkpt lat="50.25649" lon="4.19839">
        <ele>174</ele>
        <time>2020-08-15T09:15:43Z</time>
      </trkpt>
      <trkpt lat="50.25651" lon="4.19851">
        <ele>174</ele>
        <time>2020-08-15T09:15:45Z</time>
      </trkpt>
      <trkpt lat="50.25654" lon="4.19863">
        <ele>173</ele>
        <time>2020-08-15T09:15:47Z</time>
      </trkpt>
      <trkpt lat="50.25656" lon="4.19875">
        <ele>174</ele>
        <time>2020-08-15T09:15:49Z</time>
      </trkpt>
      <trkpt lat="50.25657" lon="4.19887">
        <ele>174</ele>
        <time>2020-08-15T09:15:51Z</time>
      </trkpt>
      <trkpt lat="50.25657" lon="4.19898">
        <ele>174</ele>
        <time>2020-08-15T09:15:53Z</time>
      </trkpt>
      <trkpt lat="50.25657" lon="4.19909">
        <ele>174</ele>
        <time>2020-08-15T09:15:55Z</time>
      </trkpt>
      <trkpt lat="50.25655" lon="4.19921">
        <ele>174</ele>
        <time>2020-08-15T09:15:57Z</time>
      </trkpt>
      <trkpt lat="50.25653" lon="4.19933">
        <ele>175</ele>
        <time>2020-08-15T09:15:59Z</time>
      </trkpt>
      <trkpt lat="50.2565" lon="4.19945">
        <ele>177</ele>
        <time>2020-08-15T09:16:01Z</time>
      </trkpt>
      <trkpt lat="50.25647" lon="4.19957">
        <ele>177</ele>
        <time>2020-08-15T09:16:03Z</time>
      </trkpt>
      <trkpt lat="50.25644" lon="4.19969">
        <ele>177</ele>
        <time>2020-08-15T09:16:05Z</time>
      </trkpt>
      <trkpt lat="50.25642" lon="4.19981">
        <ele>177</ele>
        <time>2020-08-15T09:16:07Z</time>
      </trkpt>
      <trkpt lat="50.25639" lon="4.19993">
        <ele>178</ele>
        <time>2020-08-15T09:16:09Z</time>
      </trkpt>
      <trkpt lat="50.25637" lon="4.20005">
        <ele>178</ele>
        <time>2020-08-15T09:16:11Z</time>
      </trkpt>
      <trkpt lat="50.25633" lon="4.20022">
        <ele>178</ele>
        <time>2020-08-15T09:16:14Z</time>
      </trkpt>
      <trkpt lat="50.2563" lon="4.20034">
        <ele>178</ele>
        <time>2020-08-15T09:16:16Z</time>
      </trkpt>
      <trkpt lat="50.25628" lon="4.20046">
        <ele>179</ele>
        <time>2020-08-15T09:16:18Z</time>
      </trkpt>
      <trkpt lat="50.25625" lon="4.20057">
        <ele>179</ele>
        <time>2020-08-15T09:16:20Z</time>
      </trkpt>
      <trkpt lat="50.25623" lon="4.20067">
        <ele>181</ele>
        <time>2020-08-15T09:16:22Z</time>
      </trkpt>
      <trkpt lat="50.25621" lon="4.20078">
        <ele>181</ele>
        <time>2020-08-15T09:16:24Z</time>
      </trkpt>
      <trkpt lat="50.25618" lon="4.2009">
        <ele>181</ele>
        <time>2020-08-15T09:16:26Z</time>
      </trkpt>
      <trkpt lat="50.25616" lon="4.20101">
        <ele>181</ele>
        <time>2020-08-15T09:16:28Z</time>
      </trkpt>
      <trkpt lat="50.25613" lon="4.20112">
        <ele>181</ele>
        <time>2020-08-15T09:16:30Z</time>
      </trkpt>
      <trkpt lat="50.25611" lon="4.20124">
        <ele>181</ele>
        <time>2020-08-15T09:16:32Z</time>
      </trkpt>
      <trkpt lat="50.25608" lon="4.20136">
        <ele>181</ele>
        <time>2020-08-15T09:16:34Z</time>
      </trkpt>
      <trkpt lat="50.25606" lon="4.20148">
        <ele>181</ele>
        <time>2020-08-15T09:16:36Z</time>
      </trkpt>
      <trkpt lat="50.25603" lon="4.20159">
        <ele>182</ele>
        <time>2020-08-15T09:16:38Z</time>
      </trkpt>
      <trkpt lat="50.256" lon="4.20171">
        <ele>182</ele>
        <time>2020-08-15T09:16:40Z</time>
      </trkpt>
      <trkpt lat="50.25597" lon="4.20182">
        <ele>182</ele>
        <time>2020-08-15T09:16:42Z</time>
      </trkpt>
      <trkpt lat="50.25594" lon="4.20193">
        <ele>182</ele>
        <time>2020-08-15T09:16:44Z</time>
      </trkpt>
      <trkpt lat="50.25592" lon="4.20204">
        <ele>182</ele>
        <time>2020-08-15T09:16:46Z</time>
      </trkpt>
      <trkpt lat="50.25589" lon="4.20214">
        <ele>183</ele>
        <time>2020-08-15T09:16:48Z</time>
      </trkpt>
      <trkpt lat="50.25587" lon="4.20225">
        <ele>183</ele>
        <time>2020-08-15T09:16:50Z</time>
      </trkpt>
      <trkpt lat="50.25584" lon="4.20236">
        <ele>183</ele>
        <time>2020-08-15T09:16:52Z</time>
      </trkpt>
      <trkpt lat="50.25582" lon="4.20247">
        <ele>184</ele>
        <time>2020-08-15T09:16:54Z</time>
      </trkpt>
      <trkpt lat="50.25579" lon="4.20258">
        <ele>184</ele>
        <time>2020-08-15T09:16:56Z</time>
      </trkpt>
      <trkpt lat="50.25577" lon="4.20269">
        <ele>185</ele>
        <time>2020-08-15T09:16:58Z</time>
      </trkpt>
      <trkpt lat="50.25575" lon="4.2028">
        <ele>185</ele>
        <time>2020-08-15T09:17:00Z</time>
      </trkpt>
      <trkpt lat="50.25573" lon="4.20292">
        <ele>186</ele>
        <time>2020-08-15T09:17:02Z</time>
      </trkpt>
      <trkpt lat="50.25573" lon="4.20305">
        <ele>186</ele>
        <time>2020-08-15T09:17:04Z</time>
      </trkpt>
      <trkpt lat="50.25575" lon="4.20317">
        <ele>186</ele>
        <time>2020-08-15T09:17:06Z</time>
      </trkpt>
      <trkpt lat="50.25578" lon="4.20327">
        <ele>186</ele>
        <time>2020-08-15T09:17:08Z</time>
      </trkpt>
      <trkpt lat="50.25581" lon="4.20338">
        <ele>186</ele>
        <time>2020-08-15T09:17:10Z</time>
      </trkpt>
      <trkpt lat="50.25586" lon="4.20349">
        <ele>186</ele>
        <time>2020-08-15T09:17:12Z</time>
      </trkpt>
      <trkpt lat="50.25589" lon="4.20362">
        <ele>186</ele>
        <time>2020-08-15T09:17:14Z</time>
      </trkpt>
      <trkpt lat="50.25592" lon="4.20375">
        <ele>186</ele>
        <time>2020-08-15T09:17:16Z</time>
      </trkpt>
      <trkpt lat="50.25594" lon="4.20389">
        <ele>186</ele>
        <time>2020-08-15T09:17:18Z</time>
      </trkpt>
      <trkpt lat="50.25594" lon="4.20402">
        <ele>186</ele>
        <time>2020-08-15T09:17:20Z</time>
      </trkpt>
      <trkpt lat="50.25593" lon="4.20415">
        <ele>186</ele>
        <time>2020-08-15T09:17:22Z</time>
      </trkpt>
      <trkpt lat="50.25591" lon="4.20428">
        <ele>186</ele>
        <time>2020-08-15T09:17:24Z</time>
      </trkpt>
      <trkpt lat="50.2559" lon="4.20442">
        <ele>185</ele>
        <time>2020-08-15T09:17:26Z</time>
      </trkpt>
      <trkpt lat="50.25588" lon="4.20456">
        <ele>185</ele>
        <time>2020-08-15T09:17:28Z</time>
      </trkpt>
      <trkpt lat="50.25586" lon="4.20472">
        <ele>185</ele>
        <time>2020-08-15T09:17:30Z</time>
      </trkpt>
      <trkpt lat="50.25585" lon="4.20488">
        <ele>184</ele>
        <time>2020-08-15T09:17:32Z</time>
      </trkpt>
      <trkpt lat="50.25583" lon="4.20504">
        <ele>184</ele>
        <time>2020-08-15T09:17:34Z</time>
      </trkpt>
      <trkpt lat="50.25582" lon="4.20521">
        <ele>185</ele>
        <time>2020-08-15T09:17:36Z</time>
      </trkpt>
      <trkpt lat="50.25584" lon="4.20538">
        <ele>185</ele>
        <time>2020-08-15T09:17:38Z</time>
      </trkpt>
      <trkpt lat="50.25589" lon="4.20554">
        <ele>185</ele>
        <time>2020-08-15T09:17:40Z</time>
      </trkpt>
      <trkpt lat="50.25594" lon="4.20578">
        <ele>185</ele>
        <time>2020-08-15T09:17:43Z</time>
      </trkpt>
      <trkpt lat="50.25596" lon="4.20597">
        <ele>185</ele>
        <time>2020-08-15T09:17:45Z</time>
      </trkpt>
      <trkpt lat="50.25597" lon="4.20615">
        <ele>185</ele>
        <time>2020-08-15T09:17:47Z</time>
      </trkpt>
      <trkpt lat="50.25599" lon="4.20632">
        <ele>185</ele>
        <time>2020-08-15T09:17:49Z</time>
      </trkpt>
      <trkpt lat="50.256" lon="4.20648">
        <ele>185</ele>
        <time>2020-08-15T09:17:51Z</time>
      </trkpt>
      <trkpt lat="50.25602" lon="4.20664">
        <ele>185</ele>
        <time>2020-08-15T09:17:53Z</time>
      </trkpt>
      <trkpt lat="50.25603" lon="4.2068">
        <ele>185</ele>
        <time>2020-08-15T09:17:55Z</time>
      </trkpt>
      <trkpt lat="50.25604" lon="4.20694">
        <ele>186</ele>
        <time>2020-08-15T09:17:57Z</time>
      </trkpt>
      <trkpt lat="50.25605" lon="4.2071">
        <ele>187</ele>
        <time>2020-08-15T09:17:59Z</time>
      </trkpt>
      <trkpt lat="50.25605" lon="4.20725">
        <ele>187</ele>
        <time>2020-08-15T09:18:01Z</time>
      </trkpt>
      <trkpt lat="50.25605" lon="4.20742">
        <ele>187</ele>
        <time>2020-08-15T09:18:03Z</time>
      </trkpt>
      <trkpt lat="50.25605" lon="4.20758">
        <ele>187</ele>
        <time>2020-08-15T09:18:05Z</time>
      </trkpt>
      <trkpt lat="50.25604" lon="4.20775">
        <ele>187</ele>
        <time>2020-08-15T09:18:07Z</time>
      </trkpt>
      <trkpt lat="50.25603" lon="4.20791">
        <ele>187</ele>
        <time>2020-08-15T09:18:09Z</time>
      </trkpt>
      <trkpt lat="50.25601" lon="4.20807">
        <ele>187</ele>
        <time>2020-08-15T09:18:11Z</time>
      </trkpt>
      <trkpt lat="50.25596" lon="4.2082">
        <ele>187</ele>
        <time>2020-08-15T09:18:13Z</time>
      </trkpt>
      <trkpt lat="50.25588" lon="4.20825">
        <ele>187</ele>
        <time>2020-08-15T09:18:15Z</time>
      </trkpt>
      <trkpt lat="50.25579" lon="4.20825">
        <ele>187</ele>
        <time>2020-08-15T09:18:17Z</time>
      </trkpt>
      <trkpt lat="50.25571" lon="4.20824">
        <ele>187</ele>
        <time>2020-08-15T09:18:19Z</time>
      </trkpt>
      <trkpt lat="50.25563" lon="4.20823">
        <ele>188</ele>
        <time>2020-08-15T09:18:21Z</time>
      </trkpt>
      <trkpt lat="50.25554" lon="4.20823">
        <ele>188</ele>
        <time>2020-08-15T09:18:23Z</time>
      </trkpt>
      <trkpt lat="50.25546" lon="4.20823">
        <ele>188</ele>
        <time>2020-08-15T09:18:25Z</time>
      </trkpt>
      <trkpt lat="50.25538" lon="4.20823">
        <ele>191</ele>
        <time>2020-08-15T09:18:27Z</time>
      </trkpt>
      <trkpt lat="50.2553" lon="4.20824">
        <ele>191</ele>
        <time>2020-08-15T09:18:29Z</time>
      </trkpt>
      <trkpt lat="50.25523" lon="4.20823">
        <ele>191</ele>
        <time>2020-08-15T09:18:31Z</time>
      </trkpt>
      <trkpt lat="50.25517" lon="4.20823">
        <ele>191</ele>
        <time>2020-08-15T09:18:33Z</time>
      </trkpt>
      <trkpt lat="50.2551" lon="4.20821">
        <ele>193</ele>
        <time>2020-08-15T09:18:35Z</time>
      </trkpt>
      <trkpt lat="50.25505" lon="4.2082">
        <ele>193</ele>
        <time>2020-08-15T09:18:37Z</time>
      </trkpt>
      <trkpt lat="50.25501" lon="4.20819">
        <ele>193</ele>
        <time>2020-08-15T09:18:39Z</time>
      </trkpt>
      <trkpt lat="50.25495" lon="4.20817">
        <ele>193</ele>
        <time>2020-08-15T09:18:41Z</time>
      </trkpt>
      <trkpt lat="50.2549" lon="4.20816">
        <ele>193</ele>
        <time>2020-08-15T09:18:43Z</time>
      </trkpt>
      <trkpt lat="50.25485" lon="4.20815">
        <ele>196</ele>
        <time>2020-08-15T09:18:45Z</time>
      </trkpt>
      <trkpt lat="50.2548" lon="4.20814">
        <ele>196</ele>
        <time>2020-08-15T09:18:47Z</time>
      </trkpt>
      <trkpt lat="50.25475" lon="4.20813">
        <ele>196</ele>
        <time>2020-08-15T09:18:49Z</time>
      </trkpt>
      <trkpt lat="50.2547" lon="4.20812">
        <ele>196</ele>
        <time>2020-08-15T09:18:51Z</time>
      </trkpt>
      <trkpt lat="50.25465" lon="4.20811">
        <ele>196</ele>
        <time>2020-08-15T09:18:53Z</time>
      </trkpt>
      <trkpt lat="50.2546" lon="4.2081">
        <ele>196</ele>
        <time>2020-08-15T09:18:55Z</time>
      </trkpt>
      <trkpt lat="50.25456" lon="4.20808">
        <ele>198</ele>
        <time>2020-08-15T09:18:57Z</time>
      </trkpt>
      <trkpt lat="50.25451" lon="4.20808">
        <ele>198</ele>
        <time>2020-08-15T09:18:59Z</time>
      </trkpt>
      <trkpt lat="50.25447" lon="4.20807">
        <ele>198</ele>
        <time>2020-08-15T09:19:01Z</time>
      </trkpt>
      <trkpt lat="50.25443" lon="4.20806">
        <ele>198</ele>
        <time>2020-08-15T09:19:03Z</time>
      </trkpt>
      <trkpt lat="50.25438" lon="4.20807">
        <ele>198</ele>
        <time>2020-08-15T09:19:05Z</time>
      </trkpt>
      <trkpt lat="50.25433" lon="4.20807">
        <ele>198</ele>
        <time>2020-08-15T09:19:07Z</time>
      </trkpt>
      <trkpt lat="50.25428" lon="4.20807">
        <ele>200</ele>
        <time>2020-08-15T09:19:09Z</time>
      </trkpt>
      <trkpt lat="50.25423" lon="4.20808">
        <ele>200</ele>
        <time>2020-08-15T09:19:11Z</time>
      </trkpt>
      <trkpt lat="50.25418" lon="4.20807">
        <ele>200</ele>
        <time>2020-08-15T09:19:13Z</time>
      </trkpt>
      <trkpt lat="50.25413" lon="4.20808">
        <ele>200</ele>
        <time>2020-08-15T09:19:15Z</time>
      </trkpt>
      <trkpt lat="50.25408" lon="4.20808">
        <ele>200</ele>
        <time>2020-08-15T09:19:17Z</time>
      </trkpt>
      <trkpt lat="50.25403" lon="4.20809">
        <ele>200</ele>
        <time>2020-08-15T09:19:19Z</time>
      </trkpt>
      <trkpt lat="50.25398" lon="4.2081">
        <ele>202</ele>
        <time>2020-08-15T09:19:21Z</time>
      </trkpt>
      <trkpt lat="50.25394" lon="4.20811">
        <ele>202</ele>
        <time>2020-08-15T09:19:23Z</time>
      </trkpt>
      <trkpt lat="50.2539" lon="4.20812">
        <ele>202</ele>
        <time>2020-08-15T09:19:25Z</time>
      </trkpt>
      <trkpt lat="50.25385" lon="4.20813">
        <ele>202</ele>
        <time>2020-08-15T09:19:27Z</time>
      </trkpt>
      <trkpt lat="50.2538" lon="4.20814">
        <ele>202</ele>
        <time>2020-08-15T09:19:29Z</time>
      </trkpt>
      <trkpt lat="50.25375" lon="4.20815">
        <ele>205</ele>
        <time>2020-08-15T09:19:31Z</time>
      </trkpt>
      <trkpt lat="50.2537" lon="4.20816">
        <ele>205</ele>
        <time>2020-08-15T09:19:33Z</time>
      </trkpt>
      <trkpt lat="50.25366" lon="4.20817">
        <ele>205</ele>
        <time>2020-08-15T09:19:35Z</time>
      </trkpt>
      <trkpt lat="50.25362" lon="4.20817">
        <ele>205</ele>
        <time>2020-08-15T09:19:37Z</time>
      </trkpt>
      <trkpt lat="50.25357" lon="4.20819">
        <ele>205</ele>
        <time>2020-08-15T09:19:39Z</time>
      </trkpt>
      <trkpt lat="50.25354" lon="4.2082">
        <ele>203</ele>
        <time>2020-08-15T09:19:41Z</time>
      </trkpt>
      <trkpt lat="50.2535" lon="4.2082">
        <ele>203</ele>
        <time>2020-08-15T09:19:43Z</time>
      </trkpt>
      <trkpt lat="50.25346" lon="4.20821">
        <ele>205</ele>
        <time>2020-08-15T09:19:45Z</time>
      </trkpt>
      <trkpt lat="50.25341" lon="4.20821">
        <ele>205</ele>
        <time>2020-08-15T09:19:47Z</time>
      </trkpt>
      <trkpt lat="50.25337" lon="4.20822">
        <ele>205</ele>
        <time>2020-08-15T09:19:49Z</time>
      </trkpt>
      <trkpt lat="50.25333" lon="4.20822">
        <ele>205</ele>
        <time>2020-08-15T09:19:51Z</time>
      </trkpt>
      <trkpt lat="50.25328" lon="4.20823">
        <ele>205</ele>
        <time>2020-08-15T09:19:53Z</time>
      </trkpt>
      <trkpt lat="50.25324" lon="4.20822">
        <ele>205</ele>
        <time>2020-08-15T09:19:55Z</time>
      </trkpt>
      <trkpt lat="50.2532" lon="4.20822">
        <ele>205</ele>
        <time>2020-08-15T09:19:57Z</time>
      </trkpt>
      <trkpt lat="50.25316" lon="4.20822">
        <ele>208</ele>
        <time>2020-08-15T09:19:59Z</time>
      </trkpt>
      <trkpt lat="50.25311" lon="4.20822">
        <ele>208</ele>
        <time>2020-08-15T09:20:01Z</time>
      </trkpt>
      <trkpt lat="50.25308" lon="4.20821">
        <ele>208</ele>
        <time>2020-08-15T09:20:03Z</time>
      </trkpt>
      <trkpt lat="50.25303" lon="4.20821">
        <ele>208</ele>
        <time>2020-08-15T09:20:05Z</time>
      </trkpt>
      <trkpt lat="50.25298" lon="4.20821">
        <ele>208</ele>
        <time>2020-08-15T09:20:07Z</time>
      </trkpt>
      <trkpt lat="50.25293" lon="4.2082">
        <ele>208</ele>
        <time>2020-08-15T09:20:09Z</time>
      </trkpt>
      <trkpt lat="50.25289" lon="4.2082">
        <ele>210</ele>
        <time>2020-08-15T09:20:11Z</time>
      </trkpt>
      <trkpt lat="50.25284" lon="4.2082">
        <ele>210</ele>
        <time>2020-08-15T09:20:13Z</time>
      </trkpt>
      <trkpt lat="50.25279" lon="4.2082">
        <ele>210</ele>
        <time>2020-08-15T09:20:15Z</time>
      </trkpt>
      <trkpt lat="50.25274" lon="4.2082">
        <ele>210</ele>
        <time>2020-08-15T09:20:17Z</time>
      </trkpt>
      <trkpt lat="50.25269" lon="4.2082">
        <ele>210</ele>
        <time>2020-08-15T09:20:19Z</time>
      </trkpt>
      <trkpt lat="50.25265" lon="4.2082">
        <ele>210</ele>
        <time>2020-08-15T09:20:21Z</time>
      </trkpt>
      <trkpt lat="50.2526" lon="4.20819">
        <ele>212</ele>
        <time>2020-08-15T09:20:23Z</time>
      </trkpt>
      <trkpt lat="50.25255" lon="4.2082">
        <ele>212</ele>
        <time>2020-08-15T09:20:25Z</time>
      </trkpt>
      <trkpt lat="50.2525" lon="4.2082">
        <ele>212</ele>
        <time>2020-08-15T09:20:27Z</time>
      </trkpt>
      <trkpt lat="50.25245" lon="4.2082">
        <ele>212</ele>
        <time>2020-08-15T09:20:29Z</time>
      </trkpt>
      <trkpt lat="50.25241" lon="4.2082">
        <ele>212</ele>
        <time>2020-08-15T09:20:31Z</time>
      </trkpt>
      <trkpt lat="50.25236" lon="4.2082">
        <ele>214</ele>
        <time>2020-08-15T09:20:33Z</time>
      </trkpt>
      <trkpt lat="50.2523" lon="4.20819">
        <ele>214</ele>
        <time>2020-08-15T09:20:35Z</time>
      </trkpt>
      <trkpt lat="50.25225" lon="4.20818">
        <ele>214</ele>
        <time>2020-08-15T09:20:37Z</time>
      </trkpt>
      <trkpt lat="50.25219" lon="4.20817">
        <ele>214</ele>
        <time>2020-08-15T09:20:39Z</time>
      </trkpt>
      <trkpt lat="50.25213" lon="4.20816">
        <ele>214</ele>
        <time>2020-08-15T09:20:41Z</time>
      </trkpt>
      <trkpt lat="50.25208" lon="4.20815">
        <ele>216</ele>
        <time>2020-08-15T09:20:43Z</time>
      </trkpt>
      <trkpt lat="50.25203" lon="4.20814">
        <ele>216</ele>
        <time>2020-08-15T09:20:45Z</time>
      </trkpt>
      <trkpt lat="50.25198" lon="4.20814">
        <ele>216</ele>
        <time>2020-08-15T09:20:47Z</time>
      </trkpt>
      <trkpt lat="50.25192" lon="4.20813">
        <ele>216</ele>
        <time>2020-08-15T09:20:49Z</time>
      </trkpt>
      <trkpt lat="50.25187" lon="4.20811">
        <ele>216</ele>
        <time>2020-08-15T09:20:51Z</time>
      </trkpt>
      <trkpt lat="50.25182" lon="4.20809">
        <ele>216</ele>
        <time>2020-08-15T09:20:53Z</time>
      </trkpt>
      <trkpt lat="50.25177" lon="4.20807">
        <ele>217</ele>
        <time>2020-08-15T09:20:55Z</time>
      </trkpt>
      <trkpt lat="50.25173" lon="4.20804">
        <ele>217</ele>
        <time>2020-08-15T09:20:57Z</time>
      </trkpt>
      <trkpt lat="50.25169" lon="4.20802">
        <ele>217</ele>
        <time>2020-08-15T09:20:59Z</time>
      </trkpt>
      <trkpt lat="50.25166" lon="4.20799">
        <ele>217</ele>
        <time>2020-08-15T09:21:01Z</time>
      </trkpt>
      <trkpt lat="50.25165" lon="4.20795">
        <ele>217</ele>
        <time>2020-08-15T09:21:03Z</time>
      </trkpt>
      <trkpt lat="50.25165" lon="4.20791">
        <ele>218</ele>
        <time>2020-08-15T09:21:05Z</time>
      </trkpt>
      <trkpt lat="50.25166" lon="4.20786">
        <ele>218</ele>
        <time>2020-08-15T09:21:07Z</time>
      </trkpt>
      <trkpt lat="50.25168" lon="4.2078">
        <ele>218</ele>
        <time>2020-08-15T09:21:09Z</time>
      </trkpt>
      <trkpt lat="50.25169" lon="4.20771">
        <ele>218</ele>
        <time>2020-08-15T09:21:12Z</time>
      </trkpt>
      <trkpt lat="50.25171" lon="4.20765">
        <ele>218</ele>
        <time>2020-08-15T09:21:14Z</time>
      </trkpt>
      <trkpt lat="50.25173" lon="4.20759">
        <ele>218</ele>
        <time>2020-08-15T09:21:16Z</time>
      </trkpt>
      <trkpt lat="50.25175" lon="4.20752">
        <ele>218</ele>
        <time>2020-08-15T09:21:18Z</time>
      </trkpt>
      <trkpt lat="50.25177" lon="4.20744">
        <ele>218</ele>
        <time>2020-08-15T09:21:20Z</time>
      </trkpt>
      <trkpt lat="50.2518" lon="4.20736">
        <ele>218</ele>
        <time>2020-08-15T09:21:22Z</time>
      </trkpt>
      <trkpt lat="50.25182" lon="4.20727">
        <ele>217</ele>
        <time>2020-08-15T09:21:24Z</time>
      </trkpt>
      <trkpt lat="50.25184" lon="4.20718">
        <ele>217</ele>
        <time>2020-08-15T09:21:26Z</time>
      </trkpt>
      <trkpt lat="50.25187" lon="4.2071">
        <ele>217</ele>
        <time>2020-08-15T09:21:28Z</time>
      </trkpt>
      <trkpt lat="50.25189" lon="4.20701">
        <ele>217</ele>
        <time>2020-08-15T09:21:30Z</time>
      </trkpt>
      <trkpt lat="50.25192" lon="4.20692">
        <ele>217</ele>
        <time>2020-08-15T09:21:32Z</time>
      </trkpt>
      <trkpt lat="50.25195" lon="4.20681">
        <ele>217</ele>
        <time>2020-08-15T09:21:34Z</time>
      </trkpt>
      <trkpt lat="50.25197" lon="4.20671">
        <ele>218</ele>
        <time>2020-08-15T09:21:36Z</time>
      </trkpt>
      <trkpt lat="50.25198" lon="4.20659">
        <ele>218</ele>
        <time>2020-08-15T09:21:38Z</time>
      </trkpt>
      <trkpt lat="50.25195" lon="4.20649">
        <ele>218</ele>
        <time>2020-08-15T09:21:40Z</time>
      </trkpt>
      <trkpt lat="50.25189" lon="4.20643">
        <ele>218</ele>
        <time>2020-08-15T09:21:42Z</time>
      </trkpt>
      <trkpt lat="50.25183" lon="4.20641">
        <ele>218</ele>
        <time>2020-08-15T09:21:44Z</time>
      </trkpt>
      <trkpt lat="50.25176" lon="4.20638">
        <ele>219</ele>
        <time>2020-08-15T09:21:46Z</time>
      </trkpt>
      <trkpt lat="50.25169" lon="4.20636">
        <ele>219</ele>
        <time>2020-08-15T09:21:48Z</time>
      </trkpt>
      <trkpt lat="50.25161" lon="4.20634">
        <ele>219</ele>
        <time>2020-08-15T09:21:50Z</time>
      </trkpt>
      <trkpt lat="50.25154" lon="4.20632">
        <ele>219</ele>
        <time>2020-08-15T09:21:52Z</time>
      </trkpt>
      <trkpt lat="50.25147" lon="4.2063">
        <ele>220</ele>
        <time>2020-08-15T09:21:54Z</time>
      </trkpt>
      <trkpt lat="50.25139" lon="4.20627">
        <ele>220</ele>
        <time>2020-08-15T09:21:56Z</time>
      </trkpt>
      <trkpt lat="50.25132" lon="4.20625">
        <ele>220</ele>
        <time>2020-08-15T09:21:58Z</time>
      </trkpt>
      <trkpt lat="50.25124" lon="4.20623">
        <ele>221</ele>
        <time>2020-08-15T09:22:00Z</time>
      </trkpt>
      <trkpt lat="50.25116" lon="4.20621">
        <ele>221</ele>
        <time>2020-08-15T09:22:02Z</time>
      </trkpt>
      <trkpt lat="50.25109" lon="4.20619">
        <ele>221</ele>
        <time>2020-08-15T09:22:04Z</time>
      </trkpt>
      <trkpt lat="50.25102" lon="4.20617">
        <ele>221</ele>
        <time>2020-08-15T09:22:06Z</time>
      </trkpt>
      <trkpt lat="50.25094" lon="4.20614">
        <ele>221</ele>
        <time>2020-08-15T09:22:08Z</time>
      </trkpt>
      <trkpt lat="50.25086" lon="4.20612">
        <ele>221</ele>
        <time>2020-08-15T09:22:10Z</time>
      </trkpt>
      <trkpt lat="50.25078" lon="4.20609">
        <ele>221</ele>
        <time>2020-08-15T09:22:12Z</time>
      </trkpt>
      <trkpt lat="50.2507" lon="4.20608">
        <ele>221</ele>
        <time>2020-08-15T09:22:14Z</time>
      </trkpt>
      <trkpt lat="50.25063" lon="4.20606">
        <ele>221</ele>
        <time>2020-08-15T09:22:16Z</time>
      </trkpt>
      <trkpt lat="50.25056" lon="4.20601">
        <ele>221</ele>
        <time>2020-08-15T09:22:18Z</time>
      </trkpt>
      <trkpt lat="50.25053" lon="4.20591">
        <ele>221</ele>
        <time>2020-08-15T09:22:20Z</time>
      </trkpt>
      <trkpt lat="50.25053" lon="4.20579">
        <ele>221</ele>
        <time>2020-08-15T09:22:22Z</time>
      </trkpt>
      <trkpt lat="50.25054" lon="4.20566">
        <ele>220</ele>
        <time>2020-08-15T09:22:24Z</time>
      </trkpt>
      <trkpt lat="50.25054" lon="4.20552">
        <ele>220</ele>
        <time>2020-08-15T09:22:26Z</time>
      </trkpt>
      <trkpt lat="50.25054" lon="4.20538">
        <ele>222</ele>
        <time>2020-08-15T09:22:28Z</time>
      </trkpt>
      <trkpt lat="50.25055" lon="4.20523">
        <ele>222</ele>
        <time>2020-08-15T09:22:30Z</time>
      </trkpt>
      <trkpt lat="50.25055" lon="4.20508">
        <ele>221</ele>
        <time>2020-08-15T09:22:32Z</time>
      </trkpt>
      <trkpt lat="50.25055" lon="4.20492">
        <ele>221</ele>
        <time>2020-08-15T09:22:34Z</time>
      </trkpt>
      <trkpt lat="50.25056" lon="4.20477">
        <ele>222</ele>
        <time>2020-08-15T09:22:36Z</time>
      </trkpt>
      <trkpt lat="50.25057" lon="4.20462">
        <ele>222</ele>
        <time>2020-08-15T09:22:38Z</time>
      </trkpt>
      <trkpt lat="50.25058" lon="4.20447">
        <ele>222</ele>
        <time>2020-08-15T09:22:40Z</time>
      </trkpt>
      <trkpt lat="50.25058" lon="4.20433">
        <ele>222</ele>
        <time>2020-08-15T09:22:42Z</time>
      </trkpt>
      <trkpt lat="50.2506" lon="4.20419">
        <ele>222</ele>
        <time>2020-08-15T09:22:44Z</time>
      </trkpt>
      <trkpt lat="50.2506" lon="4.20405">
        <ele>222</ele>
        <time>2020-08-15T09:22:46Z</time>
      </trkpt>
      <trkpt lat="50.2506" lon="4.20389">
        <ele>222</ele>
        <time>2020-08-15T09:22:48Z</time>
      </trkpt>
      <trkpt lat="50.25058" lon="4.20374">
        <ele>222</ele>
        <time>2020-08-15T09:22:50Z</time>
      </trkpt>
      <trkpt lat="50.25057" lon="4.20359">
        <ele>222</ele>
        <time>2020-08-15T09:22:52Z</time>
      </trkpt>
      <trkpt lat="50.25054" lon="4.20345">
        <ele>222</ele>
        <time>2020-08-15T09:22:54Z</time>
      </trkpt>
      <trkpt lat="50.25052" lon="4.20331">
        <ele>222</ele>
        <time>2020-08-15T09:22:56Z</time>
      </trkpt>
      <trkpt lat="50.25048" lon="4.20317">
        <ele>221</ele>
        <time>2020-08-15T09:22:58Z</time>
      </trkpt>
      <trkpt lat="50.25045" lon="4.20303">
        <ele>221</ele>
        <time>2020-08-15T09:23:00Z</time>
      </trkpt>
      <trkpt lat="50.25041" lon="4.20288">
        <ele>221</ele>
        <time>2020-08-15T09:23:02Z</time>
      </trkpt>
      <trkpt lat="50.25036" lon="4.2027">
        <ele>221</ele>
        <time>2020-08-15T09:23:04Z</time>
      </trkpt>
      <trkpt lat="50.25031" lon="4.20252">
        <ele>220</ele>
        <time>2020-08-15T09:23:06Z</time>
      </trkpt>
      <trkpt lat="50.25026" lon="4.20233">
        <ele>220</ele>
        <time>2020-08-15T09:23:08Z</time>
      </trkpt>
      <trkpt lat="50.25022" lon="4.20213">
        <ele>220</ele>
        <time>2020-08-15T09:23:10Z</time>
      </trkpt>
      <trkpt lat="50.25021" lon="4.20193">
        <ele>220</ele>
        <time>2020-08-15T09:23:12Z</time>
      </trkpt>
      <trkpt lat="50.25024" lon="4.20173">
        <ele>221</ele>
        <time>2020-08-15T09:23:14Z</time>
      </trkpt>
      <trkpt lat="50.25026" lon="4.20155">
        <ele>221</ele>
        <time>2020-08-15T09:23:16Z</time>
      </trkpt>
      <trkpt lat="50.25029" lon="4.20139">
        <ele>221</ele>
        <time>2020-08-15T09:23:18Z</time>
      </trkpt>
      <trkpt lat="50.25031" lon="4.20124">
        <ele>223</ele>
        <time>2020-08-15T09:23:20Z</time>
      </trkpt>
      <trkpt lat="50.25032" lon="4.20108">
        <ele>223</ele>
        <time>2020-08-15T09:23:22Z</time>
      </trkpt>
      <trkpt lat="50.25035" lon="4.20092">
        <ele>222</ele>
        <time>2020-08-15T09:23:24Z</time>
      </trkpt>
      <trkpt lat="50.25038" lon="4.20079">
        <ele>222</ele>
        <time>2020-08-15T09:23:26Z</time>
      </trkpt>
      <trkpt lat="50.25042" lon="4.20069">
        <ele>225</ele>
        <time>2020-08-15T09:23:28Z</time>
      </trkpt>
      <trkpt lat="50.25045" lon="4.20054">
        <ele>225</ele>
        <time>2020-08-15T09:23:30Z</time>
      </trkpt>
      <trkpt lat="50.25049" lon="4.20038">
        <ele>224</ele>
        <time>2020-08-15T09:23:32Z</time>
      </trkpt>
      <trkpt lat="50.25052" lon="4.20022">
        <ele>224</ele>
        <time>2020-08-15T09:23:34Z</time>
      </trkpt>
      <trkpt lat="50.25053" lon="4.20006">
        <ele>226</ele>
        <time>2020-08-15T09:23:36Z</time>
      </trkpt>
      <trkpt lat="50.25058" lon="4.1999">
        <ele>226</ele>
        <time>2020-08-15T09:23:38Z</time>
      </trkpt>
      <trkpt lat="50.25061" lon="4.19973">
        <ele>222</ele>
        <time>2020-08-15T09:23:40Z</time>
      </trkpt>
      <trkpt lat="50.25064" lon="4.19954">
        <ele>222</ele>
        <time>2020-08-15T09:23:42Z</time>
      </trkpt>
      <trkpt lat="50.25067" lon="4.19936">
        <ele>222</ele>
        <time>2020-08-15T09:23:44Z</time>
      </trkpt>
      <trkpt lat="50.25068" lon="4.19916">
        <ele>219</ele>
        <time>2020-08-15T09:23:46Z</time>
      </trkpt>
      <trkpt lat="50.25069" lon="4.19897">
        <ele>219</ele>
        <time>2020-08-15T09:23:48Z</time>
      </trkpt>
      <trkpt lat="50.25066" lon="4.19888">
        <ele>219</ele>
        <time>2020-08-15T09:23:50Z</time>
      </trkpt>
      <trkpt lat="50.25059" lon="4.19882">
        <ele>219</ele>
        <time>2020-08-15T09:23:52Z</time>
      </trkpt>
      <trkpt lat="50.25051" lon="4.19878">
        <ele>219</ele>
        <time>2020-08-15T09:23:54Z</time>
      </trkpt>
      <trkpt lat="50.25044" lon="4.19874">
        <ele>216</ele>
        <time>2020-08-15T09:23:56Z</time>
      </trkpt>
      <trkpt lat="50.25037" lon="4.19865">
        <ele>215</ele>
        <time>2020-08-15T09:23:58Z</time>
      </trkpt>
      <trkpt lat="50.25028" lon="4.19857">
        <ele>215</ele>
        <time>2020-08-15T09:24:00Z</time>
      </trkpt>
      <trkpt lat="50.2502" lon="4.19854">
        <ele>215</ele>
        <time>2020-08-15T09:24:02Z</time>
      </trkpt>
      <trkpt lat="50.25014" lon="4.1985">
        <ele>215</ele>
        <time>2020-08-15T09:24:04Z</time>
      </trkpt>
      <trkpt lat="50.25008" lon="4.19846">
        <ele>214</ele>
        <time>2020-08-15T09:24:06Z</time>
      </trkpt>
      <trkpt lat="50.25002" lon="4.19842">
        <ele>214</ele>
        <time>2020-08-15T09:24:08Z</time>
      </trkpt>
      <trkpt lat="50.24995" lon="4.19837">
        <ele>214</ele>
        <time>2020-08-15T09:24:10Z</time>
      </trkpt>
      <trkpt lat="50.24987" lon="4.19832">
        <ele>214</ele>
        <time>2020-08-15T09:24:12Z</time>
      </trkpt>
      <trkpt lat="50.2498" lon="4.19828">
        <ele>215</ele>
        <time>2020-08-15T09:24:14Z</time>
      </trkpt>
      <trkpt lat="50.24972" lon="4.19823">
        <ele>215</ele>
        <time>2020-08-15T09:24:16Z</time>
      </trkpt>
      <trkpt lat="50.24965" lon="4.19818">
        <ele>215</ele>
        <time>2020-08-15T09:24:18Z</time>
      </trkpt>
      <trkpt lat="50.24958" lon="4.19812">
        <ele>217</ele>
        <time>2020-08-15T09:24:20Z</time>
      </trkpt>
      <trkpt lat="50.24951" lon="4.19806">
        <ele>217</ele>
        <time>2020-08-15T09:24:22Z</time>
      </trkpt>
      <trkpt lat="50.24943" lon="4.19799">
        <ele>217</ele>
        <time>2020-08-15T09:24:24Z</time>
      </trkpt>
      <trkpt lat="50.24935" lon="4.19793">
        <ele>217</ele>
        <time>2020-08-15T09:24:26Z</time>
      </trkpt>
      <trkpt lat="50.24928" lon="4.19786">
        <ele>219</ele>
        <time>2020-08-15T09:24:28Z</time>
      </trkpt>
      <trkpt lat="50.24919" lon="4.1978">
        <ele>219</ele>
        <time>2020-08-15T09:24:30Z</time>
      </trkpt>
      <trkpt lat="50.2491" lon="4.19772">
        <ele>219</ele>
        <time>2020-08-15T09:24:32Z</time>
      </trkpt>
      <trkpt lat="50.24902" lon="4.19765">
        <ele>220</ele>
        <time>2020-08-15T09:24:34Z</time>
      </trkpt>
      <trkpt lat="50.24893" lon="4.19758">
        <ele>219</ele>
        <time>2020-08-15T09:24:36Z</time>
      </trkpt>
      <trkpt lat="50.24884" lon="4.1975">
        <ele>219</ele>
        <time>2020-08-15T09:24:38Z</time>
      </trkpt>
      <trkpt lat="50.24876" lon="4.19742">
        <ele>219</ele>
        <time>2020-08-15T09:24:40Z</time>
      </trkpt>
      <trkpt lat="50.24867" lon="4.19733">
        <ele>218</ele>
        <time>2020-08-15T09:24:42Z</time>
      </trkpt>
      <trkpt lat="50.24859" lon="4.19724">
        <ele>218</ele>
        <time>2020-08-15T09:24:44Z</time>
      </trkpt>
      <trkpt lat="50.2485" lon="4.19715">
        <ele>218</ele>
        <time>2020-08-15T09:24:46Z</time>
      </trkpt>
      <trkpt lat="50.24842" lon="4.19706">
        <ele>215</ele>
        <time>2020-08-15T09:24:48Z</time>
      </trkpt>
      <trkpt lat="50.24833" lon="4.19698">
        <ele>215</ele>
        <time>2020-08-15T09:24:50Z</time>
      </trkpt>
      <trkpt lat="50.24824" lon="4.19689">
        <ele>215</ele>
        <time>2020-08-15T09:24:52Z</time>
      </trkpt>
      <trkpt lat="50.24815" lon="4.1968">
        <ele>214</ele>
        <time>2020-08-15T09:24:54Z</time>
      </trkpt>
      <trkpt lat="50.24807" lon="4.19673">
        <ele>214</ele>
        <time>2020-08-15T09:24:56Z</time>
      </trkpt>
      <trkpt lat="50.248" lon="4.19673">
        <ele>214</ele>
        <time>2020-08-15T09:24:58Z</time>
      </trkpt>
      <trkpt lat="50.24795" lon="4.19682">
        <ele>215</ele>
        <time>2020-08-15T09:25:00Z</time>
      </trkpt>
      <trkpt lat="50.24792" lon="4.19695">
        <ele>215</ele>
        <time>2020-08-15T09:25:02Z</time>
      </trkpt>
      <trkpt lat="50.24789" lon="4.19708">
        <ele>214</ele>
        <time>2020-08-15T09:25:04Z</time>
      </trkpt>
      <trkpt lat="50.24786" lon="4.19721">
        <ele>215</ele>
        <time>2020-08-15T09:25:06Z</time>
      </trkpt>
      <trkpt lat="50.24782" lon="4.19735">
        <ele>215</ele>
        <time>2020-08-15T09:25:08Z</time>
      </trkpt>
      <trkpt lat="50.24779" lon="4.19749">
        <ele>215</ele>
        <time>2020-08-15T09:25:10Z</time>
      </trkpt>
      <trkpt lat="50.24775" lon="4.19763">
        <ele>215</ele>
        <time>2020-08-15T09:25:12Z</time>
      </trkpt>
      <trkpt lat="50.24771" lon="4.19778">
        <ele>216</ele>
        <time>2020-08-15T09:25:14Z</time>
      </trkpt>
      <trkpt lat="50.24768" lon="4.19794">
        <ele>215</ele>
        <time>2020-08-15T09:25:16Z</time>
      </trkpt>
      <trkpt lat="50.24764" lon="4.19809">
        <ele>215</ele>
        <time>2020-08-15T09:25:18Z</time>
      </trkpt>
      <trkpt lat="50.2476" lon="4.19824">
        <ele>215</ele>
        <time>2020-08-15T09:25:20Z</time>
      </trkpt>
      <trkpt lat="50.24756" lon="4.19839">
        <ele>215</ele>
        <time>2020-08-15T09:25:22Z</time>
      </trkpt>
      <trkpt lat="50.24753" lon="4.19853">
        <ele>215</ele>
        <time>2020-08-15T09:25:24Z</time>
      </trkpt>
      <trkpt lat="50.24749" lon="4.19867">
        <ele>215</ele>
        <time>2020-08-15T09:25:26Z</time>
      </trkpt>
      <trkpt lat="50.24746" lon="4.19881">
        <ele>216</ele>
        <time>2020-08-15T09:25:28Z</time>
      </trkpt>
      <trkpt lat="50.24743" lon="4.19894">
        <ele>216</ele>
        <time>2020-08-15T09:25:30Z</time>
      </trkpt>
      <trkpt lat="50.24739" lon="4.19902">
        <ele>216</ele>
        <time>2020-08-15T09:25:32Z</time>
      </trkpt>
      <trkpt lat="50.24733" lon="4.199">
        <ele>214</ele>
        <time>2020-08-15T09:25:34Z</time>
      </trkpt>
      <trkpt lat="50.2473" lon="4.1989">
        <ele>214</ele>
        <time>2020-08-15T09:25:36Z</time>
      </trkpt>
      <trkpt lat="50.24727" lon="4.19879">
        <ele>214</ele>
        <time>2020-08-15T09:25:38Z</time>
      </trkpt>
      <trkpt lat="50.24722" lon="4.19867">
        <ele>214</ele>
        <time>2020-08-15T09:25:40Z</time>
      </trkpt>
      <trkpt lat="50.24717" lon="4.19855">
        <ele>214</ele>
        <time>2020-08-15T09:25:42Z</time>
      </trkpt>
      <trkpt lat="50.24714" lon="4.19843">
        <ele>215</ele>
        <time>2020-08-15T09:25:44Z</time>
      </trkpt>
      <trkpt lat="50.2471" lon="4.19833">
        <ele>215</ele>
        <time>2020-08-15T09:25:46Z</time>
      </trkpt>
      <trkpt lat="50.24702" lon="4.19829">
        <ele>214</ele>
        <time>2020-08-15T09:25:48Z</time>
      </trkpt>
      <trkpt lat="50.24694" lon="4.19835">
        <ele>214</ele>
        <time>2020-08-15T09:25:50Z</time>
      </trkpt>
      <trkpt lat="50.24686" lon="4.19844">
        <ele>214</ele>
        <time>2020-08-15T09:25:52Z</time>
      </trkpt>
      <trkpt lat="50.24678" lon="4.19853">
        <ele>213</ele>
        <time>2020-08-15T09:25:54Z</time>
      </trkpt>
      <trkpt lat="50.2467" lon="4.19862">
        <ele>213</ele>
        <time>2020-08-15T09:25:56Z</time>
      </trkpt>
      <trkpt lat="50.24662" lon="4.1987">
        <ele>213</ele>
        <time>2020-08-15T09:25:58Z</time>
      </trkpt>
      <trkpt lat="50.24653" lon="4.19877">
        <ele>213</ele>
        <time>2020-08-15T09:26:00Z</time>
      </trkpt>
      <trkpt lat="50.24643" lon="4.19883">
        <ele>213</ele>
        <time>2020-08-15T09:26:02Z</time>
      </trkpt>
      <trkpt lat="50.24634" lon="4.1989">
        <ele>213</ele>
        <time>2020-08-15T09:26:04Z</time>
      </trkpt>
      <trkpt lat="50.24626" lon="4.19897">
        <ele>213</ele>
        <time>2020-08-15T09:26:06Z</time>
      </trkpt>
      <trkpt lat="50.24618" lon="4.19905">
        <ele>214</ele>
        <time>2020-08-15T09:26:08Z</time>
      </trkpt>
      <trkpt lat="50.24611" lon="4.19915">
        <ele>214</ele>
        <time>2020-08-15T09:26:10Z</time>
      </trkpt>
      <trkpt lat="50.24606" lon="4.19927">
        <ele>214</ele>
        <time>2020-08-15T09:26:12Z</time>
      </trkpt>
      <trkpt lat="50.246" lon="4.19936">
        <ele>213</ele>
        <time>2020-08-15T09:26:14Z</time>
      </trkpt>
      <trkpt lat="50.24592" lon="4.19945">
        <ele>214</ele>
        <time>2020-08-15T09:26:16Z</time>
      </trkpt>
      <trkpt lat="50.24582" lon="4.19952">
        <ele>214</ele>
        <time>2020-08-15T09:26:18Z</time>
      </trkpt>
      <trkpt lat="50.24573" lon="4.19954">
        <ele>214</ele>
        <time>2020-08-15T09:26:20Z</time>
      </trkpt>
      <trkpt lat="50.24563" lon="4.19953">
        <ele>216</ele>
        <time>2020-08-15T09:26:22Z</time>
      </trkpt>
      <trkpt lat="50.24553" lon="4.19948">
        <ele>216</ele>
        <time>2020-08-15T09:26:24Z</time>
      </trkpt>
      <trkpt lat="50.24545" lon="4.19941">
        <ele>216</ele>
        <time>2020-08-15T09:26:26Z</time>
      </trkpt>
      <trkpt lat="50.24536" lon="4.19936">
        <ele>216</ele>
        <time>2020-08-15T09:26:28Z</time>
      </trkpt>
      <trkpt lat="50.24527" lon="4.19931">
        <ele>216</ele>
        <time>2020-08-15T09:26:30Z</time>
      </trkpt>
      <trkpt lat="50.24516" lon="4.19932">
        <ele>216</ele>
        <time>2020-08-15T09:26:32Z</time>
      </trkpt>
      <trkpt lat="50.24505" lon="4.19934">
        <ele>216</ele>
        <time>2020-08-15T09:26:34Z</time>
      </trkpt>
      <trkpt lat="50.24493" lon="4.19937">
        <ele>216</ele>
        <time>2020-08-15T09:26:36Z</time>
      </trkpt>
      <trkpt lat="50.24482" lon="4.1994">
        <ele>216</ele>
        <time>2020-08-15T09:26:38Z</time>
      </trkpt>
      <trkpt lat="50.24471" lon="4.19939">
        <ele>216</ele>
        <time>2020-08-15T09:26:40Z</time>
      </trkpt>
      <trkpt lat="50.24461" lon="4.19937">
        <ele>216</ele>
        <time>2020-08-15T09:26:42Z</time>
      </trkpt>
      <trkpt lat="50.24452" lon="4.19936">
        <ele>218</ele>
        <time>2020-08-15T09:26:44Z</time>
      </trkpt>
      <trkpt lat="50.24445" lon="4.19939">
        <ele>218</ele>
        <time>2020-08-15T09:26:46Z</time>
      </trkpt>
      <trkpt lat="50.24436" lon="4.19943">
        <ele>218</ele>
        <time>2020-08-15T09:26:48Z</time>
      </trkpt>
      <trkpt lat="50.24427" lon="4.19946">
        <ele>221</ele>
        <time>2020-08-15T09:26:50Z</time>
      </trkpt>
      <trkpt lat="50.24418" lon="4.1995">
        <ele>221</ele>
        <time>2020-08-15T09:26:52Z</time>
      </trkpt>
      <trkpt lat="50.24407" lon="4.19958">
        <ele>221</ele>
        <time>2020-08-15T09:26:54Z</time>
      </trkpt>
      <trkpt lat="50.24396" lon="4.19969">
        <ele>219</ele>
        <time>2020-08-15T09:26:56Z</time>
      </trkpt>
      <trkpt lat="50.24385" lon="4.19978">
        <ele>219</ele>
        <time>2020-08-15T09:26:58Z</time>
      </trkpt>
      <trkpt lat="50.24372" lon="4.1998">
        <ele>218</ele>
        <time>2020-08-15T09:27:00Z</time>
      </trkpt>
      <trkpt lat="50.24358" lon="4.19985">
        <ele>218</ele>
        <time>2020-08-15T09:27:02Z</time>
      </trkpt>
      <trkpt lat="50.24347" lon="4.19988">
        <ele>215</ele>
        <time>2020-08-15T09:27:04Z</time>
      </trkpt>
      <trkpt lat="50.24339" lon="4.19988">
        <ele>213</ele>
        <time>2020-08-15T09:27:06Z</time>
      </trkpt>
      <trkpt lat="50.24329" lon="4.19986">
        <ele>216</ele>
        <time>2020-08-15T09:27:08Z</time>
      </trkpt>
      <trkpt lat="50.24319" lon="4.19981">
        <ele>212</ele>
        <time>2020-08-15T09:27:10Z</time>
      </trkpt>
      <trkpt lat="50.2431" lon="4.19975">
        <ele>212</ele>
        <time>2020-08-15T09:27:12Z</time>
      </trkpt>
      <trkpt lat="50.24302" lon="4.1997">
        <ele>212</ele>
        <time>2020-08-15T09:27:14Z</time>
      </trkpt>
      <trkpt lat="50.24292" lon="4.19968">
        <ele>212</ele>
        <time>2020-08-15T09:27:16Z</time>
      </trkpt>
      <trkpt lat="50.2428" lon="4.19964">
        <ele>208</ele>
        <time>2020-08-15T09:27:19Z</time>
      </trkpt>
      <trkpt lat="50.24273" lon="4.1996">
        <ele>208</ele>
        <time>2020-08-15T09:27:21Z</time>
      </trkpt>
      <trkpt lat="50.24267" lon="4.19954">
        <ele>209</ele>
        <time>2020-08-15T09:27:23Z</time>
      </trkpt>
      <trkpt lat="50.24259" lon="4.1995">
        <ele>202</ele>
        <time>2020-08-15T09:27:25Z</time>
      </trkpt>
      <trkpt lat="50.24249" lon="4.19944">
        <ele>202</ele>
        <time>2020-08-15T09:27:27Z</time>
      </trkpt>
      <trkpt lat="50.24237" lon="4.19934">
        <ele>202</ele>
        <time>2020-08-15T09:27:29Z</time>
      </trkpt>
      <trkpt lat="50.24225" lon="4.19924">
        <ele>199</ele>
        <time>2020-08-15T09:27:31Z</time>
      </trkpt>
      <trkpt lat="50.24211" lon="4.19912">
        <ele>199</ele>
        <time>2020-08-15T09:27:33Z</time>
      </trkpt>
      <trkpt lat="50.24199" lon="4.19907">
        <ele>193</ele>
        <time>2020-08-15T09:27:35Z</time>
      </trkpt>
      <trkpt lat="50.24185" lon="4.19905">
        <ele>193</ele>
        <time>2020-08-15T09:27:37Z</time>
      </trkpt>
      <trkpt lat="50.24172" lon="4.19906">
        <ele>188</ele>
        <time>2020-08-15T09:27:39Z</time>
      </trkpt>
      <trkpt lat="50.24157" lon="4.19903">
        <ele>188</ele>
        <time>2020-08-15T09:27:41Z</time>
      </trkpt>
      <trkpt lat="50.24141" lon="4.19898">
        <ele>184</ele>
        <time>2020-08-15T09:27:43Z</time>
      </trkpt>
      <trkpt lat="50.24128" lon="4.19895">
        <ele>184</ele>
        <time>2020-08-15T09:27:45Z</time>
      </trkpt>
      <trkpt lat="50.24122" lon="4.19893">
        <ele>177</ele>
        <time>2020-08-15T09:27:47Z</time>
      </trkpt>
      <trkpt lat="50.24118" lon="4.1989">
        <ele>177</ele>
        <time>2020-08-15T09:27:49Z</time>
      </trkpt>
      <trkpt lat="50.24117" lon="4.19889">
        <ele>177</ele>
        <time>2020-08-15T09:27:51Z</time>
      </trkpt>
      <trkpt lat="50.24114" lon="4.19886">
        <ele>177</ele>
        <time>2020-08-15T09:28:09Z</time>
      </trkpt>
      <trkpt lat="50.24112" lon="4.19885">
        <ele>177</ele>
        <time>2020-08-15T09:28:11Z</time>
      </trkpt>
      <trkpt lat="50.2411" lon="4.19884">
        <ele>177</ele>
        <time>2020-08-15T09:28:13Z</time>
      </trkpt>
      <trkpt lat="50.24099" lon="4.19884">
        <ele>177</ele>
        <time>2020-08-15T09:48:47Z</time>
      </trkpt>
      <trkpt lat="50.24081" lon="4.19898">
        <ele>169</ele>
        <time>2020-08-15T09:48:49Z</time>
      </trkpt>
      <trkpt lat="50.2408" lon="4.19902">
        <ele>169</ele>
        <time>2020-08-15T09:48:51Z</time>
      </trkpt>
      <trkpt lat="50.24078" lon="4.19904">
        <ele>169</ele>
        <time>2020-08-15T09:48:53Z</time>
      </trkpt>
      <trkpt lat="50.24077" lon="4.19907">
        <ele>169</ele>
        <time>2020-08-15T09:48:55Z</time>
      </trkpt>
      <trkpt lat="50.24073" lon="4.19908">
        <ele>169</ele>
        <time>2020-08-15T09:48:57Z</time>
      </trkpt>
      <trkpt lat="50.2407" lon="4.19912">
        <ele>169</ele>
        <time>2020-08-15T09:48:59Z</time>
      </trkpt>
      <trkpt lat="50.2407" lon="4.19916">
        <ele>169</ele>
        <time>2020-08-15T09:49:01Z</time>
      </trkpt>
      <trkpt lat="50.24066" lon="4.19925">
        <ele>162</ele>
        <time>2020-08-15T09:51:44Z</time>
      </trkpt>
      <trkpt lat="50.24064" lon="4.19929">
        <ele>162</ele>
        <time>2020-08-15T09:51:46Z</time>
      </trkpt>
      <trkpt lat="50.24057" lon="4.19941">
        <ele>160</ele>
        <time>2020-08-15T09:51:48Z</time>
      </trkpt>
      <trkpt lat="50.24056" lon="4.19945">
        <ele>160</ele>
        <time>2020-08-15T09:51:50Z</time>
      </trkpt>
      <trkpt lat="50.24057" lon="4.19949">
        <ele>160</ele>
        <time>2020-08-15T09:51:52Z</time>
      </trkpt>
      <trkpt lat="50.24057" lon="4.19952">
        <ele>160</ele>
        <time>2020-08-15T09:51:54Z</time>
      </trkpt>
      <trkpt lat="50.24058" lon="4.19957">
        <ele>160</ele>
        <time>2020-08-15T09:51:56Z</time>
      </trkpt>
      <trkpt lat="50.24057" lon="4.19962">
        <ele>163</ele>
        <time>2020-08-15T09:51:58Z</time>
      </trkpt>
      <trkpt lat="50.24057" lon="4.19967">
        <ele>163</ele>
        <time>2020-08-15T09:52:00Z</time>
      </trkpt>
      <trkpt lat="50.24056" lon="4.19972">
        <ele>163</ele>
        <time>2020-08-15T09:52:02Z</time>
      </trkpt>
      <trkpt lat="50.24057" lon="4.19977">
        <ele>163</ele>
        <time>2020-08-15T09:52:04Z</time>
      </trkpt>
      <trkpt lat="50.24056" lon="4.19986">
        <ele>163</ele>
        <time>2020-08-15T09:52:06Z</time>
      </trkpt>
      <trkpt lat="50.24055" lon="4.20003">
        <ele>161</ele>
        <time>2020-08-15T09:52:08Z</time>
      </trkpt>
      <trkpt lat="50.24053" lon="4.20019">
        <ele>165</ele>
        <time>2020-08-15T09:52:10Z</time>
      </trkpt>
      <trkpt lat="50.24052" lon="4.20031">
        <ele>165</ele>
        <time>2020-08-15T09:52:12Z</time>
      </trkpt>
      <trkpt lat="50.24051" lon="4.2004">
        <ele>165</ele>
        <time>2020-08-15T09:52:14Z</time>
      </trkpt>
      <trkpt lat="50.24049" lon="4.20054">
        <ele>166</ele>
        <time>2020-08-15T09:52:16Z</time>
      </trkpt>
      <trkpt lat="50.24047" lon="4.20069">
        <ele>166</ele>
        <time>2020-08-15T09:52:18Z</time>
      </trkpt>
      <trkpt lat="50.24045" lon="4.20083">
        <ele>168</ele>
        <time>2020-08-15T09:52:20Z</time>
      </trkpt>
      <trkpt lat="50.24043" lon="4.20099">
        <ele>170</ele>
        <time>2020-08-15T09:52:22Z</time>
      </trkpt>
      <trkpt lat="50.24041" lon="4.20114">
        <ele>162</ele>
        <time>2020-08-15T09:52:24Z</time>
      </trkpt>
      <trkpt lat="50.2404" lon="4.20128">
        <ele>162</ele>
        <time>2020-08-15T09:52:26Z</time>
      </trkpt>
      <trkpt lat="50.24038" lon="4.20143">
        <ele>162</ele>
        <time>2020-08-15T09:52:28Z</time>
      </trkpt>
      <trkpt lat="50.24038" lon="4.20155">
        <ele>162</ele>
        <time>2020-08-15T09:52:30Z</time>
      </trkpt>
      <trkpt lat="50.24037" lon="4.20167">
        <ele>162</ele>
        <time>2020-08-15T09:52:32Z</time>
      </trkpt>
      <trkpt lat="50.24038" lon="4.20179">
        <ele>162</ele>
        <time>2020-08-15T09:52:34Z</time>
      </trkpt>
      <trkpt lat="50.24037" lon="4.2019">
        <ele>162</ele>
        <time>2020-08-15T09:52:36Z</time>
      </trkpt>
      <trkpt lat="50.24035" lon="4.20203">
        <ele>162</ele>
        <time>2020-08-15T09:52:38Z</time>
      </trkpt>
      <trkpt lat="50.24036" lon="4.20213">
        <ele>161</ele>
        <time>2020-08-15T09:52:40Z</time>
      </trkpt>
      <trkpt lat="50.24036" lon="4.20225">
        <ele>161</ele>
        <time>2020-08-15T09:52:42Z</time>
      </trkpt>
      <trkpt lat="50.24036" lon="4.20232">
        <ele>161</ele>
        <time>2020-08-15T09:52:44Z</time>
      </trkpt>
      <trkpt lat="50.24037" lon="4.20242">
        <ele>161</ele>
        <time>2020-08-15T09:52:46Z</time>
      </trkpt>
      <trkpt lat="50.2404" lon="4.20254">
        <ele>161</ele>
        <time>2020-08-15T09:52:48Z</time>
      </trkpt>
      <trkpt lat="50.24043" lon="4.20265">
        <ele>167</ele>
        <time>2020-08-15T09:52:50Z</time>
      </trkpt>
      <trkpt lat="50.24044" lon="4.20283">
        <ele>167</ele>
        <time>2020-08-15T09:52:52Z</time>
      </trkpt>
      <trkpt lat="50.24045" lon="4.20297">
        <ele>165</ele>
        <time>2020-08-15T09:52:54Z</time>
      </trkpt>
      <trkpt lat="50.24044" lon="4.20311">
        <ele>165</ele>
        <time>2020-08-15T09:52:56Z</time>
      </trkpt>
      <trkpt lat="50.24044" lon="4.20324">
        <ele>163</ele>
        <time>2020-08-15T09:52:58Z</time>
      </trkpt>
      <trkpt lat="50.24043" lon="4.20338">
        <ele>163</ele>
        <time>2020-08-15T09:53:00Z</time>
      </trkpt>
      <trkpt lat="50.24041" lon="4.20351">
        <ele>161</ele>
        <time>2020-08-15T09:53:02Z</time>
      </trkpt>
      <trkpt lat="50.24039" lon="4.20362">
        <ele>161</ele>
        <time>2020-08-15T09:53:04Z</time>
      </trkpt>
      <trkpt lat="50.24036" lon="4.20375">
        <ele>161</ele>
        <time>2020-08-15T09:53:06Z</time>
      </trkpt>
      <trkpt lat="50.24031" lon="4.20387">
        <ele>161</ele>
        <time>2020-08-15T09:53:08Z</time>
      </trkpt>
      <trkpt lat="50.24026" lon="4.20404">
        <ele>163</ele>
        <time>2020-08-15T09:53:10Z</time>
      </trkpt>
      <trkpt lat="50.24023" lon="4.20419">
        <ele>163</ele>
        <time>2020-08-15T09:53:12Z</time>
      </trkpt>
      <trkpt lat="50.2402" lon="4.20434">
        <ele>165</ele>
        <time>2020-08-15T09:53:14Z</time>
      </trkpt>
      <trkpt lat="50.24019" lon="4.20447">
        <ele>165</ele>
        <time>2020-08-15T09:53:16Z</time>
      </trkpt>
      <trkpt lat="50.24018" lon="4.2046">
        <ele>168</ele>
        <time>2020-08-15T09:53:18Z</time>
      </trkpt>
      <trkpt lat="50.24017" lon="4.20472">
        <ele>168</ele>
        <time>2020-08-15T09:53:20Z</time>
      </trkpt>
      <trkpt lat="50.24017" lon="4.20484">
        <ele>168</ele>
        <time>2020-08-15T09:53:22Z</time>
      </trkpt>
      <trkpt lat="50.24016" lon="4.20495">
        <ele>170</ele>
        <time>2020-08-15T09:53:24Z</time>
      </trkpt>
      <trkpt lat="50.24015" lon="4.20504">
        <ele>170</ele>
        <time>2020-08-15T09:53:26Z</time>
      </trkpt>
      <trkpt lat="50.24014" lon="4.20517">
        <ele>164</ele>
        <time>2020-08-15T09:53:28Z</time>
      </trkpt>
      <trkpt lat="50.24011" lon="4.20534">
        <ele>164</ele>
        <time>2020-08-15T09:53:30Z</time>
      </trkpt>
      <trkpt lat="50.24008" lon="4.20548">
        <ele>164</ele>
        <time>2020-08-15T09:53:32Z</time>
      </trkpt>
      <trkpt lat="50.24006" lon="4.20562">
        <ele>164</ele>
        <time>2020-08-15T09:53:34Z</time>
      </trkpt>
      <trkpt lat="50.24004" lon="4.20572">
        <ele>167</ele>
        <time>2020-08-15T09:53:36Z</time>
      </trkpt>
      <trkpt lat="50.24003" lon="4.20582">
        <ele>167</ele>
        <time>2020-08-15T09:53:38Z</time>
      </trkpt>
      <trkpt lat="50.24001" lon="4.20593">
        <ele>167</ele>
        <time>2020-08-15T09:53:40Z</time>
      </trkpt>
      <trkpt lat="50.24001" lon="4.20601">
        <ele>168</ele>
        <time>2020-08-15T09:53:42Z</time>
      </trkpt>
      <trkpt lat="50.23998" lon="4.20611">
        <ele>168</ele>
        <time>2020-08-15T09:53:44Z</time>
      </trkpt>
      <trkpt lat="50.23993" lon="4.20625">
        <ele>169</ele>
        <time>2020-08-15T09:53:46Z</time>
      </trkpt>
      <trkpt lat="50.23987" lon="4.20636">
        <ele>169</ele>
        <time>2020-08-15T09:53:48Z</time>
      </trkpt>
      <trkpt lat="50.2398" lon="4.20648">
        <ele>162</ele>
        <time>2020-08-15T09:53:50Z</time>
      </trkpt>
      <trkpt lat="50.23973" lon="4.20664">
        <ele>162</ele>
        <time>2020-08-15T09:53:52Z</time>
      </trkpt>
      <trkpt lat="50.23965" lon="4.20675">
        <ele>162</ele>
        <time>2020-08-15T09:53:54Z</time>
      </trkpt>
      <trkpt lat="50.23958" lon="4.20685">
        <ele>159</ele>
        <time>2020-08-15T09:53:56Z</time>
      </trkpt>
      <trkpt lat="50.23951" lon="4.20697">
        <ele>159</ele>
        <time>2020-08-15T09:53:58Z</time>
      </trkpt>
      <trkpt lat="50.23946" lon="4.20709">
        <ele>158</ele>
        <time>2020-08-15T09:54:00Z</time>
      </trkpt>
      <trkpt lat="50.23941" lon="4.20721">
        <ele>158</ele>
        <time>2020-08-15T09:54:02Z</time>
      </trkpt>
      <trkpt lat="50.23936" lon="4.20733">
        <ele>158</ele>
        <time>2020-08-15T09:54:04Z</time>
      </trkpt>
      <trkpt lat="50.23932" lon="4.20745">
        <ele>162</ele>
        <time>2020-08-15T09:54:06Z</time>
      </trkpt>
      <trkpt lat="50.23927" lon="4.20758">
        <ele>156</ele>
        <time>2020-08-15T09:54:08Z</time>
      </trkpt>
      <trkpt lat="50.23923" lon="4.20769">
        <ele>156</ele>
        <time>2020-08-15T09:54:10Z</time>
      </trkpt>
      <trkpt lat="50.23919" lon="4.20779">
        <ele>156</ele>
        <time>2020-08-15T09:54:12Z</time>
      </trkpt>
      <trkpt lat="50.23914" lon="4.20789">
        <ele>156</ele>
        <time>2020-08-15T09:54:14Z</time>
      </trkpt>
      <trkpt lat="50.2391" lon="4.20799">
        <ele>158</ele>
        <time>2020-08-15T09:54:16Z</time>
      </trkpt>
      <trkpt lat="50.23906" lon="4.2081">
        <ele>158</ele>
        <time>2020-08-15T09:54:18Z</time>
      </trkpt>
      <trkpt lat="50.23902" lon="4.20821">
        <ele>155</ele>
        <time>2020-08-15T09:54:20Z</time>
      </trkpt>
      <trkpt lat="50.23899" lon="4.20832">
        <ele>155</ele>
        <time>2020-08-15T09:54:22Z</time>
      </trkpt>
      <trkpt lat="50.23896" lon="4.20843">
        <ele>155</ele>
        <time>2020-08-15T09:54:24Z</time>
      </trkpt>
      <trkpt lat="50.23894" lon="4.20854">
        <ele>158</ele>
        <time>2020-08-15T09:54:26Z</time>
      </trkpt>
      <trkpt lat="50.23892" lon="4.20866">
        <ele>158</ele>
        <time>2020-08-15T09:54:28Z</time>
      </trkpt>
      <trkpt lat="50.23889" lon="4.20878">
        <ele>158</ele>
        <time>2020-08-15T09:54:30Z</time>
      </trkpt>
      <trkpt lat="50.23888" lon="4.20891">
        <ele>158</ele>
        <time>2020-08-15T09:54:32Z</time>
      </trkpt>
      <trkpt lat="50.23885" lon="4.20902">
        <ele>158</ele>
        <time>2020-08-15T09:54:34Z</time>
      </trkpt>
      <trkpt lat="50.23883" lon="4.20913">
        <ele>161</ele>
        <time>2020-08-15T09:54:36Z</time>
      </trkpt>
      <trkpt lat="50.2388" lon="4.20925">
        <ele>161</ele>
        <time>2020-08-15T09:54:38Z</time>
      </trkpt>
      <trkpt lat="50.23877" lon="4.20937">
        <ele>161</ele>
        <time>2020-08-15T09:54:40Z</time>
      </trkpt>
      <trkpt lat="50.23875" lon="4.20949">
        <ele>157</ele>
        <time>2020-08-15T09:54:42Z</time>
      </trkpt>
      <trkpt lat="50.23872" lon="4.20962">
        <ele>158</ele>
        <time>2020-08-15T09:54:44Z</time>
      </trkpt>
      <trkpt lat="50.2387" lon="4.20974">
        <ele>158</ele>
        <time>2020-08-15T09:54:46Z</time>
      </trkpt>
      <trkpt lat="50.23867" lon="4.20986">
        <ele>158</ele>
        <time>2020-08-15T09:54:48Z</time>
      </trkpt>
      <trkpt lat="50.23866" lon="4.20999">
        <ele>158</ele>
        <time>2020-08-15T09:54:50Z</time>
      </trkpt>
      <trkpt lat="50.23864" lon="4.21011">
        <ele>158</ele>
        <time>2020-08-15T09:54:52Z</time>
      </trkpt>
      <trkpt lat="50.23863" lon="4.21025">
        <ele>160</ele>
        <time>2020-08-15T09:54:54Z</time>
      </trkpt>
      <trkpt lat="50.23861" lon="4.21038">
        <ele>160</ele>
        <time>2020-08-15T09:54:56Z</time>
      </trkpt>
      <trkpt lat="50.23859" lon="4.21051">
        <ele>161</ele>
        <time>2020-08-15T09:54:58Z</time>
      </trkpt>
      <trkpt lat="50.23858" lon="4.21064">
        <ele>161</ele>
        <time>2020-08-15T09:55:00Z</time>
      </trkpt>
      <trkpt lat="50.23857" lon="4.21079">
        <ele>163</ele>
        <time>2020-08-15T09:55:02Z</time>
      </trkpt>
      <trkpt lat="50.23856" lon="4.21093">
        <ele>163</ele>
        <time>2020-08-15T09:55:04Z</time>
      </trkpt>
      <trkpt lat="50.23855" lon="4.21107">
        <ele>163</ele>
        <time>2020-08-15T09:55:06Z</time>
      </trkpt>
      <trkpt lat="50.23854" lon="4.21121">
        <ele>163</ele>
        <time>2020-08-15T09:55:08Z</time>
      </trkpt>
      <trkpt lat="50.23853" lon="4.21135">
        <ele>165</ele>
        <time>2020-08-15T09:55:10Z</time>
      </trkpt>
      <trkpt lat="50.23853" lon="4.21149">
        <ele>165</ele>
        <time>2020-08-15T09:55:12Z</time>
      </trkpt>
      <trkpt lat="50.23853" lon="4.21162">
        <ele>164</ele>
        <time>2020-08-15T09:55:14Z</time>
      </trkpt>
      <trkpt lat="50.23853" lon="4.21175">
        <ele>164</ele>
        <time>2020-08-15T09:55:16Z</time>
      </trkpt>
      <trkpt lat="50.23853" lon="4.21188">
        <ele>166</ele>
        <time>2020-08-15T09:55:18Z</time>
      </trkpt>
      <trkpt lat="50.23853" lon="4.21201">
        <ele>166</ele>
        <time>2020-08-15T09:55:20Z</time>
      </trkpt>
      <trkpt lat="50.23853" lon="4.21214">
        <ele>166</ele>
        <time>2020-08-15T09:55:22Z</time>
      </trkpt>
      <trkpt lat="50.23852" lon="4.21227">
        <ele>166</ele>
        <time>2020-08-15T09:55:24Z</time>
      </trkpt>
      <trkpt lat="50.23852" lon="4.21241">
        <ele>167</ele>
        <time>2020-08-15T09:55:26Z</time>
      </trkpt>
      <trkpt lat="50.23852" lon="4.21254">
        <ele>167</ele>
        <time>2020-08-15T09:55:28Z</time>
      </trkpt>
      <trkpt lat="50.23853" lon="4.21268">
        <ele>167</ele>
        <time>2020-08-15T09:55:30Z</time>
      </trkpt>
      <trkpt lat="50.23852" lon="4.21282">
        <ele>167</ele>
        <time>2020-08-15T09:55:32Z</time>
      </trkpt>
      <trkpt lat="50.23852" lon="4.21296">
        <ele>168</ele>
        <time>2020-08-15T09:55:34Z</time>
      </trkpt>
      <trkpt lat="50.23852" lon="4.2131">
        <ele>168</ele>
        <time>2020-08-15T09:55:36Z</time>
      </trkpt>
      <trkpt lat="50.23851" lon="4.21324">
        <ele>167</ele>
        <time>2020-08-15T09:55:38Z</time>
      </trkpt>
      <trkpt lat="50.23851" lon="4.21338">
        <ele>167</ele>
        <time>2020-08-15T09:55:40Z</time>
      </trkpt>
      <trkpt lat="50.2385" lon="4.21353">
        <ele>168</ele>
        <time>2020-08-15T09:55:42Z</time>
      </trkpt>
      <trkpt lat="50.2385" lon="4.21368">
        <ele>168</ele>
        <time>2020-08-15T09:55:44Z</time>
      </trkpt>
      <trkpt lat="50.23849" lon="4.21384">
        <ele>168</ele>
        <time>2020-08-15T09:55:46Z</time>
      </trkpt>
      <trkpt lat="50.23848" lon="4.21402">
        <ele>168</ele>
        <time>2020-08-15T09:55:48Z</time>
      </trkpt>
      <trkpt lat="50.23846" lon="4.21422">
        <ele>163</ele>
        <time>2020-08-15T09:55:50Z</time>
      </trkpt>
      <trkpt lat="50.23846" lon="4.21443">
        <ele>162</ele>
        <time>2020-08-15T09:55:52Z</time>
      </trkpt>
      <trkpt lat="50.23846" lon="4.21465">
        <ele>162</ele>
        <time>2020-08-15T09:55:54Z</time>
      </trkpt>
      <trkpt lat="50.23847" lon="4.21487">
        <ele>160</ele>
        <time>2020-08-15T09:55:56Z</time>
      </trkpt>
      <trkpt lat="50.23848" lon="4.21509">
        <ele>166</ele>
        <time>2020-08-15T09:55:58Z</time>
      </trkpt>
      <trkpt lat="50.23851" lon="4.21532">
        <ele>167</ele>
        <time>2020-08-15T09:56:00Z</time>
      </trkpt>
      <trkpt lat="50.23854" lon="4.21553">
        <ele>167</ele>
        <time>2020-08-15T09:56:02Z</time>
      </trkpt>
      <trkpt lat="50.23857" lon="4.21574">
        <ele>167</ele>
        <time>2020-08-15T09:56:04Z</time>
      </trkpt>
      <trkpt lat="50.23861" lon="4.21594">
        <ele>167</ele>
        <time>2020-08-15T09:56:06Z</time>
      </trkpt>
      <trkpt lat="50.23864" lon="4.21614">
        <ele>166</ele>
        <time>2020-08-15T09:56:08Z</time>
      </trkpt>
      <trkpt lat="50.23866" lon="4.21634">
        <ele>167</ele>
        <time>2020-08-15T09:56:10Z</time>
      </trkpt>
      <trkpt lat="50.23866" lon="4.21654">
        <ele>165</ele>
        <time>2020-08-15T09:56:12Z</time>
      </trkpt>
      <trkpt lat="50.23866" lon="4.21674">
        <ele>165</ele>
        <time>2020-08-15T09:56:14Z</time>
      </trkpt>
      <trkpt lat="50.23865" lon="4.21694">
        <ele>167</ele>
        <time>2020-08-15T09:56:16Z</time>
      </trkpt>
      <trkpt lat="50.23862" lon="4.21713">
        <ele>166</ele>
        <time>2020-08-15T09:56:18Z</time>
      </trkpt>
      <trkpt lat="50.2386" lon="4.21732">
        <ele>166</ele>
        <time>2020-08-15T09:56:20Z</time>
      </trkpt>
      <trkpt lat="50.23858" lon="4.21752">
        <ele>166</ele>
        <time>2020-08-15T09:56:22Z</time>
      </trkpt>
      <trkpt lat="50.23856" lon="4.21772">
        <ele>163</ele>
        <time>2020-08-15T09:56:24Z</time>
      </trkpt>
      <trkpt lat="50.23856" lon="4.21792">
        <ele>164</ele>
        <time>2020-08-15T09:56:26Z</time>
      </trkpt>
      <trkpt lat="50.23854" lon="4.21813">
        <ele>164</ele>
        <time>2020-08-15T09:56:28Z</time>
      </trkpt>
      <trkpt lat="50.23853" lon="4.21832">
        <ele>163</ele>
        <time>2020-08-15T09:56:30Z</time>
      </trkpt>
      <trkpt lat="50.23852" lon="4.21852">
        <ele>163</ele>
        <time>2020-08-15T09:56:32Z</time>
      </trkpt>
      <trkpt lat="50.23851" lon="4.21872">
        <ele>163</ele>
        <time>2020-08-15T09:56:34Z</time>
      </trkpt>
      <trkpt lat="50.2385" lon="4.21893">
        <ele>163</ele>
        <time>2020-08-15T09:56:36Z</time>
      </trkpt>
      <trkpt lat="50.23848" lon="4.21911">
        <ele>163</ele>
        <time>2020-08-15T09:56:38Z</time>
      </trkpt>
      <trkpt lat="50.23847" lon="4.21931">
        <ele>158</ele>
        <time>2020-08-15T09:56:40Z</time>
      </trkpt>
      <trkpt lat="50.23845" lon="4.2195">
        <ele>158</ele>
        <time>2020-08-15T09:56:42Z</time>
      </trkpt>
      <trkpt lat="50.23841" lon="4.21968">
        <ele>160</ele>
        <time>2020-08-15T09:56:44Z</time>
      </trkpt>
      <trkpt lat="50.23835" lon="4.21986">
        <ele>160</ele>
        <time>2020-08-15T09:56:46Z</time>
      </trkpt>
      <trkpt lat="50.2383" lon="4.22003">
        <ele>161</ele>
        <time>2020-08-15T09:56:48Z</time>
      </trkpt>
      <trkpt lat="50.23825" lon="4.2202">
        <ele>162</ele>
        <time>2020-08-15T09:56:50Z</time>
      </trkpt>
      <trkpt lat="50.2382" lon="4.22036">
        <ele>162</ele>
        <time>2020-08-15T09:56:52Z</time>
      </trkpt>
      <trkpt lat="50.23815" lon="4.22054">
        <ele>162</ele>
        <time>2020-08-15T09:56:54Z</time>
      </trkpt>
      <trkpt lat="50.23812" lon="4.22072">
        <ele>163</ele>
        <time>2020-08-15T09:56:56Z</time>
      </trkpt>
      <trkpt lat="50.23809" lon="4.22088">
        <ele>163</ele>
        <time>2020-08-15T09:56:58Z</time>
      </trkpt>
      <trkpt lat="50.23807" lon="4.22104">
        <ele>165</ele>
        <time>2020-08-15T09:57:00Z</time>
      </trkpt>
      <trkpt lat="50.23804" lon="4.22122">
        <ele>165</ele>
        <time>2020-08-15T09:57:02Z</time>
      </trkpt>
      <trkpt lat="50.23801" lon="4.22138">
        <ele>167</ele>
        <time>2020-08-15T09:57:04Z</time>
      </trkpt>
      <trkpt lat="50.23798" lon="4.22156">
        <ele>168</ele>
        <time>2020-08-15T09:57:06Z</time>
      </trkpt>
      <trkpt lat="50.23794" lon="4.22174">
        <ele>168</ele>
        <time>2020-08-15T09:57:08Z</time>
      </trkpt>
      <trkpt lat="50.23789" lon="4.22192">
        <ele>167</ele>
        <time>2020-08-15T09:57:10Z</time>
      </trkpt>
      <trkpt lat="50.23782" lon="4.22208">
        <ele>167</ele>
        <time>2020-08-15T09:57:12Z</time>
      </trkpt>
      <trkpt lat="50.23776" lon="4.22223">
        <ele>167</ele>
        <time>2020-08-15T09:57:14Z</time>
      </trkpt>
      <trkpt lat="50.23772" lon="4.22238">
        <ele>171</ele>
        <time>2020-08-15T09:57:16Z</time>
      </trkpt>
      <trkpt lat="50.23768" lon="4.22252">
        <ele>171</ele>
        <time>2020-08-15T09:57:18Z</time>
      </trkpt>
      <trkpt lat="50.23763" lon="4.22267">
        <ele>169</ele>
        <time>2020-08-15T09:57:20Z</time>
      </trkpt>
      <trkpt lat="50.23759" lon="4.22281">
        <ele>169</ele>
        <time>2020-08-15T09:57:22Z</time>
      </trkpt>
      <trkpt lat="50.23755" lon="4.22297">
        <ele>170</ele>
        <time>2020-08-15T09:57:24Z</time>
      </trkpt>
      <trkpt lat="50.2375" lon="4.22314">
        <ele>170</ele>
        <time>2020-08-15T09:57:26Z</time>
      </trkpt>
      <trkpt lat="50.23743" lon="4.22331">
        <ele>171</ele>
        <time>2020-08-15T09:57:28Z</time>
      </trkpt>
      <trkpt lat="50.23735" lon="4.2235">
        <ele>166</ele>
        <time>2020-08-15T09:57:30Z</time>
      </trkpt>
      <trkpt lat="50.23726" lon="4.2237">
        <ele>166</ele>
        <time>2020-08-15T09:57:32Z</time>
      </trkpt>
      <trkpt lat="50.23716" lon="4.2239">
        <ele>166</ele>
        <time>2020-08-15T09:57:34Z</time>
      </trkpt>
      <trkpt lat="50.23706" lon="4.22408">
        <ele>164</ele>
        <time>2020-08-15T09:57:36Z</time>
      </trkpt>
      <trkpt lat="50.23698" lon="4.22426">
        <ele>164</ele>
        <time>2020-08-15T09:57:38Z</time>
      </trkpt>
      <trkpt lat="50.23694" lon="4.22445">
        <ele>166</ele>
        <time>2020-08-15T09:57:40Z</time>
      </trkpt>
      <trkpt lat="50.23691" lon="4.22462">
        <ele>166</ele>
        <time>2020-08-15T09:57:42Z</time>
      </trkpt>
      <trkpt lat="50.2369" lon="4.22478">
        <ele>166</ele>
        <time>2020-08-15T09:57:44Z</time>
      </trkpt>
      <trkpt lat="50.23689" lon="4.22491">
        <ele>168</ele>
        <time>2020-08-15T09:57:46Z</time>
      </trkpt>
      <trkpt lat="50.23687" lon="4.22502">
        <ele>168</ele>
        <time>2020-08-15T09:57:48Z</time>
      </trkpt>
      <trkpt lat="50.23686" lon="4.22512">
        <ele>168</ele>
        <time>2020-08-15T09:57:50Z</time>
      </trkpt>
      <trkpt lat="50.23684" lon="4.22521">
        <ele>169</ele>
        <time>2020-08-15T09:57:52Z</time>
      </trkpt>
      <trkpt lat="50.23681" lon="4.2253">
        <ele>169</ele>
        <time>2020-08-15T09:57:54Z</time>
      </trkpt>
      <trkpt lat="50.23679" lon="4.22541">
        <ele>164</ele>
        <time>2020-08-15T09:57:56Z</time>
      </trkpt>
      <trkpt lat="50.23677" lon="4.22551">
        <ele>166</ele>
        <time>2020-08-15T09:57:58Z</time>
      </trkpt>
      <trkpt lat="50.23675" lon="4.22561">
        <ele>166</ele>
        <time>2020-08-15T09:58:00Z</time>
      </trkpt>
      <trkpt lat="50.23673" lon="4.2257">
        <ele>167</ele>
        <time>2020-08-15T09:58:02Z</time>
      </trkpt>
      <trkpt lat="50.23671" lon="4.2258">
        <ele>167</ele>
        <time>2020-08-15T09:58:04Z</time>
      </trkpt>
      <trkpt lat="50.23669" lon="4.22589">
        <ele>167</ele>
        <time>2020-08-15T09:58:06Z</time>
      </trkpt>
      <trkpt lat="50.23666" lon="4.22599">
        <ele>169</ele>
        <time>2020-08-15T09:58:08Z</time>
      </trkpt>
      <trkpt lat="50.23665" lon="4.22608">
        <ele>169</ele>
        <time>2020-08-15T09:58:10Z</time>
      </trkpt>
      <trkpt lat="50.23663" lon="4.22616">
        <ele>169</ele>
        <time>2020-08-15T09:58:12Z</time>
      </trkpt>
      <trkpt lat="50.23661" lon="4.22624">
        <ele>169</ele>
        <time>2020-08-15T09:58:14Z</time>
      </trkpt>
      <trkpt lat="50.2366" lon="4.22633">
        <ele>171</ele>
        <time>2020-08-15T09:58:16Z</time>
      </trkpt>
      <trkpt lat="50.23659" lon="4.22641">
        <ele>171</ele>
        <time>2020-08-15T09:58:18Z</time>
      </trkpt>
      <trkpt lat="50.23658" lon="4.22649">
        <ele>171</ele>
        <time>2020-08-15T09:58:20Z</time>
      </trkpt>
      <trkpt lat="50.23657" lon="4.22657">
        <ele>174</ele>
        <time>2020-08-15T09:58:22Z</time>
      </trkpt>
      <trkpt lat="50.23656" lon="4.22666">
        <ele>174</ele>
        <time>2020-08-15T09:58:24Z</time>
      </trkpt>
      <trkpt lat="50.23655" lon="4.22674">
        <ele>174</ele>
        <time>2020-08-15T09:58:26Z</time>
      </trkpt>
      <trkpt lat="50.23655" lon="4.22682">
        <ele>177</ele>
        <time>2020-08-15T09:58:28Z</time>
      </trkpt>
      <trkpt lat="50.23657" lon="4.2269">
        <ele>177</ele>
        <time>2020-08-15T09:58:30Z</time>
      </trkpt>
      <trkpt lat="50.23658" lon="4.22697">
        <ele>177</ele>
        <time>2020-08-15T09:58:32Z</time>
      </trkpt>
      <trkpt lat="50.23661" lon="4.22703">
        <ele>177</ele>
        <time>2020-08-15T09:58:34Z</time>
      </trkpt>
      <trkpt lat="50.23664" lon="4.22708">
        <ele>177</ele>
        <time>2020-08-15T09:58:36Z</time>
      </trkpt>
      <trkpt lat="50.23668" lon="4.22712">
        <ele>181</ele>
        <time>2020-08-15T09:58:38Z</time>
      </trkpt>
      <trkpt lat="50.23673" lon="4.22714">
        <ele>181</ele>
        <time>2020-08-15T09:58:40Z</time>
      </trkpt>
      <trkpt lat="50.23677" lon="4.22715">
        <ele>181</ele>
        <time>2020-08-15T09:58:42Z</time>
      </trkpt>
      <trkpt lat="50.23681" lon="4.22716">
        <ele>185</ele>
        <time>2020-08-15T09:58:44Z</time>
      </trkpt>
      <trkpt lat="50.23685" lon="4.22717">
        <ele>185</ele>
        <time>2020-08-15T09:58:46Z</time>
      </trkpt>
      <trkpt lat="50.23687" lon="4.22717">
        <ele>185</ele>
        <time>2020-08-15T09:58:48Z</time>
      </trkpt>
      <trkpt lat="50.23691" lon="4.22719">
        <ele>185</ele>
        <time>2020-08-15T09:58:50Z</time>
      </trkpt>
      <trkpt lat="50.23696" lon="4.2272">
        <ele>185</ele>
        <time>2020-08-15T09:58:52Z</time>
      </trkpt>
      <trkpt lat="50.23699" lon="4.22721">
        <ele>185</ele>
        <time>2020-08-15T09:58:54Z</time>
      </trkpt>
      <trkpt lat="50.23702" lon="4.22722">
        <ele>185</ele>
        <time>2020-08-15T09:58:56Z</time>
      </trkpt>
      <trkpt lat="50.23707" lon="4.22725">
        <ele>185</ele>
        <time>2020-08-15T09:58:58Z</time>
      </trkpt>
      <trkpt lat="50.23711" lon="4.22728">
        <ele>186</ele>
        <time>2020-08-15T09:59:00Z</time>
      </trkpt>
      <trkpt lat="50.23715" lon="4.22731">
        <ele>186</ele>
        <time>2020-08-15T09:59:02Z</time>
      </trkpt>
      <trkpt lat="50.23719" lon="4.22734">
        <ele>186</ele>
        <time>2020-08-15T09:59:04Z</time>
      </trkpt>
      <trkpt lat="50.23723" lon="4.22738">
        <ele>188</ele>
        <time>2020-08-15T09:59:06Z</time>
      </trkpt>
      <trkpt lat="50.23728" lon="4.22742">
        <ele>188</ele>
        <time>2020-08-15T09:59:08Z</time>
      </trkpt>
      <trkpt lat="50.23734" lon="4.22747">
        <ele>188</ele>
        <time>2020-08-15T09:59:10Z</time>
      </trkpt>
      <trkpt lat="50.2374" lon="4.22753">
        <ele>189</ele>
        <time>2020-08-15T09:59:12Z</time>
      </trkpt>
      <trkpt lat="50.23746" lon="4.22758">
        <ele>189</ele>
        <time>2020-08-15T09:59:14Z</time>
      </trkpt>
      <trkpt lat="50.23752" lon="4.22763">
        <ele>189</ele>
        <time>2020-08-15T09:59:16Z</time>
      </trkpt>
      <trkpt lat="50.23757" lon="4.22767">
        <ele>195</ele>
        <time>2020-08-15T09:59:18Z</time>
      </trkpt>
      <trkpt lat="50.23763" lon="4.2277">
        <ele>195</ele>
        <time>2020-08-15T09:59:20Z</time>
      </trkpt>
      <trkpt lat="50.23771" lon="4.22775">
        <ele>193</ele>
        <time>2020-08-15T09:59:22Z</time>
      </trkpt>
      <trkpt lat="50.23777" lon="4.22779">
        <ele>193</ele>
        <time>2020-08-15T09:59:24Z</time>
      </trkpt>
      <trkpt lat="50.23783" lon="4.22782">
        <ele>193</ele>
        <time>2020-08-15T09:59:26Z</time>
      </trkpt>
      <trkpt lat="50.23788" lon="4.22787">
        <ele>193</ele>
        <time>2020-08-15T09:59:28Z</time>
      </trkpt>
      <trkpt lat="50.23793" lon="4.22791">
        <ele>194</ele>
        <time>2020-08-15T09:59:30Z</time>
      </trkpt>
      <trkpt lat="50.23798" lon="4.22796">
        <ele>197</ele>
        <time>2020-08-15T09:59:32Z</time>
      </trkpt>
      <trkpt lat="50.23804" lon="4.22801">
        <ele>197</ele>
        <time>2020-08-15T09:59:34Z</time>
      </trkpt>
      <trkpt lat="50.23809" lon="4.22806">
        <ele>197</ele>
        <time>2020-08-15T09:59:36Z</time>
      </trkpt>
      <trkpt lat="50.23815" lon="4.22811">
        <ele>197</ele>
        <time>2020-08-15T09:59:38Z</time>
      </trkpt>
      <trkpt lat="50.23819" lon="4.22815">
        <ele>197</ele>
        <time>2020-08-15T09:59:40Z</time>
      </trkpt>
      <trkpt lat="50.23824" lon="4.2282">
        <ele>199</ele>
        <time>2020-08-15T09:59:42Z</time>
      </trkpt>
      <trkpt lat="50.23827" lon="4.22825">
        <ele>199</ele>
        <time>2020-08-15T09:59:44Z</time>
      </trkpt>
      <trkpt lat="50.23831" lon="4.22828">
        <ele>199</ele>
        <time>2020-08-15T09:59:46Z</time>
      </trkpt>
      <trkpt lat="50.23834" lon="4.22831">
        <ele>199</ele>
        <time>2020-08-15T09:59:48Z</time>
      </trkpt>
      <trkpt lat="50.23838" lon="4.22834">
        <ele>199</ele>
        <time>2020-08-15T09:59:50Z</time>
      </trkpt>
      <trkpt lat="50.23842" lon="4.22838">
        <ele>199</ele>
        <time>2020-08-15T09:59:52Z</time>
      </trkpt>
      <trkpt lat="50.23846" lon="4.2284">
        <ele>199</ele>
        <time>2020-08-15T09:59:54Z</time>
      </trkpt>
      <trkpt lat="50.23849" lon="4.22842">
        <ele>200</ele>
        <time>2020-08-15T09:59:56Z</time>
      </trkpt>
      <trkpt lat="50.23853" lon="4.22848">
        <ele>203</ele>
        <time>2020-08-15T09:59:58Z</time>
      </trkpt>
      <trkpt lat="50.23856" lon="4.2285">
        <ele>203</ele>
        <time>2020-08-15T10:00:00Z</time>
      </trkpt>
      <trkpt lat="50.23859" lon="4.22854">
        <ele>203</ele>
        <time>2020-08-15T10:00:02Z</time>
      </trkpt>
      <trkpt lat="50.23863" lon="4.22859">
        <ele>203</ele>
        <time>2020-08-15T10:00:04Z</time>
      </trkpt>
      <trkpt lat="50.23866" lon="4.22862">
        <ele>203</ele>
        <time>2020-08-15T10:00:06Z</time>
      </trkpt>
      <trkpt lat="50.23869" lon="4.22866">
        <ele>203</ele>
        <time>2020-08-15T10:00:08Z</time>
      </trkpt>
      <trkpt lat="50.23872" lon="4.22869">
        <ele>203</ele>
        <time>2020-08-15T10:00:10Z</time>
      </trkpt>
      <trkpt lat="50.23876" lon="4.22872">
        <ele>204</ele>
        <time>2020-08-15T10:00:12Z</time>
      </trkpt>
      <trkpt lat="50.23882" lon="4.22876">
        <ele>207</ele>
        <time>2020-08-15T10:00:14Z</time>
      </trkpt>
      <trkpt lat="50.23886" lon="4.22879">
        <ele>207</ele>
        <time>2020-08-15T10:00:16Z</time>
      </trkpt>
      <trkpt lat="50.23888" lon="4.22882">
        <ele>207</ele>
        <time>2020-08-15T10:00:18Z</time>
      </trkpt>
      <trkpt lat="50.23892" lon="4.22886">
        <ele>207</ele>
        <time>2020-08-15T10:00:20Z</time>
      </trkpt>
      <trkpt lat="50.23895" lon="4.2289">
        <ele>207</ele>
        <time>2020-08-15T10:00:22Z</time>
      </trkpt>
      <trkpt lat="50.23896" lon="4.22894">
        <ele>207</ele>
        <time>2020-08-15T10:00:24Z</time>
      </trkpt>
      <trkpt lat="50.23899" lon="4.229">
        <ele>207</ele>
        <time>2020-08-15T10:00:26Z</time>
      </trkpt>
      <trkpt lat="50.23903" lon="4.22906">
        <ele>209</ele>
        <time>2020-08-15T10:00:28Z</time>
      </trkpt>
      <trkpt lat="50.23904" lon="4.22913">
        <ele>210</ele>
        <time>2020-08-15T10:00:30Z</time>
      </trkpt>
      <trkpt lat="50.23906" lon="4.22919">
        <ele>210</ele>
        <time>2020-08-15T10:00:32Z</time>
      </trkpt>
      <trkpt lat="50.23908" lon="4.22927">
        <ele>210</ele>
        <time>2020-08-15T10:00:34Z</time>
      </trkpt>
      <trkpt lat="50.23911" lon="4.22935">
        <ele>211</ele>
        <time>2020-08-15T10:00:36Z</time>
      </trkpt>
      <trkpt lat="50.23911" lon="4.2294">
        <ele>211</ele>
        <time>2020-08-15T10:00:38Z</time>
      </trkpt>
      <trkpt lat="50.23912" lon="4.22943">
        <ele>211</ele>
        <time>2020-08-15T10:00:40Z</time>
      </trkpt>
      <trkpt lat="50.23913" lon="4.22948">
        <ele>211</ele>
        <time>2020-08-15T10:00:42Z</time>
      </trkpt>
      <trkpt lat="50.23912" lon="4.22955">
        <ele>211</ele>
        <time>2020-08-15T10:00:44Z</time>
      </trkpt>
      <trkpt lat="50.23912" lon="4.22961">
        <ele>211</ele>
        <time>2020-08-15T10:00:46Z</time>
      </trkpt>
      <trkpt lat="50.23911" lon="4.22964">
        <ele>211</ele>
        <time>2020-08-15T10:00:48Z</time>
      </trkpt>
      <trkpt lat="50.23909" lon="4.22966">
        <ele>211</ele>
        <time>2020-08-15T10:00:50Z</time>
      </trkpt>
      <trkpt lat="50.23907" lon="4.22971">
        <ele>211</ele>
        <time>2020-08-15T10:00:52Z</time>
      </trkpt>
      <trkpt lat="50.23905" lon="4.22975">
        <ele>211</ele>
        <time>2020-08-15T10:00:54Z</time>
      </trkpt>
      <trkpt lat="50.23903" lon="4.22979">
        <ele>211</ele>
        <time>2020-08-15T10:00:56Z</time>
      </trkpt>
      <trkpt lat="50.23901" lon="4.22982">
        <ele>211</ele>
        <time>2020-08-15T10:00:58Z</time>
      </trkpt>
      <trkpt lat="50.239" lon="4.22987">
        <ele>211</ele>
        <time>2020-08-15T10:01:00Z</time>
      </trkpt>
      <trkpt lat="50.239" lon="4.22991">
        <ele>211</ele>
        <time>2020-08-15T10:01:02Z</time>
      </trkpt>
      <trkpt lat="50.239" lon="4.22997">
        <ele>211</ele>
        <time>2020-08-15T10:01:04Z</time>
      </trkpt>
      <trkpt lat="50.23902" lon="4.23003">
        <ele>211</ele>
        <time>2020-08-15T10:01:06Z</time>
      </trkpt>
      <trkpt lat="50.23902" lon="4.23009">
        <ele>211</ele>
        <time>2020-08-15T10:01:08Z</time>
      </trkpt>
      <trkpt lat="50.23904" lon="4.23015">
        <ele>208</ele>
        <time>2020-08-15T10:01:10Z</time>
      </trkpt>
      <trkpt lat="50.23907" lon="4.23022">
        <ele>208</ele>
        <time>2020-08-15T10:01:12Z</time>
      </trkpt>
      <trkpt lat="50.23908" lon="4.23031">
        <ele>208</ele>
        <time>2020-08-15T10:01:14Z</time>
      </trkpt>
      <trkpt lat="50.23912" lon="4.2304">
        <ele>208</ele>
        <time>2020-08-15T10:01:16Z</time>
      </trkpt>
      <trkpt lat="50.23918" lon="4.2305">
        <ele>207</ele>
        <time>2020-08-15T10:01:18Z</time>
      </trkpt>
      <trkpt lat="50.23921" lon="4.2306">
        <ele>207</ele>
        <time>2020-08-15T10:01:20Z</time>
      </trkpt>
      <trkpt lat="50.23925" lon="4.2307">
        <ele>203</ele>
        <time>2020-08-15T10:01:22Z</time>
      </trkpt>
      <trkpt lat="50.23929" lon="4.2308">
        <ele>203</ele>
        <time>2020-08-15T10:01:24Z</time>
      </trkpt>
      <trkpt lat="50.23935" lon="4.2309">
        <ele>206</ele>
        <time>2020-08-15T10:01:26Z</time>
      </trkpt>
      <trkpt lat="50.2394" lon="4.23101">
        <ele>204</ele>
        <time>2020-08-15T10:01:28Z</time>
      </trkpt>
      <trkpt lat="50.23945" lon="4.2311">
        <ele>204</ele>
        <time>2020-08-15T10:01:30Z</time>
      </trkpt>
      <trkpt lat="50.2395" lon="4.2312">
        <ele>204</ele>
        <time>2020-08-15T10:01:32Z</time>
      </trkpt>
      <trkpt lat="50.23955" lon="4.23132">
        <ele>199</ele>
        <time>2020-08-15T10:01:34Z</time>
      </trkpt>
      <trkpt lat="50.23963" lon="4.23142">
        <ele>204</ele>
        <time>2020-08-15T10:01:36Z</time>
      </trkpt>
      <trkpt lat="50.2397" lon="4.23154">
        <ele>203</ele>
        <time>2020-08-15T10:01:38Z</time>
      </trkpt>
      <trkpt lat="50.23977" lon="4.23168">
        <ele>203</ele>
        <time>2020-08-15T10:01:40Z</time>
      </trkpt>
      <trkpt lat="50.23983" lon="4.23181">
        <ele>198</ele>
        <time>2020-08-15T10:01:42Z</time>
      </trkpt>
      <trkpt lat="50.2399" lon="4.23192">
        <ele>204</ele>
        <time>2020-08-15T10:01:44Z</time>
      </trkpt>
      <trkpt lat="50.23994" lon="4.23206">
        <ele>204</ele>
        <time>2020-08-15T10:01:46Z</time>
      </trkpt>
      <trkpt lat="50.23999" lon="4.23218">
        <ele>201</ele>
        <time>2020-08-15T10:01:48Z</time>
      </trkpt>
      <trkpt lat="50.24002" lon="4.23228">
        <ele>201</ele>
        <time>2020-08-15T10:01:50Z</time>
      </trkpt>
      <trkpt lat="50.2401" lon="4.23242">
        <ele>199</ele>
        <time>2020-08-15T10:01:52Z</time>
      </trkpt>
      <trkpt lat="50.24015" lon="4.23255">
        <ele>205</ele>
        <time>2020-08-15T10:01:54Z</time>
      </trkpt>
      <trkpt lat="50.24023" lon="4.2327">
        <ele>203</ele>
        <time>2020-08-15T10:01:56Z</time>
      </trkpt>
      <trkpt lat="50.24028" lon="4.23288">
        <ele>203</ele>
        <time>2020-08-15T10:01:58Z</time>
      </trkpt>
      <trkpt lat="50.24032" lon="4.23302">
        <ele>203</ele>
        <time>2020-08-15T10:02:00Z</time>
      </trkpt>
      <trkpt lat="50.24034" lon="4.23319">
        <ele>203</ele>
        <time>2020-08-15T10:02:02Z</time>
      </trkpt>
      <trkpt lat="50.24035" lon="4.23337">
        <ele>204</ele>
        <time>2020-08-15T10:02:04Z</time>
      </trkpt>
      <trkpt lat="50.24036" lon="4.23355">
        <ele>202</ele>
        <time>2020-08-15T10:02:06Z</time>
      </trkpt>
      <trkpt lat="50.24036" lon="4.23373">
        <ele>202</ele>
        <time>2020-08-15T10:02:08Z</time>
      </trkpt>
      <trkpt lat="50.24037" lon="4.23393">
        <ele>204</ele>
        <time>2020-08-15T10:02:10Z</time>
      </trkpt>
      <trkpt lat="50.24039" lon="4.23413">
        <ele>199</ele>
        <time>2020-08-15T10:02:12Z</time>
      </trkpt>
      <trkpt lat="50.2404" lon="4.23433">
        <ele>200</ele>
        <time>2020-08-15T10:02:14Z</time>
      </trkpt>
      <trkpt lat="50.24042" lon="4.2345">
        <ele>206</ele>
        <time>2020-08-15T10:02:16Z</time>
      </trkpt>
      <trkpt lat="50.24044" lon="4.23469">
        <ele>203</ele>
        <time>2020-08-15T10:02:18Z</time>
      </trkpt>
      <trkpt lat="50.24046" lon="4.2349">
        <ele>204</ele>
        <time>2020-08-15T10:02:20Z</time>
      </trkpt>
      <trkpt lat="50.24049" lon="4.23511">
        <ele>204</ele>
        <time>2020-08-15T10:02:22Z</time>
      </trkpt>
      <trkpt lat="50.24052" lon="4.23532">
        <ele>202</ele>
        <time>2020-08-15T10:02:24Z</time>
      </trkpt>
      <trkpt lat="50.24056" lon="4.23551">
        <ele>202</ele>
        <time>2020-08-15T10:02:26Z</time>
      </trkpt>
      <trkpt lat="50.2406" lon="4.23567">
        <ele>202</ele>
        <time>2020-08-15T10:02:28Z</time>
      </trkpt>
      <trkpt lat="50.24062" lon="4.2358">
        <ele>201</ele>
        <time>2020-08-15T10:02:30Z</time>
      </trkpt>
      <trkpt lat="50.24064" lon="4.23584">
        <ele>201</ele>
        <time>2020-08-15T10:02:32Z</time>
      </trkpt>
      <trkpt lat="50.24066" lon="4.2359">
        <ele>201</ele>
        <time>2020-08-15T10:02:40Z</time>
      </trkpt>
      <trkpt lat="50.24064" lon="4.236">
        <ele>201</ele>
        <time>2020-08-15T10:02:42Z</time>
      </trkpt>
      <trkpt lat="50.24059" lon="4.23608">
        <ele>201</ele>
        <time>2020-08-15T10:02:44Z</time>
      </trkpt>
      <trkpt lat="50.24052" lon="4.23617">
        <ele>201</ele>
        <time>2020-08-15T10:02:46Z</time>
      </trkpt>
      <trkpt lat="50.24044" lon="4.23627">
        <ele>201</ele>
        <time>2020-08-15T10:02:48Z</time>
      </trkpt>
      <trkpt lat="50.24041" lon="4.23644">
        <ele>199</ele>
        <time>2020-08-15T10:02:50Z</time>
      </trkpt>
      <trkpt lat="50.24044" lon="4.2366">
        <ele>200</ele>
        <time>2020-08-15T10:02:52Z</time>
      </trkpt>
      <trkpt lat="50.24047" lon="4.23675">
        <ele>200</ele>
        <time>2020-08-15T10:02:54Z</time>
      </trkpt>
      <trkpt lat="50.24052" lon="4.23689">
        <ele>199</ele>
        <time>2020-08-15T10:02:56Z</time>
      </trkpt>
      <trkpt lat="50.24058" lon="4.23702">
        <ele>199</ele>
        <time>2020-08-15T10:02:58Z</time>
      </trkpt>
      <trkpt lat="50.24064" lon="4.23714">
        <ele>197</ele>
        <time>2020-08-15T10:03:00Z</time>
      </trkpt>
      <trkpt lat="50.24071" lon="4.23725">
        <ele>199</ele>
        <time>2020-08-15T10:03:02Z</time>
      </trkpt>
      <trkpt lat="50.24078" lon="4.23735">
        <ele>199</ele>
        <time>2020-08-15T10:03:04Z</time>
      </trkpt>
      <trkpt lat="50.24085" lon="4.23744">
        <ele>199</ele>
        <time>2020-08-15T10:03:06Z</time>
      </trkpt>
      <trkpt lat="50.24092" lon="4.23752">
        <ele>199</ele>
        <time>2020-08-15T10:03:08Z</time>
      </trkpt>
      <trkpt lat="50.24101" lon="4.23758">
        <ele>201</ele>
        <time>2020-08-15T10:03:10Z</time>
      </trkpt>
      <trkpt lat="50.2411" lon="4.23762">
        <ele>201</ele>
        <time>2020-08-15T10:03:12Z</time>
      </trkpt>
      <trkpt lat="50.24119" lon="4.23762">
        <ele>201</ele>
        <time>2020-08-15T10:03:14Z</time>
      </trkpt>
      <trkpt lat="50.24129" lon="4.23761">
        <ele>203</ele>
        <time>2020-08-15T10:03:16Z</time>
      </trkpt>
      <trkpt lat="50.24139" lon="4.23759">
        <ele>203</ele>
        <time>2020-08-15T10:03:18Z</time>
      </trkpt>
      <trkpt lat="50.24149" lon="4.23756">
        <ele>203</ele>
        <time>2020-08-15T10:03:20Z</time>
      </trkpt>
      <trkpt lat="50.24159" lon="4.23754">
        <ele>204</ele>
        <time>2020-08-15T10:03:22Z</time>
      </trkpt>
      <trkpt lat="50.24169" lon="4.2375">
        <ele>204</ele>
        <time>2020-08-15T10:03:24Z</time>
      </trkpt>
      <trkpt lat="50.2418" lon="4.23748">
        <ele>204</ele>
        <time>2020-08-15T10:03:26Z</time>
      </trkpt>
      <trkpt lat="50.2419" lon="4.23746">
        <ele>204</ele>
        <time>2020-08-15T10:03:28Z</time>
      </trkpt>
      <trkpt lat="50.242" lon="4.23742">
        <ele>204</ele>
        <time>2020-08-15T10:03:30Z</time>
      </trkpt>
      <trkpt lat="50.2421" lon="4.2374">
        <ele>204</ele>
        <time>2020-08-15T10:03:32Z</time>
      </trkpt>
      <trkpt lat="50.2422" lon="4.23737">
        <ele>204</ele>
        <time>2020-08-15T10:03:34Z</time>
      </trkpt>
      <trkpt lat="50.2423" lon="4.23734">
        <ele>204</ele>
        <time>2020-08-15T10:03:36Z</time>
      </trkpt>
      <trkpt lat="50.2424" lon="4.23732">
        <ele>204</ele>
        <time>2020-08-15T10:03:38Z</time>
      </trkpt>
      <trkpt lat="50.2425" lon="4.23729">
        <ele>204</ele>
        <time>2020-08-15T10:03:40Z</time>
      </trkpt>
      <trkpt lat="50.2426" lon="4.23727">
        <ele>204</ele>
        <time>2020-08-15T10:03:42Z</time>
      </trkpt>
      <trkpt lat="50.24271" lon="4.23724">
        <ele>205</ele>
        <time>2020-08-15T10:03:44Z</time>
      </trkpt>
      <trkpt lat="50.2428" lon="4.23722">
        <ele>205</ele>
        <time>2020-08-15T10:03:46Z</time>
      </trkpt>
      <trkpt lat="50.2429" lon="4.23717">
        <ele>205</ele>
        <time>2020-08-15T10:03:48Z</time>
      </trkpt>
      <trkpt lat="50.243" lon="4.23714">
        <ele>206</ele>
        <time>2020-08-15T10:03:50Z</time>
      </trkpt>
      <trkpt lat="50.2431" lon="4.23711">
        <ele>206</ele>
        <time>2020-08-15T10:03:52Z</time>
      </trkpt>
      <trkpt lat="50.2432" lon="4.23708">
        <ele>210</ele>
        <time>2020-08-15T10:03:54Z</time>
      </trkpt>
      <trkpt lat="50.24329" lon="4.23706">
        <ele>210</ele>
        <time>2020-08-15T10:03:56Z</time>
      </trkpt>
      <trkpt lat="50.24339" lon="4.23702">
        <ele>210</ele>
        <time>2020-08-15T10:03:58Z</time>
      </trkpt>
      <trkpt lat="50.2435" lon="4.23699">
        <ele>212</ele>
        <time>2020-08-15T10:04:00Z</time>
      </trkpt>
      <trkpt lat="50.2436" lon="4.23696">
        <ele>212</ele>
        <time>2020-08-15T10:04:02Z</time>
      </trkpt>
      <trkpt lat="50.24369" lon="4.23693">
        <ele>212</ele>
        <time>2020-08-15T10:04:04Z</time>
      </trkpt>
      <trkpt lat="50.24379" lon="4.23691">
        <ele>213</ele>
        <time>2020-08-15T10:04:06Z</time>
      </trkpt>
      <trkpt lat="50.24387" lon="4.23688">
        <ele>213</ele>
        <time>2020-08-15T10:04:08Z</time>
      </trkpt>
      <trkpt lat="50.24396" lon="4.23687">
        <ele>213</ele>
        <time>2020-08-15T10:04:10Z</time>
      </trkpt>
      <trkpt lat="50.24405" lon="4.23685">
        <ele>215</ele>
        <time>2020-08-15T10:04:12Z</time>
      </trkpt>
      <trkpt lat="50.24414" lon="4.23683">
        <ele>215</ele>
        <time>2020-08-15T10:04:14Z</time>
      </trkpt>
      <trkpt lat="50.24423" lon="4.2368">
        <ele>216</ele>
        <time>2020-08-15T10:04:16Z</time>
      </trkpt>
      <trkpt lat="50.24431" lon="4.23678">
        <ele>216</ele>
        <time>2020-08-15T10:04:18Z</time>
      </trkpt>
      <trkpt lat="50.24438" lon="4.23675">
        <ele>217</ele>
        <time>2020-08-15T10:04:20Z</time>
      </trkpt>
      <trkpt lat="50.24445" lon="4.23673">
        <ele>217</ele>
        <time>2020-08-15T10:04:22Z</time>
      </trkpt>
      <trkpt lat="50.24453" lon="4.23671">
        <ele>217</ele>
        <time>2020-08-15T10:04:24Z</time>
      </trkpt>
      <trkpt lat="50.2446" lon="4.23668">
        <ele>218</ele>
        <time>2020-08-15T10:04:26Z</time>
      </trkpt>
      <trkpt lat="50.24466" lon="4.23666">
        <ele>218</ele>
        <time>2020-08-15T10:04:28Z</time>
      </trkpt>
      <trkpt lat="50.24473" lon="4.23664">
        <ele>218</ele>
        <time>2020-08-15T10:04:30Z</time>
      </trkpt>
      <trkpt lat="50.2448" lon="4.23662">
        <ele>218</ele>
        <time>2020-08-15T10:04:32Z</time>
      </trkpt>
      <trkpt lat="50.24486" lon="4.23661">
        <ele>220</ele>
        <time>2020-08-15T10:04:34Z</time>
      </trkpt>
      <trkpt lat="50.24493" lon="4.23659">
        <ele>220</ele>
        <time>2020-08-15T10:04:36Z</time>
      </trkpt>
      <trkpt lat="50.245" lon="4.23657">
        <ele>220</ele>
        <time>2020-08-15T10:04:38Z</time>
      </trkpt>
      <trkpt lat="50.24506" lon="4.23655">
        <ele>220</ele>
        <time>2020-08-15T10:04:40Z</time>
      </trkpt>
      <trkpt lat="50.24513" lon="4.23653">
        <ele>220</ele>
        <time>2020-08-15T10:04:42Z</time>
      </trkpt>
      <trkpt lat="50.2452" lon="4.23652">
        <ele>222</ele>
        <time>2020-08-15T10:04:44Z</time>
      </trkpt>
      <trkpt lat="50.24526" lon="4.2365">
        <ele>222</ele>
        <time>2020-08-15T10:04:46Z</time>
      </trkpt>
      <trkpt lat="50.24534" lon="4.23649">
        <ele>222</ele>
        <time>2020-08-15T10:04:48Z</time>
      </trkpt>
      <trkpt lat="50.2454" lon="4.23646">
        <ele>222</ele>
        <time>2020-08-15T10:04:50Z</time>
      </trkpt>
      <trkpt lat="50.24547" lon="4.23645">
        <ele>223</ele>
        <time>2020-08-15T10:04:52Z</time>
      </trkpt>
      <trkpt lat="50.24555" lon="4.23642">
        <ele>223</ele>
        <time>2020-08-15T10:04:54Z</time>
      </trkpt>
      <trkpt lat="50.24562" lon="4.2364">
        <ele>223</ele>
        <time>2020-08-15T10:04:56Z</time>
      </trkpt>
      <trkpt lat="50.24569" lon="4.23637">
        <ele>223</ele>
        <time>2020-08-15T10:04:58Z</time>
      </trkpt>
      <trkpt lat="50.24577" lon="4.23635">
        <ele>223</ele>
        <time>2020-08-15T10:05:00Z</time>
      </trkpt>
      <trkpt lat="50.24585" lon="4.23633">
        <ele>223</ele>
        <time>2020-08-15T10:05:02Z</time>
      </trkpt>
      <trkpt lat="50.24592" lon="4.2363">
        <ele>223</ele>
        <time>2020-08-15T10:05:04Z</time>
      </trkpt>
      <trkpt lat="50.246" lon="4.23628">
        <ele>224</ele>
        <time>2020-08-15T10:05:06Z</time>
      </trkpt>
      <trkpt lat="50.24608" lon="4.23625">
        <ele>226</ele>
        <time>2020-08-15T10:05:08Z</time>
      </trkpt>
      <trkpt lat="50.24615" lon="4.23623">
        <ele>226</ele>
        <time>2020-08-15T10:05:10Z</time>
      </trkpt>
      <trkpt lat="50.24622" lon="4.23621">
        <ele>226</ele>
        <time>2020-08-15T10:05:12Z</time>
      </trkpt>
      <trkpt lat="50.2463" lon="4.23618">
        <ele>226</ele>
        <time>2020-08-15T10:05:14Z</time>
      </trkpt>
      <trkpt lat="50.24637" lon="4.23617">
        <ele>226</ele>
        <time>2020-08-15T10:05:16Z</time>
      </trkpt>
      <trkpt lat="50.24645" lon="4.23615">
        <ele>226</ele>
        <time>2020-08-15T10:05:18Z</time>
      </trkpt>
      <trkpt lat="50.24651" lon="4.23612">
        <ele>226</ele>
        <time>2020-08-15T10:05:20Z</time>
      </trkpt>
      <trkpt lat="50.24657" lon="4.2361">
        <ele>225</ele>
        <time>2020-08-15T10:05:22Z</time>
      </trkpt>
      <trkpt lat="50.24662" lon="4.23613">
        <ele>225</ele>
        <time>2020-08-15T10:05:24Z</time>
      </trkpt>
      <trkpt lat="50.24666" lon="4.23621">
        <ele>225</ele>
        <time>2020-08-15T10:05:26Z</time>
      </trkpt>
      <trkpt lat="50.24669" lon="4.23631">
        <ele>225</ele>
        <time>2020-08-15T10:05:28Z</time>
      </trkpt>
      <trkpt lat="50.24672" lon="4.23642">
        <ele>225</ele>
        <time>2020-08-15T10:05:30Z</time>
      </trkpt>
      <trkpt lat="50.24676" lon="4.23652">
        <ele>225</ele>
        <time>2020-08-15T10:05:32Z</time>
      </trkpt>
      <trkpt lat="50.2468" lon="4.23663">
        <ele>226</ele>
        <time>2020-08-15T10:05:34Z</time>
      </trkpt>
      <trkpt lat="50.24683" lon="4.23674">
        <ele>226</ele>
        <time>2020-08-15T10:05:36Z</time>
      </trkpt>
      <trkpt lat="50.24687" lon="4.23684">
        <ele>226</ele>
        <time>2020-08-15T10:05:38Z</time>
      </trkpt>
      <trkpt lat="50.24691" lon="4.23696">
        <ele>226</ele>
        <time>2020-08-15T10:05:40Z</time>
      </trkpt>
      <trkpt lat="50.24696" lon="4.23709">
        <ele>226</ele>
        <time>2020-08-15T10:05:42Z</time>
      </trkpt>
      <trkpt lat="50.247" lon="4.23722">
        <ele>226</ele>
        <time>2020-08-15T10:05:44Z</time>
      </trkpt>
      <trkpt lat="50.24705" lon="4.23735">
        <ele>226</ele>
        <time>2020-08-15T10:05:46Z</time>
      </trkpt>
      <trkpt lat="50.24709" lon="4.23748">
        <ele>226</ele>
        <time>2020-08-15T10:05:48Z</time>
      </trkpt>
      <trkpt lat="50.24714" lon="4.23762">
        <ele>226</ele>
        <time>2020-08-15T10:05:50Z</time>
      </trkpt>
      <trkpt lat="50.24719" lon="4.23777">
        <ele>226</ele>
        <time>2020-08-15T10:05:52Z</time>
      </trkpt>
      <trkpt lat="50.24725" lon="4.23792">
        <ele>225</ele>
        <time>2020-08-15T10:05:54Z</time>
      </trkpt>
      <trkpt lat="50.2473" lon="4.23808">
        <ele>225</ele>
        <time>2020-08-15T10:05:56Z</time>
      </trkpt>
      <trkpt lat="50.24735" lon="4.23823">
        <ele>225</ele>
        <time>2020-08-15T10:05:58Z</time>
      </trkpt>
      <trkpt lat="50.2474" lon="4.23838">
        <ele>225</ele>
        <time>2020-08-15T10:06:00Z</time>
      </trkpt>
      <trkpt lat="50.24746" lon="4.23853">
        <ele>225</ele>
        <time>2020-08-15T10:06:02Z</time>
      </trkpt>
      <trkpt lat="50.24751" lon="4.23869">
        <ele>225</ele>
        <time>2020-08-15T10:06:04Z</time>
      </trkpt>
      <trkpt lat="50.24757" lon="4.23885">
        <ele>224</ele>
        <time>2020-08-15T10:06:06Z</time>
      </trkpt>
      <trkpt lat="50.24762" lon="4.23901">
        <ele>224</ele>
        <time>2020-08-15T10:06:08Z</time>
      </trkpt>
      <trkpt lat="50.24767" lon="4.23917">
        <ele>225</ele>
        <time>2020-08-15T10:06:10Z</time>
      </trkpt>
      <trkpt lat="50.24772" lon="4.23933">
        <ele>225</ele>
        <time>2020-08-15T10:06:12Z</time>
      </trkpt>
      <trkpt lat="50.24778" lon="4.23949">
        <ele>225</ele>
        <time>2020-08-15T10:06:14Z</time>
      </trkpt>
      <trkpt lat="50.24783" lon="4.23965">
        <ele>225</ele>
        <time>2020-08-15T10:06:16Z</time>
      </trkpt>
      <trkpt lat="50.24789" lon="4.23981">
        <ele>225</ele>
        <time>2020-08-15T10:06:18Z</time>
      </trkpt>
      <trkpt lat="50.24795" lon="4.23998">
        <ele>225</ele>
        <time>2020-08-15T10:06:20Z</time>
      </trkpt>
      <trkpt lat="50.24801" lon="4.24014">
        <ele>225</ele>
        <time>2020-08-15T10:06:22Z</time>
      </trkpt>
      <trkpt lat="50.24807" lon="4.24031">
        <ele>225</ele>
        <time>2020-08-15T10:06:24Z</time>
      </trkpt>
      <trkpt lat="50.24812" lon="4.24048">
        <ele>225</ele>
        <time>2020-08-15T10:06:26Z</time>
      </trkpt>
      <trkpt lat="50.24818" lon="4.24064">
        <ele>225</ele>
        <time>2020-08-15T10:06:28Z</time>
      </trkpt>
      <trkpt lat="50.24824" lon="4.24081">
        <ele>226</ele>
        <time>2020-08-15T10:06:30Z</time>
      </trkpt>
      <trkpt lat="50.2483" lon="4.24097">
        <ele>226</ele>
        <time>2020-08-15T10:06:32Z</time>
      </trkpt>
      <trkpt lat="50.24835" lon="4.24114">
        <ele>226</ele>
        <time>2020-08-15T10:06:34Z</time>
      </trkpt>
      <trkpt lat="50.24841" lon="4.2413">
        <ele>227</ele>
        <time>2020-08-15T10:06:36Z</time>
      </trkpt>
      <trkpt lat="50.24846" lon="4.24145">
        <ele>227</ele>
        <time>2020-08-15T10:06:38Z</time>
      </trkpt>
      <trkpt lat="50.24851" lon="4.24161">
        <ele>228</ele>
        <time>2020-08-15T10:06:40Z</time>
      </trkpt>
      <trkpt lat="50.24857" lon="4.24175">
        <ele>228</ele>
        <time>2020-08-15T10:06:42Z</time>
      </trkpt>
      <trkpt lat="50.24862" lon="4.2419">
        <ele>228</ele>
        <time>2020-08-15T10:06:44Z</time>
      </trkpt>
      <trkpt lat="50.24867" lon="4.24205">
        <ele>228</ele>
        <time>2020-08-15T10:06:46Z</time>
      </trkpt>
      <trkpt lat="50.24872" lon="4.2422">
        <ele>229</ele>
        <time>2020-08-15T10:06:48Z</time>
      </trkpt>
      <trkpt lat="50.24877" lon="4.24235">
        <ele>230</ele>
        <time>2020-08-15T10:06:50Z</time>
      </trkpt>
      <trkpt lat="50.24883" lon="4.24249">
        <ele>228</ele>
        <time>2020-08-15T10:06:52Z</time>
      </trkpt>
      <trkpt lat="50.24889" lon="4.24264">
        <ele>228</ele>
        <time>2020-08-15T10:06:54Z</time>
      </trkpt>
      <trkpt lat="50.24896" lon="4.24279">
        <ele>229</ele>
        <time>2020-08-15T10:06:56Z</time>
      </trkpt>
      <trkpt lat="50.249" lon="4.24296">
        <ele>228</ele>
        <time>2020-08-15T10:06:58Z</time>
      </trkpt>
      <trkpt lat="50.24902" lon="4.24316">
        <ele>228</ele>
        <time>2020-08-15T10:07:00Z</time>
      </trkpt>
      <trkpt lat="50.24904" lon="4.24335">
        <ele>230</ele>
        <time>2020-08-15T10:07:02Z</time>
      </trkpt>
      <trkpt lat="50.24906" lon="4.24353">
        <ele>228</ele>
        <time>2020-08-15T10:07:04Z</time>
      </trkpt>
      <trkpt lat="50.2491" lon="4.24372">
        <ele>228</ele>
        <time>2020-08-15T10:07:06Z</time>
      </trkpt>
      <trkpt lat="50.24914" lon="4.2439">
        <ele>227</ele>
        <time>2020-08-15T10:07:08Z</time>
      </trkpt>
      <trkpt lat="50.24918" lon="4.24409">
        <ele>226</ele>
        <time>2020-08-15T10:07:10Z</time>
      </trkpt>
      <trkpt lat="50.24923" lon="4.24428">
        <ele>226</ele>
        <time>2020-08-15T10:07:12Z</time>
      </trkpt>
      <trkpt lat="50.24928" lon="4.24447">
        <ele>224</ele>
        <time>2020-08-15T10:07:14Z</time>
      </trkpt>
      <trkpt lat="50.24933" lon="4.24466">
        <ele>225</ele>
        <time>2020-08-15T10:07:16Z</time>
      </trkpt>
      <trkpt lat="50.24937" lon="4.24485">
        <ele>225</ele>
        <time>2020-08-15T10:07:18Z</time>
      </trkpt>
      <trkpt lat="50.24942" lon="4.24505">
        <ele>223</ele>
        <time>2020-08-15T10:07:20Z</time>
      </trkpt>
      <trkpt lat="50.24947" lon="4.24525">
        <ele>224</ele>
        <time>2020-08-15T10:07:22Z</time>
      </trkpt>
      <trkpt lat="50.24951" lon="4.24544">
        <ele>223</ele>
        <time>2020-08-15T10:07:24Z</time>
      </trkpt>
      <trkpt lat="50.24956" lon="4.24564">
        <ele>223</ele>
        <time>2020-08-15T10:07:26Z</time>
      </trkpt>
      <trkpt lat="50.24961" lon="4.24584">
        <ele>226</ele>
        <time>2020-08-15T10:07:28Z</time>
      </trkpt>
      <trkpt lat="50.24966" lon="4.24603">
        <ele>225</ele>
        <time>2020-08-15T10:07:30Z</time>
      </trkpt>
      <trkpt lat="50.24971" lon="4.24623">
        <ele>225</ele>
        <time>2020-08-15T10:07:32Z</time>
      </trkpt>
      <trkpt lat="50.24976" lon="4.24643">
        <ele>226</ele>
        <time>2020-08-15T10:07:34Z</time>
      </trkpt>
      <trkpt lat="50.2498" lon="4.24663">
        <ele>226</ele>
        <time>2020-08-15T10:07:36Z</time>
      </trkpt>
      <trkpt lat="50.24984" lon="4.24683">
        <ele>226</ele>
        <time>2020-08-15T10:07:38Z</time>
      </trkpt>
      <trkpt lat="50.24988" lon="4.24702">
        <ele>226</ele>
        <time>2020-08-15T10:07:40Z</time>
      </trkpt>
      <trkpt lat="50.24992" lon="4.24722">
        <ele>227</ele>
        <time>2020-08-15T10:07:42Z</time>
      </trkpt>
      <trkpt lat="50.24995" lon="4.24741">
        <ele>225</ele>
        <time>2020-08-15T10:07:44Z</time>
      </trkpt>
      <trkpt lat="50.25" lon="4.24761">
        <ele>225</ele>
        <time>2020-08-15T10:07:46Z</time>
      </trkpt>
      <trkpt lat="50.25004" lon="4.24782">
        <ele>224</ele>
        <time>2020-08-15T10:07:48Z</time>
      </trkpt>
      <trkpt lat="50.25008" lon="4.24803">
        <ele>223</ele>
        <time>2020-08-15T10:07:50Z</time>
      </trkpt>
      <trkpt lat="50.25012" lon="4.24824">
        <ele>222</ele>
        <time>2020-08-15T10:07:52Z</time>
      </trkpt>
      <trkpt lat="50.25016" lon="4.24845">
        <ele>223</ele>
        <time>2020-08-15T10:07:54Z</time>
      </trkpt>
      <trkpt lat="50.2502" lon="4.24865">
        <ele>223</ele>
        <time>2020-08-15T10:07:56Z</time>
      </trkpt>
      <trkpt lat="50.25024" lon="4.24885">
        <ele>224</ele>
        <time>2020-08-15T10:07:58Z</time>
      </trkpt>
      <trkpt lat="50.25028" lon="4.24905">
        <ele>224</ele>
        <time>2020-08-15T10:08:00Z</time>
      </trkpt>
      <trkpt lat="50.25032" lon="4.24924">
        <ele>224</ele>
        <time>2020-08-15T10:08:02Z</time>
      </trkpt>
      <trkpt lat="50.25036" lon="4.24943">
        <ele>225</ele>
        <time>2020-08-15T10:08:04Z</time>
      </trkpt>
      <trkpt lat="50.25039" lon="4.24961">
        <ele>225</ele>
        <time>2020-08-15T10:08:06Z</time>
      </trkpt>
      <trkpt lat="50.2504" lon="4.24979">
        <ele>225</ele>
        <time>2020-08-15T10:08:08Z</time>
      </trkpt>
      <trkpt lat="50.25036" lon="4.24993">
        <ele>226</ele>
        <time>2020-08-15T10:08:10Z</time>
      </trkpt>
      <trkpt lat="50.25027" lon="4.25004">
        <ele>226</ele>
        <time>2020-08-15T10:08:12Z</time>
      </trkpt>
      <trkpt lat="50.25018" lon="4.25015">
        <ele>226</ele>
        <time>2020-08-15T10:08:14Z</time>
      </trkpt>
      <trkpt lat="50.25008" lon="4.25025">
        <ele>225</ele>
        <time>2020-08-15T10:08:16Z</time>
      </trkpt>
      <trkpt lat="50.24996" lon="4.25037">
        <ele>225</ele>
        <time>2020-08-15T10:08:18Z</time>
      </trkpt>
      <trkpt lat="50.24986" lon="4.25048">
        <ele>224</ele>
        <time>2020-08-15T10:08:20Z</time>
      </trkpt>
      <trkpt lat="50.24974" lon="4.2506">
        <ele>224</ele>
        <time>2020-08-15T10:08:22Z</time>
      </trkpt>
      <trkpt lat="50.24963" lon="4.25071">
        <ele>225</ele>
        <time>2020-08-15T10:08:24Z</time>
      </trkpt>
      <trkpt lat="50.24953" lon="4.25081">
        <ele>226</ele>
        <time>2020-08-15T10:08:26Z</time>
      </trkpt>
      <trkpt lat="50.24943" lon="4.25091">
        <ele>226</ele>
        <time>2020-08-15T10:08:28Z</time>
      </trkpt>
      <trkpt lat="50.24933" lon="4.25101">
        <ele>227</ele>
        <time>2020-08-15T10:08:30Z</time>
      </trkpt>
      <trkpt lat="50.24922" lon="4.2511">
        <ele>228</ele>
        <time>2020-08-15T10:08:32Z</time>
      </trkpt>
      <trkpt lat="50.24912" lon="4.25118">
        <ele>228</ele>
        <time>2020-08-15T10:08:34Z</time>
      </trkpt>
      <trkpt lat="50.24902" lon="4.25126">
        <ele>225</ele>
        <time>2020-08-15T10:08:36Z</time>
      </trkpt>
      <trkpt lat="50.24893" lon="4.25135">
        <ele>225</ele>
        <time>2020-08-15T10:08:38Z</time>
      </trkpt>
      <trkpt lat="50.24885" lon="4.25147">
        <ele>225</ele>
        <time>2020-08-15T10:08:40Z</time>
      </trkpt>
      <trkpt lat="50.2488" lon="4.25161">
        <ele>225</ele>
        <time>2020-08-15T10:08:42Z</time>
      </trkpt>
      <trkpt lat="50.24876" lon="4.25176">
        <ele>225</ele>
        <time>2020-08-15T10:08:44Z</time>
      </trkpt>
      <trkpt lat="50.24872" lon="4.2519">
        <ele>223</ele>
        <time>2020-08-15T10:08:46Z</time>
      </trkpt>
      <trkpt lat="50.2487" lon="4.25203">
        <ele>223</ele>
        <time>2020-08-15T10:08:48Z</time>
      </trkpt>
      <trkpt lat="50.24864" lon="4.25208">
        <ele>223</ele>
        <time>2020-08-15T10:08:50Z</time>
      </trkpt>
      <trkpt lat="50.24857" lon="4.25204">
        <ele>223</ele>
        <time>2020-08-15T10:08:52Z</time>
      </trkpt>
      <trkpt lat="50.24849" lon="4.25197">
        <ele>223</ele>
        <time>2020-08-15T10:08:54Z</time>
      </trkpt>
      <trkpt lat="50.24843" lon="4.25192">
        <ele>222</ele>
        <time>2020-08-15T10:08:56Z</time>
      </trkpt>
      <trkpt lat="50.24837" lon="4.25187">
        <ele>222</ele>
        <time>2020-08-15T10:08:58Z</time>
      </trkpt>
      <trkpt lat="50.24833" lon="4.25181">
        <ele>222</ele>
        <time>2020-08-15T10:09:00Z</time>
      </trkpt>
      <trkpt lat="50.24828" lon="4.25175">
        <ele>222</ele>
        <time>2020-08-15T10:09:02Z</time>
      </trkpt>
      <trkpt lat="50.24825" lon="4.25172">
        <ele>222</ele>
        <time>2020-08-15T10:09:04Z</time>
      </trkpt>
      <trkpt lat="50.24822" lon="4.25169">
        <ele>222</ele>
        <time>2020-08-15T10:09:06Z</time>
      </trkpt>
      <trkpt lat="50.24819" lon="4.25165">
        <ele>220</ele>
        <time>2020-08-15T10:09:08Z</time>
      </trkpt>
      <trkpt lat="50.24814" lon="4.25159">
        <ele>220</ele>
        <time>2020-08-15T10:09:10Z</time>
      </trkpt>
      <trkpt lat="50.2481" lon="4.25154">
        <ele>220</ele>
        <time>2020-08-15T10:09:12Z</time>
      </trkpt>
      <trkpt lat="50.24805" lon="4.25149">
        <ele>221</ele>
        <time>2020-08-15T10:09:14Z</time>
      </trkpt>
      <trkpt lat="50.248" lon="4.25143">
        <ele>221</ele>
        <time>2020-08-15T10:09:16Z</time>
      </trkpt>
      <trkpt lat="50.24795" lon="4.25139">
        <ele>221</ele>
        <time>2020-08-15T10:09:18Z</time>
      </trkpt>
      <trkpt lat="50.24792" lon="4.25135">
        <ele>221</ele>
        <time>2020-08-15T10:09:20Z</time>
      </trkpt>
      <trkpt lat="50.2479" lon="4.25133">
        <ele>220</ele>
        <time>2020-08-15T10:09:28Z</time>
      </trkpt>
      <trkpt lat="50.24788" lon="4.25132">
        <ele>220</ele>
        <time>2020-08-15T10:09:30Z</time>
      </trkpt>
      <trkpt lat="50.24787" lon="4.25129">
        <ele>220</ele>
        <time>2020-08-15T10:09:34Z</time>
      </trkpt>
      <trkpt lat="50.24785" lon="4.25127">
        <ele>220</ele>
        <time>2020-08-15T10:09:36Z</time>
      </trkpt>
      <trkpt lat="50.24783" lon="4.25126">
        <ele>220</ele>
        <time>2020-08-15T10:09:38Z</time>
      </trkpt>
      <trkpt lat="50.24782" lon="4.25124">
        <ele>220</ele>
        <time>2020-08-15T10:09:40Z</time>
      </trkpt>
      <trkpt lat="50.24778" lon="4.25121">
        <ele>220</ele>
        <time>2020-08-15T10:09:42Z</time>
      </trkpt>
      <trkpt lat="50.24773" lon="4.25116">
        <ele>220</ele>
        <time>2020-08-15T10:09:44Z</time>
      </trkpt>
      <trkpt lat="50.24769" lon="4.25112">
        <ele>220</ele>
        <time>2020-08-15T10:09:46Z</time>
      </trkpt>
      <trkpt lat="50.24764" lon="4.25107">
        <ele>220</ele>
        <time>2020-08-15T10:09:48Z</time>
      </trkpt>
      <trkpt lat="50.2476" lon="4.25102">
        <ele>219</ele>
        <time>2020-08-15T10:09:50Z</time>
      </trkpt>
      <trkpt lat="50.24756" lon="4.25097">
        <ele>219</ele>
        <time>2020-08-15T10:09:52Z</time>
      </trkpt>
      <trkpt lat="50.2475" lon="4.25092">
        <ele>219</ele>
        <time>2020-08-15T10:09:54Z</time>
      </trkpt>
      <trkpt lat="50.24744" lon="4.25087">
        <ele>219</ele>
        <time>2020-08-15T10:09:56Z</time>
      </trkpt>
      <trkpt lat="50.24738" lon="4.25081">
        <ele>219</ele>
        <time>2020-08-15T10:09:58Z</time>
      </trkpt>
      <trkpt lat="50.24733" lon="4.25076">
        <ele>218</ele>
        <time>2020-08-15T10:10:00Z</time>
      </trkpt>
      <trkpt lat="50.24727" lon="4.25071">
        <ele>218</ele>
        <time>2020-08-15T10:10:02Z</time>
      </trkpt>
      <trkpt lat="50.24721" lon="4.25066">
        <ele>217</ele>
        <time>2020-08-15T10:10:04Z</time>
      </trkpt>
      <trkpt lat="50.24715" lon="4.25061">
        <ele>217</ele>
        <time>2020-08-15T10:10:06Z</time>
      </trkpt>
      <trkpt lat="50.24709" lon="4.25056">
        <ele>217</ele>
        <time>2020-08-15T10:10:08Z</time>
      </trkpt>
      <trkpt lat="50.24704" lon="4.25053">
        <ele>218</ele>
        <time>2020-08-15T10:10:10Z</time>
      </trkpt>
      <trkpt lat="50.24698" lon="4.25049">
        <ele>218</ele>
        <time>2020-08-15T10:10:12Z</time>
      </trkpt>
      <trkpt lat="50.24693" lon="4.25045">
        <ele>218</ele>
        <time>2020-08-15T10:10:14Z</time>
      </trkpt>
      <trkpt lat="50.24687" lon="4.25042">
        <ele>218</ele>
        <time>2020-08-15T10:10:16Z</time>
      </trkpt>
      <trkpt lat="50.2468" lon="4.25038">
        <ele>217</ele>
        <time>2020-08-15T10:10:18Z</time>
      </trkpt>
      <trkpt lat="50.24674" lon="4.25035">
        <ele>217</ele>
        <time>2020-08-15T10:10:20Z</time>
      </trkpt>
      <trkpt lat="50.24666" lon="4.25031">
        <ele>217</ele>
        <time>2020-08-15T10:10:22Z</time>
      </trkpt>
      <trkpt lat="50.24659" lon="4.25029">
        <ele>217</ele>
        <time>2020-08-15T10:10:24Z</time>
      </trkpt>
      <trkpt lat="50.24653" lon="4.25027">
        <ele>217</ele>
        <time>2020-08-15T10:10:26Z</time>
      </trkpt>
      <trkpt lat="50.24646" lon="4.25027">
        <ele>216</ele>
        <time>2020-08-15T10:10:28Z</time>
      </trkpt>
      <trkpt lat="50.24639" lon="4.25026">
        <ele>216</ele>
        <time>2020-08-15T10:10:30Z</time>
      </trkpt>
      <trkpt lat="50.24631" lon="4.25026">
        <ele>216</ele>
        <time>2020-08-15T10:10:32Z</time>
      </trkpt>
      <trkpt lat="50.24622" lon="4.25026">
        <ele>214</ele>
        <time>2020-08-15T10:10:34Z</time>
      </trkpt>
      <trkpt lat="50.24613" lon="4.25026">
        <ele>214</ele>
        <time>2020-08-15T10:10:36Z</time>
      </trkpt>
      <trkpt lat="50.24604" lon="4.25025">
        <ele>214</ele>
        <time>2020-08-15T10:10:38Z</time>
      </trkpt>
      <trkpt lat="50.24596" lon="4.25024">
        <ele>212</ele>
        <time>2020-08-15T10:10:40Z</time>
      </trkpt>
      <trkpt lat="50.24588" lon="4.25024">
        <ele>212</ele>
        <time>2020-08-15T10:10:42Z</time>
      </trkpt>
      <trkpt lat="50.2458" lon="4.25023">
        <ele>212</ele>
        <time>2020-08-15T10:10:44Z</time>
      </trkpt>
      <trkpt lat="50.24572" lon="4.25022">
        <ele>212</ele>
        <time>2020-08-15T10:10:46Z</time>
      </trkpt>
      <trkpt lat="50.24564" lon="4.2502">
        <ele>211</ele>
        <time>2020-08-15T10:10:48Z</time>
      </trkpt>
      <trkpt lat="50.24557" lon="4.25016">
        <ele>211</ele>
        <time>2020-08-15T10:10:50Z</time>
      </trkpt>
      <trkpt lat="50.2455" lon="4.25012">
        <ele>211</ele>
        <time>2020-08-15T10:10:52Z</time>
      </trkpt>
      <trkpt lat="50.24543" lon="4.25009">
        <ele>211</ele>
        <time>2020-08-15T10:10:54Z</time>
      </trkpt>
      <trkpt lat="50.24538" lon="4.25006">
        <ele>210</ele>
        <time>2020-08-15T10:10:56Z</time>
      </trkpt>
      <trkpt lat="50.24534" lon="4.25003">
        <ele>210</ele>
        <time>2020-08-15T10:10:58Z</time>
      </trkpt>
      <trkpt lat="50.24528" lon="4.25">
        <ele>210</ele>
        <time>2020-08-15T10:11:00Z</time>
      </trkpt>
      <trkpt lat="50.24523" lon="4.24998">
        <ele>210</ele>
        <time>2020-08-15T10:11:02Z</time>
      </trkpt>
      <trkpt lat="50.24513" lon="4.24989">
        <ele>208</ele>
        <time>2020-08-15T10:12:22Z</time>
      </trkpt>
      <trkpt lat="50.24505" lon="4.24979">
        <ele>208</ele>
        <time>2020-08-15T10:12:24Z</time>
      </trkpt>
      <trkpt lat="50.245" lon="4.24973">
        <ele>208</ele>
        <time>2020-08-15T10:12:26Z</time>
      </trkpt>
      <trkpt lat="50.24493" lon="4.24965">
        <ele>208</ele>
        <time>2020-08-15T10:12:28Z</time>
      </trkpt>
      <trkpt lat="50.24483" lon="4.24957">
        <ele>206</ele>
        <time>2020-08-15T10:12:30Z</time>
      </trkpt>
      <trkpt lat="50.24473" lon="4.24951">
        <ele>206</ele>
        <time>2020-08-15T10:12:32Z</time>
      </trkpt>
      <trkpt lat="50.24463" lon="4.24946">
        <ele>206</ele>
        <time>2020-08-15T10:12:34Z</time>
      </trkpt>
      <trkpt lat="50.24453" lon="4.24941">
        <ele>207</ele>
        <time>2020-08-15T10:12:36Z</time>
      </trkpt>
      <trkpt lat="50.24443" lon="4.24937">
        <ele>207</ele>
        <time>2020-08-15T10:12:38Z</time>
      </trkpt>
      <trkpt lat="50.24434" lon="4.24934">
        <ele>207</ele>
        <time>2020-08-15T10:12:40Z</time>
      </trkpt>
      <trkpt lat="50.24423" lon="4.24933">
        <ele>211</ele>
        <time>2020-08-15T10:12:42Z</time>
      </trkpt>
      <trkpt lat="50.24414" lon="4.24933">
        <ele>211</ele>
        <time>2020-08-15T10:12:44Z</time>
      </trkpt>
      <trkpt lat="50.24406" lon="4.24932">
        <ele>211</ele>
        <time>2020-08-15T10:12:46Z</time>
      </trkpt>
      <trkpt lat="50.24398" lon="4.24932">
        <ele>211</ele>
        <time>2020-08-15T10:12:48Z</time>
      </trkpt>
      <trkpt lat="50.2439" lon="4.24932">
        <ele>211</ele>
        <time>2020-08-15T10:12:50Z</time>
      </trkpt>
      <trkpt lat="50.24383" lon="4.24932">
        <ele>211</ele>
        <time>2020-08-15T10:12:52Z</time>
      </trkpt>
      <trkpt lat="50.24376" lon="4.24932">
        <ele>211</ele>
        <time>2020-08-15T10:12:54Z</time>
      </trkpt>
      <trkpt lat="50.24368" lon="4.24933">
        <ele>209</ele>
        <time>2020-08-15T10:12:56Z</time>
      </trkpt>
      <trkpt lat="50.2436" lon="4.24929">
        <ele>208</ele>
        <time>2020-08-15T10:12:58Z</time>
      </trkpt>
      <trkpt lat="50.24353" lon="4.24922">
        <ele>208</ele>
        <time>2020-08-15T10:13:00Z</time>
      </trkpt>
      <trkpt lat="50.24345" lon="4.24913">
        <ele>208</ele>
        <time>2020-08-15T10:13:02Z</time>
      </trkpt>
      <trkpt lat="50.24337" lon="4.24903">
        <ele>206</ele>
        <time>2020-08-15T10:13:04Z</time>
      </trkpt>
      <trkpt lat="50.24329" lon="4.24893">
        <ele>206</ele>
        <time>2020-08-15T10:13:06Z</time>
      </trkpt>
      <trkpt lat="50.24321" lon="4.24885">
        <ele>206</ele>
        <time>2020-08-15T10:13:08Z</time>
      </trkpt>
      <trkpt lat="50.24314" lon="4.24874">
        <ele>208</ele>
        <time>2020-08-15T10:13:10Z</time>
      </trkpt>
      <trkpt lat="50.24307" lon="4.24865">
        <ele>208</ele>
        <time>2020-08-15T10:13:12Z</time>
      </trkpt>
      <trkpt lat="50.24298" lon="4.24855">
        <ele>208</ele>
        <time>2020-08-15T10:13:14Z</time>
      </trkpt>
      <trkpt lat="50.2429" lon="4.24845">
        <ele>211</ele>
        <time>2020-08-15T10:13:16Z</time>
      </trkpt>
      <trkpt lat="50.24282" lon="4.24834">
        <ele>211</ele>
        <time>2020-08-15T10:13:18Z</time>
      </trkpt>
      <trkpt lat="50.24274" lon="4.24826">
        <ele>211</ele>
        <time>2020-08-15T10:13:20Z</time>
      </trkpt>
      <trkpt lat="50.24266" lon="4.24817">
        <ele>208</ele>
        <time>2020-08-15T10:13:22Z</time>
      </trkpt>
      <trkpt lat="50.24258" lon="4.24802">
        <ele>212</ele>
        <time>2020-08-15T10:13:24Z</time>
      </trkpt>
      <trkpt lat="50.2425" lon="4.24789">
        <ele>210</ele>
        <time>2020-08-15T10:13:26Z</time>
      </trkpt>
      <trkpt lat="50.24242" lon="4.24777">
        <ele>210</ele>
        <time>2020-08-15T10:13:28Z</time>
      </trkpt>
      <trkpt lat="50.24233" lon="4.24764">
        <ele>212</ele>
        <time>2020-08-15T10:13:30Z</time>
      </trkpt>
      <trkpt lat="50.24226" lon="4.24751">
        <ele>212</ele>
        <time>2020-08-15T10:13:32Z</time>
      </trkpt>
      <trkpt lat="50.24219" lon="4.24738">
        <ele>212</ele>
        <time>2020-08-15T10:13:34Z</time>
      </trkpt>
      <trkpt lat="50.24212" lon="4.24725">
        <ele>210</ele>
        <time>2020-08-15T10:13:36Z</time>
      </trkpt>
      <trkpt lat="50.24205" lon="4.24714">
        <ele>214</ele>
        <time>2020-08-15T10:13:38Z</time>
      </trkpt>
      <trkpt lat="50.24199" lon="4.24704">
        <ele>212</ele>
        <time>2020-08-15T10:13:40Z</time>
      </trkpt>
      <trkpt lat="50.24192" lon="4.24694">
        <ele>212</ele>
        <time>2020-08-15T10:13:42Z</time>
      </trkpt>
      <trkpt lat="50.24186" lon="4.24685">
        <ele>212</ele>
        <time>2020-08-15T10:13:44Z</time>
      </trkpt>
      <trkpt lat="50.24181" lon="4.24676">
        <ele>210</ele>
        <time>2020-08-15T10:13:46Z</time>
      </trkpt>
      <trkpt lat="50.24176" lon="4.24667">
        <ele>214</ele>
        <time>2020-08-15T10:13:48Z</time>
      </trkpt>
      <trkpt lat="50.24171" lon="4.24659">
        <ele>214</ele>
        <time>2020-08-15T10:13:50Z</time>
      </trkpt>
      <trkpt lat="50.24165" lon="4.2465">
        <ele>213</ele>
        <time>2020-08-15T10:13:52Z</time>
      </trkpt>
      <trkpt lat="50.24161" lon="4.24643">
        <ele>213</ele>
        <time>2020-08-15T10:13:54Z</time>
      </trkpt>
      <trkpt lat="50.24157" lon="4.24634">
        <ele>213</ele>
        <time>2020-08-15T10:13:56Z</time>
      </trkpt>
      <trkpt lat="50.24153" lon="4.24628">
        <ele>213</ele>
        <time>2020-08-15T10:13:58Z</time>
      </trkpt>
      <trkpt lat="50.24149" lon="4.24623">
        <ele>216</ele>
        <time>2020-08-15T10:14:00Z</time>
      </trkpt>
      <trkpt lat="50.24145" lon="4.24618">
        <ele>216</ele>
        <time>2020-08-15T10:14:02Z</time>
      </trkpt>
      <trkpt lat="50.24139" lon="4.24613">
        <ele>216</ele>
        <time>2020-08-15T10:14:04Z</time>
      </trkpt>
      <trkpt lat="50.24136" lon="4.24607">
        <ele>216</ele>
        <time>2020-08-15T10:14:06Z</time>
      </trkpt>
      <trkpt lat="50.24131" lon="4.24601">
        <ele>216</ele>
        <time>2020-08-15T10:14:08Z</time>
      </trkpt>
      <trkpt lat="50.24126" lon="4.24593">
        <ele>215</ele>
        <time>2020-08-15T10:14:10Z</time>
      </trkpt>
      <trkpt lat="50.24122" lon="4.24586">
        <ele>217</ele>
        <time>2020-08-15T10:14:12Z</time>
      </trkpt>
      <trkpt lat="50.24117" lon="4.2458">
        <ele>217</ele>
        <time>2020-08-15T10:14:14Z</time>
      </trkpt>
      <trkpt lat="50.24111" lon="4.24574">
        <ele>217</ele>
        <time>2020-08-15T10:14:16Z</time>
      </trkpt>
      <trkpt lat="50.24107" lon="4.24567">
        <ele>217</ele>
        <time>2020-08-15T10:14:18Z</time>
      </trkpt>
      <trkpt lat="50.24102" lon="4.24557">
        <ele>217</ele>
        <time>2020-08-15T10:14:20Z</time>
      </trkpt>
      <trkpt lat="50.24096" lon="4.24549">
        <ele>217</ele>
        <time>2020-08-15T10:14:22Z</time>
      </trkpt>
      <trkpt lat="50.24091" lon="4.2454">
        <ele>218</ele>
        <time>2020-08-15T10:14:24Z</time>
      </trkpt>
      <trkpt lat="50.24086" lon="4.24532">
        <ele>218</ele>
        <time>2020-08-15T10:14:26Z</time>
      </trkpt>
      <trkpt lat="50.24081" lon="4.24525">
        <ele>218</ele>
        <time>2020-08-15T10:14:28Z</time>
      </trkpt>
      <trkpt lat="50.24076" lon="4.24517">
        <ele>218</ele>
        <time>2020-08-15T10:14:30Z</time>
      </trkpt>
      <trkpt lat="50.24072" lon="4.2451">
        <ele>219</ele>
        <time>2020-08-15T10:14:32Z</time>
      </trkpt>
      <trkpt lat="50.24067" lon="4.24503">
        <ele>218</ele>
        <time>2020-08-15T10:14:34Z</time>
      </trkpt>
      <trkpt lat="50.24062" lon="4.24495">
        <ele>218</ele>
        <time>2020-08-15T10:14:36Z</time>
      </trkpt>
    </trkseg>
  </trk>
</gpx>